<?xml version='1.0' encoding='UTF-8'?><gpx version="1.1" creator="JPX - https://github.com/jenetics/jpx" xmlns="http://www.topografix.com/GPX/1/1"><trk><trkseg><trkpt lat="45.94433666091455" lon="12.26391370148651"><ele>125.0</ele><time>2026-04-15T03:10:11.999Z</time></trkpt><trkpt lat="45.94440488605314" lon="12.26376331120275"><ele>125.0</ele><time>2026-04-15T03:10:12.999Z</time></trkpt><trkpt lat="45.94447493726861" lon="12.26361770285137"><ele>125.0</ele><time>2026-04-15T03:10:13.999Z</time></trkpt><trkpt lat="45.94454215059984" lon="12.263471207928136"><ele>125.0</ele><time>2026-04-15T03:10:14.999Z</time></trkpt><trkpt lat="45.944607156110166" lon="12.263325044726527"><ele>125.0</ele><time>2026-04-15T03:10:15.999Z</time></trkpt><trkpt lat="45.94466968507869" lon="12.263183951814396"><ele>125.0</ele><time>2026-04-15T03:10:16.999Z</time></trkpt><trkpt lat="45.94472679222735" lon="12.263042455433077"><ele>125.0</ele><time>2026-04-15T03:10:17.999Z</time></trkpt><trkpt lat="45.94477242823083" lon="12.262904706230364"><ele>125.0</ele><time>2026-04-15T03:10:18.999Z</time></trkpt><trkpt lat="45.94480927422895" lon="12.262769006753928"><ele>125.0</ele><time>2026-04-15T03:10:19.999Z</time></trkpt><trkpt lat="45.944831917954424" lon="12.262628790341099"><ele>127.0</ele><time>2026-04-15T03:10:20.999Z</time></trkpt><trkpt lat="45.944842638917386" lon="12.262494247521074"><ele>129.0</ele><time>2026-04-15T03:10:21.999Z</time></trkpt><trkpt lat="45.94485466030545" lon="12.262342095719498"><ele>131.0</ele><time>2026-04-15T03:10:22.999Z</time></trkpt><trkpt lat="45.94485964800725" lon="12.262199462302073"><ele>133.0</ele><time>2026-04-15T03:10:23.999Z</time></trkpt><trkpt lat="45.9448661888525" lon="12.262060242692826"><ele>135.0</ele><time>2026-04-15T03:10:24.999Z</time></trkpt><trkpt lat="45.944866095465635" lon="12.261923895301024"><ele>136.4</ele><time>2026-04-15T03:10:25.999Z</time></trkpt><trkpt lat="45.94486651716163" lon="12.26178983311064"><ele>137.8</ele><time>2026-04-15T03:10:26.999Z</time></trkpt><trkpt lat="45.94486960276321" lon="12.261657204258315"><ele>139.2</ele><time>2026-04-15T03:10:27.999Z</time></trkpt><trkpt lat="45.944875714987255" lon="12.26152066121605"><ele>140.6</ele><time>2026-04-15T03:10:28.999Z</time></trkpt><trkpt lat="45.94487907603009" lon="12.261382971281597"><ele>142.0</ele><time>2026-04-15T03:10:29.999Z</time></trkpt><trkpt lat="45.94488416489094" lon="12.261239764705637"><ele>143.0</ele><time>2026-04-15T03:10:30.999Z</time></trkpt><trkpt lat="45.94489454493201" lon="12.261095634492351"><ele>144.0</ele><time>2026-04-15T03:10:31.999Z</time></trkpt><trkpt lat="45.94490855765023" lon="12.260966820125397"><ele>145.0</ele><time>2026-04-15T03:10:32.999Z</time></trkpt><trkpt lat="45.944929298968326" lon="12.260834292098936"><ele>146.0</ele><time>2026-04-15T03:10:33.999Z</time></trkpt><trkpt lat="45.94496140975094" lon="12.260680188712268"><ele>147.0</ele><time>2026-04-15T03:10:34.999Z</time></trkpt><trkpt lat="45.945000531251104" lon="12.26051407520057"><ele>149.25</ele><time>2026-04-15T03:10:35.999Z</time></trkpt><trkpt lat="45.945066457390816" lon="12.260342898450752"><ele>151.5</ele><time>2026-04-15T03:10:36.999Z</time></trkpt><trkpt lat="45.945152037046384" lon="12.260177926403045"><ele>153.75</ele><time>2026-04-15T03:10:37.999Z</time></trkpt><trkpt lat="45.945252038735205" lon="12.260017967054544"><ele>156.0</ele><time>2026-04-15T03:10:38.999Z</time></trkpt><trkpt lat="45.94535895379035" lon="12.259878877190273"><ele>157.0</ele><time>2026-04-15T03:10:39.999Z</time></trkpt><trkpt lat="45.94546021092708" lon="12.259761277181516"><ele>158.0</ele><time>2026-04-15T03:10:40.999Z</time></trkpt><trkpt lat="45.94556596236935" lon="12.25965105057875"><ele>159.0</ele><time>2026-04-15T03:10:41.999Z</time></trkpt><trkpt lat="45.94567230577694" lon="12.259528960176807"><ele>160.0</ele><time>2026-04-15T03:10:42.999Z</time></trkpt><trkpt lat="45.94576385671303" lon="12.259390929585766"><ele>160.0</ele><time>2026-04-15T03:10:43.999Z</time></trkpt><trkpt lat="45.9458377455846" lon="12.259242682903205"><ele>160.0</ele><time>2026-04-15T03:10:44.999Z</time></trkpt><trkpt lat="45.9458994955867" lon="12.259077439212232"><ele>160.0</ele><time>2026-04-15T03:10:45.999Z</time></trkpt><trkpt lat="45.94594841645394" lon="12.258898338946002"><ele>160.0</ele><time>2026-04-15T03:10:46.999Z</time></trkpt><trkpt lat="45.94597929058049" lon="12.25870136303903"><ele>160.25</ele><time>2026-04-15T03:10:47.999Z</time></trkpt><trkpt lat="45.94598772924684" lon="12.258506910521538"><ele>160.5</ele><time>2026-04-15T03:10:48.999Z</time></trkpt><trkpt lat="45.94597519240649" lon="12.258324096722943"><ele>160.75</ele><time>2026-04-15T03:10:49.999Z</time></trkpt><trkpt lat="45.94594871958725" lon="12.258147297621464"><ele>161.0</ele><time>2026-04-15T03:10:50.999Z</time></trkpt><trkpt lat="45.94589914041617" lon="12.257963615939719"><ele>159.75</ele><time>2026-04-15T03:10:51.999Z</time></trkpt><trkpt lat="45.94585453730202" lon="12.25777550348618"><ele>158.5</ele><time>2026-04-15T03:10:52.999Z</time></trkpt><trkpt lat="45.94581426819457" lon="12.257581405644132"><ele>157.25</ele><time>2026-04-15T03:10:53.999Z</time></trkpt><trkpt lat="45.945768480761025" lon="12.257377818136247"><ele>156.0</ele><time>2026-04-15T03:10:54.999Z</time></trkpt><trkpt lat="45.94573320073108" lon="12.257163609797644"><ele>154.33333333333334</ele><time>2026-04-15T03:10:55.999Z</time></trkpt><trkpt lat="45.94568707348505" lon="12.256948066029087"><ele>152.66666666666669</ele><time>2026-04-15T03:10:56.999Z</time></trkpt><trkpt lat="45.94563836630334" lon="12.25672242340714"><ele>151.0</ele><time>2026-04-15T03:10:57.999Z</time></trkpt><trkpt lat="45.945586618884256" lon="12.256494677625096"><ele>150.66666666666669</ele><time>2026-04-15T03:10:58.999Z</time></trkpt><trkpt lat="45.94553631715607" lon="12.256258034515923"><ele>150.33333333333334</ele><time>2026-04-15T03:10:59.999Z</time></trkpt><trkpt lat="45.945481661006994" lon="12.256014873885768"><ele>150.0</ele><time>2026-04-15T03:11:00.999Z</time></trkpt><trkpt lat="45.94542658855086" lon="12.255767492097249"><ele>149.66666666666666</ele><time>2026-04-15T03:11:01.999Z</time></trkpt><trkpt lat="45.94537036599581" lon="12.25551807353757"><ele>149.33333333333331</ele><time>2026-04-15T03:11:02.999Z</time></trkpt><trkpt lat="45.94531843583932" lon="12.255265191140545"><ele>149.0</ele><time>2026-04-15T03:11:03.999Z</time></trkpt><trkpt lat="45.945261796112284" lon="12.255016129949079"><ele>148.0</ele><time>2026-04-15T03:11:04.999Z</time></trkpt><trkpt lat="45.945210772924284" lon="12.254776440211701"><ele>147.0</ele><time>2026-04-15T03:11:05.999Z</time></trkpt><trkpt lat="45.94515566803189" lon="12.254549836318725"><ele>146.0</ele><time>2026-04-15T03:11:06.999Z</time></trkpt><trkpt lat="45.94509703145775" lon="12.254331250038327"><ele>145.66666666666666</ele><time>2026-04-15T03:11:08Z</time></trkpt><trkpt lat="45.9450291060259" lon="12.254120360538979"><ele>145.33333333333334</ele><time>2026-04-15T03:11:09Z</time></trkpt><trkpt lat="45.94494784500688" lon="12.253922039165937"><ele>145.0</ele><time>2026-04-15T03:11:10Z</time></trkpt><trkpt lat="45.9448540723056" lon="12.25374856031793"><ele>145.0</ele><time>2026-04-15T03:11:11Z</time></trkpt><trkpt lat="45.94475348705321" lon="12.253591813916993"><ele>145.0</ele><time>2026-04-15T03:11:12Z</time></trkpt><trkpt lat="45.944650940417134" lon="12.253441395767402"><ele>145.0</ele><time>2026-04-15T03:11:13Z</time></trkpt><trkpt lat="45.94452992800282" lon="12.253308710236476"><ele>145.0</ele><time>2026-04-15T03:11:14Z</time></trkpt><trkpt lat="45.94439614245595" lon="12.253183380116873"><ele>144.0</ele><time>2026-04-15T03:11:15Z</time></trkpt><trkpt lat="45.94425930738847" lon="12.253056320653853"><ele>143.0</ele><time>2026-04-15T03:11:16Z</time></trkpt><trkpt lat="45.94411852248444" lon="12.2529280954187"><ele>142.0</ele><time>2026-04-15T03:11:17Z</time></trkpt><trkpt lat="45.94398411051811" lon="12.252800870815673"><ele>142.0</ele><time>2026-04-15T03:11:18Z</time></trkpt><trkpt lat="45.94385377772531" lon="12.252669754129132"><ele>142.0</ele><time>2026-04-15T03:11:19Z</time></trkpt><trkpt lat="45.94373079749926" lon="12.252538737162187"><ele>142.0</ele><time>2026-04-15T03:11:20Z</time></trkpt><trkpt lat="45.94361555483933" lon="12.252392955575008"><ele>143.33333333333334</ele><time>2026-04-15T03:11:21Z</time></trkpt><trkpt lat="45.94351997531651" lon="12.252230017337508"><ele>144.66666666666666</ele><time>2026-04-15T03:11:22Z</time></trkpt><trkpt lat="45.94344263581462" lon="12.25204299410921"><ele>146.0</ele><time>2026-04-15T03:11:23Z</time></trkpt><trkpt lat="45.943385203943485" lon="12.251834664017982"><ele>143.0</ele><time>2026-04-15T03:11:24Z</time></trkpt><trkpt lat="45.94334482763945" lon="12.25160400379861"><ele>140.0</ele><time>2026-04-15T03:11:25Z</time></trkpt><trkpt lat="45.943318605843366" lon="12.251364291284265"><ele>137.0</ele><time>2026-04-15T03:11:26Z</time></trkpt><trkpt lat="45.94329229482818" lon="12.251112377958592"><ele>137.0</ele><time>2026-04-15T03:11:27Z</time></trkpt><trkpt lat="45.94327279590752" lon="12.250853692170027"><ele>137.0</ele><time>2026-04-15T03:11:28Z</time></trkpt><trkpt lat="45.943257483860805" lon="12.250585603642442"><ele>137.0</ele><time>2026-04-15T03:11:29Z</time></trkpt><trkpt lat="45.94324424195829" lon="12.250308375868952"><ele>136.0</ele><time>2026-04-15T03:11:29.999Z</time></trkpt><trkpt lat="45.943232313452945" lon="12.250025127465536"><ele>135.0</ele><time>2026-04-15T03:11:30.999Z</time></trkpt><trkpt lat="45.94322068691201" lon="12.249735481322533"><ele>134.0</ele><time>2026-04-15T03:11:31.999Z</time></trkpt><trkpt lat="45.943210912335765" lon="12.249437197468973"><ele>133.33333333333331</ele><time>2026-04-15T03:11:32.999Z</time></trkpt><trkpt lat="45.943203619915316" lon="12.2491433925914"><ele>132.66666666666666</ele><time>2026-04-15T03:11:33.999Z</time></trkpt><trkpt lat="45.94319372024124" lon="12.248859473390937"><ele>132.0</ele><time>2026-04-15T03:11:34.999Z</time></trkpt><trkpt lat="45.94319016496942" lon="12.248583019661602"><ele>131.33333333333334</ele><time>2026-04-15T03:11:35.999Z</time></trkpt><trkpt lat="45.9431849666964" lon="12.24831465295008"><ele>130.66666666666669</ele><time>2026-04-15T03:11:36.999Z</time></trkpt><trkpt lat="45.94317829073143" lon="12.248050796404906"><ele>130.0</ele><time>2026-04-15T03:11:37.999Z</time></trkpt><trkpt lat="45.94316919055913" lon="12.247790606556666"><ele>129.66666666666669</ele><time>2026-04-15T03:11:38.999Z</time></trkpt><trkpt lat="45.943152898302266" lon="12.247542337954242"><ele>129.33333333333334</ele><time>2026-04-15T03:11:39.999Z</time></trkpt><trkpt lat="45.94312232094327" lon="12.247298326961795"><ele>129.0</ele><time>2026-04-15T03:11:40.999Z</time></trkpt><trkpt lat="45.94307148142755" lon="12.247068102317419"><ele>129.66666666666666</ele><time>2026-04-15T03:11:41.999Z</time></trkpt><trkpt lat="45.94299963848236" lon="12.246842297241358"><ele>130.33333333333331</ele><time>2026-04-15T03:11:42.999Z</time></trkpt><trkpt lat="45.94291353464665" lon="12.246620211122845"><ele>131.0</ele><time>2026-04-15T03:11:43.999Z</time></trkpt><trkpt lat="45.94281964976741" lon="12.24640028247568"><ele>131.0</ele><time>2026-04-15T03:11:44.999Z</time></trkpt><trkpt lat="45.942724632205056" lon="12.246174978267922"><ele>131.0</ele><time>2026-04-15T03:11:45.999Z</time></trkpt><trkpt lat="45.942626398227176" lon="12.245944312080516"><ele>131.0</ele><time>2026-04-15T03:11:46.999Z</time></trkpt><trkpt lat="45.942527170147024" lon="12.245708029812741"><ele>130.66666666666666</ele><time>2026-04-15T03:11:47.999Z</time></trkpt><trkpt lat="45.94242557730604" lon="12.245468530497808"><ele>130.33333333333334</ele><time>2026-04-15T03:11:48.999Z</time></trkpt><trkpt lat="45.94232277492145" lon="12.2452277695287"><ele>130.0</ele><time>2026-04-15T03:11:49.999Z</time></trkpt><trkpt lat="45.942222810427815" lon="12.244990485847085"><ele>130.0</ele><time>2026-04-15T03:11:50.999Z</time></trkpt><trkpt lat="45.94212474540572" lon="12.24475623742179"><ele>130.0</ele><time>2026-04-15T03:11:51.999Z</time></trkpt><trkpt lat="45.94202696789053" lon="12.244528300742665"><ele>130.0</ele><time>2026-04-15T03:11:52.999Z</time></trkpt><trkpt lat="45.94192998943465" lon="12.244305635433342"><ele>130.0</ele><time>2026-04-15T03:11:53.999Z</time></trkpt><trkpt lat="45.941839861335055" lon="12.244095086963828"><ele>130.0</ele><time>2026-04-15T03:11:54.999Z</time></trkpt><trkpt lat="45.94176117348417" lon="12.243915879268215"><ele>130.0</ele><time>2026-04-15T03:11:55.999Z</time></trkpt><trkpt lat="45.94169793418229" lon="12.24375550315865"><ele>130.0</ele><time>2026-04-15T03:11:56.999Z</time></trkpt><trkpt lat="45.94163869389765" lon="12.243609101258428"><ele>129.2</ele><time>2026-04-15T03:11:57.999Z</time></trkpt><trkpt lat="45.941581516986965" lon="12.243467418838717"><ele>128.4</ele><time>2026-04-15T03:11:58.999Z</time></trkpt><trkpt lat="45.94152667470496" lon="12.243330709965598"><ele>127.6</ele><time>2026-04-15T03:11:59.999Z</time></trkpt><trkpt lat="45.94147359683928" lon="12.243200011927518"><ele>126.8</ele><time>2026-04-15T03:12:00.999Z</time></trkpt><trkpt lat="45.94143022400205" lon="12.24307538004258"><ele>126.0</ele><time>2026-04-15T03:12:01.999Z</time></trkpt><trkpt lat="45.94140603495399" lon="12.24295534643686"><ele>126.0</ele><time>2026-04-15T03:12:02.999Z</time></trkpt><trkpt lat="45.94140365103172" lon="12.242841556042524"><ele>126.0</ele><time>2026-04-15T03:12:03.999Z</time></trkpt><trkpt lat="45.94140932437419" lon="12.242729988253773"><ele>126.0</ele><time>2026-04-15T03:12:04.999Z</time></trkpt><trkpt lat="45.94140515718238" lon="12.242623755869644"><ele>126.0</ele><time>2026-04-15T03:12:05.999Z</time></trkpt><trkpt lat="45.941373939808265" lon="12.242529399288925"><ele>126.0</ele><time>2026-04-15T03:12:06.999Z</time></trkpt><trkpt lat="45.9413384012222" lon="12.242445181442344"><ele>126.0</ele><time>2026-04-15T03:12:07.999Z</time></trkpt><trkpt lat="45.941262449519044" lon="12.242382676447267"><ele>126.19999999999999</ele><time>2026-04-15T03:12:08.999Z</time></trkpt><trkpt lat="45.941209257511694" lon="12.242292507249573"><ele>126.39999999999999</ele><time>2026-04-15T03:12:09.999Z</time></trkpt><trkpt lat="45.94117675710428" lon="12.242174876317257"><ele>126.6</ele><time>2026-04-15T03:12:10.999Z</time></trkpt><trkpt lat="45.94114984218925" lon="12.242043377636818"><ele>126.8</ele><time>2026-04-15T03:12:11.999Z</time></trkpt><trkpt lat="45.94112757432798" lon="12.241902316381488"><ele>127.0</ele><time>2026-04-15T03:12:12.999Z</time></trkpt><trkpt lat="45.941105486389695" lon="12.241756244024739"><ele>127.0</ele><time>2026-04-15T03:12:13.999Z</time></trkpt><trkpt lat="45.94108380601708" lon="12.241615475613745"><ele>126.99999999999999</ele><time>2026-04-15T03:12:14.999Z</time></trkpt><trkpt lat="45.94105916677747" lon="12.24146978404036"><ele>126.99999999999999</ele><time>2026-04-15T03:12:15.999Z</time></trkpt><trkpt lat="45.94103021736003" lon="12.241313445895972"><ele>127.0</ele><time>2026-04-15T03:12:16.999Z</time></trkpt><trkpt lat="45.940991235950875" lon="12.24114907543664"><ele>127.0</ele><time>2026-04-15T03:12:17.999Z</time></trkpt><trkpt lat="45.940940564820565" lon="12.24098028930845"><ele>127.0</ele><time>2026-04-15T03:12:18.999Z</time></trkpt><trkpt lat="45.940878008119626" lon="12.240808622198927"><ele>127.0</ele><time>2026-04-15T03:12:19.999Z</time></trkpt><trkpt lat="45.94080501726703" lon="12.240638600177277"><ele>127.0</ele><time>2026-04-15T03:12:20.999Z</time></trkpt><trkpt lat="45.94072591544362" lon="12.240470480105165"><ele>127.0</ele><time>2026-04-15T03:12:21.999Z</time></trkpt><trkpt lat="45.94064644915963" lon="12.240304960228494"><ele>127.5</ele><time>2026-04-15T03:12:22.999Z</time></trkpt><trkpt lat="45.94057349034364" lon="12.240140183821119"><ele>128.0</ele><time>2026-04-15T03:12:23.999Z</time></trkpt><trkpt lat="45.940507823572744" lon="12.23996659575167"><ele>128.5</ele><time>2026-04-15T03:12:24.999Z</time></trkpt><trkpt lat="45.9404554022802" lon="12.239786025521516"><ele>129.0</ele><time>2026-04-15T03:12:25.999Z</time></trkpt><trkpt lat="45.94042185886064" lon="12.239595900461662"><ele>130.25</ele><time>2026-04-15T03:12:26.999Z</time></trkpt><trkpt lat="45.94041027748248" lon="12.239400107529367"><ele>131.5</ele><time>2026-04-15T03:12:27.999Z</time></trkpt><trkpt lat="45.940416432226804" lon="12.239202736436775"><ele>132.75</ele><time>2026-04-15T03:12:28.999Z</time></trkpt><trkpt lat="45.94043766192724" lon="12.23900470742335"><ele>134.0</ele><time>2026-04-15T03:12:29.999Z</time></trkpt><trkpt lat="45.940460914100235" lon="12.23880654324431"><ele>134.0</ele><time>2026-04-15T03:12:30.999Z</time></trkpt><trkpt lat="45.94048333253945" lon="12.238603326007528"><ele>134.0</ele><time>2026-04-15T03:12:31.999Z</time></trkpt><trkpt lat="45.94048531428696" lon="12.23839523084841"><ele>134.0</ele><time>2026-04-15T03:12:32.999Z</time></trkpt><trkpt lat="45.940468302834915" lon="12.238183883737786"><ele>134.0</ele><time>2026-04-15T03:12:33.999Z</time></trkpt><trkpt lat="45.940432095707145" lon="12.237971657198457"><ele>133.66666666666666</ele><time>2026-04-15T03:12:34.999Z</time></trkpt><trkpt lat="45.94038024828744" lon="12.237759875401185"><ele>133.33333333333334</ele><time>2026-04-15T03:12:35.999Z</time></trkpt><trkpt lat="45.94031464264595" lon="12.2375522644734"><ele>133.0</ele><time>2026-04-15T03:12:36.999Z</time></trkpt><trkpt lat="45.940249553930606" lon="12.237342585909747"><ele>133.0</ele><time>2026-04-15T03:12:37.999Z</time></trkpt><trkpt lat="45.9401872451092" lon="12.237133357767192"><ele>133.0</ele><time>2026-04-15T03:12:38.999Z</time></trkpt><trkpt lat="45.940134356314196" lon="12.236937295000509"><ele>133.0</ele><time>2026-04-15T03:12:39.999Z</time></trkpt><trkpt lat="45.94009558912553" lon="12.236739972826124"><ele>133.0</ele><time>2026-04-15T03:12:40.999Z</time></trkpt><trkpt lat="45.940068418546815" lon="12.236543606884311"><ele>132.75</ele><time>2026-04-15T03:12:41.999Z</time></trkpt><trkpt lat="45.94005676280296" lon="12.236342721383014"><ele>132.5</ele><time>2026-04-15T03:12:42.999Z</time></trkpt><trkpt lat="45.94004731889855" lon="12.236143357586633"><ele>132.25</ele><time>2026-04-15T03:12:43.999Z</time></trkpt><trkpt lat="45.940038630012076" lon="12.235953718342389"><ele>132.0</ele><time>2026-04-15T03:12:44.999Z</time></trkpt><trkpt lat="45.94003949112941" lon="12.2357726931952"><ele>135.0</ele><time>2026-04-15T03:12:45.999Z</time></trkpt><trkpt lat="45.94004224890926" lon="12.235595648282272"><ele>138.0</ele><time>2026-04-15T03:12:46.999Z</time></trkpt><trkpt lat="45.94004066534183" lon="12.235421908035562"><ele>141.0</ele><time>2026-04-15T03:12:47.999Z</time></trkpt><trkpt lat="45.94002739341371" lon="12.235255928822987"><ele>144.0</ele><time>2026-04-15T03:12:48.999Z</time></trkpt><trkpt lat="45.94000987832679" lon="12.235099909730696"><ele>144.0</ele><time>2026-04-15T03:12:49.999Z</time></trkpt><trkpt lat="45.93998360084033" lon="12.234948514750561"><ele>144.0</ele><time>2026-04-15T03:12:50.999Z</time></trkpt><trkpt lat="45.939941701414575" lon="12.23479725404211"><ele>144.0</ele><time>2026-04-15T03:12:51.999Z</time></trkpt><trkpt lat="45.93988556141229" lon="12.23464579408922"><ele>144.0</ele><time>2026-04-15T03:12:52.999Z</time></trkpt><trkpt lat="45.93981991255724" lon="12.234492951779016"><ele>144.0</ele><time>2026-04-15T03:12:53.999Z</time></trkpt><trkpt lat="45.939749552555234" lon="12.234339097917081"><ele>144.0</ele><time>2026-04-15T03:12:54.999Z</time></trkpt><trkpt lat="45.93967752239745" lon="12.234184866801241"><ele>144.0</ele><time>2026-04-15T03:12:55.999Z</time></trkpt><trkpt lat="45.93960788697608" lon="12.23403017915984"><ele>144.0</ele><time>2026-04-15T03:12:56.999Z</time></trkpt><trkpt lat="45.939542277269354" lon="12.233882317135645"><ele>144.0</ele><time>2026-04-15T03:12:57.999Z</time></trkpt><trkpt lat="45.93948066822258" lon="12.233741418208645"><ele>144.0</ele><time>2026-04-15T03:12:58.999Z</time></trkpt><trkpt lat="45.93942162698393" lon="12.233612134097742"><ele>144.0</ele><time>2026-04-15T03:12:59.999Z</time></trkpt><trkpt lat="45.93936347535292" lon="12.233494068176341"><ele>144.0</ele><time>2026-04-15T03:13:00.999Z</time></trkpt><trkpt lat="45.93929474358299" lon="12.233395382797138"><ele>144.0</ele><time>2026-04-15T03:13:01.999Z</time></trkpt><trkpt lat="45.93921515929934" lon="12.233335308071101"><ele>145.8</ele><time>2026-04-15T03:13:02.999Z</time></trkpt><trkpt lat="45.9391268565027" lon="12.233287346001598"><ele>147.60000000000002</ele><time>2026-04-15T03:13:03.999Z</time></trkpt><trkpt lat="45.93903242555611" lon="12.233307992910941"><ele>149.4</ele><time>2026-04-15T03:13:04.999Z</time></trkpt><trkpt lat="45.938940819698736" lon="12.233405377742676"><ele>151.20000000000002</ele><time>2026-04-15T03:13:05.999Z</time></trkpt><trkpt lat="45.938893857070845" lon="12.233546863102463"><ele>153.0</ele><time>2026-04-15T03:13:06.999Z</time></trkpt><trkpt lat="45.93889385625669" lon="12.233706913649424"><ele>153.0</ele><time>2026-04-15T03:13:07.999Z</time></trkpt><trkpt lat="45.93893756805675" lon="12.233836315454662"><ele>153.0</ele><time>2026-04-15T03:13:08.999Z</time></trkpt><trkpt lat="45.93897068723453" lon="12.233953716762764"><ele>153.0</ele><time>2026-04-15T03:13:09.999Z</time></trkpt><trkpt lat="45.93901193416676" lon="12.234085757965117"><ele>153.0</ele><time>2026-04-15T03:13:10.999Z</time></trkpt><trkpt lat="45.93903300126596" lon="12.234229917937286"><ele>153.0</ele><time>2026-04-15T03:13:11.999Z</time></trkpt><trkpt lat="45.93904862463" lon="12.234352428510503"><ele>152.85714285714286</ele><time>2026-04-15T03:13:13Z</time></trkpt><trkpt lat="45.9390440555353" lon="12.234450417316525"><ele>152.71428571428572</ele><time>2026-04-15T03:13:14Z</time></trkpt><trkpt lat="45.93899719165951" lon="12.234526152456795"><ele>152.57142857142856</ele><time>2026-04-15T03:13:15Z</time></trkpt><trkpt lat="45.938931548543884" lon="12.234554097402539"><ele>152.42857142857144</ele><time>2026-04-15T03:13:16Z</time></trkpt><trkpt lat="45.93886774874965" lon="12.234540315791016"><ele>152.2857142857143</ele><time>2026-04-15T03:13:17Z</time></trkpt><trkpt lat="45.93881544244774" lon="12.234471437243945"><ele>152.14285714285714</ele><time>2026-04-15T03:13:18Z</time></trkpt><trkpt lat="45.93877589976223" lon="12.234391793857009"><ele>152.0</ele><time>2026-04-15T03:13:19Z</time></trkpt><trkpt lat="45.93875879052726" lon="12.234297177893064"><ele>152.0</ele><time>2026-04-15T03:13:20Z</time></trkpt><trkpt lat="45.9387451325363" lon="12.234203447816068"><ele>152.0</ele><time>2026-04-15T03:13:21Z</time></trkpt><trkpt lat="45.93871302828635" lon="12.234033606630858"><ele>152.0</ele><time>2026-04-15T03:13:23Z</time></trkpt><trkpt lat="45.938668331317885" lon="12.233874127588482"><ele>152.0</ele><time>2026-04-15T03:13:25Z</time></trkpt><trkpt lat="45.938630568888826" lon="12.233801081080397"><ele>152.0</ele><time>2026-04-15T03:13:26Z</time></trkpt><trkpt lat="45.938585518407635" lon="12.233727432717329"><ele>152.0</ele><time>2026-04-15T03:13:27Z</time></trkpt><trkpt lat="45.93854213250479" lon="12.233651438992542"><ele>152.14285714285714</ele><time>2026-04-15T03:13:28Z</time></trkpt><trkpt lat="45.93849265345228" lon="12.233579839542315"><ele>152.2857142857143</ele><time>2026-04-15T03:13:29Z</time></trkpt><trkpt lat="45.93843877384721" lon="12.233513210214142"><ele>152.42857142857144</ele><time>2026-04-15T03:13:30Z</time></trkpt><trkpt lat="45.93838280378619" lon="12.23344867075374"><ele>152.57142857142856</ele><time>2026-04-15T03:13:31Z</time></trkpt><trkpt lat="45.938329677935094" lon="12.233380121618328"><ele>152.71428571428572</ele><time>2026-04-15T03:13:32Z</time></trkpt><trkpt lat="45.93827511801712" lon="12.233311362367449"><ele>152.85714285714286</ele><time>2026-04-15T03:13:33Z</time></trkpt><trkpt lat="45.938221126710474" lon="12.233247763164988"><ele>153.0</ele><time>2026-04-15T03:13:33.999Z</time></trkpt><trkpt lat="45.93813016105958" lon="12.233136483320287"><ele>154.16666666666666</ele><time>2026-04-15T03:13:35.999Z</time></trkpt><trkpt lat="45.93803690457072" lon="12.233024489006386"><ele>155.33333333333334</ele><time>2026-04-15T03:13:37.999Z</time></trkpt><trkpt lat="45.93798508163333" lon="12.232969553579567"><ele>156.5</ele><time>2026-04-15T03:13:38.999Z</time></trkpt><trkpt lat="45.937928585062934" lon="12.232902431895424"><ele>157.66666666666669</ele><time>2026-04-15T03:13:39.999Z</time></trkpt><trkpt lat="45.93786786801666" lon="12.232830447112798"><ele>158.83333333333334</ele><time>2026-04-15T03:13:40.999Z</time></trkpt><trkpt lat="45.937803976818536" lon="12.232758751805857"><ele>160.0</ele><time>2026-04-15T03:13:41.999Z</time></trkpt><trkpt lat="45.93774688468563" lon="12.232696302483589"><ele>160.0</ele><time>2026-04-15T03:13:42.999Z</time></trkpt><trkpt lat="45.93769082547955" lon="12.232635742173098"><ele>160.0</ele><time>2026-04-15T03:13:43.999Z</time></trkpt><trkpt lat="45.93763912661928" lon="12.23257634369073"><ele>160.0</ele><time>2026-04-15T03:13:44.999Z</time></trkpt><trkpt lat="45.9375947267589" lon="12.232488647838315"><ele>160.0</ele><time>2026-04-15T03:13:45.999Z</time></trkpt><trkpt lat="45.937564209108366" lon="12.232383673850466"><ele>160.0</ele><time>2026-04-15T03:13:46.999Z</time></trkpt><trkpt lat="45.9375543405991" lon="12.23227046590394"><ele>160.0</ele><time>2026-04-15T03:13:47.999Z</time></trkpt><trkpt lat="45.93757348372856" lon="12.232159613814316"><ele>162.33333333333334</ele><time>2026-04-15T03:13:48.999Z</time></trkpt><trkpt lat="45.93761219994124" lon="12.232066359078747"><ele>164.66666666666669</ele><time>2026-04-15T03:13:49.999Z</time></trkpt><trkpt lat="45.937664204471076" lon="12.231990732517094"><ele>167.0</ele><time>2026-04-15T03:13:50.999Z</time></trkpt><trkpt lat="45.93773059271336" lon="12.231940396867852"><ele>169.33333333333334</ele><time>2026-04-15T03:13:51.999Z</time></trkpt><trkpt lat="45.93780762173595" lon="12.231917939669225"><ele>171.66666666666666</ele><time>2026-04-15T03:13:52.999Z</time></trkpt><trkpt lat="45.937891243477814" lon="12.231912336444733"><ele>174.0</ele><time>2026-04-15T03:13:53.999Z</time></trkpt><trkpt lat="45.93797543722794" lon="12.231916772546384"><ele>174.0</ele><time>2026-04-15T03:13:54.999Z</time></trkpt><trkpt lat="45.93806740172338" lon="12.23192156283934"><ele>174.0</ele><time>2026-04-15T03:13:55.999Z</time></trkpt><trkpt lat="45.93817515459749" lon="12.231929724185331"><ele>174.0</ele><time>2026-04-15T03:13:56.999Z</time></trkpt><trkpt lat="45.938286402489865" lon="12.2319374045753"><ele>174.0</ele><time>2026-04-15T03:13:57.999Z</time></trkpt><trkpt lat="45.938395331781436" lon="12.2319434768638"><ele>174.0</ele><time>2026-04-15T03:13:58.999Z</time></trkpt><trkpt lat="45.93850200994306" lon="12.231939118809816"><ele>171.79999999999998</ele><time>2026-04-15T03:13:59.999Z</time></trkpt><trkpt lat="45.93860506444017" lon="12.231933765673556"><ele>169.6</ele><time>2026-04-15T03:14:00.999Z</time></trkpt><trkpt lat="45.93871034809053" lon="12.231911384903157"><ele>167.4</ele><time>2026-04-15T03:14:01.999Z</time></trkpt><trkpt lat="45.93880851109487" lon="12.231872000143673"><ele>165.2</ele><time>2026-04-15T03:14:02.999Z</time></trkpt><trkpt lat="45.93889664899369" lon="12.23181518898477"><ele>163.0</ele><time>2026-04-15T03:14:03.999Z</time></trkpt><trkpt lat="45.93896723655993" lon="12.231734206571153"><ele>163.0</ele><time>2026-04-15T03:14:04.999Z</time></trkpt><trkpt lat="45.93902442330288" lon="12.231639480922338"><ele>163.0</ele><time>2026-04-15T03:14:05.999Z</time></trkpt><trkpt lat="45.939060903438744" lon="12.231525084641476"><ele>163.0</ele><time>2026-04-15T03:14:06.999Z</time></trkpt><trkpt lat="45.93907894934012" lon="12.231396684738545"><ele>163.0</ele><time>2026-04-15T03:14:07.999Z</time></trkpt><trkpt lat="45.93907170629857" lon="12.231257394523688"><ele>163.0</ele><time>2026-04-15T03:14:08.999Z</time></trkpt><trkpt lat="45.93905138949173" lon="12.23111190171135"><ele>163.0</ele><time>2026-04-15T03:14:09.999Z</time></trkpt><trkpt lat="45.93902513722693" lon="12.230959818411074"><ele>163.0</ele><time>2026-04-15T03:14:10.999Z</time></trkpt><trkpt lat="45.93899614158831" lon="12.23080594282844"><ele>163.0</ele><time>2026-04-15T03:14:11.999Z</time></trkpt><trkpt lat="45.93896809207891" lon="12.23066486170921"><ele>163.0</ele><time>2026-04-15T03:14:12.999Z</time></trkpt><trkpt lat="45.93894236756532" lon="12.230534010126766"><ele>163.0</ele><time>2026-04-15T03:14:13.999Z</time></trkpt><trkpt lat="45.93891751147538" lon="12.230404026817483"><ele>162.66666666666669</ele><time>2026-04-15T03:14:14.999Z</time></trkpt><trkpt lat="45.93888865560024" lon="12.23027567056689"><ele>162.33333333333334</ele><time>2026-04-15T03:14:15.999Z</time></trkpt><trkpt lat="45.938859864342064" lon="12.230147344326157"><ele>162.0</ele><time>2026-04-15T03:14:16.999Z</time></trkpt><trkpt lat="45.9388304954051" lon="12.230028571034424"><ele>161.66666666666666</ele><time>2026-04-15T03:14:17.999Z</time></trkpt><trkpt lat="45.93878161189871" lon="12.229933015454051"><ele>161.33333333333331</ele><time>2026-04-15T03:14:18.999Z</time></trkpt><trkpt lat="45.938715443369084" lon="12.229873996051802"><ele>161.0</ele><time>2026-04-15T03:14:19.999Z</time></trkpt><trkpt lat="45.938639882559364" lon="12.229856753807459"><ele>161.0</ele><time>2026-04-15T03:14:20.999Z</time></trkpt><trkpt lat="45.93856046459979" lon="12.229882866594005"><ele>161.0</ele><time>2026-04-15T03:14:21.999Z</time></trkpt><trkpt lat="45.93850398874679" lon="12.229964644398779"><ele>161.0</ele><time>2026-04-15T03:14:22.999Z</time></trkpt><trkpt lat="45.93847079019996" lon="12.23007094583693"><ele>161.0</ele><time>2026-04-15T03:14:23.999Z</time></trkpt><trkpt lat="45.93846345528006" lon="12.230196216793962"><ele>161.0</ele><time>2026-04-15T03:14:24.999Z</time></trkpt><trkpt lat="45.93848214040872" lon="12.230323529935161"><ele>161.0</ele><time>2026-04-15T03:14:25.999Z</time></trkpt><trkpt lat="45.93851795175238" lon="12.230448687697097"><ele>161.0</ele><time>2026-04-15T03:14:26.999Z</time></trkpt><trkpt lat="45.93855284587523" lon="12.230574937959895"><ele>161.0</ele><time>2026-04-15T03:14:27.999Z</time></trkpt><trkpt lat="45.93858457543689" lon="12.230706179560238"><ele>161.0</ele><time>2026-04-15T03:14:28.999Z</time></trkpt><trkpt lat="45.93859813636132" lon="12.230845720459456"><ele>161.0</ele><time>2026-04-15T03:14:29.999Z</time></trkpt><trkpt lat="45.93862281859937" lon="12.230969897406926"><ele>161.0</ele><time>2026-04-15T03:14:30.999Z</time></trkpt><trkpt lat="45.93864456014053" lon="12.231094404942596"><ele>161.33333333333331</ele><time>2026-04-15T03:14:31.999Z</time></trkpt><trkpt lat="45.93866396901272" lon="12.231202791379864"><ele>161.66666666666666</ele><time>2026-04-15T03:14:32.999Z</time></trkpt><trkpt lat="45.938626284851935" lon="12.231303571356097"><ele>162.0</ele><time>2026-04-15T03:14:33.999Z</time></trkpt><trkpt lat="45.93856208643652" lon="12.231365969153707"><ele>162.33333333333334</ele><time>2026-04-15T03:14:34.999Z</time></trkpt><trkpt lat="45.93848921970292" lon="12.231358310845646"><ele>162.66666666666669</ele><time>2026-04-15T03:14:35.999Z</time></trkpt><trkpt lat="45.938425141243634" lon="12.231297319284797"><ele>163.0</ele><time>2026-04-15T03:14:36.999Z</time></trkpt><trkpt lat="45.938381868756046" lon="12.231177275605223"><ele>164.8</ele><time>2026-04-15T03:14:37.999Z</time></trkpt><trkpt lat="45.93836794676859" lon="12.231037770091302"><ele>166.60000000000002</ele><time>2026-04-15T03:14:38.999Z</time></trkpt><trkpt lat="45.93832743574349" lon="12.230898188274"><ele>168.39999999999998</ele><time>2026-04-15T03:14:39.999Z</time></trkpt><trkpt lat="45.93830100815434" lon="12.230744201358943"><ele>170.2</ele><time>2026-04-15T03:14:40.999Z</time></trkpt><trkpt lat="45.93827102016612" lon="12.230603781092757"><ele>172.0</ele><time>2026-04-15T03:14:41.999Z</time></trkpt><trkpt lat="45.93824047571426" lon="12.230459989178105"><ele>172.0</ele><time>2026-04-15T03:14:42.999Z</time></trkpt><trkpt lat="45.93820076302161" lon="12.230307868023585"><ele>172.0</ele><time>2026-04-15T03:14:43.999Z</time></trkpt><trkpt lat="45.938151844732836" lon="12.230160384637056"><ele>172.0</ele><time>2026-04-15T03:14:44.999Z</time></trkpt><trkpt lat="45.938086719242456" lon="12.230044592336295"><ele>172.0</ele><time>2026-04-15T03:14:45.999Z</time></trkpt><trkpt lat="45.93800832802978" lon="12.22995168606383"><ele>172.0</ele><time>2026-04-15T03:14:46.999Z</time></trkpt><trkpt lat="45.93791233313403" lon="12.229886854922627"><ele>172.0</ele><time>2026-04-15T03:14:47.999Z</time></trkpt><trkpt lat="45.937803363220404" lon="12.229841426323155"><ele>172.0</ele><time>2026-04-15T03:14:48.999Z</time></trkpt><trkpt lat="45.937685877890544" lon="12.229806218285065"><ele>172.0</ele><time>2026-04-15T03:14:49.999Z</time></trkpt><trkpt lat="45.93756128652503" lon="12.229764762834753"><ele>172.0</ele><time>2026-04-15T03:14:50.999Z</time></trkpt><trkpt lat="45.937429920508855" lon="12.229717934926011"><ele>172.5</ele><time>2026-04-15T03:14:51.999Z</time></trkpt><trkpt lat="45.93729253023179" lon="12.2296675193722"><ele>173.0</ele><time>2026-04-15T03:14:52.999Z</time></trkpt><trkpt lat="45.93715070967231" lon="12.229618604536514"><ele>173.5</ele><time>2026-04-15T03:14:53.999Z</time></trkpt><trkpt lat="45.93701488946096" lon="12.229568646113698"><ele>174.0</ele><time>2026-04-15T03:14:54.999Z</time></trkpt><trkpt lat="45.93689062489422" lon="12.229513252453028"><ele>174.0</ele><time>2026-04-15T03:14:55.999Z</time></trkpt><trkpt lat="45.93678697904627" lon="12.229473585958141"><ele>174.0</ele><time>2026-04-15T03:14:56.999Z</time></trkpt><trkpt lat="45.93669664167212" lon="12.229465566209427"><ele>174.0</ele><time>2026-04-15T03:14:57.999Z</time></trkpt><trkpt lat="45.936615454859755" lon="12.229500862890152"><ele>174.0</ele><time>2026-04-15T03:14:58.999Z</time></trkpt><trkpt lat="45.936552334948416" lon="12.229584207872962"><ele>174.0</ele><time>2026-04-15T03:14:59.999Z</time></trkpt><trkpt lat="45.936502731625204" lon="12.229693273127728"><ele>175.2</ele><time>2026-04-15T03:15:00.999Z</time></trkpt><trkpt lat="45.93650951059019" lon="12.2298408148809"><ele>176.39999999999998</ele><time>2026-04-15T03:15:01.999Z</time></trkpt><trkpt lat="45.936583551092866" lon="12.229949162833522"><ele>177.6</ele><time>2026-04-15T03:15:02.999Z</time></trkpt><trkpt lat="45.93666451112885" lon="12.230025302472054"><ele>178.8</ele><time>2026-04-15T03:15:03.999Z</time></trkpt><trkpt lat="45.93676403454372" lon="12.230075534604138"><ele>180.0</ele><time>2026-04-15T03:15:04.999Z</time></trkpt><trkpt lat="45.9368705461629" lon="12.230114925700692"><ele>180.4</ele><time>2026-04-15T03:15:05.999Z</time></trkpt><trkpt lat="45.93697906680418" lon="12.230156210138523"><ele>180.8</ele><time>2026-04-15T03:15:06.999Z</time></trkpt><trkpt lat="45.937080878580964" lon="12.230186344266253"><ele>181.2</ele><time>2026-04-15T03:15:07.999Z</time></trkpt><trkpt lat="45.93716677168867" lon="12.23024929515307"><ele>181.6</ele><time>2026-04-15T03:15:08.999Z</time></trkpt><trkpt lat="45.93724513316044" lon="12.230293045217628"><ele>182.0</ele><time>2026-04-15T03:15:09.999Z</time></trkpt><trkpt lat="45.9373111591105" lon="12.230344826421904"><ele>182.0</ele><time>2026-04-15T03:15:10.999Z</time></trkpt><trkpt lat="45.93734663578265" lon="12.230438606972648"><ele>182.0</ele><time>2026-04-15T03:15:11.999Z</time></trkpt><trkpt lat="45.937351372163725" lon="12.230549439575876"><ele>182.0</ele><time>2026-04-15T03:15:12.999Z</time></trkpt><trkpt lat="45.93731943540159" lon="12.230652100338675"><ele>182.0</ele><time>2026-04-15T03:15:13.999Z</time></trkpt><trkpt lat="45.937254605797094" lon="12.230722101290347"><ele>182.0</ele><time>2026-04-15T03:15:14.999Z</time></trkpt><trkpt lat="45.93717581044733" lon="12.230740148133743"><ele>182.0</ele><time>2026-04-15T03:15:15.999Z</time></trkpt><trkpt lat="45.93708996091408" lon="12.230743066206875"><ele>183.0</ele><time>2026-04-15T03:15:16.998Z</time></trkpt><trkpt lat="45.93699341364741" lon="12.230744428886517"><ele>184.0</ele><time>2026-04-15T03:15:17.998Z</time></trkpt><trkpt lat="45.936892048064344" lon="12.230758226316391"><ele>185.0</ele><time>2026-04-15T03:15:19Z</time></trkpt><trkpt lat="45.936784763967026" lon="12.230752357952918"><ele>186.0</ele><time>2026-04-15T03:15:20Z</time></trkpt><trkpt lat="45.93668094559178" lon="12.230753984903648"><ele>187.0</ele><time>2026-04-15T03:15:21Z</time></trkpt><trkpt lat="45.93658600357247" lon="12.230758750303284"><ele>187.0</ele><time>2026-04-15T03:15:22Z</time></trkpt><trkpt lat="45.93648623894399" lon="12.230760527194434"><ele>187.0</ele><time>2026-04-15T03:15:23Z</time></trkpt><trkpt lat="45.936380825274654" lon="12.230758662533386"><ele>187.0</ele><time>2026-04-15T03:15:24Z</time></trkpt><trkpt lat="45.93626895437025" lon="12.23075679627318"><ele>187.0</ele><time>2026-04-15T03:15:25Z</time></trkpt><trkpt lat="45.936151302438255" lon="12.230757923574162"><ele>187.0</ele><time>2026-04-15T03:15:26Z</time></trkpt><trkpt lat="45.93602715877286" lon="12.23076022080597"><ele>187.0</ele><time>2026-04-15T03:15:27Z</time></trkpt><trkpt lat="45.93589973512455" lon="12.230759553703185"><ele>187.0</ele><time>2026-04-15T03:15:28Z</time></trkpt><trkpt lat="45.93577025096082" lon="12.230738054528038"><ele>187.0</ele><time>2026-04-15T03:15:29Z</time></trkpt><trkpt lat="45.935646404737746" lon="12.230673626349496"><ele>187.0</ele><time>2026-04-15T03:15:30Z</time></trkpt><trkpt lat="45.935533599368746" lon="12.230571402992295"><ele>187.75</ele><time>2026-04-15T03:15:31Z</time></trkpt><trkpt lat="45.93542888403701" lon="12.230452722625216"><ele>188.5</ele><time>2026-04-15T03:15:32Z</time></trkpt><trkpt lat="45.93533068737806" lon="12.230323489835664"><ele>189.25</ele><time>2026-04-15T03:15:33Z</time></trkpt><trkpt lat="45.93523992314242" lon="12.230194970074697"><ele>190.0</ele><time>2026-04-15T03:15:34Z</time></trkpt><trkpt lat="45.935153718817" lon="12.230078659758377"><ele>190.0</ele><time>2026-04-15T03:15:35Z</time></trkpt><trkpt lat="45.93506951429212" lon="12.229977943310995"><ele>190.0</ele><time>2026-04-15T03:15:35.999Z</time></trkpt><trkpt lat="45.93498050218388" lon="12.229908704801085"><ele>190.0</ele><time>2026-04-15T03:15:36.999Z</time></trkpt><trkpt lat="45.93488558230045" lon="12.229888550048589"><ele>190.0</ele><time>2026-04-15T03:15:37.999Z</time></trkpt><trkpt lat="45.93478960728128" lon="12.229900359620643"><ele>190.0</ele><time>2026-04-15T03:15:38.999Z</time></trkpt><trkpt lat="45.934708841892" lon="12.229986225341735"><ele>191.8</ele><time>2026-04-15T03:15:39.999Z</time></trkpt><trkpt lat="45.93465672088024" lon="12.230101435446157"><ele>193.6</ele><time>2026-04-15T03:15:40.999Z</time></trkpt><trkpt lat="45.93464348779122" lon="12.230253440072229"><ele>195.39999999999998</ele><time>2026-04-15T03:15:41.999Z</time></trkpt><trkpt lat="45.93468211693701" lon="12.230392650977429"><ele>197.2</ele><time>2026-04-15T03:15:42.999Z</time></trkpt><trkpt lat="45.93473247802427" lon="12.230516720464104"><ele>199.0</ele><time>2026-04-15T03:15:43.999Z</time></trkpt><trkpt lat="45.93479111259825" lon="12.230635817027585"><ele>199.0</ele><time>2026-04-15T03:15:44.999Z</time></trkpt><trkpt lat="45.934851640805796" lon="12.230760823291646"><ele>199.0</ele><time>2026-04-15T03:15:45.999Z</time></trkpt><trkpt lat="45.93491362158939" lon="12.230893314474367"><ele>199.0</ele><time>2026-04-15T03:15:46.999Z</time></trkpt><trkpt lat="45.93496388952777" lon="12.231048185973533"><ele>199.0</ele><time>2026-04-15T03:15:47.999Z</time></trkpt><trkpt lat="45.93502429962181" lon="12.231186425798523"><ele>199.0</ele><time>2026-04-15T03:15:48.999Z</time></trkpt><trkpt lat="45.9350800629306" lon="12.231313926789118"><ele>198.33333333333331</ele><time>2026-04-15T03:15:49.999Z</time></trkpt><trkpt lat="45.93512590227952" lon="12.231432049589472"><ele>197.66666666666666</ele><time>2026-04-15T03:15:50.999Z</time></trkpt><trkpt lat="45.93515308632773" lon="12.2315505511548"><ele>197.0</ele><time>2026-04-15T03:15:51.999Z</time></trkpt><trkpt lat="45.93516361299718" lon="12.231668836041942"><ele>196.33333333333331</ele><time>2026-04-15T03:15:52.999Z</time></trkpt><trkpt lat="45.93512232940853" lon="12.231784513147854"><ele>195.66666666666666</ele><time>2026-04-15T03:15:53.999Z</time></trkpt><trkpt lat="45.935056654617576" lon="12.231874251347568"><ele>195.0</ele><time>2026-04-15T03:15:54.999Z</time></trkpt><trkpt lat="45.93496819681222" lon="12.231929585460325"><ele>197.2</ele><time>2026-04-15T03:15:55.999Z</time></trkpt><trkpt lat="45.93486871515093" lon="12.23191989079484"><ele>199.4</ele><time>2026-04-15T03:15:56.999Z</time></trkpt><trkpt lat="45.934776277366" lon="12.231858984026712"><ele>201.60000000000002</ele><time>2026-04-15T03:15:57.999Z</time></trkpt><trkpt lat="45.934712967298836" lon="12.23174229487198"><ele>203.8</ele><time>2026-04-15T03:15:58.999Z</time></trkpt><trkpt lat="45.93463087726552" lon="12.231641795363958"><ele>206.0</ele><time>2026-04-15T03:15:59.999Z</time></trkpt><trkpt lat="45.934556978081176" lon="12.23151802605158"><ele>207.5</ele><time>2026-04-15T03:16:00.999Z</time></trkpt><trkpt lat="45.934471158848986" lon="12.231395284017461"><ele>209.0</ele><time>2026-04-15T03:16:01.999Z</time></trkpt><trkpt lat="45.934380902027364" lon="12.231268053653004"><ele>210.5</ele><time>2026-04-15T03:16:02.999Z</time></trkpt><trkpt lat="45.93428660008798" lon="12.231133725032155"><ele>212.0</ele><time>2026-04-15T03:16:03.999Z</time></trkpt><trkpt lat="45.934189667454376" lon="12.230991394515554"><ele>212.0</ele><time>2026-04-15T03:16:04.999Z</time></trkpt><trkpt lat="45.93408808907058" lon="12.230841315221976"><ele>212.0</ele><time>2026-04-15T03:16:05.999Z</time></trkpt><trkpt lat="45.9339787684776" lon="12.230692996174088"><ele>212.0</ele><time>2026-04-15T03:16:06.999Z</time></trkpt><trkpt lat="45.93387478241817" lon="12.230550275854556"><ele>212.0</ele><time>2026-04-15T03:16:07.999Z</time></trkpt><trkpt lat="45.933787965178915" lon="12.230397081431382"><ele>211.75</ele><time>2026-04-15T03:16:08.999Z</time></trkpt><trkpt lat="45.93372329959774" lon="12.230223392956674"><ele>211.5</ele><time>2026-04-15T03:16:09.999Z</time></trkpt><trkpt lat="45.93367873032636" lon="12.23003903106429"><ele>211.25</ele><time>2026-04-15T03:16:10.999Z</time></trkpt><trkpt lat="45.9336552173783" lon="12.229851931885939"><ele>211.0</ele><time>2026-04-15T03:16:11.999Z</time></trkpt><trkpt lat="45.93365926948213" lon="12.229673764204385"><ele>210.83333333333331</ele><time>2026-04-15T03:16:12.999Z</time></trkpt><trkpt lat="45.93369588156269" lon="12.229531891760619"><ele>210.66666666666666</ele><time>2026-04-15T03:16:13.999Z</time></trkpt><trkpt lat="45.933738639467755" lon="12.229424856956717"><ele>210.5</ele><time>2026-04-15T03:16:14.999Z</time></trkpt><trkpt lat="45.93376484670616" lon="12.229324087977142"><ele>210.33333333333331</ele><time>2026-04-15T03:16:15.999Z</time></trkpt><trkpt lat="45.933763754097335" lon="12.229218249570131"><ele>210.16666666666666</ele><time>2026-04-15T03:16:16.999Z</time></trkpt><trkpt lat="45.93375122083498" lon="12.2291234662726"><ele>210.0</ele><time>2026-04-15T03:16:17.999Z</time></trkpt><trkpt lat="45.9337125749195" lon="12.229049092025159"><ele>210.5</ele><time>2026-04-15T03:16:18.999Z</time></trkpt><trkpt lat="45.933624459191456" lon="12.228912076962256"><ele>211.0</ele><time>2026-04-15T03:16:20.999Z</time></trkpt><trkpt lat="45.933576343711536" lon="12.22883197693973"><ele>211.5</ele><time>2026-04-15T03:16:21.999Z</time></trkpt><trkpt lat="45.93353238265584" lon="12.22875424296062"><ele>212.0</ele><time>2026-04-15T03:16:22.999Z</time></trkpt><trkpt lat="45.933493061658176" lon="12.228647041933153"><ele>212.5</ele><time>2026-04-15T03:16:23.999Z</time></trkpt><trkpt lat="45.93348043440545" lon="12.228522293921438"><ele>213.0</ele><time>2026-04-15T03:16:24.999Z</time></trkpt><trkpt lat="45.93348621938231" lon="12.228393143850349"><ele>213.0</ele><time>2026-04-15T03:16:25.999Z</time></trkpt><trkpt lat="45.9334938719898" lon="12.22825622586799"><ele>213.0</ele><time>2026-04-15T03:16:26.999Z</time></trkpt><trkpt lat="45.933504335708896" lon="12.228102522476057"><ele>213.0</ele><time>2026-04-15T03:16:27.999Z</time></trkpt><trkpt lat="45.93351567157751" lon="12.227945476327843"><ele>213.0</ele><time>2026-04-15T03:16:28.999Z</time></trkpt><trkpt lat="45.93353705272221" lon="12.227794703629664"><ele>213.0</ele><time>2026-04-15T03:16:29.999Z</time></trkpt><trkpt lat="45.933559943986886" lon="12.227631744091195"><ele>213.75</ele><time>2026-04-15T03:16:30.999Z</time></trkpt><trkpt lat="45.93358858446773" lon="12.227457372726747"><ele>214.5</ele><time>2026-04-15T03:16:31.999Z</time></trkpt><trkpt lat="45.9336223061777" lon="12.227270476754125"><ele>215.25</ele><time>2026-04-15T03:16:32.999Z</time></trkpt><trkpt lat="45.93365490509761" lon="12.22707116808735"><ele>216.0</ele><time>2026-04-15T03:16:33.999Z</time></trkpt><trkpt lat="45.933688954501335" lon="12.226860105408242"><ele>216.0</ele><time>2026-04-15T03:16:34.999Z</time></trkpt><trkpt lat="45.93372416106661" lon="12.226642156612078"><ele>216.0</ele><time>2026-04-15T03:16:35.999Z</time></trkpt><trkpt lat="45.93376089330927" lon="12.226423936569034"><ele>216.0</ele><time>2026-04-15T03:16:36.999Z</time></trkpt><trkpt lat="45.93379875268666" lon="12.22621043890188"><ele>216.0</ele><time>2026-04-15T03:16:37.999Z</time></trkpt><trkpt lat="45.933833844375755" lon="12.225991020317478"><ele>216.0</ele><time>2026-04-15T03:16:38.999Z</time></trkpt><trkpt lat="45.93385078957524" lon="12.22576045613037"><ele>216.0</ele><time>2026-04-15T03:16:39.999Z</time></trkpt><trkpt lat="45.93384832649322" lon="12.225525664668643"><ele>216.0</ele><time>2026-04-15T03:16:40.999Z</time></trkpt><trkpt lat="45.933817877416544" lon="12.225292000539755"><ele>216.0</ele><time>2026-04-15T03:16:41.999Z</time></trkpt><trkpt lat="45.93375479582661" lon="12.225072545182806"><ele>216.0</ele><time>2026-04-15T03:16:42.999Z</time></trkpt><trkpt lat="45.933678671433334" lon="12.224861617085885"><ele>216.33333333333331</ele><time>2026-04-15T03:16:43.999Z</time></trkpt><trkpt lat="45.93357783871993" lon="12.224677504502251"><ele>216.66666666666666</ele><time>2026-04-15T03:16:44.999Z</time></trkpt><trkpt lat="45.93345815419973" lon="12.224526123906035"><ele>217.0</ele><time>2026-04-15T03:16:45.999Z</time></trkpt><trkpt lat="45.93332767337994" lon="12.224402818841689"><ele>221.33333333333331</ele><time>2026-04-15T03:16:46.999Z</time></trkpt><trkpt lat="45.933188788879065" lon="12.224304152136677"><ele>225.66666666666669</ele><time>2026-04-15T03:16:47.999Z</time></trkpt><trkpt lat="45.93304675806513" lon="12.224225920683628"><ele>230.0</ele><time>2026-04-15T03:16:48.999Z</time></trkpt><trkpt lat="45.93290483643983" lon="12.224151211389419"><ele>230.0</ele><time>2026-04-15T03:16:49.999Z</time></trkpt><trkpt lat="45.93276558104596" lon="12.22407508278051"><ele>230.0</ele><time>2026-04-15T03:16:50.999Z</time></trkpt><trkpt lat="45.93262318862246" lon="12.224007312276216"><ele>230.0</ele><time>2026-04-15T03:16:51.999Z</time></trkpt><trkpt lat="45.93247829839892" lon="12.223957963962063"><ele>230.0</ele><time>2026-04-15T03:16:52.999Z</time></trkpt><trkpt lat="45.932332208225006" lon="12.223924976326238"><ele>234.5</ele><time>2026-04-15T03:16:53.999Z</time></trkpt><trkpt lat="45.93218756027278" lon="12.223899036733503"><ele>239.0</ele><time>2026-04-15T03:16:54.999Z</time></trkpt><trkpt lat="45.93204357388498" lon="12.223862305717482"><ele>243.5</ele><time>2026-04-15T03:16:55.999Z</time></trkpt><trkpt lat="45.93190718984109" lon="12.223801236294918"><ele>248.0</ele><time>2026-04-15T03:16:56.999Z</time></trkpt><trkpt lat="45.93177500496724" lon="12.223726718731562"><ele>247.25</ele><time>2026-04-15T03:16:57.999Z</time></trkpt><trkpt lat="45.9316442139179" lon="12.22363813043355"><ele>246.5</ele><time>2026-04-15T03:16:58.999Z</time></trkpt><trkpt lat="45.931528447039085" lon="12.223544097617486"><ele>245.75</ele><time>2026-04-15T03:16:59.999Z</time></trkpt><trkpt lat="45.93143150330219" lon="12.223433753108546"><ele>245.0</ele><time>2026-04-15T03:17:00.999Z</time></trkpt><trkpt lat="45.93135774198348" lon="12.22329579184835"><ele>248.0</ele><time>2026-04-15T03:17:01.999Z</time></trkpt><trkpt lat="45.93129870037496" lon="12.223135074395925"><ele>251.0</ele><time>2026-04-15T03:17:02.999Z</time></trkpt><trkpt lat="45.93123676973334" lon="12.22297100270895"><ele>254.0</ele><time>2026-04-15T03:17:03.999Z</time></trkpt><trkpt lat="45.9311646587028" lon="12.222809254901561"><ele>257.0</ele><time>2026-04-15T03:17:04.999Z</time></trkpt><trkpt lat="45.93108370119306" lon="12.22264962253823"><ele>257.0</ele><time>2026-04-15T03:17:05.999Z</time></trkpt><trkpt lat="45.93099383070409" lon="12.222491299106059"><ele>257.0</ele><time>2026-04-15T03:17:06.999Z</time></trkpt><trkpt lat="45.93090398111517" lon="12.22232429946162"><ele>257.0</ele><time>2026-04-15T03:17:07.999Z</time></trkpt><trkpt lat="45.93081179823276" lon="12.22214949784572"><ele>257.0</ele><time>2026-04-15T03:17:08.999Z</time></trkpt><trkpt lat="45.930714340942856" lon="12.22196940183563"><ele>256.33333333333337</ele><time>2026-04-15T03:17:09.999Z</time></trkpt><trkpt lat="45.930611451350735" lon="12.22178284091299"><ele>255.66666666666669</ele><time>2026-04-15T03:17:10.999Z</time></trkpt><trkpt lat="45.93050528026018" lon="12.221594337219791"><ele>255.0</ele><time>2026-04-15T03:17:11.999Z</time></trkpt><trkpt lat="45.930398485481625" lon="12.22140276407061"><ele>259.6666666666667</ele><time>2026-04-15T03:17:12.999Z</time></trkpt><trkpt lat="45.93029310638235" lon="12.221213022624054"><ele>264.33333333333337</ele><time>2026-04-15T03:17:13.999Z</time></trkpt><trkpt lat="45.930189381092134" lon="12.22102756369334"><ele>269.0</ele><time>2026-04-15T03:17:14.999Z</time></trkpt><trkpt lat="45.9300874850078" lon="12.220847622654777"><ele>265.0</ele><time>2026-04-15T03:17:15.999Z</time></trkpt><trkpt lat="45.92998761119239" lon="12.220672534103231"><ele>261.0</ele><time>2026-04-15T03:17:16.999Z</time></trkpt><trkpt lat="45.92988982415272" lon="12.22049844652337"><ele>257.0</ele><time>2026-04-15T03:17:17.999Z</time></trkpt><trkpt lat="45.92979099272096" lon="12.220325930595765"><ele>257.0</ele><time>2026-04-15T03:17:18.999Z</time></trkpt><trkpt lat="45.929692038143834" lon="12.22015460501683"><ele>257.0</ele><time>2026-04-15T03:17:19.999Z</time></trkpt><trkpt lat="45.92960004081108" lon="12.219990821966936"><ele>257.0</ele><time>2026-04-15T03:17:20.999Z</time></trkpt><trkpt lat="45.92953046173202" lon="12.219849268973842"><ele>257.0</ele><time>2026-04-15T03:17:21.999Z</time></trkpt><trkpt lat="45.92947501321452" lon="12.219703901357882"><ele>258.5</ele><time>2026-04-15T03:17:22.999Z</time></trkpt><trkpt lat="45.92944286289213" lon="12.219539804562103"><ele>260.0</ele><time>2026-04-15T03:17:23.998Z</time></trkpt><trkpt lat="45.92943056702449" lon="12.21936747969739"><ele>261.5</ele><time>2026-04-15T03:17:25Z</time></trkpt><trkpt lat="45.9294384935599" lon="12.219192800720077"><ele>263.0</ele><time>2026-04-15T03:17:26Z</time></trkpt><trkpt lat="45.929473906296934" lon="12.219019343627533"><ele>262.5</ele><time>2026-04-15T03:17:27Z</time></trkpt><trkpt lat="45.92951791276873" lon="12.218853782157192"><ele>262.0</ele><time>2026-04-15T03:17:28Z</time></trkpt><trkpt lat="45.92956269109656" lon="12.218686996117597"><ele>261.5</ele><time>2026-04-15T03:17:29Z</time></trkpt><trkpt lat="45.92960686764564" lon="12.218519093098207"><ele>261.0</ele><time>2026-04-15T03:17:29.999Z</time></trkpt><trkpt lat="45.9296528319276" lon="12.218351093319733"><ele>261.0</ele><time>2026-04-15T03:17:31Z</time></trkpt><trkpt lat="45.92969962944793" lon="12.218183672609982"><ele>261.0</ele><time>2026-04-15T03:17:32Z</time></trkpt><trkpt lat="45.92973744502738" lon="12.218010757081357"><ele>261.0</ele><time>2026-04-15T03:17:33Z</time></trkpt><trkpt lat="45.92976133944681" lon="12.217833678229642"><ele>261.0</ele><time>2026-04-15T03:17:34Z</time></trkpt><trkpt lat="45.92976451275359" lon="12.217652286397973"><ele>260.25</ele><time>2026-04-15T03:17:35Z</time></trkpt><trkpt lat="45.92974481622605" lon="12.21747442523283"><ele>259.5</ele><time>2026-04-15T03:17:35.999Z</time></trkpt><trkpt lat="45.92970320585975" lon="12.217301428935956"><ele>258.75</ele><time>2026-04-15T03:17:37Z</time></trkpt><trkpt lat="45.92964584608329" lon="12.217131878699757"><ele>258.0</ele><time>2026-04-15T03:17:38Z</time></trkpt><trkpt lat="45.929571468882884" lon="12.216962048033471"><ele>258.0</ele><time>2026-04-15T03:17:39Z</time></trkpt><trkpt lat="45.92948234164585" lon="12.216795625899671"><ele>258.0</ele><time>2026-04-15T03:17:39.999Z</time></trkpt><trkpt lat="45.92938870994897" lon="12.21663386661586"><ele>258.0</ele><time>2026-04-15T03:17:40.999Z</time></trkpt><trkpt lat="45.92927838301542" lon="12.21649325782034"><ele>258.0</ele><time>2026-04-15T03:17:41.999Z</time></trkpt><trkpt lat="45.929158300082975" lon="12.216370154967995"><ele>257.25</ele><time>2026-04-15T03:17:42.999Z</time></trkpt><trkpt lat="45.929030056553096" lon="12.216264635088725"><ele>256.5</ele><time>2026-04-15T03:17:43.999Z</time></trkpt><trkpt lat="45.928905470854076" lon="12.216155291589885"><ele>255.75</ele><time>2026-04-15T03:17:44.999Z</time></trkpt><trkpt lat="45.92879185902646" lon="12.216028751417168"><ele>255.0</ele><time>2026-04-15T03:17:45.999Z</time></trkpt><trkpt lat="45.92868819198307" lon="12.215883901327164"><ele>255.0</ele><time>2026-04-15T03:17:46.999Z</time></trkpt><trkpt lat="45.9285918660509" lon="12.215732706380917"><ele>255.0</ele><time>2026-04-15T03:17:47.999Z</time></trkpt><trkpt lat="45.9284923955547" lon="12.215585379950218"><ele>255.0</ele><time>2026-04-15T03:17:48.999Z</time></trkpt><trkpt lat="45.928391321918596" lon="12.21544524097737"><ele>255.0</ele><time>2026-04-15T03:17:49.999Z</time></trkpt><trkpt lat="45.92829457976664" lon="12.21529480451329"><ele>251.75</ele><time>2026-04-15T03:17:50.999Z</time></trkpt><trkpt lat="45.92820761822161" lon="12.215133316806972"><ele>248.5</ele><time>2026-04-15T03:17:51.999Z</time></trkpt><trkpt lat="45.92813539450158" lon="12.21495960977923"><ele>245.25</ele><time>2026-04-15T03:17:52.999Z</time></trkpt><trkpt lat="45.928076759165805" lon="12.214775973019801"><ele>242.0</ele><time>2026-04-15T03:17:53.999Z</time></trkpt><trkpt lat="45.92802954003842" lon="12.214581793662278"><ele>241.75</ele><time>2026-04-15T03:17:54.999Z</time></trkpt><trkpt lat="45.927990236068084" lon="12.214381914087278"><ele>241.5</ele><time>2026-04-15T03:17:55.999Z</time></trkpt><trkpt lat="45.927954684533745" lon="12.214180392793947"><ele>241.25</ele><time>2026-04-15T03:17:56.999Z</time></trkpt><trkpt lat="45.92792032718328" lon="12.213976431780805"><ele>241.0</ele><time>2026-04-15T03:17:57.999Z</time></trkpt><trkpt lat="45.92788147991052" lon="12.213772039075481"><ele>241.0</ele><time>2026-04-15T03:17:58.999Z</time></trkpt><trkpt lat="45.927834660445896" lon="12.213570685993375"><ele>241.0</ele><time>2026-04-15T03:17:59.999Z</time></trkpt><trkpt lat="45.92777562607308" lon="12.213373037596178"><ele>241.0</ele><time>2026-04-15T03:18:00.999Z</time></trkpt><trkpt lat="45.927704901842084" lon="12.213181548680605"><ele>241.0</ele><time>2026-04-15T03:18:01.999Z</time></trkpt><trkpt lat="45.927628325905715" lon="12.212995429040095"><ele>239.5</ele><time>2026-04-15T03:18:02.999Z</time></trkpt><trkpt lat="45.92754529273052" lon="12.212816401123954"><ele>238.0</ele><time>2026-04-15T03:18:03.999Z</time></trkpt><trkpt lat="45.92745672018843" lon="12.212641123050018"><ele>236.5</ele><time>2026-04-15T03:18:04.999Z</time></trkpt><trkpt lat="45.92736864695468" lon="12.212469829374832"><ele>235.0</ele><time>2026-04-15T03:18:05.999Z</time></trkpt><trkpt lat="45.927279347971776" lon="12.212303744901886"><ele>234.5</ele><time>2026-04-15T03:18:06.999Z</time></trkpt><trkpt lat="45.92719190518458" lon="12.212135958141397"><ele>234.0</ele><time>2026-04-15T03:18:07.999Z</time></trkpt><trkpt lat="45.92711670302096" lon="12.211969302701787"><ele>233.5</ele><time>2026-04-15T03:18:08.999Z</time></trkpt><trkpt lat="45.927051447803166" lon="12.211797871129624"><ele>233.0</ele><time>2026-04-15T03:18:09.999Z</time></trkpt><trkpt lat="45.92701202055104" lon="12.211616542207507"><ele>232.5</ele><time>2026-04-15T03:18:10.999Z</time></trkpt><trkpt lat="45.92700188542199" lon="12.211428145804577"><ele>232.0</ele><time>2026-04-15T03:18:11.999Z</time></trkpt><trkpt lat="45.9270118606196" lon="12.211240375235725"><ele>231.5</ele><time>2026-04-15T03:18:12.999Z</time></trkpt><trkpt lat="45.927041920002154" lon="12.211052398215303"><ele>231.0</ele><time>2026-04-15T03:18:13.999Z</time></trkpt><trkpt lat="45.92707925269244" lon="12.210864223870296"><ele>231.0</ele><time>2026-04-15T03:18:14.999Z</time></trkpt><trkpt lat="45.927121876722296" lon="12.210676489062042"><ele>231.0</ele><time>2026-04-15T03:18:15.999Z</time></trkpt><trkpt lat="45.927163784989844" lon="12.210491439653222"><ele>231.0</ele><time>2026-04-15T03:18:16.999Z</time></trkpt><trkpt lat="45.927205371149746" lon="12.210312876915504"><ele>231.0</ele><time>2026-04-15T03:18:17.999Z</time></trkpt><trkpt lat="45.92724127150071" lon="12.210142010260956"><ele>230.75</ele><time>2026-04-15T03:18:18.999Z</time></trkpt><trkpt lat="45.92725856481256" lon="12.209975480414894"><ele>230.5</ele><time>2026-04-15T03:18:19.999Z</time></trkpt><trkpt lat="45.92725238535906" lon="12.20980566185022"><ele>230.25</ele><time>2026-04-15T03:18:20.999Z</time></trkpt><trkpt lat="45.9272180088597" lon="12.209646546333197"><ele>230.0</ele><time>2026-04-15T03:18:21.999Z</time></trkpt><trkpt lat="45.927159798842425" lon="12.209502677975847"><ele>228.75</ele><time>2026-04-15T03:18:22.999Z</time></trkpt><trkpt lat="45.92708153129729" lon="12.209371541222268"><ele>227.5</ele><time>2026-04-15T03:18:23.999Z</time></trkpt><trkpt lat="45.92697768344843" lon="12.209285909634472"><ele>226.25</ele><time>2026-04-15T03:18:24.999Z</time></trkpt><trkpt lat="45.92685937172443" lon="12.209232730177463"><ele>225.0</ele><time>2026-04-15T03:18:25.999Z</time></trkpt><trkpt lat="45.926732271252526" lon="12.209211137907054"><ele>224.75</ele><time>2026-04-15T03:18:26.999Z</time></trkpt><trkpt lat="45.9266020666183" lon="12.209189939889347"><ele>224.5</ele><time>2026-04-15T03:18:27.999Z</time></trkpt><trkpt lat="45.926467698522565" lon="12.209179968281154"><ele>224.25</ele><time>2026-04-15T03:18:28.999Z</time></trkpt><trkpt lat="45.92633128538328" lon="12.209172717577335"><ele>224.0</ele><time>2026-04-15T03:18:29.999Z</time></trkpt><trkpt lat="45.9261907425448" lon="12.20917463185411"><ele>224.0</ele><time>2026-04-15T03:18:30.999Z</time></trkpt><trkpt lat="45.92604726307957" lon="12.209198674939705"><ele>224.0</ele><time>2026-04-15T03:18:31.999Z</time></trkpt><trkpt lat="45.92590609467051" lon="12.209231196459303"><ele>224.0</ele><time>2026-04-15T03:18:32.999Z</time></trkpt><trkpt lat="45.92576617183259" lon="12.209272222743527"><ele>224.0</ele><time>2026-04-15T03:18:33.999Z</time></trkpt><trkpt lat="45.925626533706506" lon="12.209312920073648"><ele>222.0</ele><time>2026-04-15T03:18:34.999Z</time></trkpt><trkpt lat="45.92548682687809" lon="12.209349991344752"><ele>220.0</ele><time>2026-04-15T03:18:35.999Z</time></trkpt><trkpt lat="45.9253540159208" lon="12.209373672598108"><ele>218.0</ele><time>2026-04-15T03:18:36.999Z</time></trkpt><trkpt lat="45.92522943589221" lon="12.209363695437888"><ele>216.0</ele><time>2026-04-15T03:18:37.999Z</time></trkpt><trkpt lat="45.925108299615395" lon="12.209303687131058"><ele>214.5</ele><time>2026-04-15T03:18:38.999Z</time></trkpt><trkpt lat="45.92499916399568" lon="12.209211179054789"><ele>213.0</ele><time>2026-04-15T03:18:39.999Z</time></trkpt><trkpt lat="45.924906492885206" lon="12.209081049182766"><ele>211.5</ele><time>2026-04-15T03:18:40.999Z</time></trkpt><trkpt lat="45.92482754645673" lon="12.20893620814624"><ele>210.0</ele><time>2026-04-15T03:18:41.999Z</time></trkpt><trkpt lat="45.924757331805566" lon="12.208786402510897"><ele>208.75</ele><time>2026-04-15T03:18:42.999Z</time></trkpt><trkpt lat="45.92468695748429" lon="12.208636585575976"><ele>207.5</ele><time>2026-04-15T03:18:43.999Z</time></trkpt><trkpt lat="45.92461767824773" lon="12.208486870946826"><ele>206.25</ele><time>2026-04-15T03:18:44.999Z</time></trkpt><trkpt lat="45.924548449033026" lon="12.208336958141029"><ele>205.0</ele><time>2026-04-15T03:18:45.999Z</time></trkpt><trkpt lat="45.92447442050042" lon="12.208187252613705"><ele>204.75</ele><time>2026-04-15T03:18:46.999Z</time></trkpt><trkpt lat="45.92439361827524" lon="12.208040880543857"><ele>204.5</ele><time>2026-04-15T03:18:47.999Z</time></trkpt><trkpt lat="45.924294334058345" lon="12.20791610336701"><ele>204.25</ele><time>2026-04-15T03:18:48.999Z</time></trkpt><trkpt lat="45.92419460239782" lon="12.207790959449781"><ele>204.0</ele><time>2026-04-15T03:18:49.999Z</time></trkpt><trkpt lat="45.924099339161955" lon="12.20766426407441"><ele>203.25</ele><time>2026-04-15T03:18:50.999Z</time></trkpt><trkpt lat="45.92400315934089" lon="12.207541136174699"><ele>202.5</ele><time>2026-04-15T03:18:51.999Z</time></trkpt><trkpt lat="45.923901344028984" lon="12.20742876865697"><ele>201.75</ele><time>2026-04-15T03:18:52.999Z</time></trkpt><trkpt lat="45.92379053643665" lon="12.207332429045733"><ele>201.0</ele><time>2026-04-15T03:18:53.999Z</time></trkpt><trkpt lat="45.923668048686366" lon="12.2072661241344"><ele>199.25</ele><time>2026-04-15T03:18:54.999Z</time></trkpt><trkpt lat="45.92353333412074" lon="12.207216163869695"><ele>197.5</ele><time>2026-04-15T03:18:55.999Z</time></trkpt><trkpt lat="45.923395691173404" lon="12.207181669229888"><ele>195.75</ele><time>2026-04-15T03:18:56.999Z</time></trkpt><trkpt lat="45.923251818510025" lon="12.207147327202211"><ele>194.0</ele><time>2026-04-15T03:18:57.999Z</time></trkpt><trkpt lat="45.92310786824968" lon="12.2071087226019"><ele>194.0</ele><time>2026-04-15T03:18:58.999Z</time></trkpt><trkpt lat="45.92296620374912" lon="12.207070082552294"><ele>194.0</ele><time>2026-04-15T03:18:59.999Z</time></trkpt><trkpt lat="45.92282576811876" lon="12.207035279521826"><ele>194.0</ele><time>2026-04-15T03:19:00.999Z</time></trkpt><trkpt lat="45.922683817966124" lon="12.207008079698085"><ele>194.0</ele><time>2026-04-15T03:19:01.999Z</time></trkpt><trkpt lat="45.92254458007594" lon="12.206987868524001"><ele>193.75</ele><time>2026-04-15T03:19:02.999Z</time></trkpt><trkpt lat="45.92240486920768" lon="12.206968429537692"><ele>193.5</ele><time>2026-04-15T03:19:03.999Z</time></trkpt><trkpt lat="45.92226541719672" lon="12.206961199009797"><ele>193.25</ele><time>2026-04-15T03:19:04.999Z</time></trkpt><trkpt lat="45.922124378291244" lon="12.206968934263289"><ele>193.0</ele><time>2026-04-15T03:19:05.999Z</time></trkpt><trkpt lat="45.921981770515025" lon="12.206987353330431"><ele>193.0</ele><time>2026-04-15T03:19:06.999Z</time></trkpt><trkpt lat="45.92183484770741" lon="12.20701110117644"><ele>193.0</ele><time>2026-04-15T03:19:07.999Z</time></trkpt><trkpt lat="45.92168667391688" lon="12.207043470621574"><ele>193.0</ele><time>2026-04-15T03:19:08.999Z</time></trkpt><trkpt lat="45.92154148762622" lon="12.207082637595667"><ele>193.0</ele><time>2026-04-15T03:19:09.999Z</time></trkpt><trkpt lat="45.921396519500455" lon="12.207133417955943"><ele>192.75</ele><time>2026-04-15T03:19:10.999Z</time></trkpt><trkpt lat="45.921253810421646" lon="12.207189855254002"><ele>192.5</ele><time>2026-04-15T03:19:11.999Z</time></trkpt><trkpt lat="45.921112696193966" lon="12.207248845818834"><ele>192.25</ele><time>2026-04-15T03:19:12.999Z</time></trkpt><trkpt lat="45.920971759936364" lon="12.207309230743157"><ele>192.0</ele><time>2026-04-15T03:19:13.999Z</time></trkpt><trkpt lat="45.92083152035855" lon="12.207368900448417"><ele>191.75</ele><time>2026-04-15T03:19:14.999Z</time></trkpt><trkpt lat="45.92069429986253" lon="12.207431038597683"><ele>191.5</ele><time>2026-04-15T03:19:15.999Z</time></trkpt><trkpt lat="45.92055674304345" lon="12.207492216342828"><ele>191.25</ele><time>2026-04-15T03:19:16.999Z</time></trkpt><trkpt lat="45.920421785278585" lon="12.207552010318238"><ele>191.0</ele><time>2026-04-15T03:19:17.999Z</time></trkpt><trkpt lat="45.920292330957494" lon="12.20759778409448"><ele>191.0</ele><time>2026-04-15T03:19:18.999Z</time></trkpt><trkpt lat="45.92016506443717" lon="12.207613104237506"><ele>191.0</ele><time>2026-04-15T03:19:19.999Z</time></trkpt><trkpt lat="45.92004862761454" lon="12.207597921162142"><ele>191.0</ele><time>2026-04-15T03:19:20.999Z</time></trkpt><trkpt lat="45.91993066585388" lon="12.20752484265415"><ele>191.0</ele><time>2026-04-15T03:19:21.999Z</time></trkpt><trkpt lat="45.919863077071035" lon="12.207413233935622"><ele>189.60000000000002</ele><time>2026-04-15T03:19:22.999Z</time></trkpt><trkpt lat="45.91983770331699" lon="12.207267405796816"><ele>188.2</ele><time>2026-04-15T03:19:23.999Z</time></trkpt><trkpt lat="45.91985251469972" lon="12.207125363209943"><ele>186.8</ele><time>2026-04-15T03:19:24.998Z</time></trkpt><trkpt lat="45.919898975446586" lon="12.206999779257258"><ele>185.39999999999998</ele><time>2026-04-15T03:19:25.998Z</time></trkpt><trkpt lat="45.91997224525672" lon="12.206891999711551"><ele>184.0</ele><time>2026-04-15T03:19:26.998Z</time></trkpt><trkpt lat="45.92006724353046" lon="12.206817786899677"><ele>184.0</ele><time>2026-04-15T03:19:27.998Z</time></trkpt><trkpt lat="45.920163378304544" lon="12.206743955620258"><ele>184.0</ele><time>2026-04-15T03:19:28.998Z</time></trkpt><trkpt lat="45.92026398336287" lon="12.206664709009454"><ele>184.0</ele><time>2026-04-15T03:19:29.998Z</time></trkpt><trkpt lat="45.92036763966871" lon="12.206583705722856"><ele>184.0</ele><time>2026-04-15T03:19:30.999Z</time></trkpt><trkpt lat="45.920472468368324" lon="12.206499182904764"><ele>181.75</ele><time>2026-04-15T03:19:31.999Z</time></trkpt><trkpt lat="45.920574122737726" lon="12.206409237800301"><ele>179.5</ele><time>2026-04-15T03:19:32.999Z</time></trkpt><trkpt lat="45.92067658734681" lon="12.20632137462652"><ele>177.25</ele><time>2026-04-15T03:19:33.999Z</time></trkpt><trkpt lat="45.920777719729784" lon="12.206229375477372"><ele>175.0</ele><time>2026-04-15T03:19:34.999Z</time></trkpt><trkpt lat="45.92087516140099" lon="12.206135213730091"><ele>174.25</ele><time>2026-04-15T03:19:35.999Z</time></trkpt><trkpt lat="45.92096458831213" lon="12.206025225305677"><ele>173.5</ele><time>2026-04-15T03:19:36.999Z</time></trkpt><trkpt lat="45.92108590535013" lon="12.205963650933574"><ele>172.75</ele><time>2026-04-15T03:19:37.999Z</time></trkpt><trkpt lat="45.92109821139247" lon="12.20574698920967"><ele>172.0</ele><time>2026-04-15T03:19:38.999Z</time></trkpt><trkpt lat="45.92113387898026" lon="12.20558477657869"><ele>172.0</ele><time>2026-04-15T03:19:39.999Z</time></trkpt><trkpt lat="45.92114772850757" lon="12.205413336692917"><ele>172.0</ele><time>2026-04-15T03:19:40.999Z</time></trkpt><trkpt lat="45.921133925288856" lon="12.205241438195282"><ele>172.0</ele><time>2026-04-15T03:19:41.999Z</time></trkpt><trkpt lat="45.92110233266883" lon="12.205074558553576"><ele>172.0</ele><time>2026-04-15T03:19:42.999Z</time></trkpt><trkpt lat="45.92104990377952" lon="12.204913246124848"><ele>171.25</ele><time>2026-04-15T03:19:43.999Z</time></trkpt><trkpt lat="45.920982715183534" lon="12.204762259622704"><ele>170.5</ele><time>2026-04-15T03:19:44.999Z</time></trkpt><trkpt lat="45.92090692813611" lon="12.204619047320099"><ele>169.75</ele><time>2026-04-15T03:19:45.999Z</time></trkpt><trkpt lat="45.920826778369616" lon="12.204478963725231"><ele>169.0</ele><time>2026-04-15T03:19:46.999Z</time></trkpt><trkpt lat="45.92075014652549" lon="12.204334902679724"><ele>169.0</ele><time>2026-04-15T03:19:47.999Z</time></trkpt><trkpt lat="45.92067391703326" lon="12.20418948830239"><ele>169.0</ele><time>2026-04-15T03:19:48.999Z</time></trkpt><trkpt lat="45.920597494617866" lon="12.20405275941159"><ele>169.0</ele><time>2026-04-15T03:19:49.999Z</time></trkpt><trkpt lat="45.9205230616826" lon="12.203917738877323"><ele>169.0</ele><time>2026-04-15T03:19:50.999Z</time></trkpt><trkpt lat="45.920448100875774" lon="12.20378894986462"><ele>168.5</ele><time>2026-04-15T03:19:51.999Z</time></trkpt><trkpt lat="45.92036874565397" lon="12.203669607855469"><ele>168.0</ele><time>2026-04-15T03:19:52.999Z</time></trkpt><trkpt lat="45.920286002885305" lon="12.20355589234167"><ele>167.5</ele><time>2026-04-15T03:19:53.999Z</time></trkpt><trkpt lat="45.92019973005241" lon="12.203445028989904"><ele>167.0</ele><time>2026-04-15T03:19:54.999Z</time></trkpt><trkpt lat="45.920111860858306" lon="12.203334709923574"><ele>167.5</ele><time>2026-04-15T03:19:55.999Z</time></trkpt><trkpt lat="45.92001629649799" lon="12.20323719539666"><ele>168.0</ele><time>2026-04-15T03:19:56.999Z</time></trkpt><trkpt lat="45.919919641918746" lon="12.203138530713632"><ele>168.5</ele><time>2026-04-15T03:19:57.999Z</time></trkpt><trkpt lat="45.919818686624794" lon="12.203047936616063"><ele>169.0</ele><time>2026-04-15T03:19:58.999Z</time></trkpt><trkpt lat="45.919714521945224" lon="12.202962749407947"><ele>169.0</ele><time>2026-04-15T03:19:59.999Z</time></trkpt><trkpt lat="45.9196068225566" lon="12.202883772352342"><ele>169.0</ele><time>2026-04-15T03:20:00.999Z</time></trkpt><trkpt lat="45.91949733605429" lon="12.202811576566038"><ele>169.0</ele><time>2026-04-15T03:20:01.999Z</time></trkpt><trkpt lat="45.91938436421352" lon="12.20275215370358"><ele>169.0</ele><time>2026-04-15T03:20:02.999Z</time></trkpt><trkpt lat="45.91926794041473" lon="12.202706947459477"><ele>169.25</ele><time>2026-04-15T03:20:03.999Z</time></trkpt><trkpt lat="45.919150702725354" lon="12.202661693723705"><ele>169.5</ele><time>2026-04-15T03:20:04.999Z</time></trkpt><trkpt lat="45.91903422143507" lon="12.202618666303415"><ele>169.75</ele><time>2026-04-15T03:20:05.999Z</time></trkpt><trkpt lat="45.91891667135371" lon="12.2025803087254"><ele>170.0</ele><time>2026-04-15T03:20:06.999Z</time></trkpt><trkpt lat="45.918799546163065" lon="12.202543121618428"><ele>170.0</ele><time>2026-04-15T03:20:07.999Z</time></trkpt><trkpt lat="45.91867999933728" lon="12.20251059398662"><ele>170.0</ele><time>2026-04-15T03:20:08.999Z</time></trkpt><trkpt lat="45.918562100295055" lon="12.2024841664591"><ele>170.0</ele><time>2026-04-15T03:20:09.999Z</time></trkpt><trkpt lat="45.91844416264807" lon="12.202457631724023"><ele>170.0</ele><time>2026-04-15T03:20:10.999Z</time></trkpt><trkpt lat="45.9183257941442" lon="12.202432033418852"><ele>170.5</ele><time>2026-04-15T03:20:11.999Z</time></trkpt><trkpt lat="45.91820693662014" lon="12.202404160385564"><ele>171.0</ele><time>2026-04-15T03:20:12.999Z</time></trkpt><trkpt lat="45.918089113787985" lon="12.202373321882975"><ele>171.5</ele><time>2026-04-15T03:20:13.999Z</time></trkpt><trkpt lat="45.91797208463065" lon="12.202344965020094"><ele>172.0</ele><time>2026-04-15T03:20:14.999Z</time></trkpt><trkpt lat="45.917852489380664" lon="12.2023145815084"><ele>171.25</ele><time>2026-04-15T03:20:15.999Z</time></trkpt><trkpt lat="45.91773362626591" lon="12.20228237302299"><ele>170.5</ele><time>2026-04-15T03:20:16.999Z</time></trkpt><trkpt lat="45.91761437919413" lon="12.20224394093511"><ele>169.75</ele><time>2026-04-15T03:20:17.999Z</time></trkpt><trkpt lat="45.91749625426334" lon="12.20219065994636"><ele>169.0</ele><time>2026-04-15T03:20:18.999Z</time></trkpt><trkpt lat="45.917380664696516" lon="12.202128167250992"><ele>169.0</ele><time>2026-04-15T03:20:19.999Z</time></trkpt><trkpt lat="45.91726545788484" lon="12.202058402747273"><ele>169.0</ele><time>2026-04-15T03:20:20.999Z</time></trkpt><trkpt lat="45.917151812787175" lon="12.201978665894606"><ele>169.0</ele><time>2026-04-15T03:20:21.999Z</time></trkpt><trkpt lat="45.91704136860802" lon="12.201886120339557"><ele>169.0</ele><time>2026-04-15T03:20:22.999Z</time></trkpt><trkpt lat="45.91693255460365" lon="12.201788009901168"><ele>169.0</ele><time>2026-04-15T03:20:23.999Z</time></trkpt><trkpt lat="45.91682224515076" lon="12.201694141294373"><ele>169.0</ele><time>2026-04-15T03:20:24.999Z</time></trkpt><trkpt lat="45.91671216357934" lon="12.20159983008384"><ele>169.0</ele><time>2026-04-15T03:20:25.999Z</time></trkpt><trkpt lat="45.91660386134931" lon="12.20150250074293"><ele>169.0</ele><time>2026-04-15T03:20:26.999Z</time></trkpt><trkpt lat="45.916495523221485" lon="12.201403950002643"><ele>167.0</ele><time>2026-04-15T03:20:28Z</time></trkpt><trkpt lat="45.9163814308451" lon="12.201311624497702"><ele>165.0</ele><time>2026-04-15T03:20:29Z</time></trkpt><trkpt lat="45.916265109748025" lon="12.201220917281349"><ele>163.0</ele><time>2026-04-15T03:20:30Z</time></trkpt><trkpt lat="45.916146057528785" lon="12.201131590080466"><ele>161.0</ele><time>2026-04-15T03:20:31Z</time></trkpt><trkpt lat="45.91602164329654" lon="12.20104703775643"><ele>162.5</ele><time>2026-04-15T03:20:32Z</time></trkpt><trkpt lat="45.91589233094086" lon="12.200970233183154"><ele>164.0</ele><time>2026-04-15T03:20:33Z</time></trkpt><trkpt lat="45.91575904825851" lon="12.200904402662038"><ele>165.5</ele><time>2026-04-15T03:20:34Z</time></trkpt><trkpt lat="45.915623985403606" lon="12.200847056831691"><ele>167.0</ele><time>2026-04-15T03:20:35Z</time></trkpt><trkpt lat="45.91548044288471" lon="12.200797154262427"><ele>167.0</ele><time>2026-04-15T03:20:36Z</time></trkpt><trkpt lat="45.91533292015784" lon="12.200763535185194"><ele>167.0</ele><time>2026-04-15T03:20:37Z</time></trkpt><trkpt lat="45.915181498141706" lon="12.2007391265279"><ele>167.0</ele><time>2026-04-15T03:20:38Z</time></trkpt><trkpt lat="45.915024692396216" lon="12.200716049633234"><ele>167.0</ele><time>2026-04-15T03:20:39Z</time></trkpt><trkpt lat="45.91486924813406" lon="12.20069811111038"><ele>167.0</ele><time>2026-04-15T03:20:40Z</time></trkpt><trkpt lat="45.91471563754215" lon="12.200690422145039"><ele>167.0</ele><time>2026-04-15T03:20:41Z</time></trkpt><trkpt lat="45.9145626559228" lon="12.200678529120687"><ele>166.5</ele><time>2026-04-15T03:20:42Z</time></trkpt><trkpt lat="45.91441165313971" lon="12.200659720460948"><ele>166.0</ele><time>2026-04-15T03:20:43Z</time></trkpt><trkpt lat="45.914263644254966" lon="12.200629877444594"><ele>165.5</ele><time>2026-04-15T03:20:44Z</time></trkpt><trkpt lat="45.914123225129536" lon="12.200585343834616"><ele>165.0</ele><time>2026-04-15T03:20:45Z</time></trkpt><trkpt lat="45.913993579194766" lon="12.200530522072636"><ele>164.6</ele><time>2026-04-15T03:20:46Z</time></trkpt><trkpt lat="45.91389240468218" lon="12.200479537903739"><ele>164.2</ele><time>2026-04-15T03:20:47Z</time></trkpt><trkpt lat="45.91381391943585" lon="12.200422318046458"><ele>163.8</ele><time>2026-04-15T03:20:48Z</time></trkpt><trkpt lat="45.91375123214429" lon="12.200369437414022"><ele>163.4</ele><time>2026-04-15T03:20:49Z</time></trkpt><trkpt lat="45.9136390734547" lon="12.200490989121226"><ele>163.0</ele><time>2026-04-15T03:20:50Z</time></trkpt><trkpt lat="45.9135628810182" lon="12.200551334260044"><ele>163.0</ele><time>2026-04-15T03:20:51Z</time></trkpt><trkpt lat="45.91347162284965" lon="12.20058540220046"><ele>163.0</ele><time>2026-04-15T03:20:52Z</time></trkpt><trkpt lat="45.913370457224765" lon="12.200595156487616"><ele>163.0</ele><time>2026-04-15T03:20:53Z</time></trkpt><trkpt lat="45.913268198004" lon="12.200584592181912"><ele>163.0</ele><time>2026-04-15T03:20:54Z</time></trkpt><trkpt lat="45.91315864130241" lon="12.200559200197645"><ele>163.0</ele><time>2026-04-15T03:20:55Z</time></trkpt><trkpt lat="45.91304642289902" lon="12.200515649221387"><ele>163.0</ele><time>2026-04-15T03:20:56Z</time></trkpt><trkpt lat="45.91293094820208" lon="12.200444124403461"><ele>163.0</ele><time>2026-04-15T03:20:57Z</time></trkpt><trkpt lat="45.912806788530524" lon="12.200357306646149"><ele>163.0</ele><time>2026-04-15T03:20:58Z</time></trkpt><trkpt lat="45.91267099876227" lon="12.200274337756865"><ele>163.0</ele><time>2026-04-15T03:20:59Z</time></trkpt><trkpt lat="45.912525950232805" lon="12.20018316645859"><ele>162.66666666666669</ele><time>2026-04-15T03:21:00Z</time></trkpt><trkpt lat="45.9123817332255" lon="12.20009274657483"><ele>162.33333333333334</ele><time>2026-04-15T03:21:01Z</time></trkpt><trkpt lat="45.91224122900761" lon="12.199998674937856"><ele>162.0</ele><time>2026-04-15T03:21:02Z</time></trkpt><trkpt lat="45.91210211875345" lon="12.199906574281005"><ele>162.0</ele><time>2026-04-15T03:21:03Z</time></trkpt><trkpt lat="45.91196443354481" lon="12.19984735517642"><ele>162.0</ele><time>2026-04-15T03:21:04Z</time></trkpt><trkpt lat="45.91182700117958" lon="12.199823806631938"><ele>162.0</ele><time>2026-04-15T03:21:05Z</time></trkpt><trkpt lat="45.911693573273666" lon="12.199840198210666"><ele>162.0</ele><time>2026-04-15T03:21:06Z</time></trkpt><trkpt lat="45.91155997982456" lon="12.199904753920189"><ele>161.5</ele><time>2026-04-15T03:21:07Z</time></trkpt><trkpt lat="45.911435940117805" lon="12.20000222598505"><ele>161.0</ele><time>2026-04-15T03:21:08Z</time></trkpt><trkpt lat="45.91131092277832" lon="12.200114348738433"><ele>160.5</ele><time>2026-04-15T03:21:09Z</time></trkpt><trkpt lat="45.91118943347772" lon="12.20023504543383"><ele>160.0</ele><time>2026-04-15T03:21:10Z</time></trkpt><trkpt lat="45.91106068910725" lon="12.2003620382012"><ele>160.0</ele><time>2026-04-15T03:21:11Z</time></trkpt><trkpt lat="45.910923672100736" lon="12.200483610307055"><ele>160.0</ele><time>2026-04-15T03:21:12Z</time></trkpt><trkpt lat="45.91077555603462" lon="12.200585916055072"><ele>160.0</ele><time>2026-04-15T03:21:13Z</time></trkpt><trkpt lat="45.91062172643937" lon="12.200677161245302"><ele>159.33333333333334</ele><time>2026-04-15T03:21:14Z</time></trkpt><trkpt lat="45.91046162359952" lon="12.200761278080051"><ele>158.66666666666666</ele><time>2026-04-15T03:21:15Z</time></trkpt><trkpt lat="45.910295700193025" lon="12.200839889036677"><ele>158.0</ele><time>2026-04-15T03:21:16Z</time></trkpt><trkpt lat="45.9101268463595" lon="12.200917420817422"><ele>157.0</ele><time>2026-04-15T03:21:17Z</time></trkpt><trkpt lat="45.909952183985716" lon="12.20097851315497"><ele>156.0</ele><time>2026-04-15T03:21:18Z</time></trkpt><trkpt lat="45.90977198803031" lon="12.20100198040174"><ele>155.0</ele><time>2026-04-15T03:21:19Z</time></trkpt><trkpt lat="45.909588170997914" lon="12.200990119450873"><ele>155.0</ele><time>2026-04-15T03:21:20Z</time></trkpt><trkpt lat="45.90940367092" lon="12.200959886427173"><ele>155.0</ele><time>2026-04-15T03:21:21Z</time></trkpt><trkpt lat="45.90921800394372" lon="12.200927878586013"><ele>155.0</ele><time>2026-04-15T03:21:22Z</time></trkpt><trkpt lat="45.909031633281444" lon="12.200892079087945"><ele>154.66666666666666</ele><time>2026-04-15T03:21:23Z</time></trkpt><trkpt lat="45.908845004799616" lon="12.200850268003057"><ele>154.33333333333334</ele><time>2026-04-15T03:21:24Z</time></trkpt><trkpt lat="45.90866689919769" lon="12.200783441759294"><ele>154.0</ele><time>2026-04-15T03:21:25Z</time></trkpt><trkpt lat="45.90850369533207" lon="12.20067669289661"><ele>154.0</ele><time>2026-04-15T03:21:26Z</time></trkpt><trkpt lat="45.90835102858227" lon="12.200548944571254"><ele>154.0</ele><time>2026-04-15T03:21:27Z</time></trkpt><trkpt lat="45.908211134032236" lon="12.200401270063233"><ele>154.0</ele><time>2026-04-15T03:21:27.999Z</time></trkpt><trkpt lat="45.90806699422929" lon="12.200269765995827"><ele>154.0</ele><time>2026-04-15T03:21:28.999Z</time></trkpt><trkpt lat="45.90790998389748" lon="12.20017641382032"><ele>154.0</ele><time>2026-04-15T03:21:29.999Z</time></trkpt><trkpt lat="45.907743286843775" lon="12.20010451841506"><ele>154.0</ele><time>2026-04-15T03:21:30.999Z</time></trkpt><trkpt lat="45.90756994100824" lon="12.20004637238999"><ele>152.66666666666669</ele><time>2026-04-15T03:21:31.999Z</time></trkpt><trkpt lat="45.90739533851983" lon="12.199990820404151"><ele>151.33333333333334</ele><time>2026-04-15T03:21:32.999Z</time></trkpt><trkpt lat="45.90722580260819" lon="12.19993349296595"><ele>150.0</ele><time>2026-04-15T03:21:33.999Z</time></trkpt><trkpt lat="45.907065455274264" lon="12.19987889595829"><ele>150.33333333333334</ele><time>2026-04-15T03:21:34.999Z</time></trkpt><trkpt lat="45.906911021815795" lon="12.199831720928056"><ele>150.66666666666669</ele><time>2026-04-15T03:21:35.999Z</time></trkpt><trkpt lat="45.90676413318345" lon="12.19978186781183"><ele>151.0</ele><time>2026-04-15T03:21:37Z</time></trkpt><trkpt lat="45.906627824035084" lon="12.199714721898069"><ele>151.25</ele><time>2026-04-15T03:21:38Z</time></trkpt><trkpt lat="45.90650120537289" lon="12.199617530250878"><ele>151.5</ele><time>2026-04-15T03:21:39Z</time></trkpt><trkpt lat="45.90639155771777" lon="12.19948014468017"><ele>151.75</ele><time>2026-04-15T03:21:40Z</time></trkpt><trkpt lat="45.90628852794335" lon="12.19932262838955"><ele>152.0</ele><time>2026-04-15T03:21:41Z</time></trkpt><trkpt lat="45.906188119478784" lon="12.19915046667713"><ele>151.0</ele><time>2026-04-15T03:21:42Z</time></trkpt><trkpt lat="45.90609041215793" lon="12.198964253713068"><ele>150.0</ele><time>2026-04-15T03:21:43Z</time></trkpt><trkpt lat="45.906000542741054" lon="12.198767453151433"><ele>149.0</ele><time>2026-04-15T03:21:44Z</time></trkpt><trkpt lat="45.905911892619784" lon="12.198565151189076"><ele>148.66666666666666</ele><time>2026-04-15T03:21:45Z</time></trkpt><trkpt lat="45.9058256806923" lon="12.198361049999054"><ele>148.33333333333334</ele><time>2026-04-15T03:21:46Z</time></trkpt><trkpt lat="45.90574011865096" lon="12.198162075503625"><ele>148.0</ele><time>2026-04-15T03:21:47Z</time></trkpt><trkpt lat="45.9056581216715" lon="12.197977747848624"><ele>147.0</ele><time>2026-04-15T03:21:48Z</time></trkpt><trkpt lat="45.90558412883257" lon="12.197814157650946"><ele>146.0</ele><time>2026-04-15T03:21:49Z</time></trkpt><trkpt lat="45.905506212574075" lon="12.19767004257689"><ele>145.0</ele><time>2026-04-15T03:21:50Z</time></trkpt><trkpt lat="45.9054180238131" lon="12.19756466279253"><ele>144.0</ele><time>2026-04-15T03:21:51Z</time></trkpt><trkpt lat="45.90532272858256" lon="12.197498184640478"><ele>144.0</ele><time>2026-04-15T03:21:52Z</time></trkpt><trkpt lat="45.905219135653745" lon="12.197480958709402"><ele>144.0</ele><time>2026-04-15T03:21:53Z</time></trkpt><trkpt lat="45.90511228678286" lon="12.197496149485342"><ele>144.0</ele><time>2026-04-15T03:21:54Z</time></trkpt><trkpt lat="45.90500312512522" lon="12.197539576424907"><ele>144.0</ele><time>2026-04-15T03:21:55Z</time></trkpt><trkpt lat="45.904884759138554" lon="12.197585533623089"><ele>144.0</ele><time>2026-04-15T03:21:56Z</time></trkpt><trkpt lat="45.904759670785836" lon="12.197633590502056"><ele>144.0</ele><time>2026-04-15T03:21:57Z</time></trkpt><trkpt lat="45.904628114996605" lon="12.19768275287377"><ele>144.0</ele><time>2026-04-15T03:21:58Z</time></trkpt><trkpt lat="45.90448981908743" lon="12.197733520223357"><ele>144.0</ele><time>2026-04-15T03:21:59Z</time></trkpt><trkpt lat="45.9043474053618" lon="12.19778784746636"><ele>144.0</ele><time>2026-04-15T03:22:00Z</time></trkpt><trkpt lat="45.90420545374082" lon="12.197841342159103"><ele>143.25</ele><time>2026-04-15T03:22:01Z</time></trkpt><trkpt lat="45.90406247479851" lon="12.197876520706943"><ele>142.5</ele><time>2026-04-15T03:22:02Z</time></trkpt><trkpt lat="45.90391736507238" lon="12.19786614469606"><ele>141.75</ele><time>2026-04-15T03:22:03Z</time></trkpt><trkpt lat="45.90377515816154" lon="12.197819760957938"><ele>141.0</ele><time>2026-04-15T03:22:04Z</time></trkpt><trkpt lat="45.90363472808586" lon="12.197739803999516"><ele>141.0</ele><time>2026-04-15T03:22:05Z</time></trkpt><trkpt lat="45.90349433421096" lon="12.197662743422795"><ele>141.0</ele><time>2026-04-15T03:22:06Z</time></trkpt><trkpt lat="45.90335242556423" lon="12.197610052665379"><ele>141.0</ele><time>2026-04-15T03:22:07Z</time></trkpt><trkpt lat="45.90320308571773" lon="12.197600798299149"><ele>141.0</ele><time>2026-04-15T03:22:08Z</time></trkpt><trkpt lat="45.903052221771624" lon="12.197623241088227"><ele>140.33333333333334</ele><time>2026-04-15T03:22:09Z</time></trkpt><trkpt lat="45.90289751059433" lon="12.197664646873305"><ele>139.66666666666669</ele><time>2026-04-15T03:22:10Z</time></trkpt><trkpt lat="45.90274319685107" lon="12.19772068880043"><ele>139.0</ele><time>2026-04-15T03:22:11Z</time></trkpt><trkpt lat="45.90259065257027" lon="12.197797009485344"><ele>138.0</ele><time>2026-04-15T03:22:12Z</time></trkpt><trkpt lat="45.902439971666" lon="12.19789096474105"><ele>137.0</ele><time>2026-04-15T03:22:13Z</time></trkpt><trkpt lat="45.90229367957616" lon="12.197997259653237"><ele>136.0</ele><time>2026-04-15T03:22:14Z</time></trkpt><trkpt lat="45.90215463423318" lon="12.198108404240266"><ele>136.0</ele><time>2026-04-15T03:22:15Z</time></trkpt><trkpt lat="45.90202185222753" lon="12.198218634198623"><ele>136.0</ele><time>2026-04-15T03:22:16Z</time></trkpt><trkpt lat="45.90190387721833" lon="12.198320487867157"><ele>136.0</ele><time>2026-04-15T03:22:17Z</time></trkpt><trkpt lat="45.90180377706012" lon="12.198402802381004"><ele>136.0</ele><time>2026-04-15T03:22:18Z</time></trkpt><trkpt lat="45.9017320039672" lon="12.198463911158155"><ele>135.7142857142857</ele><time>2026-04-15T03:22:19Z</time></trkpt><trkpt lat="45.90167710441178" lon="12.198510500084762"><ele>135.42857142857142</ele><time>2026-04-15T03:22:20Z</time></trkpt><trkpt lat="45.901618064786376" lon="12.198562011003045"><ele>135.14285714285714</ele><time>2026-04-15T03:22:23Z</time></trkpt><trkpt lat="45.901556884980835" lon="12.198626621104248"><ele>134.85714285714283</ele><time>2026-04-15T03:22:25Z</time></trkpt><trkpt lat="45.901513438597526" lon="12.198694394821043"><ele>134.57142857142856</ele><time>2026-04-15T03:22:26Z</time></trkpt><trkpt lat="45.901475282004945" lon="12.198770920562081"><ele>134.28571428571428</ele><time>2026-04-15T03:22:27Z</time></trkpt><trkpt lat="45.901433522814216" lon="12.198848611820933"><ele>134.0</ele><time>2026-04-15T03:22:28Z</time></trkpt><trkpt lat="45.90138535077964" lon="12.19892480603731"><ele>134.0</ele><time>2026-04-15T03:22:29Z</time></trkpt><trkpt lat="45.901331001585305" lon="12.198977179962395"><ele>134.0</ele><time>2026-04-15T03:22:30Z</time></trkpt><trkpt lat="45.90123306745576" lon="12.198967291537105"><ele>134.0</ele><time>2026-04-15T03:22:32Z</time></trkpt><trkpt lat="45.90119575005485" lon="12.19884060370565"><ele>134.0</ele><time>2026-04-15T03:22:34Z</time></trkpt><trkpt lat="45.9011652286506" lon="12.198670931616446"><ele>134.0</ele><time>2026-04-15T03:22:36Z</time></trkpt><trkpt lat="45.90114585721201" lon="12.198584188060787"><ele>134.0</ele><time>2026-04-15T03:22:37Z</time></trkpt><trkpt lat="45.901106725453594" lon="12.198403278850758"><ele>134.0</ele><time>2026-04-15T03:22:39Z</time></trkpt><trkpt lat="45.9010837974705" lon="12.198296588062508"><ele>134.0</ele><time>2026-04-15T03:22:40Z</time></trkpt><trkpt lat="45.90105775215933" lon="12.198181807685414"><ele>134.0</ele><time>2026-04-15T03:22:41Z</time></trkpt><trkpt lat="45.90102980843339" lon="12.198069820256993"><ele>134.0</ele><time>2026-04-15T03:22:42Z</time></trkpt><trkpt lat="45.900997728567965" lon="12.1979500935957"><ele>134.0</ele><time>2026-04-15T03:22:43Z</time></trkpt><trkpt lat="45.900960702265266" lon="12.19783285021258"><ele>134.0</ele><time>2026-04-15T03:22:44Z</time></trkpt><trkpt lat="45.90091908645089" lon="12.197720074811064"><ele>134.4</ele><time>2026-04-15T03:22:45Z</time></trkpt><trkpt lat="45.900871359766974" lon="12.197600467913453"><ele>134.8</ele><time>2026-04-15T03:22:46Z</time></trkpt><trkpt lat="45.900826165646905" lon="12.197459943631277"><ele>135.2</ele><time>2026-04-15T03:22:47Z</time></trkpt><trkpt lat="45.90078687113924" lon="12.19730107287976"><ele>135.6</ele><time>2026-04-15T03:22:48Z</time></trkpt><trkpt lat="45.90074681610438" lon="12.197133437127661"><ele>136.0</ele><time>2026-04-15T03:22:49Z</time></trkpt><trkpt lat="45.9007039782408" lon="12.196968303696602"><ele>136.75</ele><time>2026-04-15T03:22:50Z</time></trkpt><trkpt lat="45.900663195908294" lon="12.196806654138191"><ele>137.5</ele><time>2026-04-15T03:22:51Z</time></trkpt><trkpt lat="45.90062215542237" lon="12.196639072323554"><ele>138.25</ele><time>2026-04-15T03:22:52Z</time></trkpt><trkpt lat="45.9005776977494" lon="12.19646231197524"><ele>139.0</ele><time>2026-04-15T03:22:53Z</time></trkpt><trkpt lat="45.90052929212464" lon="12.196276591776174"><ele>139.33333333333334</ele><time>2026-04-15T03:22:54Z</time></trkpt><trkpt lat="45.90047745969842" lon="12.196083027691708"><ele>139.66666666666666</ele><time>2026-04-15T03:22:55Z</time></trkpt><trkpt lat="45.900420890402344" lon="12.195881379944492"><ele>140.0</ele><time>2026-04-15T03:22:56Z</time></trkpt><trkpt lat="45.90036028645466" lon="12.195673898368634"><ele>140.33333333333331</ele><time>2026-04-15T03:22:57Z</time></trkpt><trkpt lat="45.90029651514895" lon="12.195459392950593"><ele>140.66666666666666</ele><time>2026-04-15T03:22:58Z</time></trkpt><trkpt lat="45.90022670492214" lon="12.195242762745861"><ele>141.0</ele><time>2026-04-15T03:22:59Z</time></trkpt><trkpt lat="45.90015113622625" lon="12.195024071908142"><ele>141.66666666666666</ele><time>2026-04-15T03:23:00Z</time></trkpt><trkpt lat="45.90006951167058" lon="12.194801011968707"><ele>142.33333333333331</ele><time>2026-04-15T03:23:01Z</time></trkpt><trkpt lat="45.8999816567132" lon="12.194576134187848"><ele>143.0</ele><time>2026-04-15T03:23:02Z</time></trkpt><trkpt lat="45.89989184721257" lon="12.194346365952136"><ele>143.0</ele><time>2026-04-15T03:23:03Z</time></trkpt><trkpt lat="45.899799516519614" lon="12.194121226699238"><ele>143.0</ele><time>2026-04-15T03:23:04Z</time></trkpt><trkpt lat="45.899705973783234" lon="12.19389942870895"><ele>143.0</ele><time>2026-04-15T03:23:05Z</time></trkpt><trkpt lat="45.8996045376617" lon="12.193679801542611"><ele>143.0</ele><time>2026-04-15T03:23:06Z</time></trkpt><trkpt lat="45.899497594078774" lon="12.193463048448399"><ele>143.0</ele><time>2026-04-15T03:23:07Z</time></trkpt><trkpt lat="45.899389182082395" lon="12.19324445435757"><ele>143.0</ele><time>2026-04-15T03:23:08Z</time></trkpt><trkpt lat="45.899275611719" lon="12.193026278142087"><ele>143.66666666666666</ele><time>2026-04-15T03:23:09Z</time></trkpt><trkpt lat="45.899150230062745" lon="12.192817866779567"><ele>144.33333333333334</ele><time>2026-04-15T03:23:10Z</time></trkpt><trkpt lat="45.899018391487424" lon="12.192613930081391"><ele>145.0</ele><time>2026-04-15T03:23:11Z</time></trkpt><trkpt lat="45.89888112835917" lon="12.192414923531112"><ele>144.66666666666669</ele><time>2026-04-15T03:23:12Z</time></trkpt><trkpt lat="45.8987398990393" lon="12.192217300900287"><ele>144.33333333333334</ele><time>2026-04-15T03:23:13Z</time></trkpt><trkpt lat="45.898595069720784" lon="12.192019358686755"><ele>144.0</ele><time>2026-04-15T03:23:14Z</time></trkpt><trkpt lat="45.89844919039157" lon="12.191819126542658"><ele>143.33333333333334</ele><time>2026-04-15T03:23:15Z</time></trkpt><trkpt lat="45.8983006154029" lon="12.19162119609383"><ele>142.66666666666669</ele><time>2026-04-15T03:23:16Z</time></trkpt><trkpt lat="45.898154823067216" lon="12.191423042231483"><ele>142.0</ele><time>2026-04-15T03:23:17Z</time></trkpt><trkpt lat="45.89800968629926" lon="12.191226175579345"><ele>141.66666666666669</ele><time>2026-04-15T03:23:18Z</time></trkpt><trkpt lat="45.89786578480712" lon="12.191032453700146"><ele>141.33333333333334</ele><time>2026-04-15T03:23:19Z</time></trkpt><trkpt lat="45.89772309792552" lon="12.190840859252415"><ele>141.0</ele><time>2026-04-15T03:23:20Z</time></trkpt><trkpt lat="45.897582515927525" lon="12.190651609727343"><ele>141.66666666666666</ele><time>2026-04-15T03:23:21Z</time></trkpt><trkpt lat="45.89744383643244" lon="12.190464433177429"><ele>142.33333333333331</ele><time>2026-04-15T03:23:22Z</time></trkpt><trkpt lat="45.8973056888688" lon="12.19028125997136"><ele>143.0</ele><time>2026-04-15T03:23:23Z</time></trkpt><trkpt lat="45.89716952565833" lon="12.190098741695127"><ele>143.0</ele><time>2026-04-15T03:23:24Z</time></trkpt><trkpt lat="45.897035063577086" lon="12.189920140592172"><ele>143.0</ele><time>2026-04-15T03:23:25Z</time></trkpt><trkpt lat="45.89690065647723" lon="12.189746462145248"><ele>143.0</ele><time>2026-04-15T03:23:26Z</time></trkpt><trkpt lat="45.89676495054539" lon="12.189578291197483"><ele>142.66666666666666</ele><time>2026-04-15T03:23:27Z</time></trkpt><trkpt lat="45.896626863308" lon="12.189419350217893"><ele>142.33333333333334</ele><time>2026-04-15T03:23:28Z</time></trkpt><trkpt lat="45.896486097863836" lon="12.189266812112693"><ele>142.0</ele><time>2026-04-15T03:23:29Z</time></trkpt><trkpt lat="45.896344177856264" lon="12.189121062379456"><ele>142.0</ele><time>2026-04-15T03:23:30Z</time></trkpt><trkpt lat="45.89619908216158" lon="12.188984176038183"><ele>142.0</ele><time>2026-04-15T03:23:30.999Z</time></trkpt><trkpt lat="45.896051838820625" lon="12.188854774600518"><ele>142.0</ele><time>2026-04-15T03:23:31.999Z</time></trkpt><trkpt lat="45.895904620340794" lon="12.18872806061909"><ele>142.66666666666669</ele><time>2026-04-15T03:23:32.999Z</time></trkpt><trkpt lat="45.89575472261007" lon="12.18861091422067"><ele>143.33333333333334</ele><time>2026-04-15T03:23:33.999Z</time></trkpt><trkpt lat="45.8956013846664" lon="12.1885075353947"><ele>144.0</ele><time>2026-04-15T03:23:34.999Z</time></trkpt><trkpt lat="45.89544647006159" lon="12.188408158091473"><ele>144.0</ele><time>2026-04-15T03:23:35.999Z</time></trkpt><trkpt lat="45.89528975896076" lon="12.188314688784558"><ele>144.0</ele><time>2026-04-15T03:23:36.999Z</time></trkpt><trkpt lat="45.895134859990094" lon="12.188223106922024"><ele>144.0</ele><time>2026-04-15T03:23:37.999Z</time></trkpt><trkpt lat="45.89497943262251" lon="12.188132689583782"><ele>143.33333333333334</ele><time>2026-04-15T03:23:38.999Z</time></trkpt><trkpt lat="45.894825190200876" lon="12.188041351037896"><ele>142.66666666666669</ele><time>2026-04-15T03:23:39.999Z</time></trkpt><trkpt lat="45.89467115985551" lon="12.187950358533259"><ele>142.0</ele><time>2026-04-15T03:23:40.999Z</time></trkpt><trkpt lat="45.89451668886462" lon="12.187861769909949"><ele>142.0</ele><time>2026-04-15T03:23:41.999Z</time></trkpt><trkpt lat="45.89436289127448" lon="12.187772886519026"><ele>142.0</ele><time>2026-04-15T03:23:43Z</time></trkpt><trkpt lat="45.894209375175016" lon="12.187684366308986"><ele>142.0</ele><time>2026-04-15T03:23:44Z</time></trkpt><trkpt lat="45.89405567010547" lon="12.187597190279385"><ele>141.0</ele><time>2026-04-15T03:23:45Z</time></trkpt><trkpt lat="45.893902436210986" lon="12.187511175420342"><ele>140.0</ele><time>2026-04-15T03:23:46Z</time></trkpt><trkpt lat="45.89375014076649" lon="12.18742264888248"><ele>139.0</ele><time>2026-04-15T03:23:47Z</time></trkpt><trkpt lat="45.89360021581214" lon="12.187331133606474"><ele>139.0</ele><time>2026-04-15T03:23:48Z</time></trkpt><trkpt lat="45.89345146872504" lon="12.187236679911459"><ele>139.0</ele><time>2026-04-15T03:23:49Z</time></trkpt><trkpt lat="45.89330220886807" lon="12.187143103936522"><ele>139.0</ele><time>2026-04-15T03:23:50Z</time></trkpt><trkpt lat="45.89315213176635" lon="12.187053531635621"><ele>139.33333333333334</ele><time>2026-04-15T03:23:51Z</time></trkpt><trkpt lat="45.89300111276617" lon="12.18696840077215"><ele>139.66666666666666</ele><time>2026-04-15T03:23:52Z</time></trkpt><trkpt lat="45.892850268749335" lon="12.186885223969167"><ele>140.0</ele><time>2026-04-15T03:23:53Z</time></trkpt><trkpt lat="45.89269754145933" lon="12.186802057378012"><ele>139.0</ele><time>2026-04-15T03:23:54Z</time></trkpt><trkpt lat="45.89254457031365" lon="12.186720059309412"><ele>138.0</ele><time>2026-04-15T03:23:55Z</time></trkpt><trkpt lat="45.89239100356514" lon="12.186633258779295"><ele>137.0</ele><time>2026-04-15T03:23:56Z</time></trkpt><trkpt lat="45.89223734451963" lon="12.186540910825551"><ele>136.33333333333331</ele><time>2026-04-15T03:23:57Z</time></trkpt><trkpt lat="45.89208291477587" lon="12.186443689649119"><ele>135.66666666666666</ele><time>2026-04-15T03:23:58Z</time></trkpt><trkpt lat="45.891928225375395" lon="12.18634053490673"><ele>135.0</ele><time>2026-04-15T03:23:59Z</time></trkpt><trkpt lat="45.89177579037822" lon="12.186229587083211"><ele>135.0</ele><time>2026-04-15T03:24:00Z</time></trkpt><trkpt lat="45.891624733770314" lon="12.186110203462492"><ele>135.0</ele><time>2026-04-15T03:24:01Z</time></trkpt><trkpt lat="45.891474648593565" lon="12.185982963720887"><ele>135.0</ele><time>2026-04-15T03:24:02Z</time></trkpt><trkpt lat="45.8913260683957" lon="12.185848837277813"><ele>135.0</ele><time>2026-04-15T03:24:03Z</time></trkpt><trkpt lat="45.8911780237377" lon="12.185708280192756"><ele>135.0</ele><time>2026-04-15T03:24:04Z</time></trkpt><trkpt lat="45.89103319243214" lon="12.185557796151468"><ele>135.0</ele><time>2026-04-15T03:24:05Z</time></trkpt><trkpt lat="45.89089287811905" lon="12.18539547319614"><ele>135.0</ele><time>2026-04-15T03:24:06Z</time></trkpt><trkpt lat="45.8907572134321" lon="12.185222448612324"><ele>135.0</ele><time>2026-04-15T03:24:07Z</time></trkpt><trkpt lat="45.89062551733404" lon="12.185038844307828"><ele>135.0</ele><time>2026-04-15T03:24:08Z</time></trkpt><trkpt lat="45.89049530265049" lon="12.184845446015231"><ele>135.0</ele><time>2026-04-15T03:24:09Z</time></trkpt><trkpt lat="45.890368455598406" lon="12.184645626701794"><ele>135.0</ele><time>2026-04-15T03:24:10Z</time></trkpt><trkpt lat="45.89024810711807" lon="12.184435338287921"><ele>135.0</ele><time>2026-04-15T03:24:11Z</time></trkpt><trkpt lat="45.89013006883761" lon="12.184217972587486"><ele>135.0</ele><time>2026-04-15T03:24:12Z</time></trkpt><trkpt lat="45.8900172671671" lon="12.183992965195449"><ele>135.0</ele><time>2026-04-15T03:24:13Z</time></trkpt><trkpt lat="45.88991432753533" lon="12.183756256277693"><ele>135.0</ele><time>2026-04-15T03:24:14Z</time></trkpt><trkpt lat="45.8898174098421" lon="12.18351370998376"><ele>135.0</ele><time>2026-04-15T03:24:15Z</time></trkpt><trkpt lat="45.88972741835538" lon="12.183263149583832"><ele>135.0</ele><time>2026-04-15T03:24:16Z</time></trkpt><trkpt lat="45.88964249355199" lon="12.183009504721722"><ele>135.0</ele><time>2026-04-15T03:24:17Z</time></trkpt><trkpt lat="45.88956197779902" lon="12.182752043295014"><ele>134.66666666666666</ele><time>2026-04-15T03:24:18Z</time></trkpt><trkpt lat="45.88948517388989" lon="12.182493205355062"><ele>134.33333333333331</ele><time>2026-04-15T03:24:19Z</time></trkpt><trkpt lat="45.88941055771889" lon="12.182233457374414"><ele>134.0</ele><time>2026-04-15T03:24:20Z</time></trkpt><trkpt lat="45.88933462177081" lon="12.181974564120928"><ele>133.0</ele><time>2026-04-15T03:24:21Z</time></trkpt><trkpt lat="45.88925910025751" lon="12.18171509734758"><ele>132.0</ele><time>2026-04-15T03:24:22Z</time></trkpt><trkpt lat="45.88918333353053" lon="12.181454979162751"><ele>131.0</ele><time>2026-04-15T03:24:23Z</time></trkpt><trkpt lat="45.88910435875283" lon="12.181191819649886"><ele>130.66666666666666</ele><time>2026-04-15T03:24:24Z</time></trkpt><trkpt lat="45.8890267582318" lon="12.180925736234265"><ele>130.33333333333334</ele><time>2026-04-15T03:24:25Z</time></trkpt><trkpt lat="45.88895087070254" lon="12.1806547361655"><ele>130.0</ele><time>2026-04-15T03:24:26Z</time></trkpt><trkpt lat="45.888867109843446" lon="12.180382621838753"><ele>130.0</ele><time>2026-04-15T03:24:27Z</time></trkpt><trkpt lat="45.88878774297775" lon="12.180104958964826"><ele>130.0</ele><time>2026-04-15T03:24:28Z</time></trkpt><trkpt lat="45.888705004237714" lon="12.17982704410076"><ele>130.0</ele><time>2026-04-15T03:24:29Z</time></trkpt><trkpt lat="45.88862141759905" lon="12.179544619576"><ele>130.33333333333334</ele><time>2026-04-15T03:24:30Z</time></trkpt><trkpt lat="45.88854157022153" lon="12.179265777940179"><ele>130.66666666666666</ele><time>2026-04-15T03:24:31Z</time></trkpt><trkpt lat="45.8884589204856" lon="12.178989033100727"><ele>131.0</ele><time>2026-04-15T03:24:32Z</time></trkpt><trkpt lat="45.88837745168174" lon="12.17872239631576"><ele>131.0</ele><time>2026-04-15T03:24:33Z</time></trkpt><trkpt lat="45.888293650007626" lon="12.178464425944377"><ele>131.0</ele><time>2026-04-15T03:24:34Z</time></trkpt><trkpt lat="45.88820469850862" lon="12.178213903953795"><ele>131.0</ele><time>2026-04-15T03:24:35Z</time></trkpt><trkpt lat="45.88810956091455" lon="12.17797074016771"><ele>131.0</ele><time>2026-04-15T03:24:36Z</time></trkpt><trkpt lat="45.88800873367585" lon="12.177733515412537"><ele>131.0</ele><time>2026-04-15T03:24:37Z</time></trkpt><trkpt lat="45.88790617026185" lon="12.17749796688744"><ele>131.0</ele><time>2026-04-15T03:24:38Z</time></trkpt><trkpt lat="45.88779340046166" lon="12.177272174813586"><ele>131.0</ele><time>2026-04-15T03:24:39Z</time></trkpt><trkpt lat="45.88767601591814" lon="12.17705085020975"><ele>131.0</ele><time>2026-04-15T03:24:40Z</time></trkpt><trkpt lat="45.88755371666001" lon="12.1768368733175"><ele>131.0</ele><time>2026-04-15T03:24:41Z</time></trkpt><trkpt lat="45.8874235390258" lon="12.176628303638417"><ele>131.0</ele><time>2026-04-15T03:24:42Z</time></trkpt><trkpt lat="45.887287966818754" lon="12.176424251829532"><ele>131.0</ele><time>2026-04-15T03:24:43Z</time></trkpt><trkpt lat="45.88714717646736" lon="12.176223834463089"><ele>131.0</ele><time>2026-04-15T03:24:44Z</time></trkpt><trkpt lat="45.88700390260766" lon="12.176025411482813"><ele>131.0</ele><time>2026-04-15T03:24:45Z</time></trkpt><trkpt lat="45.88685928012421" lon="12.175827573347597"><ele>131.0</ele><time>2026-04-15T03:24:46Z</time></trkpt><trkpt lat="45.88671417628715" lon="12.175626091505574"><ele>131.0</ele><time>2026-04-15T03:24:47Z</time></trkpt><trkpt lat="45.886571436917194" lon="12.175420980069742"><ele>130.33333333333331</ele><time>2026-04-15T03:24:48Z</time></trkpt><trkpt lat="45.88642856967574" lon="12.175215038172608"><ele>129.66666666666666</ele><time>2026-04-15T03:24:49Z</time></trkpt><trkpt lat="45.886282079630426" lon="12.175012286188265"><ele>129.0</ele><time>2026-04-15T03:24:50Z</time></trkpt><trkpt lat="45.88613468854517" lon="12.174808903435093"><ele>129.66666666666666</ele><time>2026-04-15T03:24:51Z</time></trkpt><trkpt lat="45.88598781696391" lon="12.17460402711159"><ele>130.33333333333331</ele><time>2026-04-15T03:24:52Z</time></trkpt><trkpt lat="45.885839103564244" lon="12.174397947043426"><ele>131.0</ele><time>2026-04-15T03:24:53Z</time></trkpt><trkpt lat="45.88568983140168" lon="12.174193644669108"><ele>131.66666666666666</ele><time>2026-04-15T03:24:54Z</time></trkpt><trkpt lat="45.88553957290309" lon="12.173986784788589"><ele>132.33333333333334</ele><time>2026-04-15T03:24:55Z</time></trkpt><trkpt lat="45.8853897746835" lon="12.1737782482335"><ele>133.0</ele><time>2026-04-15T03:24:56Z</time></trkpt><trkpt lat="45.88523904853439" lon="12.173568516835745"><ele>132.0</ele><time>2026-04-15T03:24:57Z</time></trkpt><trkpt lat="45.88508742520175" lon="12.173357468329227"><ele>131.0</ele><time>2026-04-15T03:24:58Z</time></trkpt><trkpt lat="45.88493414122914" lon="12.17314576432227"><ele>130.0</ele><time>2026-04-15T03:24:59Z</time></trkpt><trkpt lat="45.88478104815584" lon="12.172934245694037"><ele>130.0</ele><time>2026-04-15T03:25:00Z</time></trkpt><trkpt lat="45.88462775904811" lon="12.172720950325237"><ele>130.0</ele><time>2026-04-15T03:25:01Z</time></trkpt><trkpt lat="45.884477653199475" lon="12.172504391722738"><ele>130.0</ele><time>2026-04-15T03:25:02Z</time></trkpt><trkpt lat="45.884330015262286" lon="12.172283990312673"><ele>130.0</ele><time>2026-04-15T03:25:03Z</time></trkpt><trkpt lat="45.88419128095296" lon="12.172053712735025"><ele>130.0</ele><time>2026-04-15T03:25:04Z</time></trkpt><trkpt lat="45.88403359386023" lon="12.171856728278716"><ele>130.0</ele><time>2026-04-15T03:25:05Z</time></trkpt><trkpt lat="45.88393906871017" lon="12.171576515782222"><ele>130.0</ele><time>2026-04-15T03:25:06Z</time></trkpt><trkpt lat="45.88382244262916" lon="12.17132697058942"><ele>130.0</ele><time>2026-04-15T03:25:07Z</time></trkpt><trkpt lat="45.88371291864301" lon="12.171073289275457"><ele>130.0</ele><time>2026-04-15T03:25:08Z</time></trkpt><trkpt lat="45.8836108090515" lon="12.170815434983716"><ele>129.66666666666669</ele><time>2026-04-15T03:25:09Z</time></trkpt><trkpt lat="45.88351366081496" lon="12.170556409643135"><ele>129.33333333333334</ele><time>2026-04-15T03:25:10Z</time></trkpt><trkpt lat="45.88341539253371" lon="12.1702956281633"><ele>129.0</ele><time>2026-04-15T03:25:11Z</time></trkpt><trkpt lat="45.883319462514834" lon="12.170034348811603"><ele>128.0</ele><time>2026-04-15T03:25:12Z</time></trkpt><trkpt lat="45.88322186013508" lon="12.169772900715452"><ele>127.0</ele><time>2026-04-15T03:25:13Z</time></trkpt><trkpt lat="45.88312262604292" lon="12.169510708172933"><ele>126.0</ele><time>2026-04-15T03:25:14Z</time></trkpt><trkpt lat="45.88302338710368" lon="12.169249870541469"><ele>126.66666666666666</ele><time>2026-04-15T03:25:15Z</time></trkpt><trkpt lat="45.88292468570048" lon="12.168986833752005"><ele>127.33333333333333</ele><time>2026-04-15T03:25:16Z</time></trkpt><trkpt lat="45.882824244589706" lon="12.168722892656026"><ele>128.0</ele><time>2026-04-15T03:25:17Z</time></trkpt><trkpt lat="45.88272178855984" lon="12.168460910755593"><ele>128.0</ele><time>2026-04-15T03:25:18Z</time></trkpt><trkpt lat="45.88261873582277" lon="12.168197649344474"><ele>128.0</ele><time>2026-04-15T03:25:19Z</time></trkpt><trkpt lat="45.882512530880604" lon="12.167933537134815"><ele>128.0</ele><time>2026-04-15T03:25:20Z</time></trkpt><trkpt lat="45.882401258181375" lon="12.167670978969568"><ele>126.33333333333333</ele><time>2026-04-15T03:25:21Z</time></trkpt><trkpt lat="45.882284615343266" lon="12.167411400789181"><ele>124.66666666666666</ele><time>2026-04-15T03:25:22Z</time></trkpt><trkpt lat="45.882164582682336" lon="12.167151470840153"><ele>123.0</ele><time>2026-04-15T03:25:23Z</time></trkpt><trkpt lat="45.882035625996764" lon="12.166899316165807"><ele>123.0</ele><time>2026-04-15T03:25:24Z</time></trkpt><trkpt lat="45.88189664391756" lon="12.166656152703116"><ele>123.0</ele><time>2026-04-15T03:25:25Z</time></trkpt><trkpt lat="45.88175065012812" lon="12.166419989470898"><ele>123.0</ele><time>2026-04-15T03:25:26Z</time></trkpt><trkpt lat="45.88159752229428" lon="12.166191982620544"><ele>123.0</ele><time>2026-04-15T03:25:27Z</time></trkpt><trkpt lat="45.881438246457776" lon="12.165973338568474"><ele>123.0</ele><time>2026-04-15T03:25:28Z</time></trkpt><trkpt lat="45.881275676820074" lon="12.16576750201079"><ele>123.0</ele><time>2026-04-15T03:25:29Z</time></trkpt><trkpt lat="45.881112731608866" lon="12.165574636417002"><ele>123.33333333333334</ele><time>2026-04-15T03:25:30Z</time></trkpt><trkpt lat="45.880950131167324" lon="12.165393737813696"><ele>123.66666666666667</ele><time>2026-04-15T03:25:31Z</time></trkpt><trkpt lat="45.88078466219286" lon="12.16522772177851"><ele>124.0</ele><time>2026-04-15T03:25:32Z</time></trkpt><trkpt lat="45.880619395150525" lon="12.165074055099069"><ele>123.66666666666667</ele><time>2026-04-15T03:25:33Z</time></trkpt><trkpt lat="45.88045423910633" lon="12.16493033019719"><ele>123.33333333333334</ele><time>2026-04-15T03:25:34Z</time></trkpt><trkpt lat="45.880299331515054" lon="12.164804036443696"><ele>123.0</ele><time>2026-04-15T03:25:34.999Z</time></trkpt><trkpt lat="45.88015830692141" lon="12.164690965566539"><ele>123.75</ele><time>2026-04-15T03:25:35.999Z</time></trkpt><trkpt lat="45.88002697383107" lon="12.164585759122465"><ele>124.5</ele><time>2026-04-15T03:25:36.999Z</time></trkpt><trkpt lat="45.87991034887564" lon="12.164479226757761"><ele>125.25</ele><time>2026-04-15T03:25:37.999Z</time></trkpt><trkpt lat="45.879805587857575" lon="12.16435619186602"><ele>126.0</ele><time>2026-04-15T03:25:38.999Z</time></trkpt><trkpt lat="45.87971825563635" lon="12.164215260254682"><ele>126.0</ele><time>2026-04-15T03:25:39.999Z</time></trkpt><trkpt lat="45.87963998542403" lon="12.164088915871105"><ele>126.0</ele><time>2026-04-15T03:25:40.999Z</time></trkpt><trkpt lat="45.879549279967705" lon="12.164011027068888"><ele>126.0</ele><time>2026-04-15T03:25:41.999Z</time></trkpt><trkpt lat="45.87944248573838" lon="12.163957311284186"><ele>126.0</ele><time>2026-04-15T03:25:42.999Z</time></trkpt><trkpt lat="45.87934111493078" lon="12.163972649683453"><ele>126.0</ele><time>2026-04-15T03:25:43.999Z</time></trkpt><trkpt lat="45.879233965514544" lon="12.164024815482996"><ele>126.0</ele><time>2026-04-15T03:25:44.999Z</time></trkpt><trkpt lat="45.87912895251107" lon="12.16407321951676"><ele>126.0</ele><time>2026-04-15T03:25:45.999Z</time></trkpt><trkpt lat="45.87901836818439" lon="12.164057214140497"><ele>126.0</ele><time>2026-04-15T03:25:46.999Z</time></trkpt><trkpt lat="45.87889730710989" lon="12.164025755697223"><ele>126.0</ele><time>2026-04-15T03:25:47.999Z</time></trkpt><trkpt lat="45.87876629256805" lon="12.163986130676383"><ele>125.33333333333334</ele><time>2026-04-15T03:25:49Z</time></trkpt><trkpt lat="45.87862540568602" lon="12.16393900117279"><ele>124.66666666666667</ele><time>2026-04-15T03:25:50Z</time></trkpt><trkpt lat="45.878473691006995" lon="12.163891459196135"><ele>124.0</ele><time>2026-04-15T03:25:51Z</time></trkpt><trkpt lat="45.87831413220855" lon="12.163840172431833"><ele>123.33333333333334</ele><time>2026-04-15T03:25:52Z</time></trkpt><trkpt lat="45.8781437017149" lon="12.163782923035148"><ele>122.66666666666666</ele><time>2026-04-15T03:25:53Z</time></trkpt><trkpt lat="45.877965169385796" lon="12.163726226879222"><ele>122.0</ele><time>2026-04-15T03:25:54Z</time></trkpt><trkpt lat="45.877778536245856" lon="12.163669257996297"><ele>122.0</ele><time>2026-04-15T03:25:55Z</time></trkpt><trkpt lat="45.877585529470664" lon="12.163608819008257"><ele>122.0</ele><time>2026-04-15T03:25:56Z</time></trkpt><trkpt lat="45.877389479945855" lon="12.163545940418913"><ele>122.0</ele><time>2026-04-15T03:25:57Z</time></trkpt><trkpt lat="45.877199058454536" lon="12.163486220196388"><ele>122.0</ele><time>2026-04-15T03:25:58Z</time></trkpt><trkpt lat="45.87700186397561" lon="12.163425425428459"><ele>122.0</ele><time>2026-04-15T03:25:59Z</time></trkpt><trkpt lat="45.87679914572927" lon="12.163365486239092"><ele>122.0</ele><time>2026-04-15T03:26:00Z</time></trkpt><trkpt lat="45.87659004808834" lon="12.163301485420423"><ele>121.33333333333333</ele><time>2026-04-15T03:26:01Z</time></trkpt><trkpt lat="45.87637651419723" lon="12.163234608369944"><ele>120.66666666666666</ele><time>2026-04-15T03:26:02Z</time></trkpt><trkpt lat="45.87615714556647" lon="12.16316475619842"><ele>120.0</ele><time>2026-04-15T03:26:03Z</time></trkpt><trkpt lat="45.87593282745736" lon="12.16309658306156"><ele>119.0</ele><time>2026-04-15T03:26:04Z</time></trkpt><trkpt lat="45.87570415734016" lon="12.163026350139107"><ele>118.0</ele><time>2026-04-15T03:26:05Z</time></trkpt><trkpt lat="45.87547194190352" lon="12.1629520300652"><ele>118.0</ele><time>2026-04-15T03:26:06Z</time></trkpt><trkpt lat="45.87523679225103" lon="12.162879539918984"><ele>118.0</ele><time>2026-04-15T03:26:07Z</time></trkpt><trkpt lat="45.875004746896245" lon="12.162810546056509"><ele>119.0</ele><time>2026-04-15T03:26:08Z</time></trkpt><trkpt lat="45.87477597938629" lon="12.162741228406276"><ele>120.0</ele><time>2026-04-15T03:26:09Z</time></trkpt><trkpt lat="45.874550673119955" lon="12.162670388075199"><ele>120.0</ele><time>2026-04-15T03:26:10Z</time></trkpt><trkpt lat="45.8743286720036" lon="12.16259334132802"><ele>120.0</ele><time>2026-04-15T03:26:11Z</time></trkpt><trkpt lat="45.87411010581023" lon="12.162510555418258"><ele>119.66666666666666</ele><time>2026-04-15T03:26:12Z</time></trkpt><trkpt lat="45.873897085963016" lon="12.162412144036903"><ele>119.33333333333333</ele><time>2026-04-15T03:26:13Z</time></trkpt><trkpt lat="45.87368805556339" lon="12.162301513268385"><ele>119.0</ele><time>2026-04-15T03:26:14Z</time></trkpt><trkpt lat="45.8734861511561" lon="12.162175187291151"><ele>118.0</ele><time>2026-04-15T03:26:15Z</time></trkpt><trkpt lat="45.87328931622737" lon="12.162040523154564"><ele>117.0</ele><time>2026-04-15T03:26:16Z</time></trkpt><trkpt lat="45.873096816008264" lon="12.161896471919372"><ele>116.0</ele><time>2026-04-15T03:26:17Z</time></trkpt><trkpt lat="45.87290989486665" lon="12.161739015841833"><ele>116.0</ele><time>2026-04-15T03:26:18Z</time></trkpt><trkpt lat="45.87272720730509" lon="12.161575335023835"><ele>116.0</ele><time>2026-04-15T03:26:19Z</time></trkpt><trkpt lat="45.87254644423415" lon="12.161407593539039"><ele>116.0</ele><time>2026-04-15T03:26:20Z</time></trkpt><trkpt lat="45.87236645340842" lon="12.161241802680175"><ele>116.33333333333333</ele><time>2026-04-15T03:26:21Z</time></trkpt><trkpt lat="45.872187099828125" lon="12.161076128593105"><ele>116.66666666666666</ele><time>2026-04-15T03:26:22Z</time></trkpt><trkpt lat="45.872007270620635" lon="12.160910340362944"><ele>117.0</ele><time>2026-04-15T03:26:23Z</time></trkpt><trkpt lat="45.87182612284263" lon="12.160744705459338"><ele>116.66666666666666</ele><time>2026-04-15T03:26:24Z</time></trkpt><trkpt lat="45.8716478376734" lon="12.16058081103199"><ele>116.33333333333333</ele><time>2026-04-15T03:26:25Z</time></trkpt><trkpt lat="45.871469415060744" lon="12.16041668044916"><ele>116.0</ele><time>2026-04-15T03:26:26Z</time></trkpt><trkpt lat="45.87129041368001" lon="12.16025681454408"><ele>116.0</ele><time>2026-04-15T03:26:27Z</time></trkpt><trkpt lat="45.8711139622137" lon="12.160094945886403"><ele>116.0</ele><time>2026-04-15T03:26:28Z</time></trkpt><trkpt lat="45.870938381191586" lon="12.15993340394959"><ele>116.0</ele><time>2026-04-15T03:26:29Z</time></trkpt><trkpt lat="45.870764028469814" lon="12.159771367833308"><ele>115.66666666666666</ele><time>2026-04-15T03:26:30Z</time></trkpt><trkpt lat="45.87059039763448" lon="12.159611568190252"><ele>115.33333333333334</ele><time>2026-04-15T03:26:31Z</time></trkpt><trkpt lat="45.8704171388412" lon="12.159453061701063"><ele>115.0</ele><time>2026-04-15T03:26:32Z</time></trkpt><trkpt lat="45.87024465387324" lon="12.159297045379084"><ele>115.0</ele><time>2026-04-15T03:26:33Z</time></trkpt><trkpt lat="45.870073152429455" lon="12.159142107681301"><ele>115.0</ele><time>2026-04-15T03:26:34Z</time></trkpt><trkpt lat="45.869901109935306" lon="12.158989342163176"><ele>115.0</ele><time>2026-04-15T03:26:35Z</time></trkpt><trkpt lat="45.86973041278013" lon="12.15883854400627"><ele>115.0</ele><time>2026-04-15T03:26:36Z</time></trkpt><trkpt lat="45.86956141974691" lon="12.15868572848975"><ele>115.0</ele><time>2026-04-15T03:26:37Z</time></trkpt><trkpt lat="45.869394175982116" lon="12.158531615448203"><ele>115.0</ele><time>2026-04-15T03:26:38Z</time></trkpt><trkpt lat="45.86922810798912" lon="12.158376582132805"><ele>114.33333333333334</ele><time>2026-04-15T03:26:39Z</time></trkpt><trkpt lat="45.86906316166214" lon="12.158221605421687"><ele>113.66666666666666</ele><time>2026-04-15T03:26:40Z</time></trkpt><trkpt lat="45.86889807918983" lon="12.158068254097543"><ele>113.0</ele><time>2026-04-15T03:26:41Z</time></trkpt><trkpt lat="45.8687333684263" lon="12.157915433581142"><ele>113.0</ele><time>2026-04-15T03:26:42Z</time></trkpt><trkpt lat="45.86857001494535" lon="12.157764082758252"><ele>113.0</ele><time>2026-04-15T03:26:43Z</time></trkpt><trkpt lat="45.86840605007567" lon="12.157612895900774"><ele>113.0</ele><time>2026-04-15T03:26:44Z</time></trkpt><trkpt lat="45.86824348054565" lon="12.157465104005956"><ele>112.66666666666666</ele><time>2026-04-15T03:26:45Z</time></trkpt><trkpt lat="45.86808523571811" lon="12.157321656944692"><ele>112.33333333333334</ele><time>2026-04-15T03:26:46Z</time></trkpt><trkpt lat="45.86793219316657" lon="12.15718083611325"><ele>112.0</ele><time>2026-04-15T03:26:47Z</time></trkpt><trkpt lat="45.86778255000591" lon="12.15704410867541"><ele>112.0</ele><time>2026-04-15T03:26:48Z</time></trkpt><trkpt lat="45.86763658505421" lon="12.156911064950519"><ele>112.0</ele><time>2026-04-15T03:26:49Z</time></trkpt><trkpt lat="45.86749351294491" lon="12.156778529161828"><ele>112.0</ele><time>2026-04-15T03:26:50Z</time></trkpt><trkpt lat="45.8673527543972" lon="12.156646696049322"><ele>112.33333333333334</ele><time>2026-04-15T03:26:51Z</time></trkpt><trkpt lat="45.86721387567071" lon="12.156515258672334"><ele>112.66666666666666</ele><time>2026-04-15T03:26:52Z</time></trkpt><trkpt lat="45.867077977254404" lon="12.156384946370562"><ele>113.0</ele><time>2026-04-15T03:26:53Z</time></trkpt><trkpt lat="45.866945796256296" lon="12.156251234799857"><ele>113.0</ele><time>2026-04-15T03:26:54Z</time></trkpt><trkpt lat="45.86682152174312" lon="12.156114041777197"><ele>113.0</ele><time>2026-04-15T03:26:55Z</time></trkpt><trkpt lat="45.86670396351885" lon="12.155973484967763"><ele>113.0</ele><time>2026-04-15T03:26:56Z</time></trkpt><trkpt lat="45.86659355961316" lon="12.15583230906564"><ele>113.0</ele><time>2026-04-15T03:26:57Z</time></trkpt><trkpt lat="45.866489679089604" lon="12.155693799663299"><ele>113.0</ele><time>2026-04-15T03:26:58Z</time></trkpt><trkpt lat="45.86639243140265" lon="12.15555794137368"><ele>113.0</ele><time>2026-04-15T03:26:59Z</time></trkpt><trkpt lat="45.86629913477941" lon="12.155423372742"><ele>113.0</ele><time>2026-04-15T03:27:00Z</time></trkpt><trkpt lat="45.866211653975455" lon="12.155290782113187"><ele>113.0</ele><time>2026-04-15T03:27:01Z</time></trkpt><trkpt lat="45.86612633302227" lon="12.155155798591224"><ele>113.0</ele><time>2026-04-15T03:27:02Z</time></trkpt><trkpt lat="45.866043984701484" lon="12.15501983596803"><ele>113.0</ele><time>2026-04-15T03:27:03Z</time></trkpt><trkpt lat="45.8659646929111" lon="12.154882794066774"><ele>113.0</ele><time>2026-04-15T03:27:04Z</time></trkpt><trkpt lat="45.865888783378054" lon="12.154744226473802"><ele>114.25</ele><time>2026-04-15T03:27:05Z</time></trkpt><trkpt lat="45.86581552805784" lon="12.154604118769251"><ele>115.5</ele><time>2026-04-15T03:27:06Z</time></trkpt><trkpt lat="45.86574486080034" lon="12.154462504226599"><ele>116.75</ele><time>2026-04-15T03:27:07Z</time></trkpt><trkpt lat="45.86567731962863" lon="12.154320880066605"><ele>118.0</ele><time>2026-04-15T03:27:08Z</time></trkpt><trkpt lat="45.86561248205555" lon="12.154177085844937"><ele>118.2</ele><time>2026-04-15T03:27:09Z</time></trkpt><trkpt lat="45.865551323339766" lon="12.154033882562508"><ele>118.4</ele><time>2026-04-15T03:27:10Z</time></trkpt><trkpt lat="45.8654926081545" lon="12.153894840163025"><ele>118.60000000000001</ele><time>2026-04-15T03:27:11Z</time></trkpt><trkpt lat="45.86543768270953" lon="12.153757389428494"><ele>118.80000000000001</ele><time>2026-04-15T03:27:12Z</time></trkpt><trkpt lat="45.86538644667324" lon="12.153622176478898"><ele>119.0</ele><time>2026-04-15T03:27:13Z</time></trkpt><trkpt lat="45.86533900386493" lon="12.153487903384294"><ele>119.0</ele><time>2026-04-15T03:27:14Z</time></trkpt><trkpt lat="45.86529470949279" lon="12.15335300381771"><ele>119.0</ele><time>2026-04-15T03:27:15Z</time></trkpt><trkpt lat="45.86525121456521" lon="12.15322234629347"><ele>119.0</ele><time>2026-04-15T03:27:16Z</time></trkpt><trkpt lat="45.86520976249843" lon="12.153090534893789"><ele>119.0</ele><time>2026-04-15T03:27:17Z</time></trkpt><trkpt lat="45.86516796332771" lon="12.152956257464739"><ele>119.0</ele><time>2026-04-15T03:27:18Z</time></trkpt><trkpt lat="45.86512743432756" lon="12.152820180110206"><ele>118.6</ele><time>2026-04-15T03:27:19Z</time></trkpt><trkpt lat="45.865088529204854" lon="12.152680806582246"><ele>118.2</ele><time>2026-04-15T03:27:20Z</time></trkpt><trkpt lat="45.86505176079521" lon="12.152538491086286"><ele>117.79999999999998</ele><time>2026-04-15T03:27:21Z</time></trkpt><trkpt lat="45.86501647123988" lon="12.152395159551876"><ele>117.39999999999999</ele><time>2026-04-15T03:27:22Z</time></trkpt><trkpt lat="45.86498267038591" lon="12.152247970988112"><ele>117.0</ele><time>2026-04-15T03:27:23Z</time></trkpt><trkpt lat="45.864950717554656" lon="12.15209835165639"><ele>117.0</ele><time>2026-04-15T03:27:24Z</time></trkpt><trkpt lat="45.86492151736771" lon="12.151946758865222"><ele>116.99999999999999</ele><time>2026-04-15T03:27:25Z</time></trkpt><trkpt lat="45.86489155556223" lon="12.151794182227059"><ele>116.99999999999999</ele><time>2026-04-15T03:27:26Z</time></trkpt><trkpt lat="45.86486244786533" lon="12.151639220626349"><ele>117.0</ele><time>2026-04-15T03:27:27Z</time></trkpt><trkpt lat="45.86483338784019" lon="12.151483427060922"><ele>117.0</ele><time>2026-04-15T03:27:28Z</time></trkpt><trkpt lat="45.864803825403605" lon="12.151325899028917"><ele>117.0</ele><time>2026-04-15T03:27:29Z</time></trkpt><trkpt lat="45.864775300002286" lon="12.151167429569552"><ele>117.0</ele><time>2026-04-15T03:27:30Z</time></trkpt><trkpt lat="45.86474601974674" lon="12.151008364079415"><ele>117.0</ele><time>2026-04-15T03:27:31Z</time></trkpt><trkpt lat="45.86471560369233" lon="12.150849624502126"><ele>117.0</ele><time>2026-04-15T03:27:32Z</time></trkpt><trkpt lat="45.8646852317581" lon="12.150691486485476"><ele>117.0</ele><time>2026-04-15T03:27:33Z</time></trkpt><trkpt lat="45.86465612828835" lon="12.150537872956725"><ele>116.99999999999999</ele><time>2026-04-15T03:27:34Z</time></trkpt><trkpt lat="45.864628978157356" lon="12.150387642620313"><ele>116.99999999999999</ele><time>2026-04-15T03:27:35Z</time></trkpt><trkpt lat="45.864604961260554" lon="12.150242555222999"><ele>117.0</ele><time>2026-04-15T03:27:36Z</time></trkpt><trkpt lat="45.86458471172825" lon="12.150105465965103"><ele>117.0</ele><time>2026-04-15T03:27:37Z</time></trkpt><trkpt lat="45.86456513392019" lon="12.149973629571809"><ele>117.0</ele><time>2026-04-15T03:27:38Z</time></trkpt><trkpt lat="45.864546482894575" lon="12.14984715567891"><ele>117.0</ele><time>2026-04-15T03:27:39Z</time></trkpt><trkpt lat="45.864529409503575" lon="12.14972412280872"><ele>117.0</ele><time>2026-04-15T03:27:39.999Z</time></trkpt><trkpt lat="45.86451762503247" lon="12.149601525362453"><ele>117.0</ele><time>2026-04-15T03:27:40.999Z</time></trkpt><trkpt lat="45.86451830445317" lon="12.149487381321808"><ele>117.0</ele><time>2026-04-15T03:27:41.999Z</time></trkpt><trkpt lat="45.864526879629125" lon="12.149384875879191"><ele>117.0</ele><time>2026-04-15T03:27:42.999Z</time></trkpt><trkpt lat="45.86453676961007" lon="12.149288065156853"><ele>117.0</ele><time>2026-04-15T03:27:43.999Z</time></trkpt><trkpt lat="45.86453031624567" lon="12.149113866600556"><ele>117.0</ele><time>2026-04-15T03:27:45.999Z</time></trkpt><trkpt lat="45.86447076626376" lon="12.14896199146328"><ele>117.0</ele><time>2026-04-15T03:27:47.999Z</time></trkpt><trkpt lat="45.864430409998505" lon="12.148892260872227"><ele>117.0</ele><time>2026-04-15T03:27:48.999Z</time></trkpt><trkpt lat="45.8643883325066" lon="12.148818013689555"><ele>117.0</ele><time>2026-04-15T03:27:49.999Z</time></trkpt><trkpt lat="45.86435029625554" lon="12.14873516061421"><ele>117.0</ele><time>2026-04-15T03:27:50.999Z</time></trkpt><trkpt lat="45.86432174666844" lon="12.148638701623485"><ele>117.0</ele><time>2026-04-15T03:27:51.999Z</time></trkpt><trkpt lat="45.86429910737788" lon="12.148532163713442"><ele>117.0</ele><time>2026-04-15T03:27:52.999Z</time></trkpt><trkpt lat="45.86426951569817" lon="12.148404958361386"><ele>117.0</ele><time>2026-04-15T03:27:54Z</time></trkpt><trkpt lat="45.86423520193435" lon="12.148305292021124"><ele>117.0</ele><time>2026-04-15T03:27:55Z</time></trkpt><trkpt lat="45.864207274805466" lon="12.148184461605316"><ele>117.0</ele><time>2026-04-15T03:27:56Z</time></trkpt><trkpt lat="45.86417886586639" lon="12.148058566192589"><ele>117.0</ele><time>2026-04-15T03:27:57Z</time></trkpt><trkpt lat="45.86415083948842" lon="12.147933930758128"><ele>116.6</ele><time>2026-04-15T03:27:58Z</time></trkpt><trkpt lat="45.864125378321475" lon="12.147809737818552"><ele>116.19999999999999</ele><time>2026-04-15T03:27:59Z</time></trkpt><trkpt lat="45.8640993026844" lon="12.147686049848609"><ele>115.8</ele><time>2026-04-15T03:28:00Z</time></trkpt><trkpt lat="45.864074586056326" lon="12.147561427544368"><ele>115.4</ele><time>2026-04-15T03:28:01Z</time></trkpt><trkpt lat="45.86404948942857" lon="12.147437772067487"><ele>115.0</ele><time>2026-04-15T03:28:02Z</time></trkpt><trkpt lat="45.86402283822171" lon="12.147313479331757"><ele>114.6</ele><time>2026-04-15T03:28:03Z</time></trkpt><trkpt lat="45.86399619009527" lon="12.147183847883703"><ele>114.2</ele><time>2026-04-15T03:28:04Z</time></trkpt><trkpt lat="45.86397043025056" lon="12.147049989689686"><ele>113.80000000000001</ele><time>2026-04-15T03:28:05Z</time></trkpt><trkpt lat="45.8639455446411" lon="12.146914710839777"><ele>113.4</ele><time>2026-04-15T03:28:06Z</time></trkpt><trkpt lat="45.86392030363393" lon="12.146780788999008"><ele>113.0</ele><time>2026-04-15T03:28:07Z</time></trkpt><trkpt lat="45.86389237011581" lon="12.146636933837144"><ele>113.0</ele><time>2026-04-15T03:28:08Z</time></trkpt><trkpt lat="45.863861417760546" lon="12.146484490679303"><ele>113.0</ele><time>2026-04-15T03:28:09Z</time></trkpt><trkpt lat="45.8638318897045" lon="12.146321804279092"><ele>113.0</ele><time>2026-04-15T03:28:10Z</time></trkpt><trkpt lat="45.863805233085316" lon="12.146149243629974"><ele>113.0</ele><time>2026-04-15T03:28:11Z</time></trkpt><trkpt lat="45.863782344203315" lon="12.14596882414733"><ele>113.0</ele><time>2026-04-15T03:28:12Z</time></trkpt><trkpt lat="45.863761893316315" lon="12.1457809221298"><ele>113.0</ele><time>2026-04-15T03:28:13Z</time></trkpt><trkpt lat="45.86374457332987" lon="12.145586982759998"><ele>113.0</ele><time>2026-04-15T03:28:14Z</time></trkpt><trkpt lat="45.86373404170295" lon="12.145388177857882"><ele>113.0</ele><time>2026-04-15T03:28:15Z</time></trkpt><trkpt lat="45.86373068083962" lon="12.145189613534876"><ele>113.0</ele><time>2026-04-15T03:28:16Z</time></trkpt><trkpt lat="45.863733006216705" lon="12.144995515830947"><ele>113.0</ele><time>2026-04-15T03:28:17Z</time></trkpt><trkpt lat="45.863740142075194" lon="12.144809202314786"><ele>113.0</ele><time>2026-04-15T03:28:18Z</time></trkpt><trkpt lat="45.863745991662995" lon="12.144624813079231"><ele>113.0</ele><time>2026-04-15T03:28:19Z</time></trkpt><trkpt lat="45.863752046620526" lon="12.14444287776642"><ele>113.0</ele><time>2026-04-15T03:28:20Z</time></trkpt><trkpt lat="45.86375834856116" lon="12.14426160193909"><ele>113.0</ele><time>2026-04-15T03:28:21Z</time></trkpt><trkpt lat="45.86376627653629" lon="12.14408216946345"><ele>113.0</ele><time>2026-04-15T03:28:22Z</time></trkpt><trkpt lat="45.863775927061546" lon="12.143904129642374"><ele>113.0</ele><time>2026-04-15T03:28:23Z</time></trkpt><trkpt lat="45.86378628467024" lon="12.143727003331316"><ele>112.75</ele><time>2026-04-15T03:28:24Z</time></trkpt><trkpt lat="45.86379695942289" lon="12.143551530350921"><ele>112.5</ele><time>2026-04-15T03:28:25Z</time></trkpt><trkpt lat="45.86380544169471" lon="12.143376067763043"><ele>112.25</ele><time>2026-04-15T03:28:26Z</time></trkpt><trkpt lat="45.863813372465906" lon="12.143201134745201"><ele>112.0</ele><time>2026-04-15T03:28:27Z</time></trkpt><trkpt lat="45.86382207905653" lon="12.143026362723607"><ele>111.5</ele><time>2026-04-15T03:28:28Z</time></trkpt><trkpt lat="45.863830573590896" lon="12.142853247014338"><ele>111.0</ele><time>2026-04-15T03:28:29Z</time></trkpt><trkpt lat="45.86383823245191" lon="12.142680912346869"><ele>110.5</ele><time>2026-04-15T03:28:30Z</time></trkpt><trkpt lat="45.863844703612806" lon="12.142508996967283"><ele>110.0</ele><time>2026-04-15T03:28:31Z</time></trkpt><trkpt lat="45.86385209207032" lon="12.142337819430846"><ele>108.5</ele><time>2026-04-15T03:28:32Z</time></trkpt><trkpt lat="45.86385922371354" lon="12.14216775430741"><ele>107.0</ele><time>2026-04-15T03:28:33Z</time></trkpt><trkpt lat="45.86386592062677" lon="12.14199715491165"><ele>105.5</ele><time>2026-04-15T03:28:34Z</time></trkpt><trkpt lat="45.86387083094118" lon="12.14182653476179"><ele>104.0</ele><time>2026-04-15T03:28:35Z</time></trkpt><trkpt lat="45.86387563110425" lon="12.141657498324285"><ele>104.0</ele><time>2026-04-15T03:28:36Z</time></trkpt><trkpt lat="45.86387905837412" lon="12.141489289560573"><ele>104.0</ele><time>2026-04-15T03:28:37Z</time></trkpt><trkpt lat="45.863878551397534" lon="12.141320700884574"><ele>104.0</ele><time>2026-04-15T03:28:38Z</time></trkpt><trkpt lat="45.86387413461758" lon="12.141152146910583"><ele>104.0</ele><time>2026-04-15T03:28:39Z</time></trkpt><trkpt lat="45.863864825511655" lon="12.140981132430342"><ele>104.0</ele><time>2026-04-15T03:28:40Z</time></trkpt><trkpt lat="45.863852230998766" lon="12.140809921415018"><ele>104.0</ele><time>2026-04-15T03:28:41Z</time></trkpt><trkpt lat="45.86383485637669" lon="12.14063778813175"><ele>104.0</ele><time>2026-04-15T03:28:42Z</time></trkpt><trkpt lat="45.86381376395001" lon="12.14046491464331"><ele>104.0</ele><time>2026-04-15T03:28:43Z</time></trkpt><trkpt lat="45.863788453693275" lon="12.140293044908036"><ele>104.5</ele><time>2026-04-15T03:28:44Z</time></trkpt><trkpt lat="45.86375795886865" lon="12.140122238167024"><ele>105.0</ele><time>2026-04-15T03:28:45Z</time></trkpt><trkpt lat="45.86372121234598" lon="12.139954062005852"><ele>105.5</ele><time>2026-04-15T03:28:46Z</time></trkpt><trkpt lat="45.863683895195265" lon="12.139786540483467"><ele>106.0</ele><time>2026-04-15T03:28:47Z</time></trkpt><trkpt lat="45.86364616829702" lon="12.139617050837883"><ele>106.0</ele><time>2026-04-15T03:28:48Z</time></trkpt><trkpt lat="45.86360398692935" lon="12.139448948966471"><ele>106.0</ele><time>2026-04-15T03:28:49Z</time></trkpt><trkpt lat="45.863560107388444" lon="12.13928175502309"><ele>106.0</ele><time>2026-04-15T03:28:50Z</time></trkpt><trkpt lat="45.863515162344285" lon="12.139114346602387"><ele>106.0</ele><time>2026-04-15T03:28:51Z</time></trkpt><trkpt lat="45.86346832607518" lon="12.138945891935892"><ele>105.75</ele><time>2026-04-15T03:28:52Z</time></trkpt><trkpt lat="45.86342103801301" lon="12.138776539724274"><ele>105.5</ele><time>2026-04-15T03:28:53Z</time></trkpt><trkpt lat="45.86337330062466" lon="12.138605024396695"><ele>105.25</ele><time>2026-04-15T03:28:54Z</time></trkpt><trkpt lat="45.86332538135528" lon="12.138434678320577"><ele>105.0</ele><time>2026-04-15T03:28:55Z</time></trkpt><trkpt lat="45.86327652591793" lon="12.138263433845918"><ele>105.0</ele><time>2026-04-15T03:28:56Z</time></trkpt><trkpt lat="45.86322838065647" lon="12.138091294631334"><ele>105.0</ele><time>2026-04-15T03:28:57Z</time></trkpt><trkpt lat="45.863181578192425" lon="12.137916211064558"><ele>105.0</ele><time>2026-04-15T03:28:58Z</time></trkpt><trkpt lat="45.86313409867634" lon="12.137742398715703"><ele>105.0</ele><time>2026-04-15T03:28:59Z</time></trkpt><trkpt lat="45.86308448045256" lon="12.137567310399373"><ele>105.0</ele><time>2026-04-15T03:29:00Z</time></trkpt><trkpt lat="45.86303488236519" lon="12.137393070052916"><ele>105.0</ele><time>2026-04-15T03:29:01Z</time></trkpt><trkpt lat="45.86298681267277" lon="12.13721465465774"><ele>105.0</ele><time>2026-04-15T03:29:02Z</time></trkpt><trkpt lat="45.86294117214693" lon="12.137035433131544"><ele>105.0</ele><time>2026-04-15T03:29:03Z</time></trkpt><trkpt lat="45.8628955528512" lon="12.136856067695566"><ele>105.0</ele><time>2026-04-15T03:29:04Z</time></trkpt><trkpt lat="45.86285203771642" lon="12.136674348255557"><ele>105.0</ele><time>2026-04-15T03:29:05Z</time></trkpt><trkpt lat="45.86280968713357" lon="12.136490548280506"><ele>105.0</ele><time>2026-04-15T03:29:06Z</time></trkpt><trkpt lat="45.86277059412266" lon="12.136300053439953"><ele>105.0</ele><time>2026-04-15T03:29:07Z</time></trkpt><trkpt lat="45.86273887306201" lon="12.136102108014617"><ele>105.25</ele><time>2026-04-15T03:29:08Z</time></trkpt><trkpt lat="45.86271291392268" lon="12.135899331226257"><ele>105.5</ele><time>2026-04-15T03:29:09Z</time></trkpt><trkpt lat="45.86268798705911" lon="12.135698639672453"><ele>105.75</ele><time>2026-04-15T03:29:10Z</time></trkpt><trkpt lat="45.86266662803646" lon="12.135497259310561"><ele>106.0</ele><time>2026-04-15T03:29:11Z</time></trkpt><trkpt lat="45.862649137770006" lon="12.135289542929875"><ele>106.0</ele><time>2026-04-15T03:29:12Z</time></trkpt><trkpt lat="45.86263243897331" lon="12.135078055844339"><ele>106.0</ele><time>2026-04-15T03:29:13Z</time></trkpt><trkpt lat="45.86261584072503" lon="12.134862006677547"><ele>106.0</ele><time>2026-04-15T03:29:14Z</time></trkpt><trkpt lat="45.862597265730706" lon="12.134642354403903"><ele>106.0</ele><time>2026-04-15T03:29:15Z</time></trkpt><trkpt lat="45.8625777599324" lon="12.134421538633955"><ele>106.0</ele><time>2026-04-15T03:29:16Z</time></trkpt><trkpt lat="45.862559648395056" lon="12.134194187317693"><ele>106.0</ele><time>2026-04-15T03:29:17Z</time></trkpt><trkpt lat="45.86254089954815" lon="12.13396382657568"><ele>106.0</ele><time>2026-04-15T03:29:18Z</time></trkpt><trkpt lat="45.86252115590559" lon="12.133729980982705"><ele>106.0</ele><time>2026-04-15T03:29:19Z</time></trkpt><trkpt lat="45.862501811407085" lon="12.133493801726681"><ele>106.0</ele><time>2026-04-15T03:29:20Z</time></trkpt><trkpt lat="45.86248232854312" lon="12.133254480206064"><ele>105.66666666666667</ele><time>2026-04-15T03:29:21Z</time></trkpt><trkpt lat="45.862463102841566" lon="12.133011601158554"><ele>105.33333333333334</ele><time>2026-04-15T03:29:22Z</time></trkpt><trkpt lat="45.86244426963909" lon="12.132767753647576"><ele>105.0</ele><time>2026-04-15T03:29:23Z</time></trkpt><trkpt lat="45.862427064452476" lon="12.132522878347277"><ele>106.66666666666666</ele><time>2026-04-15T03:29:24Z</time></trkpt><trkpt lat="45.86241302555185" lon="12.132275731100805"><ele>108.33333333333333</ele><time>2026-04-15T03:29:25Z</time></trkpt><trkpt lat="45.86240429056633" lon="12.132026180309927"><ele>110.0</ele><time>2026-04-15T03:29:26Z</time></trkpt><trkpt lat="45.862403355756705" lon="12.131781083209832"><ele>110.66666666666666</ele><time>2026-04-15T03:29:27Z</time></trkpt><trkpt lat="45.862412000154436" lon="12.131535654476966"><ele>111.33333333333334</ele><time>2026-04-15T03:29:28Z</time></trkpt><trkpt lat="45.86242806803474" lon="12.131296872742233"><ele>112.0</ele><time>2026-04-15T03:29:29Z</time></trkpt><trkpt lat="45.86245330951956" lon="12.131066693078653"><ele>112.0</ele><time>2026-04-15T03:29:30Z</time></trkpt><trkpt lat="45.862484811485054" lon="12.13084406900502"><ele>112.0</ele><time>2026-04-15T03:29:31Z</time></trkpt><trkpt lat="45.86252098330666" lon="12.13062626552689"><ele>112.0</ele><time>2026-04-15T03:29:32Z</time></trkpt><trkpt lat="45.86256378224607" lon="12.130411273249404"><ele>111.0</ele><time>2026-04-15T03:29:33Z</time></trkpt><trkpt lat="45.862612406705665" lon="12.130200532026942"><ele>110.0</ele><time>2026-04-15T03:29:34Z</time></trkpt><trkpt lat="45.86266886905171" lon="12.129995419318787"><ele>109.0</ele><time>2026-04-15T03:29:35Z</time></trkpt><trkpt lat="45.86273009626353" lon="12.129792892411313"><ele>108.66666666666667</ele><time>2026-04-15T03:29:36Z</time></trkpt><trkpt lat="45.862797512290754" lon="12.12959657271506"><ele>108.33333333333334</ele><time>2026-04-15T03:29:37Z</time></trkpt><trkpt lat="45.862871239025125" lon="12.129404317472503"><ele>108.0</ele><time>2026-04-15T03:29:38Z</time></trkpt><trkpt lat="45.86294643680128" lon="12.129219205019098"><ele>108.0</ele><time>2026-04-15T03:29:39Z</time></trkpt><trkpt lat="45.86302029630777" lon="12.129041605551606"><ele>108.0</ele><time>2026-04-15T03:29:40Z</time></trkpt><trkpt lat="45.86309482425862" lon="12.128865414753633"><ele>108.0</ele><time>2026-04-15T03:29:40.999Z</time></trkpt><trkpt lat="45.863168797534186" lon="12.128684777092744"><ele>108.0</ele><time>2026-04-15T03:29:41.999Z</time></trkpt><trkpt lat="45.86324089414455" lon="12.128504167448888"><ele>108.0</ele><time>2026-04-15T03:29:42.999Z</time></trkpt><trkpt lat="45.863314148544994" lon="12.128323231094628"><ele>108.0</ele><time>2026-04-15T03:29:43.999Z</time></trkpt><trkpt lat="45.863386012484426" lon="12.128139304069414"><ele>108.0</ele><time>2026-04-15T03:29:44.999Z</time></trkpt><trkpt lat="45.86345395120529" lon="12.127954731866675"><ele>108.0</ele><time>2026-04-15T03:29:45.999Z</time></trkpt><trkpt lat="45.86351593979075" lon="12.127767071281149"><ele>109.0</ele><time>2026-04-15T03:29:46.999Z</time></trkpt><trkpt lat="45.86357403179421" lon="12.12757769467812"><ele>110.0</ele><time>2026-04-15T03:29:47.999Z</time></trkpt><trkpt lat="45.86362843404856" lon="12.127387891407038"><ele>111.0</ele><time>2026-04-15T03:29:48.999Z</time></trkpt><trkpt lat="45.86367685659302" lon="12.127200401344458"><ele>112.0</ele><time>2026-04-15T03:29:49.999Z</time></trkpt><trkpt lat="45.86372025636795" lon="12.127014901619367"><ele>112.0</ele><time>2026-04-15T03:29:50.999Z</time></trkpt><trkpt lat="45.86375721668464" lon="12.126828896276486"><ele>112.0</ele><time>2026-04-15T03:29:51.999Z</time></trkpt><trkpt lat="45.86379165554618" lon="12.126642523482001"><ele>112.0</ele><time>2026-04-15T03:29:52.999Z</time></trkpt><trkpt lat="45.86382157925979" lon="12.126454606471125"><ele>112.0</ele><time>2026-04-15T03:29:53.999Z</time></trkpt><trkpt lat="45.863850108069705" lon="12.126272594117115"><ele>111.5</ele><time>2026-04-15T03:29:54.999Z</time></trkpt><trkpt lat="45.86387564998304" lon="12.126096505885466"><ele>111.0</ele><time>2026-04-15T03:29:55.999Z</time></trkpt><trkpt lat="45.86390105454761" lon="12.125921376464738"><ele>110.5</ele><time>2026-04-15T03:29:56.999Z</time></trkpt><trkpt lat="45.863930127172786" lon="12.125748676921987"><ele>110.0</ele><time>2026-04-15T03:29:57.999Z</time></trkpt><trkpt lat="45.8639570326985" lon="12.125575683762092"><ele>110.0</ele><time>2026-04-15T03:29:58.999Z</time></trkpt><trkpt lat="45.86398354109782" lon="12.125403854052648"><ele>110.0</ele><time>2026-04-15T03:30:00Z</time></trkpt><trkpt lat="45.864009017046186" lon="12.125232551034852"><ele>110.0</ele><time>2026-04-15T03:30:01Z</time></trkpt><trkpt lat="45.86403556567665" lon="12.125062763030957"><ele>110.0</ele><time>2026-04-15T03:30:02Z</time></trkpt><trkpt lat="45.864062915395856" lon="12.124893798199697"><ele>110.6</ele><time>2026-04-15T03:30:03Z</time></trkpt><trkpt lat="45.864088510771" lon="12.124728869270044"><ele>111.2</ele><time>2026-04-15T03:30:04Z</time></trkpt><trkpt lat="45.864113352755325" lon="12.124566379922909"><ele>111.80000000000001</ele><time>2026-04-15T03:30:05Z</time></trkpt><trkpt lat="45.864136490876945" lon="12.124414870878734"><ele>112.4</ele><time>2026-04-15T03:30:06Z</time></trkpt><trkpt lat="45.86415979911697" lon="12.124269582630328"><ele>113.0</ele><time>2026-04-15T03:30:07Z</time></trkpt><trkpt lat="45.86418411242927" lon="12.124129199726807"><ele>113.16666666666666</ele><time>2026-04-15T03:30:08Z</time></trkpt><trkpt lat="45.86420854655677" lon="12.124001044670969"><ele>113.33333333333333</ele><time>2026-04-15T03:30:09Z</time></trkpt><trkpt lat="45.86423438212443" lon="12.12388603615833"><ele>113.5</ele><time>2026-04-15T03:30:10Z</time></trkpt><trkpt lat="45.86425961559872" lon="12.123779855656464"><ele>113.66666666666666</ele><time>2026-04-15T03:30:11Z</time></trkpt><trkpt lat="45.864286110690855" lon="12.123686860127883"><ele>113.83333333333333</ele><time>2026-04-15T03:30:12Z</time></trkpt><trkpt lat="45.86431787429335" lon="12.123603914223775"><ele>114.0</ele><time>2026-04-15T03:30:13Z</time></trkpt><trkpt lat="45.86435662751453" lon="12.123531962049926"><ele>113.4</ele><time>2026-04-15T03:30:14Z</time></trkpt><trkpt lat="45.86440219490159" lon="12.123469571708105"><ele>112.80000000000001</ele><time>2026-04-15T03:30:15Z</time></trkpt><trkpt lat="45.864493509677246" lon="12.123367635502163"><ele>112.19999999999999</ele><time>2026-04-15T03:30:17Z</time></trkpt><trkpt lat="45.86454523430104" lon="12.123213888969701"><ele>111.6</ele><time>2026-04-15T03:30:19Z</time></trkpt><trkpt lat="45.86452656356183" lon="12.12303985402898"><ele>111.0</ele><time>2026-04-15T03:30:21Z</time></trkpt><trkpt lat="45.864501829199526" lon="12.122953413160781"><ele>111.0</ele><time>2026-04-15T03:30:22Z</time></trkpt><trkpt lat="45.86447432156141" lon="12.12286489668502"><ele>111.0</ele><time>2026-04-15T03:30:23Z</time></trkpt><trkpt lat="45.86444592941508" lon="12.122764544548254"><ele>111.0</ele><time>2026-04-15T03:30:24Z</time></trkpt><trkpt lat="45.86442344047178" lon="12.122657299351285"><ele>111.0</ele><time>2026-04-15T03:30:25Z</time></trkpt><trkpt lat="45.8644072376712" lon="12.122540913084359"><ele>111.0</ele><time>2026-04-15T03:30:26Z</time></trkpt><trkpt lat="45.86439851671322" lon="12.122415132083356"><ele>111.0</ele><time>2026-04-15T03:30:27Z</time></trkpt><trkpt lat="45.8643976917531" lon="12.122277173625085"><ele>111.0</ele><time>2026-04-15T03:30:28Z</time></trkpt><trkpt lat="45.86439767137539" lon="12.122131904658279"><ele>111.0</ele><time>2026-04-15T03:30:29Z</time></trkpt><trkpt lat="45.86440192636744" lon="12.121988533442922"><ele>111.0</ele><time>2026-04-15T03:30:30Z</time></trkpt><trkpt lat="45.86441295428702" lon="12.121844090973381"><ele>111.0</ele><time>2026-04-15T03:30:31Z</time></trkpt><trkpt lat="45.86442406365301" lon="12.121691406277412"><ele>111.0</ele><time>2026-04-15T03:30:32Z</time></trkpt><trkpt lat="45.864430886675365" lon="12.121534378390963"><ele>110.25</ele><time>2026-04-15T03:30:33Z</time></trkpt><trkpt lat="45.864439081261885" lon="12.121373708060638"><ele>109.5</ele><time>2026-04-15T03:30:34Z</time></trkpt><trkpt lat="45.864449493043686" lon="12.121210647588823"><ele>108.75</ele><time>2026-04-15T03:30:35Z</time></trkpt><trkpt lat="45.864460987211274" lon="12.12104274697634"><ele>108.0</ele><time>2026-04-15T03:30:36Z</time></trkpt><trkpt lat="45.864469330531215" lon="12.120868635848298"><ele>108.75</ele><time>2026-04-15T03:30:37Z</time></trkpt><trkpt lat="45.86447997390236" lon="12.120694230475497"><ele>109.5</ele><time>2026-04-15T03:30:38Z</time></trkpt><trkpt lat="45.86449233120996" lon="12.120528429248939"><ele>110.25</ele><time>2026-04-15T03:30:39Z</time></trkpt><trkpt lat="45.864504999220635" lon="12.120366294000402"><ele>111.0</ele><time>2026-04-15T03:30:40Z</time></trkpt><trkpt lat="45.864517067080975" lon="12.120205885159738"><ele>111.0</ele><time>2026-04-15T03:30:41Z</time></trkpt><trkpt lat="45.86452931121421" lon="12.120047706706393"><ele>111.0</ele><time>2026-04-15T03:30:42Z</time></trkpt><trkpt lat="45.86454481172337" lon="12.119892570919339"><ele>111.0</ele><time>2026-04-15T03:30:43Z</time></trkpt><trkpt lat="45.86456672679442" lon="12.119736445829552"><ele>111.0</ele><time>2026-04-15T03:30:44Z</time></trkpt><trkpt lat="45.86459128376978" lon="12.119579365846866"><ele>111.0</ele><time>2026-04-15T03:30:45Z</time></trkpt><trkpt lat="45.86461913700131" lon="12.11942248872694"><ele>111.0</ele><time>2026-04-15T03:30:46Z</time></trkpt><trkpt lat="45.86464766620432" lon="12.119264387000491"><ele>111.0</ele><time>2026-04-15T03:30:47Z</time></trkpt><trkpt lat="45.86467675646069" lon="12.119106565934866"><ele>111.0</ele><time>2026-04-15T03:30:48Z</time></trkpt><trkpt lat="45.864707084383085" lon="12.118948524649317"><ele>111.0</ele><time>2026-04-15T03:30:49Z</time></trkpt><trkpt lat="45.86473793111661" lon="12.118788444696854"><ele>111.5</ele><time>2026-04-15T03:30:50Z</time></trkpt><trkpt lat="45.86476942537774" lon="12.118626441754836"><ele>112.0</ele><time>2026-04-15T03:30:51Z</time></trkpt><trkpt lat="45.864803408468305" lon="12.11846020730783"><ele>112.5</ele><time>2026-04-15T03:30:52Z</time></trkpt><trkpt lat="45.864837297414624" lon="12.11829106804649"><ele>113.0</ele><time>2026-04-15T03:30:53Z</time></trkpt><trkpt lat="45.86487075366355" lon="12.118119468182895"><ele>113.0</ele><time>2026-04-15T03:30:54Z</time></trkpt><trkpt lat="45.864905608680566" lon="12.117945639861091"><ele>113.0</ele><time>2026-04-15T03:30:55Z</time></trkpt><trkpt lat="45.86494099839869" lon="12.117769616118442"><ele>113.0</ele><time>2026-04-15T03:30:56Z</time></trkpt><trkpt lat="45.86497703109975" lon="12.11759163759821"><ele>113.0</ele><time>2026-04-15T03:30:57Z</time></trkpt><trkpt lat="45.86501366605321" lon="12.117413045378004"><ele>112.75</ele><time>2026-04-15T03:30:58Z</time></trkpt><trkpt lat="45.86505020267402" lon="12.117231498595292"><ele>112.5</ele><time>2026-04-15T03:30:59Z</time></trkpt><trkpt lat="45.865087465389124" lon="12.117049980498855"><ele>112.25</ele><time>2026-04-15T03:31:00Z</time></trkpt><trkpt lat="45.865124800082064" lon="12.116866503787604"><ele>112.0</ele><time>2026-04-15T03:31:01Z</time></trkpt><trkpt lat="45.865161404103205" lon="12.116683338718534"><ele>112.75</ele><time>2026-04-15T03:31:02Z</time></trkpt><trkpt lat="45.865197373719" lon="12.11650361647922"><ele>113.5</ele><time>2026-04-15T03:31:03Z</time></trkpt><trkpt lat="45.86523199670473" lon="12.116330028695884"><ele>114.25</ele><time>2026-04-15T03:31:04Z</time></trkpt><trkpt lat="45.865265567039664" lon="12.116162393821611"><ele>115.0</ele><time>2026-04-15T03:31:05Z</time></trkpt><trkpt lat="45.86529754483294" lon="12.116001361872922"><ele>115.0</ele><time>2026-04-15T03:31:06Z</time></trkpt><trkpt lat="45.86532809793455" lon="12.115845541762088"><ele>115.0</ele><time>2026-04-15T03:31:07Z</time></trkpt><trkpt lat="45.865356769414994" lon="12.115696622517698"><ele>115.0</ele><time>2026-04-15T03:31:08Z</time></trkpt><trkpt lat="45.8653853591717" lon="12.115550718856754"><ele>115.0</ele><time>2026-04-15T03:31:09Z</time></trkpt><trkpt lat="45.865412570752504" lon="12.115409570163376"><ele>115.0</ele><time>2026-04-15T03:31:10Z</time></trkpt><trkpt lat="45.86543732780886" lon="12.115274255252634"><ele>115.16666666666667</ele><time>2026-04-15T03:31:11Z</time></trkpt><trkpt lat="45.86546198231371" lon="12.115143264645038"><ele>115.33333333333334</ele><time>2026-04-15T03:31:12Z</time></trkpt><trkpt lat="45.86548533549261" lon="12.115017539752694"><ele>115.5</ele><time>2026-04-15T03:31:13Z</time></trkpt><trkpt lat="45.86550625822828" lon="12.114904282626057"><ele>115.66666666666666</ele><time>2026-04-15T03:31:14Z</time></trkpt><trkpt lat="45.86552475082369" lon="12.114800702493609"><ele>115.83333333333333</ele><time>2026-04-15T03:31:15Z</time></trkpt><trkpt lat="45.86553929292178" lon="12.114707342871958"><ele>116.0</ele><time>2026-04-15T03:31:16Z</time></trkpt><trkpt lat="45.86556748680667" lon="12.114553520773686"><ele>116.0</ele><time>2026-04-15T03:31:18Z</time></trkpt><trkpt lat="45.865605782193114" lon="12.114438634749733"><ele>116.0</ele><time>2026-04-15T03:31:20Z</time></trkpt><trkpt lat="45.86570299395097" lon="12.114448198847949"><ele>116.0</ele><time>2026-04-15T03:31:22Z</time></trkpt><trkpt lat="45.86579596326681" lon="12.114442732589712"><ele>116.0</ele><time>2026-04-15T03:31:24Z</time></trkpt><trkpt lat="45.86590394275645" lon="12.11443494900812"><ele>116.0</ele><time>2026-04-15T03:31:26Z</time></trkpt><trkpt lat="45.86602543329443" lon="12.114430631077886"><ele>116.25</ele><time>2026-04-15T03:31:28Z</time></trkpt><trkpt lat="45.8661468249208" lon="12.114432027621394"><ele>116.5</ele><time>2026-04-15T03:31:30Z</time></trkpt><trkpt lat="45.86625748524381" lon="12.114447323542326"><ele>116.75</ele><time>2026-04-15T03:31:32Z</time></trkpt><trkpt lat="45.866354673364356" lon="12.114473098029668"><ele>117.0</ele><time>2026-04-15T03:31:34Z</time></trkpt><trkpt lat="45.86647291481811" lon="12.114502744064827"><ele>117.0</ele><time>2026-04-15T03:31:36Z</time></trkpt><trkpt lat="45.86658960037608" lon="12.114541693532612"><ele>116.99999999999999</ele><time>2026-04-15T03:31:38Z</time></trkpt><trkpt lat="45.86668939649554" lon="12.114581382696988"><ele>116.99999999999999</ele><time>2026-04-15T03:31:40Z</time></trkpt><trkpt lat="45.866795503437935" lon="12.114621358890444"><ele>117.0</ele><time>2026-04-15T03:31:41.999Z</time></trkpt><trkpt lat="45.86687735709756" lon="12.114680607522336"><ele>117.0</ele><time>2026-04-15T03:31:43.999Z</time></trkpt><trkpt lat="45.866950556608124" lon="12.114715639344771"><ele>117.0</ele><time>2026-04-15T03:31:45.999Z</time></trkpt><trkpt lat="45.86690532523749" lon="12.114553208459819"><ele>116.99999999999999</ele><time>2026-04-15T03:31:49.999Z</time></trkpt><trkpt lat="45.86693241758352" lon="12.114644451119545"><ele>116.99999999999999</ele><time>2026-04-15T03:32:06Z</time></trkpt><trkpt lat="45.86683727799899" lon="12.114619808766825"><ele>117.0</ele><time>2026-04-15T03:32:10Z</time></trkpt><trkpt lat="45.86673812022394" lon="12.114586142978125"><ele>117.0</ele><time>2026-04-15T03:32:12Z</time></trkpt><trkpt lat="45.86664125817938" lon="12.114545442324117"><ele>117.0</ele><time>2026-04-15T03:32:14Z</time></trkpt><trkpt lat="45.8665329133591" lon="12.11451163759186"><ele>117.0</ele><time>2026-04-15T03:32:16Z</time></trkpt><trkpt lat="45.8664695390859" lon="12.114497140513675"><ele>117.0</ele><time>2026-04-15T03:32:17Z</time></trkpt><trkpt lat="45.86639300907405" lon="12.11447262449902"><ele>117.0</ele><time>2026-04-15T03:32:18Z</time></trkpt><trkpt lat="45.866315113685936" lon="12.11444452370335"><ele>117.0</ele><time>2026-04-15T03:32:19Z</time></trkpt><trkpt lat="45.86623914394252" lon="12.114428803142317"><ele>117.0</ele><time>2026-04-15T03:32:20Z</time></trkpt><trkpt lat="45.86616197559667" lon="12.114419559283936"><ele>117.0</ele><time>2026-04-15T03:32:21Z</time></trkpt><trkpt lat="45.866086972126695" lon="12.11441781112651"><ele>117.0</ele><time>2026-04-15T03:32:22Z</time></trkpt><trkpt lat="45.86600886876005" lon="12.114417904320312"><ele>117.0</ele><time>2026-04-15T03:32:23Z</time></trkpt><trkpt lat="45.8659275437212" lon="12.114415510063502"><ele>117.0</ele><time>2026-04-15T03:32:24Z</time></trkpt><trkpt lat="45.86585717465113" lon="12.11441842624471"><ele>117.0</ele><time>2026-04-15T03:32:25Z</time></trkpt><trkpt lat="45.86579282030827" lon="12.114414450155044"><ele>117.0</ele><time>2026-04-15T03:32:26Z</time></trkpt><trkpt lat="45.86570311673669" lon="12.114389135649445"><ele>116.83333333333333</ele><time>2026-04-15T03:32:28Z</time></trkpt><trkpt lat="45.86566436420855" lon="12.114287337005193"><ele>116.66666666666666</ele><time>2026-04-15T03:32:30Z</time></trkpt><trkpt lat="45.86560664740036" lon="12.114139443119418"><ele>116.5</ele><time>2026-04-15T03:32:32Z</time></trkpt><trkpt lat="45.865536927951005" lon="12.114095041592252"><ele>116.33333333333333</ele><time>2026-04-15T03:32:33Z</time></trkpt><trkpt lat="45.86549853939569" lon="12.114006098497745"><ele>116.16666666666666</ele><time>2026-04-15T03:32:34Z</time></trkpt><trkpt lat="45.86546433741949" lon="12.113897490156099"><ele>116.0</ele><time>2026-04-15T03:32:35Z</time></trkpt><trkpt lat="45.86548009261961" lon="12.113765735585584"><ele>116.0</ele><time>2026-04-15T03:32:36Z</time></trkpt><trkpt lat="45.8655130159201" lon="12.113605017229354"><ele>116.0</ele><time>2026-04-15T03:32:37Z</time></trkpt><trkpt lat="45.86554900384784" lon="12.113458287471628"><ele>116.0</ele><time>2026-04-15T03:32:38Z</time></trkpt><trkpt lat="45.86557779313847" lon="12.113300924507731"><ele>116.0</ele><time>2026-04-15T03:32:39Z</time></trkpt><trkpt lat="45.86559302492928" lon="12.113142739210508"><ele>116.0</ele><time>2026-04-15T03:32:40Z</time></trkpt><trkpt lat="45.86559723856563" lon="12.112985839277943"><ele>116.0</ele><time>2026-04-15T03:32:41Z</time></trkpt><trkpt lat="45.86559234415176" lon="12.112821405473284"><ele>116.0</ele><time>2026-04-15T03:32:42Z</time></trkpt><trkpt lat="45.865581475996954" lon="12.112645663522294"><ele>116.0</ele><time>2026-04-15T03:32:43Z</time></trkpt><trkpt lat="45.86556786667912" lon="12.112462263674386"><ele>116.0</ele><time>2026-04-15T03:32:44Z</time></trkpt><trkpt lat="45.86554988609045" lon="12.112281145342655"><ele>116.5</ele><time>2026-04-15T03:32:45Z</time></trkpt><trkpt lat="45.86553305964843" lon="12.11210629393943"><ele>117.0</ele><time>2026-04-15T03:32:46Z</time></trkpt><trkpt lat="45.86551417448575" lon="12.111939987497593"><ele>117.5</ele><time>2026-04-15T03:32:47Z</time></trkpt><trkpt lat="45.86549621827103" lon="12.111779869899365"><ele>118.0</ele><time>2026-04-15T03:32:48Z</time></trkpt><trkpt lat="45.865479276590435" lon="12.11163224283473"><ele>118.0</ele><time>2026-04-15T03:32:49Z</time></trkpt><trkpt lat="45.86546185662696" lon="12.11149321492595"><ele>118.00000000000001</ele><time>2026-04-15T03:32:50Z</time></trkpt><trkpt lat="45.86544537282839" lon="12.11135853290267"><ele>118.00000000000001</ele><time>2026-04-15T03:32:51Z</time></trkpt><trkpt lat="45.865430288030915" lon="12.111223976280591"><ele>118.0</ele><time>2026-04-15T03:32:52Z</time></trkpt><trkpt lat="45.8654147629528" lon="12.11108919422662"><ele>118.0</ele><time>2026-04-15T03:32:53Z</time></trkpt><trkpt lat="45.86539793730872" lon="12.110956115840121"><ele>118.0</ele><time>2026-04-15T03:32:54Z</time></trkpt><trkpt lat="45.865382651353535" lon="12.110823102342826"><ele>118.00000000000001</ele><time>2026-04-15T03:32:55Z</time></trkpt><trkpt lat="45.86536862926361" lon="12.110688805926996"><ele>118.00000000000001</ele><time>2026-04-15T03:32:56Z</time></trkpt><trkpt lat="45.86535274059797" lon="12.110554815242423"><ele>118.0</ele><time>2026-04-15T03:32:57Z</time></trkpt><trkpt lat="45.8653361774801" lon="12.110421055605173"><ele>118.0</ele><time>2026-04-15T03:32:58Z</time></trkpt><trkpt lat="45.86532050819608" lon="12.110286973925554"><ele>117.80000000000001</ele><time>2026-04-15T03:32:59Z</time></trkpt><trkpt lat="45.865305021113734" lon="12.110151447186125"><ele>117.60000000000001</ele><time>2026-04-15T03:33:00Z</time></trkpt><trkpt lat="45.86528882021987" lon="12.110010474375786"><ele>117.39999999999999</ele><time>2026-04-15T03:33:01Z</time></trkpt><trkpt lat="45.865272121247074" lon="12.109867863569175"><ele>117.19999999999999</ele><time>2026-04-15T03:33:02Z</time></trkpt><trkpt lat="45.86525615159567" lon="12.109722924035436"><ele>117.0</ele><time>2026-04-15T03:33:03Z</time></trkpt><trkpt lat="45.865239405498805" lon="12.109583322406333"><ele>117.0</ele><time>2026-04-15T03:33:04Z</time></trkpt><trkpt lat="45.865222507487594" lon="12.109452211462296"><ele>116.99999999999999</ele><time>2026-04-15T03:33:05Z</time></trkpt><trkpt lat="45.86520553054854" lon="12.109326203978972"><ele>116.99999999999999</ele><time>2026-04-15T03:33:06Z</time></trkpt><trkpt lat="45.865191277805486" lon="12.10922366429947"><ele>117.0</ele><time>2026-04-15T03:33:07Z</time></trkpt><trkpt lat="45.865196604693686" lon="12.109074473335271"><ele>117.0</ele><time>2026-04-15T03:33:09Z</time></trkpt><trkpt lat="45.86528036940038" lon="12.109016037767155"><ele>117.19999999999999</ele><time>2026-04-15T03:33:11Z</time></trkpt><trkpt lat="45.86538297113791" lon="12.109024693333703"><ele>117.39999999999999</ele><time>2026-04-15T03:33:13Z</time></trkpt><trkpt lat="45.86548933445204" lon="12.109029984061793"><ele>117.60000000000001</ele><time>2026-04-15T03:33:15Z</time></trkpt><trkpt lat="45.86555571237488" lon="12.10902611189861"><ele>117.80000000000001</ele><time>2026-04-15T03:33:17Z</time></trkpt><trkpt lat="45.86566872467313" lon="12.109021513570537"><ele>118.0</ele><time>2026-04-15T03:39:12Z</time></trkpt><trkpt lat="45.86578881844792" lon="12.109017651006983"><ele>118.0</ele><time>2026-04-15T03:39:14Z</time></trkpt><trkpt lat="45.86585342740838" lon="12.10901596652008"><ele>118.00000000000001</ele><time>2026-04-15T03:39:15Z</time></trkpt><trkpt lat="45.86596997740769" lon="12.109019246010323"><ele>118.00000000000001</ele><time>2026-04-15T03:39:17Z</time></trkpt><trkpt lat="45.8658854210644" lon="12.109016254936572"><ele>118.0</ele><time>2026-04-15T03:40:51Z</time></trkpt><trkpt lat="45.86579282659321" lon="12.109018695592907"><ele>118.0</ele><time>2026-04-15T03:40:54Z</time></trkpt><trkpt lat="45.86568060693067" lon="12.109015885896113"><ele>118.0</ele><time>2026-04-15T03:40:56Z</time></trkpt><trkpt lat="45.86558239496263" lon="12.108980205585373"><ele>118.00000000000001</ele><time>2026-04-15T03:40:58Z</time></trkpt><trkpt lat="45.86548102602179" lon="12.108981309804184"><ele>118.00000000000001</ele><time>2026-04-15T03:41:00Z</time></trkpt><trkpt lat="45.86537323248202" lon="12.108986740448747"><ele>118.0</ele><time>2026-04-15T03:41:02Z</time></trkpt><trkpt lat="45.86527766458184" lon="12.108991445001285"><ele>118.0</ele><time>2026-04-15T03:41:04Z</time></trkpt><trkpt lat="45.865212123661536" lon="12.108979962419921"><ele>118.0</ele><time>2026-04-15T03:41:06Z</time></trkpt><trkpt lat="45.86514622807016" lon="12.108917339576335"><ele>118.00000000000001</ele><time>2026-04-15T03:41:09Z</time></trkpt><trkpt lat="45.86512514350662" lon="12.108743455251386"><ele>118.00000000000001</ele><time>2026-04-15T03:41:11Z</time></trkpt><trkpt lat="45.86511291475623" lon="12.108577119968103"><ele>118.0</ele><time>2026-04-15T03:41:13Z</time></trkpt><trkpt lat="45.86510460438279" lon="12.108484674584306"><ele>118.0</ele><time>2026-04-15T03:41:14Z</time></trkpt><trkpt lat="45.865085307465954" lon="12.108308803786642"><ele>117.80000000000001</ele><time>2026-04-15T03:41:16Z</time></trkpt><trkpt lat="45.86506535903929" lon="12.10813489636409"><ele>117.60000000000001</ele><time>2026-04-15T03:41:18Z</time></trkpt><trkpt lat="45.86505302077438" lon="12.108030604469626"><ele>117.39999999999999</ele><time>2026-04-15T03:41:19Z</time></trkpt><trkpt lat="45.865038229957655" lon="12.107907874849026"><ele>117.19999999999999</ele><time>2026-04-15T03:41:20Z</time></trkpt><trkpt lat="45.86502123880435" lon="12.107763150279117"><ele>117.0</ele><time>2026-04-15T03:41:21Z</time></trkpt><trkpt lat="45.86500281936229" lon="12.10760301162717"><ele>117.0</ele><time>2026-04-15T03:41:22Z</time></trkpt><trkpt lat="45.864982965438955" lon="12.107431694999411"><ele>117.0</ele><time>2026-04-15T03:41:23Z</time></trkpt><trkpt lat="45.86496513729775" lon="12.107265515117378"><ele>117.0</ele><time>2026-04-15T03:41:24Z</time></trkpt><trkpt lat="45.864952472322365" lon="12.107104650317153"><ele>117.0</ele><time>2026-04-15T03:41:25Z</time></trkpt><trkpt lat="45.86495467252648" lon="12.106950644333638"><ele>117.33333333333333</ele><time>2026-04-15T03:41:26Z</time></trkpt><trkpt lat="45.864972382998204" lon="12.106816772289216"><ele>117.66666666666666</ele><time>2026-04-15T03:41:27Z</time></trkpt><trkpt lat="45.864986907208525" lon="12.106702502689359"><ele>118.0</ele><time>2026-04-15T03:41:28Z</time></trkpt><trkpt lat="45.86498286171769" lon="12.106608548668314"><ele>118.33333333333333</ele><time>2026-04-15T03:41:29Z</time></trkpt><trkpt lat="45.86492726630128" lon="12.10646161030074"><ele>118.66666666666666</ele><time>2026-04-15T03:41:31Z</time></trkpt><trkpt lat="45.864885012831515" lon="12.10639227000376"><ele>119.0</ele><time>2026-04-15T03:41:32Z</time></trkpt><trkpt lat="45.86485089284884" lon="12.10630274462434"><ele>119.2</ele><time>2026-04-15T03:41:33Z</time></trkpt><trkpt lat="45.864832545373496" lon="12.10618915969158"><ele>119.4</ele><time>2026-04-15T03:41:34Z</time></trkpt><trkpt lat="45.864821192301775" lon="12.10605611839374"><ele>119.6</ele><time>2026-04-15T03:41:35Z</time></trkpt><trkpt lat="45.86480553651344" lon="12.105902736693118"><ele>119.8</ele><time>2026-04-15T03:41:36Z</time></trkpt><trkpt lat="45.86478746318909" lon="12.105731080579046"><ele>120.0</ele><time>2026-04-15T03:41:37Z</time></trkpt><trkpt lat="45.864768081405785" lon="12.105547726069947"><ele>120.0</ele><time>2026-04-15T03:41:38Z</time></trkpt><trkpt lat="45.86474620083005" lon="12.10535153571038"><ele>120.0</ele><time>2026-04-15T03:41:39Z</time></trkpt><trkpt lat="45.86472433766164" lon="12.105154274564606"><ele>120.0</ele><time>2026-04-15T03:41:40Z</time></trkpt><trkpt lat="45.86470269581641" lon="12.104960213564107"><ele>120.0</ele><time>2026-04-15T03:41:41Z</time></trkpt><trkpt lat="45.86467914642131" lon="12.104761558843743"><ele>120.25</ele><time>2026-04-15T03:41:42Z</time></trkpt><trkpt lat="45.86465368300308" lon="12.104557207501042"><ele>120.5</ele><time>2026-04-15T03:41:43Z</time></trkpt><trkpt lat="45.86462872668503" lon="12.104356264050393"><ele>120.75</ele><time>2026-04-15T03:41:44Z</time></trkpt><trkpt lat="45.86460489584104" lon="12.104160347269122"><ele>121.0</ele><time>2026-04-15T03:41:45Z</time></trkpt><trkpt lat="45.86458515663568" lon="12.103969761905175"><ele>121.0</ele><time>2026-04-15T03:41:46Z</time></trkpt><trkpt lat="45.86456483147268" lon="12.103786382025683"><ele>121.0</ele><time>2026-04-15T03:41:47Z</time></trkpt><trkpt lat="45.864546474073926" lon="12.103619332181987"><ele>121.0</ele><time>2026-04-15T03:41:48Z</time></trkpt><trkpt lat="45.86452789065769" lon="12.103463487977058"><ele>121.0</ele><time>2026-04-15T03:41:48.999Z</time></trkpt><trkpt lat="45.86450967721009" lon="12.103314673628198"><ele>121.4</ele><time>2026-04-15T03:41:49.999Z</time></trkpt><trkpt lat="45.86449206629467" lon="12.10317120960553"><ele>121.8</ele><time>2026-04-15T03:41:50.999Z</time></trkpt><trkpt lat="45.86447521411579" lon="12.103029300049565"><ele>122.20000000000002</ele><time>2026-04-15T03:41:51.999Z</time></trkpt><trkpt lat="45.86445941620418" lon="12.102890086498721"><ele>122.60000000000001</ele><time>2026-04-15T03:41:52.999Z</time></trkpt><trkpt lat="45.8644445843735" lon="12.102749479424267"><ele>123.0</ele><time>2026-04-15T03:41:53.999Z</time></trkpt><trkpt lat="45.86442880557876" lon="12.102608005733757"><ele>123.0</ele><time>2026-04-15T03:41:54.999Z</time></trkpt><trkpt lat="45.86441328926687" lon="12.102465751645639"><ele>123.00000000000001</ele><time>2026-04-15T03:41:55.999Z</time></trkpt><trkpt lat="45.864398304473845" lon="12.102322546358653"><ele>123.00000000000001</ele><time>2026-04-15T03:41:56.999Z</time></trkpt><trkpt lat="45.86437873697137" lon="12.102177009295797"><ele>123.0</ele><time>2026-04-15T03:41:57.999Z</time></trkpt><trkpt lat="45.86436055730367" lon="12.102025353564292"><ele>123.0</ele><time>2026-04-15T03:41:58.999Z</time></trkpt><trkpt lat="45.86434274564467" lon="12.101868510448092"><ele>123.0</ele><time>2026-04-15T03:41:59.999Z</time></trkpt><trkpt lat="45.864324503497095" lon="12.101714787572217"><ele>123.00000000000001</ele><time>2026-04-15T03:42:00.999Z</time></trkpt><trkpt lat="45.8643073042647" lon="12.101571240041485"><ele>123.00000000000001</ele><time>2026-04-15T03:42:01.999Z</time></trkpt><trkpt lat="45.86429088190907" lon="12.101444089536184"><ele>123.0</ele><time>2026-04-15T03:42:02.999Z</time></trkpt><trkpt lat="45.86427569120127" lon="12.101337426922944"><ele>123.0</ele><time>2026-04-15T03:42:03.999Z</time></trkpt><trkpt lat="45.86427379433842" lon="12.101205077082023"><ele>123.0</ele><time>2026-04-15T03:42:05.999Z</time></trkpt><trkpt lat="45.864353766978205" lon="12.101183680840547"><ele>123.0</ele><time>2026-04-15T03:42:08.999Z</time></trkpt><trkpt lat="45.86421634504963" lon="12.10113994524368"><ele>123.0</ele><time>2026-04-15T03:43:36Z</time></trkpt><trkpt lat="45.86417206221366" lon="12.100993759229526"><ele>123.0</ele><time>2026-04-15T03:43:39Z</time></trkpt><trkpt lat="45.86432653560257" lon="12.100873958429311"><ele>123.0</ele><time>2026-04-15T03:43:40Z</time></trkpt><trkpt lat="45.864318650861854" lon="12.100757671374746"><ele>123.00000000000001</ele><time>2026-04-15T03:43:41Z</time></trkpt><trkpt lat="45.86431076530967" lon="12.1006413723586"><ele>123.00000000000001</ele><time>2026-04-15T03:43:42Z</time></trkpt><trkpt lat="45.86430252016951" lon="12.100519770007912"><ele>123.0</ele><time>2026-04-15T03:43:43Z</time></trkpt><trkpt lat="45.864134768561236" lon="12.100403772767754"><ele>123.0</ele><time>2026-04-15T03:43:44Z</time></trkpt><trkpt lat="45.8641185989856" lon="12.100246655795068"><ele>122.75</ele><time>2026-04-15T03:43:45Z</time></trkpt><trkpt lat="45.864100510412555" lon="12.100071100692395"><ele>122.5</ele><time>2026-04-15T03:43:45.999Z</time></trkpt><trkpt lat="45.86407994751885" lon="12.099882788963379"><ele>122.25</ele><time>2026-04-15T03:43:46.999Z</time></trkpt><trkpt lat="45.86405863966094" lon="12.099682821015424"><ele>122.0</ele><time>2026-04-15T03:43:47.999Z</time></trkpt><trkpt lat="45.86403631297631" lon="12.099480870267799"><ele>122.5</ele><time>2026-04-15T03:43:48.999Z</time></trkpt><trkpt lat="45.8640136774666" lon="12.09928556061267"><ele>123.0</ele><time>2026-04-15T03:43:49.999Z</time></trkpt><trkpt lat="45.8639921811512" lon="12.09909467153732"><ele>123.5</ele><time>2026-04-15T03:43:50.999Z</time></trkpt><trkpt lat="45.86397010296763" lon="12.098908479439569"><ele>124.0</ele><time>2026-04-15T03:43:51.999Z</time></trkpt><trkpt lat="45.86395116472657" lon="12.098727328333203"><ele>124.0</ele><time>2026-04-15T03:43:52.999Z</time></trkpt><trkpt lat="45.86393318270522" lon="12.098549173342521"><ele>124.0</ele><time>2026-04-15T03:43:53.999Z</time></trkpt><trkpt lat="45.86391721239536" lon="12.098382576310893"><ele>124.0</ele><time>2026-04-15T03:43:54.999Z</time></trkpt><trkpt lat="45.863908918207684" lon="12.0982641555882"><ele>124.0</ele><time>2026-04-15T03:43:55.999Z</time></trkpt><trkpt lat="45.86390445004094" lon="12.098155880285484"><ele>124.0</ele><time>2026-04-15T03:43:57.999Z</time></trkpt><trkpt lat="45.86390651149569" lon="12.09806451225965"><ele>124.2</ele><time>2026-04-15T03:45:13Z</time></trkpt><trkpt lat="45.863894602824764" lon="12.097909369502482"><ele>124.4</ele><time>2026-04-15T03:45:15Z</time></trkpt><trkpt lat="45.863889469838746" lon="12.097812618340681"><ele>124.6</ele><time>2026-04-15T03:46:10.999Z</time></trkpt><trkpt lat="45.863880986105286" lon="12.097705960313096"><ele>124.8</ele><time>2026-04-15T03:46:12.999Z</time></trkpt><trkpt lat="45.863870802980244" lon="12.097494792455533"><ele>125.0</ele><time>2026-04-15T03:46:14.999Z</time></trkpt><trkpt lat="45.863864796053505" lon="12.097368965291306"><ele>125.2</ele><time>2026-04-15T03:46:15.999Z</time></trkpt><trkpt lat="45.863859976879" lon="12.097246562269616"><ele>125.4</ele><time>2026-04-15T03:46:16.999Z</time></trkpt><trkpt lat="45.86385496474612" lon="12.09710662361213"><ele>125.6</ele><time>2026-04-15T03:46:17.999Z</time></trkpt><trkpt lat="45.863850318545445" lon="12.09694594544935"><ele>125.8</ele><time>2026-04-15T03:46:18.999Z</time></trkpt><trkpt lat="45.863846362994224" lon="12.096770459845057"><ele>126.0</ele><time>2026-04-15T03:46:19.999Z</time></trkpt><trkpt lat="45.86384561064853" lon="12.096603603604228"><ele>126.0</ele><time>2026-04-15T03:46:20.999Z</time></trkpt><trkpt lat="45.86384937343313" lon="12.096436790477542"><ele>126.0</ele><time>2026-04-15T03:46:21.999Z</time></trkpt><trkpt lat="45.863854747631436" lon="12.096262703006651"><ele>126.0</ele><time>2026-04-15T03:46:22.999Z</time></trkpt><trkpt lat="45.86386340908305" lon="12.09609180267403"><ele>126.0</ele><time>2026-04-15T03:46:23.999Z</time></trkpt><trkpt lat="45.86387481343817" lon="12.095918306829406"><ele>125.75</ele><time>2026-04-15T03:46:24.999Z</time></trkpt><trkpt lat="45.86388554698782" lon="12.095740031416101"><ele>125.5</ele><time>2026-04-15T03:46:25.999Z</time></trkpt><trkpt lat="45.86389986275978" lon="12.09555851452171"><ele>125.25</ele><time>2026-04-15T03:46:26.999Z</time></trkpt><trkpt lat="45.86391642662691" lon="12.095376227279948"><ele>125.0</ele><time>2026-04-15T03:46:27.999Z</time></trkpt><trkpt lat="45.86393076717038" lon="12.095192591117772"><ele>125.0</ele><time>2026-04-15T03:46:28.999Z</time></trkpt><trkpt lat="45.86394671252256" lon="12.095007949028698"><ele>125.0</ele><time>2026-04-15T03:46:29.999Z</time></trkpt><trkpt lat="45.86396283932986" lon="12.094822475931453"><ele>125.0</ele><time>2026-04-15T03:46:30.999Z</time></trkpt><trkpt lat="45.8639817668345" lon="12.0946379069373"><ele>125.0</ele><time>2026-04-15T03:46:31.999Z</time></trkpt><trkpt lat="45.86400349605311" lon="12.094452911183918"><ele>125.25</ele><time>2026-04-15T03:46:32.999Z</time></trkpt><trkpt lat="45.864025725220856" lon="12.0942678466167"><ele>125.5</ele><time>2026-04-15T03:46:33.999Z</time></trkpt><trkpt lat="45.86404916681327" lon="12.09408257701412"><ele>125.75</ele><time>2026-04-15T03:46:34.999Z</time></trkpt><trkpt lat="45.86407569167693" lon="12.093892178887394"><ele>126.0</ele><time>2026-04-15T03:46:35.999Z</time></trkpt><trkpt lat="45.86410160280076" lon="12.093695058666649"><ele>126.0</ele><time>2026-04-15T03:46:36.999Z</time></trkpt><trkpt lat="45.86412702087894" lon="12.093494308714671"><ele>126.0</ele><time>2026-04-15T03:46:37.999Z</time></trkpt><trkpt lat="45.86415589897518" lon="12.093286782070933"><ele>126.0</ele><time>2026-04-15T03:46:38.999Z</time></trkpt><trkpt lat="45.86418175280475" lon="12.09307634364056"><ele>126.0</ele><time>2026-04-15T03:46:39.999Z</time></trkpt><trkpt lat="45.86420854063032" lon="12.092868673760371"><ele>126.0</ele><time>2026-04-15T03:46:40.999Z</time></trkpt><trkpt lat="45.864234543360276" lon="12.092661735241018"><ele>126.0</ele><time>2026-04-15T03:46:41.999Z</time></trkpt><trkpt lat="45.86426064058075" lon="12.092453284286306"><ele>126.0</ele><time>2026-04-15T03:46:42.999Z</time></trkpt><trkpt lat="45.86428185023059" lon="12.09224752760512"><ele>126.0</ele><time>2026-04-15T03:46:43.999Z</time></trkpt><trkpt lat="45.86430034329645" lon="12.092046463278594"><ele>126.0</ele><time>2026-04-15T03:46:45Z</time></trkpt><trkpt lat="45.86431273639331" lon="12.091850966629886"><ele>126.0</ele><time>2026-04-15T03:46:46Z</time></trkpt><trkpt lat="45.86431633130564" lon="12.091660182584492"><ele>126.0</ele><time>2026-04-15T03:46:47Z</time></trkpt><trkpt lat="45.86431696551175" lon="12.091468488289529"><ele>126.0</ele><time>2026-04-15T03:46:48Z</time></trkpt><trkpt lat="45.86431182003222" lon="12.091271839928536"><ele>126.0</ele><time>2026-04-15T03:46:49Z</time></trkpt><trkpt lat="45.86430090173609" lon="12.09106885576556"><ele>126.0</ele><time>2026-04-15T03:46:50Z</time></trkpt><trkpt lat="45.86428820305355" lon="12.090861500074793"><ele>126.0</ele><time>2026-04-15T03:46:51Z</time></trkpt><trkpt lat="45.864275517221486" lon="12.090649829928658"><ele>126.0</ele><time>2026-04-15T03:46:52Z</time></trkpt><trkpt lat="45.86426972205894" lon="12.090431449214199"><ele>126.0</ele><time>2026-04-15T03:46:53Z</time></trkpt><trkpt lat="45.86424672811151" lon="12.090210198588355"><ele>126.0</ele><time>2026-04-15T03:46:54Z</time></trkpt><trkpt lat="45.86423090459059" lon="12.089982709265602"><ele>126.0</ele><time>2026-04-15T03:46:55Z</time></trkpt><trkpt lat="45.864216815154634" lon="12.08975666213861"><ele>126.0</ele><time>2026-04-15T03:46:56Z</time></trkpt><trkpt lat="45.86420434667242" lon="12.08952918457589"><ele>126.0</ele><time>2026-04-15T03:46:57Z</time></trkpt><trkpt lat="45.86418860631835" lon="12.089299838324903"><ele>126.0</ele><time>2026-04-15T03:46:58Z</time></trkpt><trkpt lat="45.864164319109925" lon="12.089068451564271"><ele>126.33333333333334</ele><time>2026-04-15T03:46:59Z</time></trkpt><trkpt lat="45.86413607549017" lon="12.088831554317279"><ele>126.66666666666667</ele><time>2026-04-15T03:47:00Z</time></trkpt><trkpt lat="45.864101954290206" lon="12.088590626902423"><ele>127.0</ele><time>2026-04-15T03:47:01Z</time></trkpt><trkpt lat="45.86405936814261" lon="12.08834662006252"><ele>127.0</ele><time>2026-04-15T03:47:02Z</time></trkpt><trkpt lat="45.86400688375199" lon="12.088099931290657"><ele>127.0</ele><time>2026-04-15T03:47:03Z</time></trkpt><trkpt lat="45.86394743896642" lon="12.087850325339376"><ele>127.0</ele><time>2026-04-15T03:47:04Z</time></trkpt><trkpt lat="45.863887628371245" lon="12.087596051895868"><ele>127.0</ele><time>2026-04-15T03:47:05Z</time></trkpt><trkpt lat="45.863824037335775" lon="12.087335356655284"><ele>127.0</ele><time>2026-04-15T03:47:06Z</time></trkpt><trkpt lat="45.863758531497936" lon="12.08707279867809"><ele>127.0</ele><time>2026-04-15T03:47:07Z</time></trkpt><trkpt lat="45.86369208121355" lon="12.086806611577456"><ele>127.25</ele><time>2026-04-15T03:47:08Z</time></trkpt><trkpt lat="45.8636298156837" lon="12.086559402591941"><ele>127.5</ele><time>2026-04-15T03:47:09Z</time></trkpt><trkpt lat="45.86358279819358" lon="12.086371592379868"><ele>127.75</ele><time>2026-04-15T03:47:10Z</time></trkpt><trkpt lat="45.86354329869593" lon="12.086228731227974"><ele>128.0</ele><time>2026-04-15T03:47:11Z</time></trkpt><trkpt lat="45.86350702842411" lon="12.08607239009273"><ele>128.0</ele><time>2026-04-15T03:47:12Z</time></trkpt><trkpt lat="45.86347184796495" lon="12.085921513005397"><ele>128.0</ele><time>2026-04-15T03:47:13Z</time></trkpt><trkpt lat="45.863436623946384" lon="12.085771099379057"><ele>128.0</ele><time>2026-04-15T03:47:14Z</time></trkpt><trkpt lat="45.863399588060105" lon="12.085612090762167"><ele>128.0</ele><time>2026-04-15T03:47:15Z</time></trkpt><trkpt lat="45.863355345860235" lon="12.085443473804643"><ele>128.0</ele><time>2026-04-15T03:47:16Z</time></trkpt><trkpt lat="45.86331073552866" lon="12.085267441243419"><ele>128.0</ele><time>2026-04-15T03:47:17Z</time></trkpt><trkpt lat="45.863265840623264" lon="12.085083491346362"><ele>128.0</ele><time>2026-04-15T03:47:18Z</time></trkpt><trkpt lat="45.863220433556336" lon="12.084890175442645"><ele>128.0</ele><time>2026-04-15T03:47:19Z</time></trkpt><trkpt lat="45.863172981733314" lon="12.084690717609757"><ele>128.0</ele><time>2026-04-15T03:47:20Z</time></trkpt><trkpt lat="45.86311957678912" lon="12.08448713412772"><ele>128.0</ele><time>2026-04-15T03:47:21Z</time></trkpt><trkpt lat="45.863068049440535" lon="12.084277687206695"><ele>128.0</ele><time>2026-04-15T03:47:22Z</time></trkpt><trkpt lat="45.86301908135377" lon="12.084070181627576"><ele>128.5</ele><time>2026-04-15T03:47:23Z</time></trkpt><trkpt lat="45.86297303246778" lon="12.083869666566413"><ele>129.0</ele><time>2026-04-15T03:47:24Z</time></trkpt><trkpt lat="45.86292716559058" lon="12.083684725868704"><ele>129.5</ele><time>2026-04-15T03:47:25Z</time></trkpt><trkpt lat="45.86288877304662" lon="12.083528480375996"><ele>130.0</ele><time>2026-04-15T03:47:26Z</time></trkpt><trkpt lat="45.86286112884856" lon="12.083408665636261"><ele>130.0</ele><time>2026-04-15T03:47:27Z</time></trkpt><trkpt lat="45.8628348438807" lon="12.083293267629278"><ele>130.0</ele><time>2026-04-15T03:47:28Z</time></trkpt><trkpt lat="45.86281225054728" lon="12.083192024690403"><ele>130.0</ele><time>2026-04-15T03:47:29Z</time></trkpt><trkpt lat="45.86278216053876" lon="12.083061428371915"><ele>130.0</ele><time>2026-04-15T03:47:31Z</time></trkpt><trkpt lat="45.86275048395658" lon="12.082949968124044"><ele>130.0</ele><time>2026-04-15T03:49:08Z</time></trkpt><trkpt lat="45.862719110304326" lon="12.08283327172778"><ele>130.0</ele><time>2026-04-15T03:49:10Z</time></trkpt><trkpt lat="45.862676729109026" lon="12.082670612271789"><ele>130.33333333333334</ele><time>2026-04-15T03:49:12Z</time></trkpt><trkpt lat="45.86265459038787" lon="12.082582417166911"><ele>130.66666666666669</ele><time>2026-04-15T03:49:13Z</time></trkpt><trkpt lat="45.86263059725209" lon="12.08249191058139"><ele>131.0</ele><time>2026-04-15T03:49:14Z</time></trkpt><trkpt lat="45.86260159119843" lon="12.082386957279631"><ele>131.33333333333334</ele><time>2026-04-15T03:49:15Z</time></trkpt><trkpt lat="45.86256635294169" lon="12.0822667636248"><ele>131.66666666666666</ele><time>2026-04-15T03:49:16Z</time></trkpt><trkpt lat="45.86252853692661" lon="12.082130562112477"><ele>132.0</ele><time>2026-04-15T03:49:17Z</time></trkpt><trkpt lat="45.8624877739917" lon="12.081983130720635"><ele>132.0</ele><time>2026-04-15T03:49:18Z</time></trkpt><trkpt lat="45.862444123374985" lon="12.081829588761467"><ele>132.0</ele><time>2026-04-15T03:49:19Z</time></trkpt><trkpt lat="45.862401692265635" lon="12.0816805727738"><ele>132.0</ele><time>2026-04-15T03:49:20Z</time></trkpt><trkpt lat="45.86235996286357" lon="12.081531441633965"><ele>132.0</ele><time>2026-04-15T03:49:21Z</time></trkpt><trkpt lat="45.86231812509834" lon="12.081372965910631"><ele>131.5</ele><time>2026-04-15T03:49:22Z</time></trkpt><trkpt lat="45.86226873824138" lon="12.081211319763904"><ele>131.0</ele><time>2026-04-15T03:49:23Z</time></trkpt><trkpt lat="45.8622232805947" lon="12.08104380341594"><ele>130.5</ele><time>2026-04-15T03:49:24Z</time></trkpt><trkpt lat="45.86217565251626" lon="12.080873253819863"><ele>130.0</ele><time>2026-04-15T03:49:25Z</time></trkpt><trkpt lat="45.86212607063563" lon="12.080696437197831"><ele>130.0</ele><time>2026-04-15T03:49:26Z</time></trkpt><trkpt lat="45.8620732257095" lon="12.08051861807047"><ele>130.0</ele><time>2026-04-15T03:49:27Z</time></trkpt><trkpt lat="45.86202210523725" lon="12.080338090398703"><ele>130.0</ele><time>2026-04-15T03:49:28Z</time></trkpt><trkpt lat="45.861970948413024" lon="12.080156765745768"><ele>130.0</ele><time>2026-04-15T03:49:29Z</time></trkpt><trkpt lat="45.86191971021001" lon="12.079973917497957"><ele>130.25</ele><time>2026-04-15T03:49:30Z</time></trkpt><trkpt lat="45.86186555289763" lon="12.079787626495834"><ele>130.5</ele><time>2026-04-15T03:49:31Z</time></trkpt><trkpt lat="45.861811885730255" lon="12.079591996017246"><ele>130.75</ele><time>2026-04-15T03:49:32Z</time></trkpt><trkpt lat="45.86175524527442" lon="12.07939250895592"><ele>131.0</ele><time>2026-04-15T03:49:33Z</time></trkpt><trkpt lat="45.861696037605" lon="12.079187538043218"><ele>131.66666666666666</ele><time>2026-04-15T03:49:34Z</time></trkpt><trkpt lat="45.861635018672054" lon="12.078978560410128"><ele>132.33333333333334</ele><time>2026-04-15T03:49:35Z</time></trkpt><trkpt lat="45.861575653961744" lon="12.078764218202734"><ele>133.0</ele><time>2026-04-15T03:49:36Z</time></trkpt><trkpt lat="45.86151476576103" lon="12.078548613647417"><ele>133.0</ele><time>2026-04-15T03:49:37Z</time></trkpt><trkpt lat="45.86145475595115" lon="12.07834020289259"><ele>133.0</ele><time>2026-04-15T03:49:38Z</time></trkpt><trkpt lat="45.86139792056369" lon="12.078139322956595"><ele>133.0</ele><time>2026-04-15T03:49:39Z</time></trkpt><trkpt lat="45.861346406986875" lon="12.077953778662149"><ele>133.0</ele><time>2026-04-15T03:49:40Z</time></trkpt><trkpt lat="45.8613027006222" lon="12.077799867614836"><ele>133.0</ele><time>2026-04-15T03:49:41Z</time></trkpt><trkpt lat="45.86126118244669" lon="12.077655018480014"><ele>133.0</ele><time>2026-04-15T03:49:42Z</time></trkpt><trkpt lat="45.86121612081172" lon="12.077527641849622"><ele>133.0</ele><time>2026-04-15T03:49:43Z</time></trkpt><trkpt lat="45.86116617552244" lon="12.077405900188223"><ele>133.0</ele><time>2026-04-15T03:49:44Z</time></trkpt><trkpt lat="45.86111374622123" lon="12.077282010594661"><ele>133.0</ele><time>2026-04-15T03:49:45Z</time></trkpt><trkpt lat="45.86104526978022" lon="12.077160396397225"><ele>133.25</ele><time>2026-04-15T03:49:46Z</time></trkpt><trkpt lat="45.86096584845426" lon="12.077039779340922"><ele>133.5</ele><time>2026-04-15T03:49:47Z</time></trkpt><trkpt lat="45.86088552677716" lon="12.076915240494879"><ele>133.75</ele><time>2026-04-15T03:49:47.999Z</time></trkpt><trkpt lat="45.86082759871602" lon="12.076776528175113"><ele>134.0</ele><time>2026-04-15T03:49:48.999Z</time></trkpt><trkpt lat="45.860793789973684" lon="12.076623791362234"><ele>134.25</ele><time>2026-04-15T03:49:49.999Z</time></trkpt><trkpt lat="45.86078935130925" lon="12.076464122028879"><ele>134.5</ele><time>2026-04-15T03:49:50.999Z</time></trkpt><trkpt lat="45.860781259826474" lon="12.076296670711944"><ele>134.75</ele><time>2026-04-15T03:49:51.999Z</time></trkpt><trkpt lat="45.86079693220847" lon="12.076126443480453"><ele>135.0</ele><time>2026-04-15T03:49:52.999Z</time></trkpt><trkpt lat="45.86077115690086" lon="12.075975038704522"><ele>135.0</ele><time>2026-04-15T03:49:53.999Z</time></trkpt><trkpt lat="45.86073085966988" lon="12.075813812104135"><ele>135.0</ele><time>2026-04-15T03:49:54.999Z</time></trkpt><trkpt lat="45.86069249741486" lon="12.075641448847605"><ele>135.0</ele><time>2026-04-15T03:49:55.999Z</time></trkpt><trkpt lat="45.86067607417715" lon="12.075455466747423"><ele>135.0</ele><time>2026-04-15T03:49:56.999Z</time></trkpt><trkpt lat="45.860647728073666" lon="12.075268300239221"><ele>135.0</ele><time>2026-04-15T03:49:57.999Z</time></trkpt><trkpt lat="45.8606765489363" lon="12.075049863246093"><ele>135.0</ele><time>2026-04-15T03:49:58.999Z</time></trkpt><trkpt lat="45.86067544463088" lon="12.074827752238106"><ele>135.0</ele><time>2026-04-15T03:49:59.999Z</time></trkpt><trkpt lat="45.86065308129829" lon="12.074618737591996"><ele>134.75</ele><time>2026-04-15T03:50:00.999Z</time></trkpt><trkpt lat="45.860628370851835" lon="12.074416920163516"><ele>134.5</ele><time>2026-04-15T03:50:01.999Z</time></trkpt><trkpt lat="45.86060439777866" lon="12.074217770319807"><ele>134.25</ele><time>2026-04-15T03:50:02.999Z</time></trkpt><trkpt lat="45.860581400625804" lon="12.074040214220235"><ele>134.0</ele><time>2026-04-15T03:50:03.999Z</time></trkpt><trkpt lat="45.860562301459545" lon="12.073890218844706"><ele>134.0</ele><time>2026-04-15T03:50:04.999Z</time></trkpt><trkpt lat="45.86054509080406" lon="12.073759245164362"><ele>134.0</ele><time>2026-04-15T03:50:05.999Z</time></trkpt><trkpt lat="45.86053049696288" lon="12.073644003751777"><ele>134.0</ele><time>2026-04-15T03:50:06.999Z</time></trkpt><trkpt lat="45.86050958594908" lon="12.07349650230876"><ele>134.0</ele><time>2026-04-15T03:50:08.999Z</time></trkpt><trkpt lat="45.86049479137803" lon="12.073398372181103"><ele>134.0</ele><time>2026-04-15T03:50:10.999Z</time></trkpt><trkpt lat="45.86035748556209" lon="12.073411082746873"><ele>134.0</ele><time>2026-04-15T03:50:15.999Z</time></trkpt><trkpt lat="45.86026899760302" lon="12.073501373847597"><ele>134.0</ele><time>2026-04-15T03:50:17.999Z</time></trkpt><trkpt lat="45.86018697099285" lon="12.07355039947303"><ele>134.0</ele><time>2026-04-15T03:50:19.999Z</time></trkpt><trkpt lat="45.860176513398706" lon="12.07382801824356"><ele>134.0</ele><time>2026-04-15T03:50:21.999Z</time></trkpt><trkpt lat="45.86017217431546" lon="12.073945816496538"><ele>134.0</ele><time>2026-04-15T03:50:22.999Z</time></trkpt><trkpt lat="45.8601406160125" lon="12.074054224801136"><ele>134.0</ele><time>2026-04-15T03:50:23.999Z</time></trkpt><trkpt lat="45.860144859771026" lon="12.074145221488171"><ele>134.0</ele><time>2026-04-15T03:50:24.999Z</time></trkpt><trkpt lat="45.8601492039735" lon="12.074252456604277"><ele>134.0</ele><time>2026-04-15T03:50:26.999Z</time></trkpt><trkpt lat="45.860172125194765" lon="12.074343337430395"><ele>134.0</ele><time>2026-04-15T03:50:28.999Z</time></trkpt><trkpt lat="45.86014236815407" lon="12.074205068765462"><ele>134.0</ele><time>2026-04-15T03:53:05Z</time></trkpt><trkpt lat="45.86013366774583" lon="12.074059456994027"><ele>134.0</ele><time>2026-04-15T03:53:07Z</time></trkpt><trkpt lat="45.860217080788125" lon="12.074304087160524"><ele>134.0</ele><time>2026-04-15T03:53:08Z</time></trkpt><trkpt lat="45.86021696977597" lon="12.073928247975452"><ele>134.0</ele><time>2026-04-15T03:53:09Z</time></trkpt><trkpt lat="45.86033857287781" lon="12.073908544497895"><ele>134.0</ele><time>2026-04-15T03:53:11Z</time></trkpt><trkpt lat="45.860435552029124" lon="12.07400395908525"><ele>134.0</ele><time>2026-04-15T03:53:13Z</time></trkpt><trkpt lat="45.86049699592863" lon="12.07404316787286"><ele>134.0</ele><time>2026-04-15T03:53:15Z</time></trkpt><trkpt lat="45.86055757221777" lon="12.074070929781382"><ele>134.0</ele><time>2026-04-15T03:53:20Z</time></trkpt><trkpt lat="45.860560557703764" lon="12.074172348184796"><ele>134.0</ele><time>2026-04-15T03:53:21Z</time></trkpt><trkpt lat="45.86056969933966" lon="12.074271949770013"><ele>134.0</ele><time>2026-04-15T03:53:22Z</time></trkpt><trkpt lat="45.860580947880074" lon="12.074390343373613"><ele>134.0</ele><time>2026-04-15T03:53:23Z</time></trkpt><trkpt lat="45.86059587304829" lon="12.074513617716743"><ele>134.0</ele><time>2026-04-15T03:53:24Z</time></trkpt><trkpt lat="45.86060925871783" lon="12.074633884660003"><ele>134.0</ele><time>2026-04-15T03:53:25Z</time></trkpt><trkpt lat="45.8606228561027" lon="12.074770827072957"><ele>134.0</ele><time>2026-04-15T03:53:26Z</time></trkpt><trkpt lat="45.86063021958223" lon="12.074929406514382"><ele>134.25</ele><time>2026-04-15T03:53:27Z</time></trkpt><trkpt lat="45.86062959120251" lon="12.075106074691798"><ele>134.5</ele><time>2026-04-15T03:53:28Z</time></trkpt><trkpt lat="45.86061605345304" lon="12.075278080140952"><ele>134.75</ele><time>2026-04-15T03:53:29Z</time></trkpt><trkpt lat="45.860597063776396" lon="12.075448068347223"><ele>135.0</ele><time>2026-04-15T03:53:30Z</time></trkpt><trkpt lat="45.860565618695915" lon="12.075619867422276"><ele>135.0</ele><time>2026-04-15T03:53:31Z</time></trkpt><trkpt lat="45.86052499540843" lon="12.075779583767837"><ele>135.0</ele><time>2026-04-15T03:53:32Z</time></trkpt><trkpt lat="45.86047064459217" lon="12.075926796045204"><ele>135.0</ele><time>2026-04-15T03:53:33Z</time></trkpt><trkpt lat="45.860419579471184" lon="12.076062446421222"><ele>135.0</ele><time>2026-04-15T03:53:34Z</time></trkpt><trkpt lat="45.860412763168924" lon="12.076196040562486"><ele>135.0</ele><time>2026-04-15T03:53:35Z</time></trkpt><trkpt lat="45.8604277963972" lon="12.076320181748235"><ele>135.0</ele><time>2026-04-15T03:53:36Z</time></trkpt><trkpt lat="45.860466928915095" lon="12.076432480647853"><ele>135.0</ele><time>2026-04-15T03:53:37Z</time></trkpt><trkpt lat="45.860520070272685" lon="12.076537407615486"><ele>135.0</ele><time>2026-04-15T03:53:38Z</time></trkpt><trkpt lat="45.86059438159206" lon="12.076641139796445"><ele>135.0</ele><time>2026-04-15T03:53:39Z</time></trkpt><trkpt lat="45.86068183642469" lon="12.07675766084796"><ele>135.0</ele><time>2026-04-15T03:53:40Z</time></trkpt><trkpt lat="45.860773443379095" lon="12.076891784502374"><ele>134.75</ele><time>2026-04-15T03:53:41Z</time></trkpt><trkpt lat="45.860874662815135" lon="12.077036129852736"><ele>134.5</ele><time>2026-04-15T03:53:42Z</time></trkpt><trkpt lat="45.86098149948976" lon="12.077189610999524"><ele>134.25</ele><time>2026-04-15T03:53:43Z</time></trkpt><trkpt lat="45.86107765110219" lon="12.077347762354435"><ele>134.0</ele><time>2026-04-15T03:53:44Z</time></trkpt><trkpt lat="45.86115623790385" lon="12.07752670099837"><ele>133.66666666666666</ele><time>2026-04-15T03:53:45Z</time></trkpt><trkpt lat="45.861225226124155" lon="12.077725973486858"><ele>133.33333333333334</ele><time>2026-04-15T03:53:46Z</time></trkpt><trkpt lat="45.861292279807095" lon="12.07793947593611"><ele>133.0</ele><time>2026-04-15T03:53:47Z</time></trkpt><trkpt lat="45.861354865065856" lon="12.078168979351354"><ele>133.0</ele><time>2026-04-15T03:53:48Z</time></trkpt><trkpt lat="45.861418891222726" lon="12.078409910961106"><ele>133.0</ele><time>2026-04-15T03:53:48.999Z</time></trkpt><trkpt lat="45.8614888169843" lon="12.078649323587996"><ele>133.0</ele><time>2026-04-15T03:53:49.999Z</time></trkpt><trkpt lat="45.861554238115254" lon="12.078868542082818"><ele>133.0</ele><time>2026-04-15T03:53:50.999Z</time></trkpt><trkpt lat="45.86161256962479" lon="12.079073803677723"><ele>133.0</ele><time>2026-04-15T03:53:51.999Z</time></trkpt><trkpt lat="45.861657813711254" lon="12.079237940840168"><ele>133.0</ele><time>2026-04-15T03:53:52.999Z</time></trkpt><trkpt lat="45.86168812992466" lon="12.079357783594148"><ele>133.0</ele><time>2026-04-15T03:53:53.999Z</time></trkpt><trkpt lat="45.86172177433979" lon="12.079494374537894"><ele>132.8</ele><time>2026-04-15T03:53:54.999Z</time></trkpt><trkpt lat="45.86175845724206" lon="12.07962558502963"><ele>132.60000000000002</ele><time>2026-04-15T03:53:55.999Z</time></trkpt><trkpt lat="45.861794984367656" lon="12.079751400193935"><ele>132.39999999999998</ele><time>2026-04-15T03:53:56.999Z</time></trkpt><trkpt lat="45.86182488149966" lon="12.079863814741174"><ele>132.2</ele><time>2026-04-15T03:53:57.999Z</time></trkpt><trkpt lat="45.86183149911668" lon="12.079964617160396"><ele>132.0</ele><time>2026-04-15T03:53:59.999Z</time></trkpt><trkpt lat="45.86173602019011" lon="12.080034126305861"><ele>132.0</ele><time>2026-04-15T03:54:02.999Z</time></trkpt><trkpt lat="45.86163684116042" lon="12.079985029323678"><ele>132.0</ele><time>2026-04-15T03:54:04.999Z</time></trkpt><trkpt lat="45.861517269771845" lon="12.079981053621902"><ele>132.0</ele><time>2026-04-15T03:54:06.999Z</time></trkpt><trkpt lat="45.861389264606196" lon="12.079994196731812"><ele>132.0</ele><time>2026-04-15T03:54:08.999Z</time></trkpt><trkpt lat="45.86132847649726" lon="12.080029522590495"><ele>132.0</ele><time>2026-04-15T03:54:09.999Z</time></trkpt><trkpt lat="45.86121265768218" lon="12.080070208408069"><ele>132.0</ele><time>2026-04-15T03:54:11.999Z</time></trkpt><trkpt lat="45.86108754278222" lon="12.080104722025315"><ele>132.0</ele><time>2026-04-15T03:54:13.999Z</time></trkpt><trkpt lat="45.861011200120295" lon="12.080111945762749"><ele>132.0</ele><time>2026-04-15T03:54:14.999Z</time></trkpt><trkpt lat="45.860925275220644" lon="12.080118181159289"><ele>132.0</ele><time>2026-04-15T03:54:15.999Z</time></trkpt><trkpt lat="45.860845492132874" lon="12.080127968796933"><ele>132.0</ele><time>2026-04-15T03:54:16.999Z</time></trkpt><trkpt lat="45.860773145740545" lon="12.080136440478938"><ele>132.0</ele><time>2026-04-15T03:54:17.999Z</time></trkpt><trkpt lat="45.8607045445463" lon="12.080129910265455"><ele>132.0</ele><time>2026-04-15T03:54:18.999Z</time></trkpt><trkpt lat="45.86060105561419" lon="12.080140216398505"><ele>132.0</ele><time>2026-04-15T03:54:20.999Z</time></trkpt><trkpt lat="45.86073541480584" lon="12.080231207073446"><ele>132.0</ele><time>2026-04-15T03:54:26.999Z</time></trkpt><trkpt lat="45.860840170202216" lon="12.080168702972351"><ele>132.0</ele><time>2026-04-15T03:54:28.999Z</time></trkpt><trkpt lat="45.86090200847391" lon="12.08015148412962"><ele>132.0</ele><time>2026-04-15T03:54:29.999Z</time></trkpt><trkpt lat="45.861009884506764" lon="12.08013366584635"><ele>132.0</ele><time>2026-04-15T03:54:31.999Z</time></trkpt><trkpt lat="45.861122043332294" lon="12.080117643992898"><ele>132.0</ele><time>2026-04-15T03:56:00.999Z</time></trkpt><trkpt lat="45.861242217966264" lon="12.080122170369572"><ele>132.0</ele><time>2026-04-15T03:56:02.999Z</time></trkpt><trkpt lat="45.86134580990895" lon="12.080042217394"><ele>132.0</ele><time>2026-04-15T03:56:04.999Z</time></trkpt><trkpt lat="45.8614718450299" lon="12.080030677521572"><ele>132.0</ele><time>2026-04-15T03:56:06.999Z</time></trkpt><trkpt lat="45.861540712872156" lon="12.080027830168897"><ele>132.0</ele><time>2026-04-15T03:56:07.999Z</time></trkpt><trkpt lat="45.861607053536325" lon="12.08001943996114"><ele>132.0</ele><time>2026-04-15T03:56:08.999Z</time></trkpt><trkpt lat="45.86167423186801" lon="12.080010349726855"><ele>132.0</ele><time>2026-04-15T03:56:09.999Z</time></trkpt><trkpt lat="45.8617714185002" lon="12.080070838357265"><ele>132.0</ele><time>2026-04-15T03:56:11.999Z</time></trkpt><trkpt lat="45.86183873520342" lon="12.080052787521646"><ele>132.0</ele><time>2026-04-15T03:56:13.999Z</time></trkpt><trkpt lat="45.86191581603147" lon="12.080136085727064"><ele>131.66666666666666</ele><time>2026-04-15T03:56:17.999Z</time></trkpt><trkpt lat="45.8619550652213" lon="12.080285861845082"><ele>131.33333333333334</ele><time>2026-04-15T03:56:19.999Z</time></trkpt><trkpt lat="45.861980762216085" lon="12.0803844351785"><ele>131.0</ele><time>2026-04-15T03:56:20.999Z</time></trkpt><trkpt lat="45.86201191535927" lon="12.080499167347327"><ele>130.66666666666669</ele><time>2026-04-15T03:56:21.999Z</time></trkpt><trkpt lat="45.8620416503062" lon="12.080612023342997"><ele>130.33333333333334</ele><time>2026-04-15T03:56:22.999Z</time></trkpt><trkpt lat="45.86207631687079" lon="12.080728159323728"><ele>130.0</ele><time>2026-04-15T03:56:23.999Z</time></trkpt><trkpt lat="45.862114438356336" lon="12.080858637846013"><ele>130.0</ele><time>2026-04-15T03:56:24.999Z</time></trkpt><trkpt lat="45.8621551284286" lon="12.080999269552603"><ele>130.0</ele><time>2026-04-15T03:56:25.999Z</time></trkpt><trkpt lat="45.862197954144825" lon="12.081147091900801"><ele>130.0</ele><time>2026-04-15T03:56:26.999Z</time></trkpt><trkpt lat="45.86224071034561" lon="12.081296121118113"><ele>130.0</ele><time>2026-04-15T03:56:27.999Z</time></trkpt><trkpt lat="45.86228132349673" lon="12.081442459164123"><ele>130.0</ele><time>2026-04-15T03:56:28.999Z</time></trkpt><trkpt lat="45.862320712977436" lon="12.081585044734663"><ele>130.4</ele><time>2026-04-15T03:56:29.999Z</time></trkpt><trkpt lat="45.862358713980655" lon="12.081724824350388"><ele>130.8</ele><time>2026-04-15T03:56:30.999Z</time></trkpt><trkpt lat="45.86239754404999" lon="12.081865203308114"><ele>131.2</ele><time>2026-04-15T03:56:31.999Z</time></trkpt><trkpt lat="45.86243758947465" lon="12.08200753994286"><ele>131.6</ele><time>2026-04-15T03:56:32.999Z</time></trkpt><trkpt lat="45.862476347863044" lon="12.082151422051634"><ele>132.0</ele><time>2026-04-15T03:56:33.999Z</time></trkpt><trkpt lat="45.86251630002171" lon="12.082291871385191"><ele>132.0</ele><time>2026-04-15T03:56:34.999Z</time></trkpt><trkpt lat="45.86255494834999" lon="12.082427841166126"><ele>132.0</ele><time>2026-04-15T03:56:35.999Z</time></trkpt><trkpt lat="45.86258987602531" lon="12.08256104139397"><ele>132.0</ele><time>2026-04-15T03:56:36.999Z</time></trkpt><trkpt lat="45.862624305957404" lon="12.082694957047787"><ele>132.0</ele><time>2026-04-15T03:56:37.999Z</time></trkpt><trkpt lat="45.86265673420008" lon="12.082829675010855"><ele>132.0</ele><time>2026-04-15T03:56:38.999Z</time></trkpt><trkpt lat="45.86268999612456" lon="12.082963840362531"><ele>132.2</ele><time>2026-04-15T03:56:39.999Z</time></trkpt><trkpt lat="45.862724757368575" lon="12.083096844481366"><ele>132.39999999999998</ele><time>2026-04-15T03:56:40.999Z</time></trkpt><trkpt lat="45.86275758060921" lon="12.083231323106787"><ele>132.60000000000002</ele><time>2026-04-15T03:56:41.999Z</time></trkpt><trkpt lat="45.86278913240981" lon="12.083365198705376"><ele>132.8</ele><time>2026-04-15T03:56:42.999Z</time></trkpt><trkpt lat="45.86282076455081" lon="12.083497975268866"><ele>133.0</ele><time>2026-04-15T03:56:43.999Z</time></trkpt><trkpt lat="45.86285132200683" lon="12.083616991964805"><ele>132.5</ele><time>2026-04-15T03:56:44.999Z</time></trkpt><trkpt lat="45.86286877075222" lon="12.083712600216126"><ele>132.0</ele><time>2026-04-15T03:56:45.999Z</time></trkpt><trkpt lat="45.86284254254423" lon="12.083843649327894"><ele>131.5</ele><time>2026-04-15T03:56:47.999Z</time></trkpt><trkpt lat="45.86274180879254" lon="12.083864827277123"><ele>131.0</ele><time>2026-04-15T03:56:48.999Z</time></trkpt><trkpt lat="45.86266804517921" lon="12.08389464059319"><ele>130.5</ele><time>2026-04-15T03:56:49.999Z</time></trkpt><trkpt lat="45.86259242636673" lon="12.083948640387836"><ele>130.0</ele><time>2026-04-15T03:56:50.999Z</time></trkpt><trkpt lat="45.862504238035996" lon="12.083975423586816"><ele>130.0</ele><time>2026-04-15T03:56:51.999Z</time></trkpt><trkpt lat="45.862422466297616" lon="12.084003680632934"><ele>130.0</ele><time>2026-04-15T03:56:52.999Z</time></trkpt><trkpt lat="45.86234682857333" lon="12.08403318930891"><ele>130.0</ele><time>2026-04-15T03:56:53.999Z</time></trkpt><trkpt lat="45.86228402932088" lon="12.084060007734209"><ele>130.0</ele><time>2026-04-15T03:56:54.999Z</time></trkpt><trkpt lat="45.86213880192247" lon="12.084115667222388"><ele>130.0</ele><time>2026-04-15T03:57:48Z</time></trkpt><trkpt lat="45.862071598461" lon="12.084145637949504"><ele>130.0</ele><time>2026-04-15T03:57:53.999Z</time></trkpt><trkpt lat="45.861979688874825" lon="12.084182173035156"><ele>130.0</ele><time>2026-04-15T03:58:49.999Z</time></trkpt><trkpt lat="45.861880372493076" lon="12.084233308450509"><ele>130.0</ele><time>2026-04-15T03:58:51.999Z</time></trkpt><trkpt lat="45.861783317953126" lon="12.084272280989346"><ele>130.0</ele><time>2026-04-15T03:58:53.999Z</time></trkpt><trkpt lat="45.86168572701368" lon="12.084316708769208"><ele>130.0</ele><time>2026-04-15T03:58:55.999Z</time></trkpt><trkpt lat="45.861579934863556" lon="12.08435957031827"><ele>130.0</ele><time>2026-04-15T03:58:57.999Z</time></trkpt><trkpt lat="45.861512940529515" lon="12.084384660263575"><ele>129.83333333333334</ele><time>2026-04-15T03:58:58.999Z</time></trkpt><trkpt lat="45.86143581029533" lon="12.084417000914481"><ele>129.66666666666669</ele><time>2026-04-15T03:58:59.999Z</time></trkpt><trkpt lat="45.86136319553141" lon="12.084446417157814"><ele>129.5</ele><time>2026-04-15T03:59:00.999Z</time></trkpt><trkpt lat="45.86130130122183" lon="12.084470056726213"><ele>129.33333333333334</ele><time>2026-04-15T03:59:01.999Z</time></trkpt><trkpt lat="45.86123169680085" lon="12.084515391492287"><ele>129.16666666666666</ele><time>2026-04-15T03:59:03.999Z</time></trkpt><trkpt lat="45.86131048864104" lon="12.084614235535302"><ele>129.0</ele><time>2026-04-15T03:59:08.999Z</time></trkpt><trkpt lat="45.861364326246985" lon="12.084494160097586"><ele>128.99999999999997</ele><time>2026-04-15T03:59:11.999Z</time></trkpt><trkpt lat="45.861429717450946" lon="12.084427920971006"><ele>129.0</ele><time>2026-04-15T03:59:13.999Z</time></trkpt><trkpt lat="45.86149975743122" lon="12.084421985917126"><ele>129.0</ele><time>2026-04-15T03:59:14.999Z</time></trkpt><trkpt lat="45.86157047969598" lon="12.084398921643105"><ele>129.0</ele><time>2026-04-15T03:59:15.999Z</time></trkpt><trkpt lat="45.86163496174014" lon="12.084367864820214"><ele>129.0</ele><time>2026-04-15T03:59:16.999Z</time></trkpt><trkpt lat="45.861705465635424" lon="12.08433258920516"><ele>128.99999999999997</ele><time>2026-04-15T03:59:17.999Z</time></trkpt><trkpt lat="45.86177674013305" lon="12.084306347110246"><ele>129.0</ele><time>2026-04-15T03:59:18.999Z</time></trkpt><trkpt lat="45.861848058492015" lon="12.0842844006846"><ele>129.16666666666666</ele><time>2026-04-15T03:59:20Z</time></trkpt><trkpt lat="45.86191906308409" lon="12.084251857311095"><ele>129.33333333333334</ele><time>2026-04-15T03:59:21Z</time></trkpt><trkpt lat="45.86199027792452" lon="12.084217983318888"><ele>129.5</ele><time>2026-04-15T03:59:22Z</time></trkpt><trkpt lat="45.862064069594375" lon="12.084189038372047"><ele>129.66666666666669</ele><time>2026-04-15T03:59:23Z</time></trkpt><trkpt lat="45.862141751636244" lon="12.084158074008633"><ele>129.83333333333334</ele><time>2026-04-15T03:59:24Z</time></trkpt><trkpt lat="45.862225583371576" lon="12.084122505888454"><ele>130.0</ele><time>2026-04-15T03:59:25Z</time></trkpt><trkpt lat="45.86231494477205" lon="12.084088047862487"><ele>130.0</ele><time>2026-04-15T03:59:26Z</time></trkpt><trkpt lat="45.86240988842999" lon="12.084052237860742"><ele>130.0</ele><time>2026-04-15T03:59:27Z</time></trkpt><trkpt lat="45.86250617533921" lon="12.084012664500174"><ele>130.0</ele><time>2026-04-15T03:59:28Z</time></trkpt><trkpt lat="45.862599983186335" lon="12.083975562126296"><ele>130.0</ele><time>2026-04-15T03:59:29Z</time></trkpt><trkpt lat="45.86268718587067" lon="12.083942570517427"><ele>130.0</ele><time>2026-04-15T03:59:30Z</time></trkpt><trkpt lat="45.86276715716287" lon="12.08391038638403"><ele>130.0</ele><time>2026-04-15T03:59:31Z</time></trkpt><trkpt lat="45.86282940246316" lon="12.0838854908033"><ele>130.0</ele><time>2026-04-15T03:59:32Z</time></trkpt><trkpt lat="45.862895367132" lon="12.083879889491183"><ele>130.0</ele><time>2026-04-15T03:59:35Z</time></trkpt><trkpt lat="45.86295749078558" lon="12.083981034642338"><ele>130.0</ele><time>2026-04-15T03:59:38Z</time></trkpt><trkpt lat="45.86298439596852" lon="12.08414630742991"><ele>130.0</ele><time>2026-04-15T03:59:40Z</time></trkpt><trkpt lat="45.86300623213711" lon="12.0842352580294"><ele>130.0</ele><time>2026-04-15T03:59:41Z</time></trkpt><trkpt lat="45.863028016218536" lon="12.084322072661271"><ele>129.66666666666669</ele><time>2026-04-15T03:59:42Z</time></trkpt><trkpt lat="45.86305077142795" lon="12.084422208156479"><ele>129.33333333333334</ele><time>2026-04-15T03:59:43Z</time></trkpt><trkpt lat="45.8630763984759" lon="12.084538349189538"><ele>129.0</ele><time>2026-04-15T03:59:44Z</time></trkpt><trkpt lat="45.863105027843126" lon="12.084666950923346"><ele>128.66666666666666</ele><time>2026-04-15T03:59:44.999Z</time></trkpt><trkpt lat="45.86313818268569" lon="12.084799907006463"><ele>128.33333333333331</ele><time>2026-04-15T03:59:45.999Z</time></trkpt><trkpt lat="45.863168269391075" lon="12.084930164939996"><ele>128.0</ele><time>2026-04-15T03:59:46.999Z</time></trkpt><trkpt lat="45.86320154124886" lon="12.08505761671295"><ele>128.0</ele><time>2026-04-15T03:59:47.999Z</time></trkpt><trkpt lat="45.86323548396315" lon="12.085190277614492"><ele>128.0</ele><time>2026-04-15T03:59:48.999Z</time></trkpt><trkpt lat="45.863272043397494" lon="12.085329327967639"><ele>128.0</ele><time>2026-04-15T03:59:49.999Z</time></trkpt><trkpt lat="45.86330895959259" lon="12.08547704503847"><ele>128.0</ele><time>2026-04-15T03:59:50.999Z</time></trkpt><trkpt lat="45.86334288815595" lon="12.085634738335438"><ele>128.0</ele><time>2026-04-15T03:59:51.999Z</time></trkpt><trkpt lat="45.86338130907803" lon="12.085797143729497"><ele>128.0</ele><time>2026-04-15T03:59:52.999Z</time></trkpt><trkpt lat="45.863421184460755" lon="12.085966596835727"><ele>128.0</ele><time>2026-04-15T03:59:53.999Z</time></trkpt><trkpt lat="45.863462744986414" lon="12.086137569273973"><ele>128.0</ele><time>2026-04-15T03:59:54.999Z</time></trkpt><trkpt lat="45.86350430129856" lon="12.086304003707232"><ele>128.0</ele><time>2026-04-15T03:59:55.999Z</time></trkpt><trkpt lat="45.863545514941464" lon="12.086465612240328"><ele>127.80000000000001</ele><time>2026-04-15T03:59:56.999Z</time></trkpt><trkpt lat="45.86358719812004" lon="12.086621786564862"><ele>127.60000000000001</ele><time>2026-04-15T03:59:57.999Z</time></trkpt><trkpt lat="45.86362847181157" lon="12.086774200019237"><ele>127.39999999999999</ele><time>2026-04-15T03:59:58.999Z</time></trkpt><trkpt lat="45.86366559577968" lon="12.086923543365689"><ele>127.19999999999999</ele><time>2026-04-15T03:59:59.999Z</time></trkpt><trkpt lat="45.86369895407829" lon="12.08705252637138"><ele>127.0</ele><time>2026-04-15T04:00:00.999Z</time></trkpt><trkpt lat="45.86372577931706" lon="12.087149552276374"><ele>127.0</ele><time>2026-04-15T04:00:01.999Z</time></trkpt><trkpt lat="45.86373369506311" lon="12.087260445142295"><ele>126.99999999999999</ele><time>2026-04-15T04:00:03.999Z</time></trkpt><trkpt lat="45.863633511251415" lon="12.087240702263735"><ele>126.99999999999999</ele><time>2026-04-15T04:00:07.999Z</time></trkpt><trkpt lat="45.86354512855156" lon="12.087266566841004"><ele>127.0</ele><time>2026-04-15T04:00:09.999Z</time></trkpt><trkpt lat="45.86342085074359" lon="12.087279096659593"><ele>127.0</ele><time>2026-04-15T04:00:11.999Z</time></trkpt><trkpt lat="45.86328615110119" lon="12.087287254652386"><ele>127.16666666666667</ele><time>2026-04-15T04:00:13.999Z</time></trkpt><trkpt lat="45.86320552895455" lon="12.087272262678033"><ele>127.33333333333334</ele><time>2026-04-15T04:00:14.999Z</time></trkpt><trkpt lat="45.86313119272799" lon="12.087299694445994"><ele>127.5</ele><time>2026-04-15T04:00:15.999Z</time></trkpt><trkpt lat="45.86305961831999" lon="12.087306435479347"><ele>127.66666666666666</ele><time>2026-04-15T04:00:16.999Z</time></trkpt><trkpt lat="45.862959339640604" lon="12.087315538314188"><ele>127.83333333333333</ele><time>2026-04-15T04:00:18.999Z</time></trkpt><trkpt lat="45.86288478732736" lon="12.08731137663821"><ele>128.0</ele><time>2026-04-15T04:01:10.999Z</time></trkpt><trkpt lat="45.86281583427236" lon="12.087387463743458"><ele>128.0</ele><time>2026-04-15T04:01:13.998Z</time></trkpt><trkpt lat="45.862826573905565" lon="12.087487416526209"><ele>128.0</ele><time>2026-04-15T04:01:15.998Z</time></trkpt><trkpt lat="45.862858997628265" lon="12.087597569467718"><ele>128.0</ele><time>2026-04-15T04:01:18.998Z</time></trkpt><trkpt lat="45.86294116666598" lon="12.087583991140818"><ele>128.0</ele><time>2026-04-15T04:01:21.998Z</time></trkpt><trkpt lat="45.86303388532723" lon="12.087596668506576"><ele>128.0</ele><time>2026-04-15T04:02:16.999Z</time></trkpt><trkpt lat="45.86315385415991" lon="12.087581988666184"><ele>127.99999999999999</ele><time>2026-04-15T04:02:18.999Z</time></trkpt><trkpt lat="45.863233910803274" lon="12.08755771036919"><ele>128.0</ele><time>2026-04-15T04:02:19.999Z</time></trkpt><trkpt lat="45.86331115541634" lon="12.087556648260376"><ele>128.0</ele><time>2026-04-15T04:02:20.999Z</time></trkpt><trkpt lat="45.8633961411187" lon="12.087545954984042"><ele>128.0</ele><time>2026-04-15T04:02:21.999Z</time></trkpt><trkpt lat="45.86348941906004" lon="12.08753605369623"><ele>127.99999999999999</ele><time>2026-04-15T04:02:22.999Z</time></trkpt><trkpt lat="45.8635867202731" lon="12.087524798306763"><ele>128.0</ele><time>2026-04-15T04:02:23.999Z</time></trkpt><trkpt lat="45.863671448215726" lon="12.08754468279079"><ele>127.83333333333333</ele><time>2026-04-15T04:02:24.999Z</time></trkpt><trkpt lat="45.863732052441186" lon="12.087515442284111"><ele>127.66666666666666</ele><time>2026-04-15T04:02:25.999Z</time></trkpt><trkpt lat="45.863809586701585" lon="12.087539922166327"><ele>127.5</ele><time>2026-04-15T04:02:31.999Z</time></trkpt><trkpt lat="45.86385072881311" lon="12.087646197256454"><ele>127.33333333333334</ele><time>2026-04-15T04:02:33.999Z</time></trkpt><trkpt lat="45.86389442275992" lon="12.0878327759782"><ele>127.16666666666667</ele><time>2026-04-15T04:02:35.999Z</time></trkpt><trkpt lat="45.86391994672265" lon="12.087937000668862"><ele>127.0</ele><time>2026-04-15T04:02:36.999Z</time></trkpt><trkpt lat="45.86394407900409" lon="12.088043799629428"><ele>127.0</ele><time>2026-04-15T04:02:37.999Z</time></trkpt><trkpt lat="45.86397117194709" lon="12.088164303601689"><ele>126.99999999999999</ele><time>2026-04-15T04:02:38.999Z</time></trkpt><trkpt lat="45.86400146601044" lon="12.08830415299742"><ele>126.99999999999999</ele><time>2026-04-15T04:02:39.999Z</time></trkpt><trkpt lat="45.86403275343749" lon="12.088460316573906"><ele>127.0</ele><time>2026-04-15T04:02:40.999Z</time></trkpt><trkpt lat="45.86406481033854" lon="12.088631347463378"><ele>127.0</ele><time>2026-04-15T04:02:41.999Z</time></trkpt><trkpt lat="45.86409164117432" lon="12.088809728232354"><ele>127.0</ele><time>2026-04-15T04:02:42.999Z</time></trkpt><trkpt lat="45.86411290540052" lon="12.088985274196762"><ele>127.0</ele><time>2026-04-15T04:02:43.999Z</time></trkpt><trkpt lat="45.86412833069134" lon="12.08916598054924"><ele>127.0</ele><time>2026-04-15T04:02:44.999Z</time></trkpt><trkpt lat="45.86414326995429" lon="12.089358181430445"><ele>127.0</ele><time>2026-04-15T04:02:45.999Z</time></trkpt><trkpt lat="45.86415682111099" lon="12.089556715959814"><ele>126.66666666666667</ele><time>2026-04-15T04:02:46.999Z</time></trkpt><trkpt lat="45.86417011582126" lon="12.08976722356692"><ele>126.33333333333334</ele><time>2026-04-15T04:02:47.999Z</time></trkpt><trkpt lat="45.86418486497613" lon="12.089988548640287"><ele>126.0</ele><time>2026-04-15T04:02:48.999Z</time></trkpt><trkpt lat="45.86419950806117" lon="12.09022034525305"><ele>126.0</ele><time>2026-04-15T04:02:49.999Z</time></trkpt><trkpt lat="45.864215214050056" lon="12.09046204847397"><ele>126.0</ele><time>2026-04-15T04:02:50.999Z</time></trkpt><trkpt lat="45.86422999883466" lon="12.090714144333154"><ele>126.0</ele><time>2026-04-15T04:02:51.999Z</time></trkpt><trkpt lat="45.864245611218145" lon="12.090971927743388"><ele>126.0</ele><time>2026-04-15T04:02:52.999Z</time></trkpt><trkpt lat="45.864259580315405" lon="12.091224122795918"><ele>126.0</ele><time>2026-04-15T04:02:53.999Z</time></trkpt><trkpt lat="45.86426809368932" lon="12.091470515253784"><ele>126.0</ele><time>2026-04-15T04:02:54.999Z</time></trkpt><trkpt lat="45.864266609485995" lon="12.09171247793811"><ele>126.0</ele><time>2026-04-15T04:02:55.999Z</time></trkpt><trkpt lat="45.864254699433964" lon="12.091948351434075"><ele>126.0</ele><time>2026-04-15T04:02:56.999Z</time></trkpt><trkpt lat="45.86423789226926" lon="12.09217769034241"><ele>126.0</ele><time>2026-04-15T04:02:57.999Z</time></trkpt><trkpt lat="45.864215222433955" lon="12.092401977971242"><ele>125.33333333333334</ele><time>2026-04-15T04:02:58.999Z</time></trkpt><trkpt lat="45.864186397262586" lon="12.092619886426013"><ele>124.66666666666667</ele><time>2026-04-15T04:02:59.999Z</time></trkpt><trkpt lat="45.86415585930874" lon="12.09283864815476"><ele>124.0</ele><time>2026-04-15T04:03:00.999Z</time></trkpt><trkpt lat="45.86412787124762" lon="12.093058321920678"><ele>124.66666666666667</ele><time>2026-04-15T04:03:01.999Z</time></trkpt><trkpt lat="45.86409926049243" lon="12.093280804853132"><ele>125.33333333333334</ele><time>2026-04-15T04:03:02.999Z</time></trkpt><trkpt lat="45.86407103738936" lon="12.093507228313465"><ele>126.0</ele><time>2026-04-15T04:03:03.999Z</time></trkpt><trkpt lat="45.8640431303845" lon="12.093736952689806"><ele>126.0</ele><time>2026-04-15T04:03:04.999Z</time></trkpt><trkpt lat="45.86401464472135" lon="12.093969806446513"><ele>126.0</ele><time>2026-04-15T04:03:05.999Z</time></trkpt><trkpt lat="45.86398616686184" lon="12.094202341453952"><ele>126.0</ele><time>2026-04-15T04:03:06.999Z</time></trkpt><trkpt lat="45.86395786780935" lon="12.094430936661452"><ele>126.33333333333334</ele><time>2026-04-15T04:03:07.999Z</time></trkpt><trkpt lat="45.86392919382664" lon="12.094655674875574"><ele>126.66666666666667</ele><time>2026-04-15T04:03:08.999Z</time></trkpt><trkpt lat="45.863903280009204" lon="12.09487921407877"><ele>127.0</ele><time>2026-04-15T04:03:09.999Z</time></trkpt><trkpt lat="45.863881474906464" lon="12.095102716954706"><ele>126.66666666666667</ele><time>2026-04-15T04:03:10.999Z</time></trkpt><trkpt lat="45.86386046390448" lon="12.09533073673741"><ele>126.33333333333334</ele><time>2026-04-15T04:03:11.999Z</time></trkpt><trkpt lat="45.86384387239885" lon="12.09556364819743"><ele>126.0</ele><time>2026-04-15T04:03:12.999Z</time></trkpt><trkpt lat="45.86382815537211" lon="12.095800335522659"><ele>126.0</ele><time>2026-04-15T04:03:13.999Z</time></trkpt><trkpt lat="45.86381571065803" lon="12.096041615451233"><ele>126.0</ele><time>2026-04-15T04:03:14.999Z</time></trkpt><trkpt lat="45.86380770084884" lon="12.096287002872193"><ele>126.0</ele><time>2026-04-15T04:03:15.999Z</time></trkpt><trkpt lat="45.86380354642515" lon="12.096535312276748"><ele>126.0</ele><time>2026-04-15T04:03:16.999Z</time></trkpt><trkpt lat="45.86380208209839" lon="12.096788325693884"><ele>126.0</ele><time>2026-04-15T04:03:17.999Z</time></trkpt><trkpt lat="45.86380456880225" lon="12.097044852253866"><ele>126.0</ele><time>2026-04-15T04:03:18.999Z</time></trkpt><trkpt lat="45.863810382406704" lon="12.09730476479143"><ele>125.66666666666666</ele><time>2026-04-15T04:03:19.999Z</time></trkpt><trkpt lat="45.8638225133761" lon="12.097566159422627"><ele>125.33333333333333</ele><time>2026-04-15T04:03:20.999Z</time></trkpt><trkpt lat="45.86383873282227" lon="12.097820345571577"><ele>125.0</ele><time>2026-04-15T04:03:21.999Z</time></trkpt><trkpt lat="45.86386025471457" lon="12.098073607614888"><ele>124.66666666666666</ele><time>2026-04-15T04:03:22.999Z</time></trkpt><trkpt lat="45.863883213367274" lon="12.098333111892448"><ele>124.33333333333334</ele><time>2026-04-15T04:03:23.999Z</time></trkpt><trkpt lat="45.86390932604359" lon="12.098597554468814"><ele>124.0</ele><time>2026-04-15T04:03:24.999Z</time></trkpt><trkpt lat="45.863939960940826" lon="12.098864315908155"><ele>124.0</ele><time>2026-04-15T04:03:25.999Z</time></trkpt><trkpt lat="45.86397135487457" lon="12.09913638166333"><ele>124.0</ele><time>2026-04-15T04:03:26.999Z</time></trkpt><trkpt lat="45.86400368868489" lon="12.099412847153877"><ele>124.0</ele><time>2026-04-15T04:03:27.999Z</time></trkpt><trkpt lat="45.864037046052445" lon="12.099693654795912"><ele>123.33333333333334</ele><time>2026-04-15T04:03:28.999Z</time></trkpt><trkpt lat="45.86407099585779" lon="12.099977831802645"><ele>122.66666666666666</ele><time>2026-04-15T04:03:29.999Z</time></trkpt><trkpt lat="45.86410535856629" lon="12.100266065697586"><ele>122.0</ele><time>2026-04-15T04:03:30.999Z</time></trkpt><trkpt lat="45.86413916824812" lon="12.100557444679346"><ele>122.33333333333333</ele><time>2026-04-15T04:03:32Z</time></trkpt><trkpt lat="45.86417456704013" lon="12.100848764330241"><ele>122.66666666666666</ele><time>2026-04-15T04:03:33Z</time></trkpt><trkpt lat="45.86420740812738" lon="12.101133809503281"><ele>123.0</ele><time>2026-04-15T04:03:34Z</time></trkpt><trkpt lat="45.86423846806449" lon="12.10141410497912"><ele>123.0</ele><time>2026-04-15T04:03:35Z</time></trkpt><trkpt lat="45.86427070946125" lon="12.101689066340569"><ele>123.0</ele><time>2026-04-15T04:03:36Z</time></trkpt><trkpt lat="45.86430212754254" lon="12.101961386115311"><ele>123.0</ele><time>2026-04-15T04:03:37Z</time></trkpt><trkpt lat="45.864334565223075" lon="12.102231818962027"><ele>123.0</ele><time>2026-04-15T04:03:38Z</time></trkpt><trkpt lat="45.86436828547223" lon="12.10250163286822"><ele>123.0</ele><time>2026-04-15T04:03:39Z</time></trkpt><trkpt lat="45.86440143648011" lon="12.102771784734712"><ele>123.0</ele><time>2026-04-15T04:03:40Z</time></trkpt><trkpt lat="45.86443318835002" lon="12.10304130827373"><ele>122.33333333333334</ele><time>2026-04-15T04:03:41Z</time></trkpt><trkpt lat="45.864460718042736" lon="12.103331772977619"><ele>121.66666666666667</ele><time>2026-04-15T04:03:42Z</time></trkpt><trkpt lat="45.86449203705469" lon="12.10359036792641"><ele>121.0</ele><time>2026-04-15T04:03:43Z</time></trkpt><trkpt lat="45.86452225255335" lon="12.103859349820905"><ele>121.0</ele><time>2026-04-15T04:03:44Z</time></trkpt><trkpt lat="45.86455264891941" lon="12.104127505059282"><ele>121.0</ele><time>2026-04-15T04:03:45Z</time></trkpt><trkpt lat="45.86458425767366" lon="12.10438775265952"><ele>121.0</ele><time>2026-04-15T04:03:46Z</time></trkpt><trkpt lat="45.864615619390186" lon="12.104644741003943"><ele>121.0</ele><time>2026-04-15T04:03:47Z</time></trkpt><trkpt lat="45.86464691555148" lon="12.10490139938148"><ele>121.0</ele><time>2026-04-15T04:03:48Z</time></trkpt><trkpt lat="45.86467543860878" lon="12.105157722041925"><ele>121.0</ele><time>2026-04-15T04:03:49Z</time></trkpt><trkpt lat="45.86470356010524" lon="12.105413532669957"><ele>121.0</ele><time>2026-04-15T04:03:50Z</time></trkpt><trkpt lat="45.86473012534045" lon="12.105662407724681"><ele>121.0</ele><time>2026-04-15T04:03:51Z</time></trkpt><trkpt lat="45.864753036660005" lon="12.1058883354648"><ele>121.0</ele><time>2026-04-15T04:03:52Z</time></trkpt><trkpt lat="45.86475996222231" lon="12.10604864859352"><ele>121.0</ele><time>2026-04-15T04:03:53Z</time></trkpt><trkpt lat="45.864762682486855" lon="12.106182603489053"><ele>121.00000000000001</ele><time>2026-04-15T04:03:54Z</time></trkpt><trkpt lat="45.86475891176989" lon="12.106330318692935"><ele>121.0</ele><time>2026-04-15T04:03:55Z</time></trkpt><trkpt lat="45.864738551514385" lon="12.106472224798067"><ele>121.0</ele><time>2026-04-15T04:03:55.999Z</time></trkpt><trkpt lat="45.864711859923176" lon="12.106591461986746"><ele>121.0</ele><time>2026-04-15T04:03:56.999Z</time></trkpt><trkpt lat="45.86470765941344" lon="12.106696198055209"><ele>121.00000000000001</ele><time>2026-04-15T04:03:57.999Z</time></trkpt><trkpt lat="45.86473358998422" lon="12.106798871823516"><ele>121.0</ele><time>2026-04-15T04:03:58.999Z</time></trkpt><trkpt lat="45.864778518786444" lon="12.106888646641345"><ele>120.6</ele><time>2026-04-15T04:03:59.999Z</time></trkpt><trkpt lat="45.86483014584223" lon="12.106970538159004"><ele>120.19999999999999</ele><time>2026-04-15T04:04:00.999Z</time></trkpt><trkpt lat="45.864875228105525" lon="12.107071261043133"><ele>119.80000000000001</ele><time>2026-04-15T04:04:01.999Z</time></trkpt><trkpt lat="45.86490267520636" lon="12.107203382522563"><ele>119.4</ele><time>2026-04-15T04:04:02.999Z</time></trkpt><trkpt lat="45.86492252604365" lon="12.107357230997126"><ele>119.0</ele><time>2026-04-15T04:04:03.999Z</time></trkpt><trkpt lat="45.86494297969842" lon="12.10752770150561"><ele>118.5</ele><time>2026-04-15T04:04:04.999Z</time></trkpt><trkpt lat="45.864962890870736" lon="12.107712323776463"><ele>118.0</ele><time>2026-04-15T04:04:05.999Z</time></trkpt><trkpt lat="45.86498570610853" lon="12.10790865822109"><ele>117.5</ele><time>2026-04-15T04:04:06.999Z</time></trkpt><trkpt lat="45.86501057437979" lon="12.108096166482245"><ele>117.0</ele><time>2026-04-15T04:04:07.999Z</time></trkpt><trkpt lat="45.86503224637717" lon="12.108287037097874"><ele>117.0</ele><time>2026-04-15T04:04:08.999Z</time></trkpt><trkpt lat="45.86505741195074" lon="12.108489071472123"><ele>117.0</ele><time>2026-04-15T04:04:09.999Z</time></trkpt><trkpt lat="45.86508203140139" lon="12.108702700642617"><ele>117.0</ele><time>2026-04-15T04:04:10.999Z</time></trkpt><trkpt lat="45.865107139804884" lon="12.10892591547227"><ele>117.0</ele><time>2026-04-15T04:04:11.999Z</time></trkpt><trkpt lat="45.86513295877168" lon="12.109160452020538"><ele>117.0</ele><time>2026-04-15T04:04:12.999Z</time></trkpt><trkpt lat="45.86515800509723" lon="12.10939506579205"><ele>117.0</ele><time>2026-04-15T04:04:13.999Z</time></trkpt><trkpt lat="45.865185077044146" lon="12.109625025224865"><ele>117.0</ele><time>2026-04-15T04:04:14.999Z</time></trkpt><trkpt lat="45.86521171645156" lon="12.109850659564213"><ele>117.0</ele><time>2026-04-15T04:04:15.999Z</time></trkpt><trkpt lat="45.865237729728676" lon="12.110072936138454"><ele>117.0</ele><time>2026-04-15T04:04:16.999Z</time></trkpt><trkpt lat="45.86526322284103" lon="12.110290700767086"><ele>117.0</ele><time>2026-04-15T04:04:17.999Z</time></trkpt><trkpt lat="45.86528714220602" lon="12.110505738439976"><ele>117.0</ele><time>2026-04-15T04:04:18.999Z</time></trkpt><trkpt lat="45.86531066244333" lon="12.110716313291483"><ele>117.0</ele><time>2026-04-15T04:04:19.999Z</time></trkpt><trkpt lat="45.86533313539731" lon="12.110909588761324"><ele>117.0</ele><time>2026-04-15T04:04:20.999Z</time></trkpt><trkpt lat="45.86534906374336" lon="12.111047865611209"><ele>117.16666666666667</ele><time>2026-04-15T04:04:21.999Z</time></trkpt><trkpt lat="45.86536068908503" lon="12.111163126393159"><ele>117.33333333333334</ele><time>2026-04-15T04:04:22.999Z</time></trkpt><trkpt lat="45.86535833983865" lon="12.111255289005491"><ele>117.5</ele><time>2026-04-15T04:04:23.999Z</time></trkpt><trkpt lat="45.86534848652021" lon="12.1113557362267"><ele>117.66666666666667</ele><time>2026-04-15T04:04:25.999Z</time></trkpt><trkpt lat="45.86538376062266" lon="12.111455069287942"><ele>117.83333333333334</ele><time>2026-04-15T04:05:23.999Z</time></trkpt><trkpt lat="45.865420038091216" lon="12.11159602185381"><ele>118.0</ele><time>2026-04-15T04:05:25.999Z</time></trkpt><trkpt lat="45.86543035597582" lon="12.111693572121823"><ele>118.00000000000001</ele><time>2026-04-15T04:05:26.999Z</time></trkpt><trkpt lat="45.865440764500285" lon="12.111790107940877"><ele>118.0</ele><time>2026-04-15T04:05:27.999Z</time></trkpt><trkpt lat="45.86545261044181" lon="12.111896578244306"><ele>118.0</ele><time>2026-04-15T04:05:28.999Z</time></trkpt><trkpt lat="45.86546740706105" lon="12.112018414095443"><ele>118.0</ele><time>2026-04-15T04:05:29.999Z</time></trkpt><trkpt lat="45.86548597079076" lon="12.112159250292825"><ele>118.00000000000001</ele><time>2026-04-15T04:05:30.999Z</time></trkpt><trkpt lat="45.865505426069255" lon="12.112318425853339"><ele>118.0</ele><time>2026-04-15T04:05:31.998Z</time></trkpt><trkpt lat="45.865523688764426" lon="12.112496293580781"><ele>117.5</ele><time>2026-04-15T04:05:32.998Z</time></trkpt><trkpt lat="45.86553805748742" lon="12.112674034551176"><ele>117.0</ele><time>2026-04-15T04:05:33.998Z</time></trkpt><trkpt lat="45.86554682704166" lon="12.112848432400074"><ele>116.5</ele><time>2026-04-15T04:05:34.998Z</time></trkpt><trkpt lat="45.865547058172616" lon="12.113021950265056"><ele>116.0</ele><time>2026-04-15T04:05:35.998Z</time></trkpt><trkpt lat="45.86553513620713" lon="12.113192507611984"><ele>116.0</ele><time>2026-04-15T04:05:36.998Z</time></trkpt><trkpt lat="45.865512251661016" lon="12.113357553309962"><ele>116.0</ele><time>2026-04-15T04:05:38Z</time></trkpt><trkpt lat="45.86547416712257" lon="12.113511775648178"><ele>116.0</ele><time>2026-04-15T04:05:39Z</time></trkpt><trkpt lat="45.865432924636465" lon="12.113652037902524"><ele>116.0</ele><time>2026-04-15T04:05:40Z</time></trkpt><trkpt lat="45.86540383122388" lon="12.113790601414884"><ele>116.0</ele><time>2026-04-15T04:05:41Z</time></trkpt><trkpt lat="45.86539260227354" lon="12.113926105727796"><ele>116.00000000000001</ele><time>2026-04-15T04:05:42Z</time></trkpt><trkpt lat="45.865388936628406" lon="12.11405322755662"><ele>116.0</ele><time>2026-04-15T04:05:43Z</time></trkpt><trkpt lat="45.865381525232415" lon="12.114163012464145"><ele>116.00000000000001</ele><time>2026-04-15T04:05:44Z</time></trkpt><trkpt lat="45.86536239113936" lon="12.114258784760551"><ele>116.00000000000001</ele><time>2026-04-15T04:05:45Z</time></trkpt><trkpt lat="45.86532820128475" lon="12.114342658639641"><ele>116.0</ele><time>2026-04-15T04:05:46Z</time></trkpt><trkpt lat="45.865278629517704" lon="12.114401716856806"><ele>116.00000000000001</ele><time>2026-04-15T04:05:47Z</time></trkpt><trkpt lat="45.8652176602254" lon="12.114431954459834"><ele>116.00000000000001</ele><time>2026-04-15T04:05:48Z</time></trkpt><trkpt lat="45.86515183387944" lon="12.11443967479172"><ele>115.83333333333333</ele><time>2026-04-15T04:05:49Z</time></trkpt><trkpt lat="45.86508592892145" lon="12.114437873031031"><ele>115.66666666666666</ele><time>2026-04-15T04:05:50Z</time></trkpt><trkpt lat="45.865019748917696" lon="12.114429313025235"><ele>115.5</ele><time>2026-04-15T04:05:51Z</time></trkpt><trkpt lat="45.86495521922351" lon="12.114417534751427"><ele>115.33333333333334</ele><time>2026-04-15T04:05:52Z</time></trkpt><trkpt lat="45.864868616243875" lon="12.114395961357715"><ele>115.16666666666667</ele><time>2026-04-15T04:05:54Z</time></trkpt><trkpt lat="45.864959908399804" lon="12.114415476131601"><ele>115.0</ele><time>2026-04-15T04:06:12.999Z</time></trkpt><trkpt lat="45.86506950757234" lon="12.114452243236718"><ele>115.2</ele><time>2026-04-15T04:06:14.999Z</time></trkpt><trkpt lat="45.865184787803216" lon="12.114459712933101"><ele>115.4</ele><time>2026-04-15T04:06:16.999Z</time></trkpt><trkpt lat="45.86529390094673" lon="12.114473946035275"><ele>115.6</ele><time>2026-04-15T04:06:18.999Z</time></trkpt><trkpt lat="45.86541568306154" lon="12.114459505445252"><ele>115.8</ele><time>2026-04-15T04:06:20.999Z</time></trkpt><trkpt lat="45.865486919022544" lon="12.114487667191632"><ele>116.0</ele><time>2026-04-15T04:06:21.999Z</time></trkpt><trkpt lat="45.865553212267564" lon="12.11446287547089"><ele>115.99999999999999</ele><time>2026-04-15T04:06:22.999Z</time></trkpt><trkpt lat="45.86560839701451" lon="12.114407151976266"><ele>116.0</ele><time>2026-04-15T04:06:23.999Z</time></trkpt><trkpt lat="45.86564804139084" lon="12.114318865319131"><ele>116.0</ele><time>2026-04-15T04:06:24.999Z</time></trkpt><trkpt lat="45.86567345618958" lon="12.114208706741117"><ele>116.0</ele><time>2026-04-15T04:06:25.999Z</time></trkpt><trkpt lat="45.86569301437835" lon="12.114087146639363"><ele>115.99999999999999</ele><time>2026-04-15T04:06:26.999Z</time></trkpt><trkpt lat="45.86571758030621" lon="12.11395776061101"><ele>116.0</ele><time>2026-04-15T04:06:27.999Z</time></trkpt><trkpt lat="45.86574629173648" lon="12.113821325420956"><ele>115.99999999999999</ele><time>2026-04-15T04:06:28.999Z</time></trkpt><trkpt lat="45.865774872525456" lon="12.113690360233262"><ele>116.0</ele><time>2026-04-15T04:06:29.999Z</time></trkpt><trkpt lat="45.8657993681604" lon="12.113573027383998"><ele>116.0</ele><time>2026-04-15T04:06:30.999Z</time></trkpt><trkpt lat="45.8658158818163" lon="12.11348362670038"><ele>116.0</ele><time>2026-04-15T04:06:31.999Z</time></trkpt><trkpt lat="45.86585048419974" lon="12.113315973869142"><ele>115.99999999999999</ele><time>2026-04-15T04:06:33.999Z</time></trkpt><trkpt lat="45.8658727014866" lon="12.113217196184873"><ele>116.0</ele><time>2026-04-15T04:06:34.999Z</time></trkpt><trkpt lat="45.86589865691807" lon="12.113100753831981"><ele>116.0</ele><time>2026-04-15T04:06:35.999Z</time></trkpt><trkpt lat="45.86592845166963" lon="12.112968438388874"><ele>116.0</ele><time>2026-04-15T04:06:36.999Z</time></trkpt><trkpt lat="45.86596066680175" lon="12.112820319829467"><ele>116.0</ele><time>2026-04-15T04:06:37.999Z</time></trkpt><trkpt lat="45.86599298338728" lon="12.112651601178529"><ele>116.0</ele><time>2026-04-15T04:06:38.999Z</time></trkpt><trkpt lat="45.86602330688244" lon="12.112474053791534"><ele>116.0</ele><time>2026-04-15T04:06:39.999Z</time></trkpt><trkpt lat="45.86606469002985" lon="12.112310425081278"><ele>116.0</ele><time>2026-04-15T04:06:40.999Z</time></trkpt><trkpt lat="45.866094060893076" lon="12.11217343299171"><ele>116.0</ele><time>2026-04-15T04:06:41.999Z</time></trkpt><trkpt lat="45.86611618215373" lon="12.112070254642102"><ele>116.0</ele><time>2026-04-15T04:06:42.999Z</time></trkpt><trkpt lat="45.866139905150455" lon="12.111959605390762"><ele>116.0</ele><time>2026-04-15T04:07:35.998Z</time></trkpt><trkpt lat="45.86616388787757" lon="12.111847744754906"><ele>115.99999999999999</ele><time>2026-04-15T04:07:37.998Z</time></trkpt><trkpt lat="45.86617017997757" lon="12.111748260617079"><ele>116.0</ele><time>2026-04-15T04:07:38.998Z</time></trkpt><trkpt lat="45.86620416273688" lon="12.111649412001096"><ele>116.0</ele><time>2026-04-15T04:07:39.998Z</time></trkpt><trkpt lat="45.86623028235948" lon="12.111548737567604"><ele>116.0</ele><time>2026-04-15T04:07:40.998Z</time></trkpt><trkpt lat="45.86625584839829" lon="12.11143525456501"><ele>115.99999999999999</ele><time>2026-04-15T04:07:41.998Z</time></trkpt><trkpt lat="45.866281785591795" lon="12.111313160608605"><ele>116.0</ele><time>2026-04-15T04:07:42.998Z</time></trkpt><trkpt lat="45.86630772079063" lon="12.11119143589361"><ele>116.16666666666666</ele><time>2026-04-15T04:07:44Z</time></trkpt><trkpt lat="45.866335162936416" lon="12.111073371907858"><ele>116.33333333333333</ele><time>2026-04-15T04:07:45Z</time></trkpt><trkpt lat="45.86635978891639" lon="12.110964447373272"><ele>116.5</ele><time>2026-04-15T04:07:46Z</time></trkpt><trkpt lat="45.86637760300481" lon="12.11087354694783"><ele>116.66666666666666</ele><time>2026-04-15T04:07:47Z</time></trkpt><trkpt lat="45.86640506247086" lon="12.11073845901424"><ele>116.83333333333333</ele><time>2026-04-15T04:07:49Z</time></trkpt><trkpt lat="45.866429847277196" lon="12.11061769206799"><ele>117.0</ele><time>2026-04-15T04:07:51Z</time></trkpt><trkpt lat="45.86645394407777" lon="12.11051178760195"><ele>117.0</ele><time>2026-04-15T04:07:53Z</time></trkpt><trkpt lat="45.86635351983399" lon="12.110447889379008"><ele>116.99999999999999</ele><time>2026-04-15T04:07:55Z</time></trkpt><trkpt lat="45.866265729712275" lon="12.110451370505888"><ele>116.99999999999999</ele><time>2026-04-15T04:07:57Z</time></trkpt><trkpt lat="45.86615183019389" lon="12.110448667013268"><ele>117.0</ele><time>2026-04-15T04:07:59Z</time></trkpt><trkpt lat="45.86603663417886" lon="12.110443573184911"><ele>117.0</ele><time>2026-04-15T04:08:00.999Z</time></trkpt><trkpt lat="45.86591749330303" lon="12.110447466414225"><ele>117.0</ele><time>2026-04-15T04:08:02.999Z</time></trkpt><trkpt lat="45.865842809772566" lon="12.11044937072438"><ele>117.0</ele><time>2026-04-15T04:08:04.999Z</time></trkpt><trkpt lat="45.86591583114635" lon="12.110442552571772"><ele>117.0</ele><time>2026-04-15T04:08:23.999Z</time></trkpt><trkpt lat="45.86597563486734" lon="12.110487239601296"><ele>117.0</ele><time>2026-04-15T04:08:24.999Z</time></trkpt><trkpt lat="45.8660984900813" lon="12.110480813490144"><ele>117.0</ele><time>2026-04-15T04:08:26.999Z</time></trkpt><trkpt lat="45.86616708277354" lon="12.110479314582799"><ele>117.0</ele><time>2026-04-15T04:08:27.999Z</time></trkpt><trkpt lat="45.86623938813649" lon="12.110480079037552"><ele>117.16666666666667</ele><time>2026-04-15T04:08:28.999Z</time></trkpt><trkpt lat="45.86630335710241" lon="12.110482763537972"><ele>117.33333333333334</ele><time>2026-04-15T04:08:29.999Z</time></trkpt><trkpt lat="45.866371846116074" lon="12.110486443320694"><ele>117.5</ele><time>2026-04-15T04:08:31.999Z</time></trkpt><trkpt lat="45.866436153656295" lon="12.110463913592996"><ele>117.66666666666667</ele><time>2026-04-15T04:08:35.999Z</time></trkpt><trkpt lat="45.86647969860261" lon="12.110363131214402"><ele>117.83333333333334</ele><time>2026-04-15T04:08:38Z</time></trkpt><trkpt lat="45.866519047840036" lon="12.110189922929594"><ele>118.0</ele><time>2026-04-15T04:08:40Z</time></trkpt><trkpt lat="45.86653250391172" lon="12.11009633977055"><ele>118.00000000000001</ele><time>2026-04-15T04:08:41Z</time></trkpt><trkpt lat="45.86654859657009" lon="12.10999459294685"><ele>118.0</ele><time>2026-04-15T04:08:42Z</time></trkpt><trkpt lat="45.86656299081111" lon="12.109885177589977"><ele>118.0</ele><time>2026-04-15T04:08:43Z</time></trkpt><trkpt lat="45.866580337135716" lon="12.109775428109876"><ele>118.0</ele><time>2026-04-15T04:09:59Z</time></trkpt><trkpt lat="45.86659246523831" lon="12.109668616602244"><ele>118.00000000000001</ele><time>2026-04-15T04:10:03Z</time></trkpt><trkpt lat="45.866602213626244" lon="12.109573652205048"><ele>118.0</ele><time>2026-04-15T04:11:15Z</time></trkpt><trkpt lat="45.86661594324793" lon="12.109446300981192"><ele>118.00000000000001</ele><time>2026-04-15T04:11:17Z</time></trkpt><trkpt lat="45.86662799863079" lon="12.109336534313524"><ele>118.0</ele><time>2026-04-15T04:11:19Z</time></trkpt><trkpt lat="45.86665347921319" lon="12.109215459810217"><ele>118.0</ele><time>2026-04-15T04:12:27Z</time></trkpt><trkpt lat="45.866670757993276" lon="12.109045730415126"><ele>118.0</ele><time>2026-04-15T04:12:29Z</time></trkpt><trkpt lat="45.86667434727947" lon="12.10893135910007"><ele>118.00000000000001</ele><time>2026-04-15T04:12:30Z</time></trkpt><trkpt lat="45.86667445438367" lon="12.10881863529192"><ele>118.0</ele><time>2026-04-15T04:12:31Z</time></trkpt><trkpt lat="45.866670204081274" lon="12.108693072723684"><ele>118.2</ele><time>2026-04-15T04:12:32Z</time></trkpt><trkpt lat="45.86666433609741" lon="12.108553128624852"><ele>118.4</ele><time>2026-04-15T04:12:33Z</time></trkpt><trkpt lat="45.86666011369676" lon="12.108433638368657"><ele>118.60000000000001</ele><time>2026-04-15T04:12:34Z</time></trkpt><trkpt lat="45.866654078364974" lon="12.108332298865005"><ele>118.80000000000001</ele><time>2026-04-15T04:12:36Z</time></trkpt><trkpt lat="45.866644230269706" lon="12.108190861238194"><ele>119.0</ele><time>2026-04-15T04:13:32Z</time></trkpt><trkpt lat="45.866654813581405" lon="12.108027808146709"><ele>119.0</ele><time>2026-04-15T04:13:33.999Z</time></trkpt><trkpt lat="45.86667361858798" lon="12.107911618676226"><ele>119.0</ele><time>2026-04-15T04:15:53.999Z</time></trkpt><trkpt lat="45.866715653250886" lon="12.107762135974697"><ele>119.0</ele><time>2026-04-15T04:15:55.999Z</time></trkpt><trkpt lat="45.86677616961915" lon="12.10761694439466"><ele>119.0</ele><time>2026-04-15T04:15:57.999Z</time></trkpt><trkpt lat="45.86683968802947" lon="12.107499928079562"><ele>119.0</ele><time>2026-04-15T04:15:59.999Z</time></trkpt><trkpt lat="45.866903063514464" lon="12.107435920096968"><ele>119.33333333333333</ele><time>2026-04-15T04:16:01.999Z</time></trkpt><trkpt lat="45.866968465300495" lon="12.107391500630449"><ele>119.66666666666666</ele><time>2026-04-15T04:17:21Z</time></trkpt><trkpt lat="45.86702022253547" lon="12.107304016296187"><ele>120.0</ele><time>2026-04-15T04:17:23Z</time></trkpt><trkpt lat="45.86704282667991" lon="12.107177257225342"><ele>120.33333333333334</ele><time>2026-04-15T04:18:22Z</time></trkpt><trkpt lat="45.867073749326" lon="12.1070971157564"><ele>120.66666666666667</ele><time>2026-04-15T04:19:19Z</time></trkpt><trkpt lat="45.8671241395518" lon="12.106979792595585"><ele>121.0</ele><time>2026-04-15T04:19:22Z</time></trkpt><trkpt lat="45.86717274403443" lon="12.106863983255508"><ele>121.00000000000001</ele><time>2026-04-15T04:19:24Z</time></trkpt><trkpt lat="45.867227035901905" lon="12.106817334030275"><ele>121.0</ele><time>2026-04-15T04:19:41.999Z</time></trkpt><trkpt lat="45.867254221296186" lon="12.10671474676164"><ele>121.0</ele><time>2026-04-15T04:19:45.999Z</time></trkpt><trkpt lat="45.86735453434068" lon="12.106868919610182"><ele>121.0</ele><time>2026-04-15T04:20:09.999Z</time></trkpt><trkpt lat="45.8674288890819" lon="12.106883475280611"><ele>121.00000000000001</ele><time>2026-04-15T04:20:13.999Z</time></trkpt><trkpt lat="45.86749787902037" lon="12.106896291414971"><ele>121.0</ele><time>2026-04-15T04:20:18Z</time></trkpt><trkpt lat="45.8674938979818" lon="12.106785212323405"><ele>121.0</ele><time>2026-04-15T04:21:26Z</time></trkpt><trkpt lat="45.8673110556821" lon="12.10677591163372"><ele>121.0</ele><time>2026-04-15T04:21:29Z</time></trkpt><trkpt lat="45.867247022505865" lon="12.106758789231241"><ele>121.0</ele><time>2026-04-15T04:21:31Z</time></trkpt><trkpt lat="45.86720843312237" lon="12.106684419813025"><ele>121.0</ele><time>2026-04-15T04:21:34Z</time></trkpt><trkpt lat="45.867266542373216" lon="12.106601992981302"><ele>121.0</ele><time>2026-04-15T04:21:37Z</time></trkpt><trkpt lat="45.8673152723335" lon="12.106532164128438"><ele>121.0</ele><time>2026-04-15T04:21:38.999Z</time></trkpt><trkpt lat="45.86730283813076" lon="12.106433264659545"><ele>121.0</ele><time>2026-04-15T04:21:40.999Z</time></trkpt><trkpt lat="45.86722229416318" lon="12.106394378561232"><ele>121.0</ele><time>2026-04-15T04:21:42.999Z</time></trkpt><trkpt lat="45.86712968714083" lon="12.106403806869977"><ele>121.0</ele><time>2026-04-15T04:21:44.999Z</time></trkpt><trkpt lat="45.86701341823569" lon="12.106412633327396"><ele>121.0</ele><time>2026-04-15T04:21:46.999Z</time></trkpt><trkpt lat="45.866896019743145" lon="12.10641832214047"><ele>121.00000000000001</ele><time>2026-04-15T04:21:48.999Z</time></trkpt><trkpt lat="45.86682926353179" lon="12.106427235525027"><ele>121.0</ele><time>2026-04-15T04:21:49.999Z</time></trkpt><trkpt lat="45.866753420868655" lon="12.106435117273767"><ele>121.0</ele><time>2026-04-15T04:21:50.999Z</time></trkpt><trkpt lat="45.86668438064138" lon="12.106441636752876"><ele>121.0</ele><time>2026-04-15T04:21:51.999Z</time></trkpt><trkpt lat="45.866609655105606" lon="12.106441328764593"><ele>121.00000000000001</ele><time>2026-04-15T04:21:52.999Z</time></trkpt><trkpt lat="45.86654458018783" lon="12.10645270611585"><ele>121.0</ele><time>2026-04-15T04:21:53.999Z</time></trkpt><trkpt lat="45.8664222381971" lon="12.106453215377712"><ele>121.00000000000001</ele><time>2026-04-15T04:21:55.999Z</time></trkpt><trkpt lat="45.86634581046794" lon="12.106455182286236"><ele>121.0</ele><time>2026-04-15T04:21:56.999Z</time></trkpt><trkpt lat="45.8662664301186" lon="12.106458348807855"><ele>121.0</ele><time>2026-04-15T04:21:57.999Z</time></trkpt><trkpt lat="45.866176034093776" lon="12.10646099311073"><ele>121.0</ele><time>2026-04-15T04:21:58.999Z</time></trkpt><trkpt lat="45.86607969355437" lon="12.106459658812893"><ele>121.00000000000001</ele><time>2026-04-15T04:21:59.999Z</time></trkpt><trkpt lat="45.865982986058" lon="12.106458723095358"><ele>121.0</ele><time>2026-04-15T04:22:00.999Z</time></trkpt><trkpt lat="45.865889873050456" lon="12.106454155350887"><ele>121.0</ele><time>2026-04-15T04:22:01.999Z</time></trkpt><trkpt lat="45.86579846607067" lon="12.106448963426452"><ele>121.0</ele><time>2026-04-15T04:22:02.999Z</time></trkpt><trkpt lat="45.86570478046368" lon="12.106446067096025"><ele>121.0</ele><time>2026-04-15T04:22:03.999Z</time></trkpt><trkpt lat="45.86561685962159" lon="12.106441723655108"><ele>121.0</ele><time>2026-04-15T04:22:04.999Z</time></trkpt><trkpt lat="45.86552851482638" lon="12.106445535496263"><ele>121.0</ele><time>2026-04-15T04:22:05.999Z</time></trkpt><trkpt lat="45.86543438389553" lon="12.106453532292477"><ele>121.00000000000001</ele><time>2026-04-15T04:22:06.999Z</time></trkpt><trkpt lat="45.86533609321277" lon="12.106475857937419"><ele>121.0</ele><time>2026-04-15T04:22:07.999Z</time></trkpt><trkpt lat="45.86524389931102" lon="12.106504237229071"><ele>121.0</ele><time>2026-04-15T04:22:08.999Z</time></trkpt><trkpt lat="45.865157662369796" lon="12.10652936435267"><ele>121.0</ele><time>2026-04-15T04:22:09.999Z</time></trkpt><trkpt lat="45.86508098736221" lon="12.106537477172667"><ele>121.00000000000001</ele><time>2026-04-15T04:22:10.999Z</time></trkpt><trkpt lat="45.865010570965886" lon="12.106521538296933"><ele>121.0</ele><time>2026-04-15T04:22:11.999Z</time></trkpt><trkpt lat="45.86494643483229" lon="12.106479407703635"><ele>121.0</ele><time>2026-04-15T04:22:12.999Z</time></trkpt><trkpt lat="45.86488466123048" lon="12.106416499895857"><ele>121.0</ele><time>2026-04-15T04:22:13.999Z</time></trkpt><trkpt lat="45.864834085780885" lon="12.106322198087838"><ele>121.0</ele><time>2026-04-15T04:22:14.999Z</time></trkpt><trkpt lat="45.86480869880134" lon="12.106201436828362"><ele>121.0</ele><time>2026-04-15T04:22:15.999Z</time></trkpt><trkpt lat="45.86477865319811" lon="12.106080022728381"><ele>121.0</ele><time>2026-04-15T04:22:16.999Z</time></trkpt><trkpt lat="45.864789571272404" lon="12.105913488056867"><ele>121.0</ele><time>2026-04-15T04:22:17.999Z</time></trkpt><trkpt lat="45.86477754809423" lon="12.105748554821199"><ele>121.0</ele><time>2026-04-15T04:22:18.999Z</time></trkpt><trkpt lat="45.864758260600276" lon="12.105573417355057"><ele>121.0</ele><time>2026-04-15T04:22:19.999Z</time></trkpt><trkpt lat="45.864735544403295" lon="12.105392447167521"><ele>121.0</ele><time>2026-04-15T04:22:20.999Z</time></trkpt><trkpt lat="45.86471418669703" lon="12.105202891629059"><ele>121.0</ele><time>2026-04-15T04:22:21.999Z</time></trkpt><trkpt lat="45.86469314956656" lon="12.105015716325918"><ele>121.0</ele><time>2026-04-15T04:22:22.999Z</time></trkpt><trkpt lat="45.86467370473707" lon="12.104832908660393"><ele>121.0</ele><time>2026-04-15T04:22:24Z</time></trkpt><trkpt lat="45.86465229898914" lon="12.104649779145195"><ele>121.0</ele><time>2026-04-15T04:22:25Z</time></trkpt><trkpt lat="45.86463113559925" lon="12.104457009761045"><ele>121.0</ele><time>2026-04-15T04:22:26Z</time></trkpt><trkpt lat="45.864608304802005" lon="12.10425532768964"><ele>121.0</ele><time>2026-04-15T04:22:27Z</time></trkpt><trkpt lat="45.864585502276576" lon="12.104049653703786"><ele>121.0</ele><time>2026-04-15T04:22:28Z</time></trkpt><trkpt lat="45.864560218052624" lon="12.103833447990429"><ele>121.0</ele><time>2026-04-15T04:22:29Z</time></trkpt><trkpt lat="45.86453480948133" lon="12.103614602924539"><ele>121.0</ele><time>2026-04-15T04:22:30Z</time></trkpt><trkpt lat="45.864509156959905" lon="12.103396589576084"><ele>121.0</ele><time>2026-04-15T04:22:31Z</time></trkpt><trkpt lat="45.864485067823445" lon="12.103182595053596"><ele>121.0</ele><time>2026-04-15T04:22:32Z</time></trkpt><trkpt lat="45.864460514833176" lon="12.102968799242937"><ele>121.66666666666667</ele><time>2026-04-15T04:22:33Z</time></trkpt><trkpt lat="45.86443423976066" lon="12.102751374386832"><ele>122.33333333333334</ele><time>2026-04-15T04:22:34Z</time></trkpt><trkpt lat="45.86440977340125" lon="12.10253354437389"><ele>123.0</ele><time>2026-04-15T04:22:35Z</time></trkpt><trkpt lat="45.86438433771737" lon="12.102310672864071"><ele>123.0</ele><time>2026-04-15T04:22:36Z</time></trkpt><trkpt lat="45.864358706225644" lon="12.102085609832878"><ele>123.0</ele><time>2026-04-15T04:22:37Z</time></trkpt><trkpt lat="45.864332098139016" lon="12.101859422877835"><ele>123.0</ele><time>2026-04-15T04:22:38Z</time></trkpt><trkpt lat="45.86430386713462" lon="12.101629068672658"><ele>123.0</ele><time>2026-04-15T04:22:39Z</time></trkpt><trkpt lat="45.86427567482154" lon="12.101397378412194"><ele>123.0</ele><time>2026-04-15T04:22:40Z</time></trkpt><trkpt lat="45.86424835510434" lon="12.101166159160439"><ele>123.0</ele><time>2026-04-15T04:22:41Z</time></trkpt><trkpt lat="45.86421936696949" lon="12.100931229395792"><ele>122.66666666666666</ele><time>2026-04-15T04:22:42Z</time></trkpt><trkpt lat="45.864192551472065" lon="12.100697609301113"><ele>122.33333333333333</ele><time>2026-04-15T04:22:43Z</time></trkpt><trkpt lat="45.8641670888251" lon="12.100459807777943"><ele>122.0</ele><time>2026-04-15T04:22:44Z</time></trkpt><trkpt lat="45.86413965202287" lon="12.10022405092787"><ele>122.0</ele><time>2026-04-15T04:22:45Z</time></trkpt><trkpt lat="45.86411143972829" lon="12.099982727396187"><ele>122.0</ele><time>2026-04-15T04:22:46Z</time></trkpt><trkpt lat="45.864084541979324" lon="12.099742621159418"><ele>122.0</ele><time>2026-04-15T04:22:47Z</time></trkpt><trkpt lat="45.86405755597993" lon="12.099501834991583"><ele>122.66666666666666</ele><time>2026-04-15T04:22:48Z</time></trkpt><trkpt lat="45.86403133149757" lon="12.099257393330864"><ele>123.33333333333334</ele><time>2026-04-15T04:22:49Z</time></trkpt><trkpt lat="45.86400022634891" lon="12.099013951397973"><ele>124.0</ele><time>2026-04-15T04:22:50Z</time></trkpt><trkpt lat="45.86396957404368" lon="12.098770224759598"><ele>124.0</ele><time>2026-04-15T04:22:51Z</time></trkpt><trkpt lat="45.86393973374286" lon="12.098522507854737"><ele>124.0</ele><time>2026-04-15T04:22:52Z</time></trkpt><trkpt lat="45.86391466935179" lon="12.098276129549085"><ele>124.0</ele><time>2026-04-15T04:22:53Z</time></trkpt><trkpt lat="45.86388942127121" lon="12.098027144251375"><ele>124.33333333333334</ele><time>2026-04-15T04:22:54Z</time></trkpt><trkpt lat="45.86387046895092" lon="12.097776939472402"><ele>124.66666666666666</ele><time>2026-04-15T04:22:55Z</time></trkpt><trkpt lat="45.863855621539074" lon="12.097522820801062"><ele>125.0</ele><time>2026-04-15T04:22:56Z</time></trkpt><trkpt lat="45.863845606510274" lon="12.097270788173914"><ele>125.33333333333333</ele><time>2026-04-15T04:22:57Z</time></trkpt><trkpt lat="45.86384255334532" lon="12.097013947052838"><ele>125.66666666666666</ele><time>2026-04-15T04:22:58Z</time></trkpt><trkpt lat="45.8638416760692" lon="12.096757204367472"><ele>126.0</ele><time>2026-04-15T04:22:59Z</time></trkpt><trkpt lat="45.8638442022475" lon="12.096500090285918"><ele>126.0</ele><time>2026-04-15T04:23:00Z</time></trkpt><trkpt lat="45.86385006272539" lon="12.096240721872835"><ele>126.0</ele><time>2026-04-15T04:23:01Z</time></trkpt><trkpt lat="45.86386244322882" lon="12.095980561333048"><ele>126.0</ele><time>2026-04-15T04:23:02Z</time></trkpt><trkpt lat="45.86387936277793" lon="12.09572192090516"><ele>125.66666666666666</ele><time>2026-04-15T04:23:03Z</time></trkpt><trkpt lat="45.86389494252571" lon="12.095463971202776"><ele>125.33333333333333</ele><time>2026-04-15T04:23:04Z</time></trkpt><trkpt lat="45.86391655257844" lon="12.095203834070894"><ele>125.0</ele><time>2026-04-15T04:23:05Z</time></trkpt><trkpt lat="45.86394275778734" lon="12.094942053173446"><ele>125.66666666666666</ele><time>2026-04-15T04:23:06Z</time></trkpt><trkpt lat="45.86396886039349" lon="12.094683441754428"><ele>126.33333333333334</ele><time>2026-04-15T04:23:07Z</time></trkpt><trkpt lat="45.86399924077939" lon="12.094421750508662"><ele>127.0</ele><time>2026-04-15T04:23:08Z</time></trkpt><trkpt lat="45.86402780460518" lon="12.094161905372443"><ele>126.66666666666667</ele><time>2026-04-15T04:23:09Z</time></trkpt><trkpt lat="45.86406087189842" lon="12.093901810198123"><ele>126.33333333333334</ele><time>2026-04-15T04:23:10Z</time></trkpt><trkpt lat="45.86409933144242" lon="12.093641860411507"><ele>126.0</ele><time>2026-04-15T04:23:11Z</time></trkpt><trkpt lat="45.864137027387095" lon="12.093384023659931"><ele>125.33333333333334</ele><time>2026-04-15T04:23:12Z</time></trkpt><trkpt lat="45.86417076185946" lon="12.09312144831132"><ele>124.66666666666667</ele><time>2026-04-15T04:23:13Z</time></trkpt><trkpt lat="45.86420440001737" lon="12.092860730306947"><ele>124.0</ele><time>2026-04-15T04:23:14Z</time></trkpt><trkpt lat="45.86423765861489" lon="12.092599054983081"><ele>124.66666666666667</ele><time>2026-04-15T04:23:15Z</time></trkpt><trkpt lat="45.86426949245188" lon="12.092334090654138"><ele>125.33333333333334</ele><time>2026-04-15T04:23:16Z</time></trkpt><trkpt lat="45.8642922153745" lon="12.092071544258351"><ele>126.0</ele><time>2026-04-15T04:23:17Z</time></trkpt><trkpt lat="45.86430717514452" lon="12.09180761295115"><ele>125.66666666666666</ele><time>2026-04-15T04:23:18Z</time></trkpt><trkpt lat="45.86431019502248" lon="12.091550115235739"><ele>125.33333333333333</ele><time>2026-04-15T04:23:19Z</time></trkpt><trkpt lat="45.864306624609014" lon="12.091289809833054"><ele>125.0</ele><time>2026-04-15T04:23:20Z</time></trkpt><trkpt lat="45.864296342895514" lon="12.091030065851253"><ele>125.33333333333333</ele><time>2026-04-15T04:23:21Z</time></trkpt><trkpt lat="45.86427927286037" lon="12.090768371905888"><ele>125.66666666666666</ele><time>2026-04-15T04:23:22Z</time></trkpt><trkpt lat="45.86426306964671" lon="12.090504793908893"><ele>126.0</ele><time>2026-04-15T04:23:23Z</time></trkpt><trkpt lat="45.86424834405288" lon="12.090237819832458"><ele>126.0</ele><time>2026-04-15T04:23:24Z</time></trkpt><trkpt lat="45.864231104536294" lon="12.089974971957824"><ele>126.0</ele><time>2026-04-15T04:23:25Z</time></trkpt><trkpt lat="45.86421359602672" lon="12.089708017859701"><ele>126.0</ele><time>2026-04-15T04:23:26Z</time></trkpt><trkpt lat="45.86419498804198" lon="12.089446788973158"><ele>126.0</ele><time>2026-04-15T04:23:27Z</time></trkpt><trkpt lat="45.864171273536044" lon="12.089185445721464"><ele>126.0</ele><time>2026-04-15T04:23:28Z</time></trkpt><trkpt lat="45.864144986125815" lon="12.08892513322995"><ele>126.0</ele><time>2026-04-15T04:23:29Z</time></trkpt><trkpt lat="45.864108587156466" lon="12.088666394874792"><ele>126.33333333333334</ele><time>2026-04-15T04:23:30Z</time></trkpt><trkpt lat="45.86406456373955" lon="12.088412149468796"><ele>126.66666666666667</ele><time>2026-04-15T04:23:31Z</time></trkpt><trkpt lat="45.86401366292475" lon="12.088161340699344"><ele>127.0</ele><time>2026-04-15T04:23:32Z</time></trkpt><trkpt lat="45.86395655001121" lon="12.0879122243077"><ele>127.0</ele><time>2026-04-15T04:23:33Z</time></trkpt><trkpt lat="45.86389622686972" lon="12.087665993837495"><ele>127.0</ele><time>2026-04-15T04:23:34Z</time></trkpt><trkpt lat="45.863835078286776" lon="12.08741570666792"><ele>127.0</ele><time>2026-04-15T04:23:35Z</time></trkpt><trkpt lat="45.86377271017154" lon="12.087169595410264"><ele>127.0</ele><time>2026-04-15T04:23:36Z</time></trkpt><trkpt lat="45.86371159196799" lon="12.086918402046052"><ele>127.0</ele><time>2026-04-15T04:23:36.999Z</time></trkpt><trkpt lat="45.863653607237815" lon="12.086671534330197"><ele>127.0</ele><time>2026-04-15T04:23:37.999Z</time></trkpt><trkpt lat="45.86359354724701" lon="12.086422430053037"><ele>127.33333333333334</ele><time>2026-04-15T04:23:38.999Z</time></trkpt><trkpt lat="45.863536991431545" lon="12.0861830881237"><ele>127.66666666666666</ele><time>2026-04-15T04:23:39.999Z</time></trkpt><trkpt lat="45.863479471885384" lon="12.085945405706388"><ele>128.0</ele><time>2026-04-15T04:23:40.999Z</time></trkpt><trkpt lat="45.863420900169345" lon="12.085720147160886"><ele>128.0</ele><time>2026-04-15T04:23:41.999Z</time></trkpt><trkpt lat="45.86336501568686" lon="12.08549874998619"><ele>128.0</ele><time>2026-04-15T04:23:42.999Z</time></trkpt><trkpt lat="45.863313542274" lon="12.08528217519222"><ele>128.0</ele><time>2026-04-15T04:23:43.999Z</time></trkpt><trkpt lat="45.86326203728527" lon="12.08507254696573"><ele>128.0</ele><time>2026-04-15T04:23:44.999Z</time></trkpt><trkpt lat="45.863208689090555" lon="12.084864552428007"><ele>128.0</ele><time>2026-04-15T04:23:45.999Z</time></trkpt><trkpt lat="45.86315655772456" lon="12.084661618450445"><ele>128.0</ele><time>2026-04-15T04:23:46.999Z</time></trkpt><trkpt lat="45.8631074106977" lon="12.084459203266054"><ele>128.0</ele><time>2026-04-15T04:23:47.999Z</time></trkpt><trkpt lat="45.863057790194226" lon="12.084256561874689"><ele>128.0</ele><time>2026-04-15T04:23:48.999Z</time></trkpt><trkpt lat="45.863008578703166" lon="12.084050639723229"><ele>128.0</ele><time>2026-04-15T04:23:49.999Z</time></trkpt><trkpt lat="45.862960532806134" lon="12.083845842112332"><ele>128.66666666666666</ele><time>2026-04-15T04:23:50.999Z</time></trkpt><trkpt lat="45.86291000334463" lon="12.083639714852898"><ele>129.33333333333334</ele><time>2026-04-15T04:23:51.999Z</time></trkpt><trkpt lat="45.86285572503766" lon="12.083425883401105"><ele>130.0</ele><time>2026-04-15T04:23:52.999Z</time></trkpt><trkpt lat="45.862803068399145" lon="12.083204970116586"><ele>131.0</ele><time>2026-04-15T04:23:53.999Z</time></trkpt><trkpt lat="45.86274915809431" lon="12.082989336416523"><ele>132.0</ele><time>2026-04-15T04:23:54.999Z</time></trkpt><trkpt lat="45.86269864340894" lon="12.082777979608792"><ele>133.0</ele><time>2026-04-15T04:23:55.999Z</time></trkpt><trkpt lat="45.86264171093761" lon="12.08256574219276"><ele>132.66666666666669</ele><time>2026-04-15T04:23:56.999Z</time></trkpt><trkpt lat="45.862578971409086" lon="12.082353998042356"><ele>132.33333333333334</ele><time>2026-04-15T04:23:57.999Z</time></trkpt><trkpt lat="45.862516271436995" lon="12.082143319251635"><ele>132.0</ele><time>2026-04-15T04:23:58.999Z</time></trkpt><trkpt lat="45.86246100407846" lon="12.081930560804846"><ele>132.0</ele><time>2026-04-15T04:23:59.999Z</time></trkpt><trkpt lat="45.862402551784115" lon="12.081719481035272"><ele>132.0</ele><time>2026-04-15T04:24:00.999Z</time></trkpt><trkpt lat="45.86234393881389" lon="12.081508529000986"><ele>132.0</ele><time>2026-04-15T04:24:01.999Z</time></trkpt><trkpt lat="45.862285243742924" lon="12.081292918530654"><ele>131.33333333333334</ele><time>2026-04-15T04:24:02.999Z</time></trkpt><trkpt lat="45.86222758227469" lon="12.081082035408063"><ele>130.66666666666669</ele><time>2026-04-15T04:24:03.999Z</time></trkpt><trkpt lat="45.862168979000124" lon="12.080870416843156"><ele>130.0</ele><time>2026-04-15T04:24:04.999Z</time></trkpt><trkpt lat="45.862108322449146" lon="12.08065760038536"><ele>130.0</ele><time>2026-04-15T04:24:05.999Z</time></trkpt><trkpt lat="45.86204718710832" lon="12.080442281071376"><ele>130.0</ele><time>2026-04-15T04:24:06.999Z</time></trkpt><trkpt lat="45.86198399377311" lon="12.080223780723896"><ele>130.0</ele><time>2026-04-15T04:24:07.999Z</time></trkpt><trkpt lat="45.861922744499175" lon="12.079999433616235"><ele>130.33333333333334</ele><time>2026-04-15T04:24:08.999Z</time></trkpt><trkpt lat="45.86186050395505" lon="12.07977245949529"><ele>130.66666666666666</ele><time>2026-04-15T04:24:09.999Z</time></trkpt><trkpt lat="45.86179550914144" lon="12.079542777416552"><ele>131.0</ele><time>2026-04-15T04:24:10.999Z</time></trkpt><trkpt lat="45.86172963458502" lon="12.079310352223645"><ele>131.66666666666666</ele><time>2026-04-15T04:24:11.999Z</time></trkpt><trkpt lat="45.861659908698435" lon="12.079077501266534"><ele>132.33333333333334</ele><time>2026-04-15T04:24:12.999Z</time></trkpt><trkpt lat="45.861590106053995" lon="12.078840317220054"><ele>133.0</ele><time>2026-04-15T04:24:13.999Z</time></trkpt><trkpt lat="45.861523103513576" lon="12.078604505826519"><ele>133.0</ele><time>2026-04-15T04:24:14.999Z</time></trkpt><trkpt lat="45.86145564161905" lon="12.078375573449822"><ele>133.0</ele><time>2026-04-15T04:24:15.999Z</time></trkpt><trkpt lat="45.86139323705629" lon="12.07815000542655"><ele>133.0</ele><time>2026-04-15T04:24:16.999Z</time></trkpt><trkpt lat="45.86133372891589" lon="12.077929665101264"><ele>133.0</ele><time>2026-04-15T04:24:17.999Z</time></trkpt><trkpt lat="45.86127303698648" lon="12.077721331760959"><ele>133.0</ele><time>2026-04-15T04:24:18.999Z</time></trkpt><trkpt lat="45.86120972551606" lon="12.077528881462985"><ele>133.0</ele><time>2026-04-15T04:24:19.999Z</time></trkpt><trkpt lat="45.86114041188037" lon="12.0773521518385"><ele>133.0</ele><time>2026-04-15T04:24:20.999Z</time></trkpt><trkpt lat="45.861064067260834" lon="12.077200486882763"><ele>133.20000000000002</ele><time>2026-04-15T04:24:21.999Z</time></trkpt><trkpt lat="45.860984782735926" lon="12.077064948974934"><ele>133.4</ele><time>2026-04-15T04:24:22.999Z</time></trkpt><trkpt lat="45.86090974615054" lon="12.076942020334798"><ele>133.60000000000002</ele><time>2026-04-15T04:24:23.999Z</time></trkpt><trkpt lat="45.86084850149842" lon="12.076823562309924"><ele>133.8</ele><time>2026-04-15T04:24:24.999Z</time></trkpt><trkpt lat="45.860808833532104" lon="12.076698800711368"><ele>134.0</ele><time>2026-04-15T04:24:25.999Z</time></trkpt><trkpt lat="45.8607928520486" lon="12.076573070379723"><ele>134.16666666666666</ele><time>2026-04-15T04:24:26.999Z</time></trkpt><trkpt lat="45.86079788086113" lon="12.076456271078525"><ele>134.33333333333331</ele><time>2026-04-15T04:24:27.999Z</time></trkpt><trkpt lat="45.86080584445813" lon="12.076332593059117"><ele>134.5</ele><time>2026-04-15T04:24:28.999Z</time></trkpt><trkpt lat="45.860881324485234" lon="12.076289206677385"><ele>134.66666666666666</ele><time>2026-04-15T04:24:30Z</time></trkpt><trkpt lat="45.860944853426965" lon="12.076250852165504"><ele>134.83333333333334</ele><time>2026-04-15T04:24:31Z</time></trkpt><trkpt lat="45.86100995136242" lon="12.076220235102271"><ele>135.0</ele><time>2026-04-15T04:24:32Z</time></trkpt><trkpt lat="45.861067268018694" lon="12.07615526294741"><ele>135.0</ele><time>2026-04-15T04:24:33Z</time></trkpt><trkpt lat="45.86118001501854" lon="12.076185293874012"><ele>135.0</ele><time>2026-04-15T04:24:34Z</time></trkpt><trkpt lat="45.86128392782786" lon="12.076174626213792"><ele>135.0</ele><time>2026-04-15T04:24:35Z</time></trkpt><trkpt lat="45.86139915441224" lon="12.076160976011616"><ele>135.0</ele><time>2026-04-15T04:24:36Z</time></trkpt><trkpt lat="45.861526060439274" lon="12.076143403034516"><ele>135.0</ele><time>2026-04-15T04:24:37Z</time></trkpt><trkpt lat="45.8616601233496" lon="12.076128114623808"><ele>135.0</ele><time>2026-04-15T04:24:38Z</time></trkpt><trkpt lat="45.8617830694208" lon="12.076114676390628"><ele>135.0</ele><time>2026-04-15T04:24:39Z</time></trkpt><trkpt lat="45.861900523377976" lon="12.076098542664809"><ele>135.0</ele><time>2026-04-15T04:24:40Z</time></trkpt><trkpt lat="45.8620138948643" lon="12.076087742247394"><ele>134.8</ele><time>2026-04-15T04:24:41Z</time></trkpt><trkpt lat="45.862114261264004" lon="12.076080020453855"><ele>134.6</ele><time>2026-04-15T04:24:42Z</time></trkpt><trkpt lat="45.862198725876084" lon="12.07607054826751"><ele>134.4</ele><time>2026-04-15T04:24:43Z</time></trkpt><trkpt lat="45.86226298644241" lon="12.076052734400939"><ele>134.2</ele><time>2026-04-15T04:24:44Z</time></trkpt><trkpt lat="45.86234297911104" lon="12.076041279611887"><ele>134.0</ele><time>2026-04-15T04:24:46Z</time></trkpt><trkpt lat="45.86233108529853" lon="12.075801178596262"><ele>133.83333333333331</ele><time>2026-04-15T04:24:48Z</time></trkpt><trkpt lat="45.86229924994432" lon="12.075644462182835"><ele>133.66666666666666</ele><time>2026-04-15T04:24:50Z</time></trkpt><trkpt lat="45.86228036937854" lon="12.075555034038961"><ele>133.5</ele><time>2026-04-15T04:24:51Z</time></trkpt><trkpt lat="45.86226002736994" lon="12.075454841150384"><ele>133.33333333333334</ele><time>2026-04-15T04:24:52Z</time></trkpt><trkpt lat="45.86223815978904" lon="12.075340892101403"><ele>133.16666666666669</ele><time>2026-04-15T04:24:53Z</time></trkpt><trkpt lat="45.86221636795001" lon="12.075218699172"><ele>133.0</ele><time>2026-04-15T04:24:54Z</time></trkpt><trkpt lat="45.86219199081613" lon="12.07509970091579"><ele>133.0</ele><time>2026-04-15T04:24:55Z</time></trkpt><trkpt lat="45.862166989096536" lon="12.074973090001187"><ele>133.0</ele><time>2026-04-15T04:24:56Z</time></trkpt><trkpt lat="45.86213968011122" lon="12.074835925582997"><ele>133.0</ele><time>2026-04-15T04:24:57Z</time></trkpt><trkpt lat="45.862110060656" lon="12.074687408385408"><ele>133.0</ele><time>2026-04-15T04:24:58Z</time></trkpt><trkpt lat="45.86208230554697" lon="12.074531932117154"><ele>133.0</ele><time>2026-04-15T04:24:59Z</time></trkpt><trkpt lat="45.86205147522587" lon="12.074375971776606"><ele>133.0</ele><time>2026-04-15T04:25:00Z</time></trkpt><trkpt lat="45.86202108204051" lon="12.07422621551351"><ele>133.0</ele><time>2026-04-15T04:25:01Z</time></trkpt><trkpt lat="45.861990107263765" lon="12.074072555122163"><ele>133.0</ele><time>2026-04-15T04:25:02Z</time></trkpt><trkpt lat="45.86196011370156" lon="12.073914031335152"><ele>133.0</ele><time>2026-04-15T04:25:03Z</time></trkpt><trkpt lat="45.86193000197283" lon="12.07375033372455"><ele>133.20000000000002</ele><time>2026-04-15T04:25:04Z</time></trkpt><trkpt lat="45.86189882439411" lon="12.073584772876247"><ele>133.4</ele><time>2026-04-15T04:25:05Z</time></trkpt><trkpt lat="45.86186894974293" lon="12.073428627768292"><ele>133.60000000000002</ele><time>2026-04-15T04:25:06Z</time></trkpt><trkpt lat="45.861839714746736" lon="12.073276385666862"><ele>133.8</ele><time>2026-04-15T04:25:07Z</time></trkpt><trkpt lat="45.86181275066754" lon="12.073143860400478"><ele>134.0</ele><time>2026-04-15T04:25:08Z</time></trkpt><trkpt lat="45.861791547729645" lon="12.073030619331648"><ele>134.33333333333331</ele><time>2026-04-15T04:25:09Z</time></trkpt><trkpt lat="45.8617782941321" lon="12.072939051420692"><ele>134.66666666666666</ele><time>2026-04-15T04:25:10Z</time></trkpt><trkpt lat="45.86173258048637" lon="12.07283945326986"><ele>135.0</ele><time>2026-04-15T04:25:12Z</time></trkpt><trkpt lat="45.86165234026844" lon="12.072847719600063"><ele>135.33333333333334</ele><time>2026-04-15T04:25:14Z</time></trkpt><trkpt lat="45.861574806765354" lon="12.072970639342673"><ele>135.66666666666669</ele><time>2026-04-15T04:25:16Z</time></trkpt><trkpt lat="45.86161030969939" lon="12.073092223486753"><ele>136.0</ele><time>2026-04-15T04:25:18Z</time></trkpt><trkpt lat="45.86164933660138" lon="12.073268665660862"><ele>135.66666666666669</ele><time>2026-04-15T04:25:20Z</time></trkpt><trkpt lat="45.8616674997247" lon="12.073361386579473"><ele>135.33333333333334</ele><time>2026-04-15T04:25:21Z</time></trkpt><trkpt lat="45.86168573021327" lon="12.07345889172808"><ele>135.0</ele><time>2026-04-15T04:25:22Z</time></trkpt><trkpt lat="45.86170661407977" lon="12.073567055518488"><ele>134.66666666666666</ele><time>2026-04-15T04:25:23Z</time></trkpt><trkpt lat="45.86173331339863" lon="12.07368560454802"><ele>134.33333333333331</ele><time>2026-04-15T04:25:24Z</time></trkpt><trkpt lat="45.861759411217626" lon="12.073814385622569"><ele>134.0</ele><time>2026-04-15T04:25:25Z</time></trkpt><trkpt lat="45.861779338555756" lon="12.073937080402933"><ele>134.0</ele><time>2026-04-15T04:25:26Z</time></trkpt><trkpt lat="45.86179804104252" lon="12.07405495941356"><ele>134.0</ele><time>2026-04-15T04:25:27Z</time></trkpt><trkpt lat="45.86181676384375" lon="12.074165565720982"><ele>134.0</ele><time>2026-04-15T04:25:28Z</time></trkpt><trkpt lat="45.861837556904064" lon="12.074258683778137"><ele>134.0</ele><time>2026-04-15T04:25:29Z</time></trkpt><trkpt lat="45.861871884215844" lon="12.074383841642632"><ele>134.0</ele><time>2026-04-15T04:25:31Z</time></trkpt><trkpt lat="45.861815133230195" lon="12.07444694562655"><ele>134.0</ele><time>2026-04-15T04:25:34Z</time></trkpt><trkpt lat="45.861869402737796" lon="12.074526600439196"><ele>133.83333333333331</ele><time>2026-04-15T04:29:16Z</time></trkpt><trkpt lat="45.86193554415929" lon="12.074515099768139"><ele>133.66666666666666</ele><time>2026-04-15T04:29:18Z</time></trkpt><trkpt lat="45.86200184723878" lon="12.074488249867656"><ele>133.5</ele><time>2026-04-15T04:29:20Z</time></trkpt><trkpt lat="45.86205533129819" lon="12.074566298731819"><ele>133.33333333333334</ele><time>2026-04-15T04:29:22Z</time></trkpt><trkpt lat="45.86205952508515" lon="12.074657647793755"><ele>133.16666666666669</ele><time>2026-04-15T04:29:23Z</time></trkpt><trkpt lat="45.86207893689444" lon="12.074822131209736"><ele>133.0</ele><time>2026-04-15T04:29:25Z</time></trkpt><trkpt lat="45.8620967308481" lon="12.074912032758139"><ele>133.0</ele><time>2026-04-15T04:29:26Z</time></trkpt><trkpt lat="45.86211601094801" lon="12.075019142018817"><ele>133.0</ele><time>2026-04-15T04:29:27Z</time></trkpt><trkpt lat="45.862137126664514" lon="12.075140870019391"><ele>133.0</ele><time>2026-04-15T04:29:28Z</time></trkpt><trkpt lat="45.86216079961358" lon="12.075271181746722"><ele>133.0</ele><time>2026-04-15T04:29:29Z</time></trkpt><trkpt lat="45.862185199803015" lon="12.075407634160692"><ele>133.0</ele><time>2026-04-15T04:29:30Z</time></trkpt><trkpt lat="45.862211284043475" lon="12.07553973758493"><ele>133.0</ele><time>2026-04-15T04:29:31Z</time></trkpt><trkpt lat="45.86223584953338" lon="12.075668052250949"><ele>133.0</ele><time>2026-04-15T04:29:32Z</time></trkpt><trkpt lat="45.86225706986026" lon="12.075781330277705"><ele>133.0</ele><time>2026-04-15T04:29:33Z</time></trkpt><trkpt lat="45.86227094258552" lon="12.075872695533029"><ele>133.0</ele><time>2026-04-15T04:29:34Z</time></trkpt><trkpt lat="45.862279752159544" lon="12.07596707553751"><ele>133.0</ele><time>2026-04-15T04:29:36Z</time></trkpt><trkpt lat="45.86217464194087" lon="12.076023374655785"><ele>133.0</ele><time>2026-04-15T04:29:38Z</time></trkpt><trkpt lat="45.86204479126709" lon="12.076039774469892"><ele>133.16666666666669</ele><time>2026-04-15T04:29:40Z</time></trkpt><trkpt lat="45.861977788484026" lon="12.07604211342514"><ele>133.33333333333334</ele><time>2026-04-15T04:29:41Z</time></trkpt><trkpt lat="45.861904370977584" lon="12.076049301673216"><ele>133.5</ele><time>2026-04-15T04:29:42Z</time></trkpt><trkpt lat="45.86182145164555" lon="12.076061326825814"><ele>133.66666666666666</ele><time>2026-04-15T04:29:43Z</time></trkpt><trkpt lat="45.86172632098288" lon="12.076073979249045"><ele>133.83333333333331</ele><time>2026-04-15T04:29:44Z</time></trkpt><trkpt lat="45.86161295199311" lon="12.07608732046417"><ele>134.0</ele><time>2026-04-15T04:29:45Z</time></trkpt><trkpt lat="45.86149188402408" lon="12.076100815918945"><ele>134.2</ele><time>2026-04-15T04:29:45.999Z</time></trkpt><trkpt lat="45.86137487452947" lon="12.076113314417421"><ele>134.4</ele><time>2026-04-15T04:29:46.999Z</time></trkpt><trkpt lat="45.861257523584264" lon="12.076125457270269"><ele>134.6</ele><time>2026-04-15T04:29:47.999Z</time></trkpt><trkpt lat="45.861140889031226" lon="12.076140783446414"><ele>134.8</ele><time>2026-04-15T04:29:48.999Z</time></trkpt><trkpt lat="45.86104440480993" lon="12.076152351102444"><ele>135.0</ele><time>2026-04-15T04:29:49.999Z</time></trkpt><trkpt lat="45.86096034564084" lon="12.076136312999973"><ele>135.0</ele><time>2026-04-15T04:29:50.999Z</time></trkpt><trkpt lat="45.860884882302685" lon="12.076084343198781"><ele>135.0</ele><time>2026-04-15T04:29:51.999Z</time></trkpt><trkpt lat="45.86081929758046" lon="12.076014881355233"><ele>135.0</ele><time>2026-04-15T04:29:52.999Z</time></trkpt><trkpt lat="45.86075476325611" lon="12.075957165778236"><ele>135.0</ele><time>2026-04-15T04:29:53.999Z</time></trkpt><trkpt lat="45.860687061812804" lon="12.07592067886708"><ele>135.0</ele><time>2026-04-15T04:29:54.999Z</time></trkpt><trkpt lat="45.860615089768274" lon="12.07590544485974"><ele>135.0</ele><time>2026-04-15T04:29:55.999Z</time></trkpt><trkpt lat="45.860543802075014" lon="12.075915242652448"><ele>135.0</ele><time>2026-04-15T04:29:56.999Z</time></trkpt><trkpt lat="45.86047922764553" lon="12.075961454139547"><ele>135.0</ele><time>2026-04-15T04:29:57.999Z</time></trkpt><trkpt lat="45.86042634474987" lon="12.076044419367747"><ele>135.0</ele><time>2026-04-15T04:29:58.999Z</time></trkpt><trkpt lat="45.86040928819674" lon="12.076162690598496"><ele>135.0</ele><time>2026-04-15T04:29:59.999Z</time></trkpt><trkpt lat="45.86041849886038" lon="12.07628922027774"><ele>135.0</ele><time>2026-04-15T04:30:00.999Z</time></trkpt><trkpt lat="45.86046405595739" lon="12.076413269298802"><ele>135.0</ele><time>2026-04-15T04:30:01.999Z</time></trkpt><trkpt lat="45.86052614235115" lon="12.076525431077101"><ele>134.8</ele><time>2026-04-15T04:30:02.999Z</time></trkpt><trkpt lat="45.86059588896809" lon="12.076635224518313"><ele>134.6</ele><time>2026-04-15T04:30:03.999Z</time></trkpt><trkpt lat="45.860672383121454" lon="12.076747814167277"><ele>134.4</ele><time>2026-04-15T04:30:04.999Z</time></trkpt><trkpt lat="45.860754231378515" lon="12.07686780019095"><ele>134.2</ele><time>2026-04-15T04:30:05.999Z</time></trkpt><trkpt lat="45.86083303888221" lon="12.076987771696444"><ele>134.0</ele><time>2026-04-15T04:30:06.999Z</time></trkpt><trkpt lat="45.86091391576107" lon="12.077101997577676"><ele>134.0</ele><time>2026-04-15T04:30:07.999Z</time></trkpt><trkpt lat="45.86099904734429" lon="12.077223836164903"><ele>134.0</ele><time>2026-04-15T04:30:08.999Z</time></trkpt><trkpt lat="45.86108070600344" lon="12.077361876112612"><ele>134.0</ele><time>2026-04-15T04:30:09.999Z</time></trkpt><trkpt lat="45.861154738804665" lon="12.077521146239077"><ele>134.0</ele><time>2026-04-15T04:30:10.999Z</time></trkpt><trkpt lat="45.86121550508271" lon="12.077702630433352"><ele>133.75</ele><time>2026-04-15T04:30:11.999Z</time></trkpt><trkpt lat="45.86127429292043" lon="12.077889360149442"><ele>133.5</ele><time>2026-04-15T04:30:12.999Z</time></trkpt><trkpt lat="45.86133031874523" lon="12.078084038241869"><ele>133.25</ele><time>2026-04-15T04:30:13.999Z</time></trkpt><trkpt lat="45.861383531489956" lon="12.078277639490485"><ele>133.0</ele><time>2026-04-15T04:30:14.999Z</time></trkpt><trkpt lat="45.86143670043298" lon="12.078469320878268"><ele>133.0</ele><time>2026-04-15T04:30:15.999Z</time></trkpt><trkpt lat="45.861491611220515" lon="12.078663371151396"><ele>133.0</ele><time>2026-04-15T04:30:16.999Z</time></trkpt><trkpt lat="45.8615463687431" lon="12.078859015785172"><ele>133.0</ele><time>2026-04-15T04:30:17.999Z</time></trkpt><trkpt lat="45.86160280223834" lon="12.079052642519928"><ele>133.0</ele><time>2026-04-15T04:30:18.999Z</time></trkpt><trkpt lat="45.86165648896175" lon="12.079242677456621"><ele>132.75</ele><time>2026-04-15T04:30:19.999Z</time></trkpt><trkpt lat="45.86170801068254" lon="12.07943005272879"><ele>132.5</ele><time>2026-04-15T04:30:20.999Z</time></trkpt><trkpt lat="45.86175698348222" lon="12.079616619958765"><ele>132.25</ele><time>2026-04-15T04:30:21.999Z</time></trkpt><trkpt lat="45.86180878093311" lon="12.079802218525709"><ele>132.0</ele><time>2026-04-15T04:30:22.999Z</time></trkpt><trkpt lat="45.86186057933539" lon="12.07998621983956"><ele>131.5</ele><time>2026-04-15T04:30:23.999Z</time></trkpt><trkpt lat="45.86190993754513" lon="12.080170083131422"><ele>131.0</ele><time>2026-04-15T04:30:24.999Z</time></trkpt><trkpt lat="45.86195901873553" lon="12.08035369686603"><ele>130.5</ele><time>2026-04-15T04:30:25.999Z</time></trkpt><trkpt lat="45.86200892471604" lon="12.080537533468028"><ele>130.0</ele><time>2026-04-15T04:30:26.999Z</time></trkpt><trkpt lat="45.86206304431409" lon="12.080721433046353"><ele>130.0</ele><time>2026-04-15T04:30:27.999Z</time></trkpt><trkpt lat="45.862118400025956" lon="12.080906450638436"><ele>130.0</ele><time>2026-04-15T04:30:28.999Z</time></trkpt><trkpt lat="45.86217243309654" lon="12.081094483499111"><ele>130.0</ele><time>2026-04-15T04:30:29.999Z</time></trkpt><trkpt lat="45.862224206589275" lon="12.081283179859795"><ele>130.0</ele><time>2026-04-15T04:30:30.999Z</time></trkpt><trkpt lat="45.862277461473006" lon="12.081473912726578"><ele>130.5</ele><time>2026-04-15T04:30:31.999Z</time></trkpt><trkpt lat="45.86233432365709" lon="12.081662439861452"><ele>131.0</ele><time>2026-04-15T04:30:32.999Z</time></trkpt><trkpt lat="45.86238851762313" lon="12.081854799500238"><ele>131.5</ele><time>2026-04-15T04:30:33.999Z</time></trkpt><trkpt lat="45.862440327891605" lon="12.082048191959625"><ele>132.0</ele><time>2026-04-15T04:30:34.999Z</time></trkpt><trkpt lat="45.86249148062884" lon="12.082243238022917"><ele>131.75</ele><time>2026-04-15T04:30:35.999Z</time></trkpt><trkpt lat="45.862544911625406" lon="12.082437463404334"><ele>131.5</ele><time>2026-04-15T04:30:36.999Z</time></trkpt><trkpt lat="45.86259665144918" lon="12.082635146259685"><ele>131.25</ele><time>2026-04-15T04:30:37.999Z</time></trkpt><trkpt lat="45.86264756402369" lon="12.08283329264075"><ele>131.0</ele><time>2026-04-15T04:30:38.999Z</time></trkpt><trkpt lat="45.862696016859196" lon="12.083035200551812"><ele>130.66666666666666</ele><time>2026-04-15T04:30:39.999Z</time></trkpt><trkpt lat="45.86274587699418" lon="12.083238934524521"><ele>130.33333333333334</ele><time>2026-04-15T04:30:40.999Z</time></trkpt><trkpt lat="45.86279597501096" lon="12.083446711880672"><ele>130.0</ele><time>2026-04-15T04:30:41.999Z</time></trkpt><trkpt lat="45.862847814831674" lon="12.08365647378154"><ele>130.0</ele><time>2026-04-15T04:30:42.999Z</time></trkpt><trkpt lat="45.86290027622637" lon="12.08386946723402"><ele>130.0</ele><time>2026-04-15T04:30:43.999Z</time></trkpt><trkpt lat="45.862953345854216" lon="12.084084413098342"><ele>130.0</ele><time>2026-04-15T04:30:44.999Z</time></trkpt><trkpt lat="45.863005305164016" lon="12.084303065719388"><ele>129.33333333333334</ele><time>2026-04-15T04:30:45.999Z</time></trkpt><trkpt lat="45.86305935489776" lon="12.084524690045349"><ele>128.66666666666666</ele><time>2026-04-15T04:30:47Z</time></trkpt><trkpt lat="45.863113703785" lon="12.08474639835899"><ele>128.0</ele><time>2026-04-15T04:30:48Z</time></trkpt><trkpt lat="45.863169805070385" lon="12.084969567910614"><ele>128.0</ele><time>2026-04-15T04:30:49Z</time></trkpt><trkpt lat="45.86322554960236" lon="12.085194683603664"><ele>128.0</ele><time>2026-04-15T04:30:50Z</time></trkpt><trkpt lat="45.86328469558932" lon="12.085421293074296"><ele>128.0</ele><time>2026-04-15T04:30:51Z</time></trkpt><trkpt lat="45.863341129046084" lon="12.085649586183722"><ele>128.0</ele><time>2026-04-15T04:30:52Z</time></trkpt><trkpt lat="45.86339478558319" lon="12.085879810495596"><ele>128.0</ele><time>2026-04-15T04:30:53Z</time></trkpt><trkpt lat="45.86345163445461" lon="12.086108879350073"><ele>128.0</ele><time>2026-04-15T04:30:54Z</time></trkpt><trkpt lat="45.86350871409756" lon="12.086338518025793"><ele>128.0</ele><time>2026-04-15T04:30:55Z</time></trkpt><trkpt lat="45.86356580891894" lon="12.086567367304857"><ele>128.0</ele><time>2026-04-15T04:30:56Z</time></trkpt><trkpt lat="45.863623159435726" lon="12.086796862810191"><ele>128.0</ele><time>2026-04-15T04:30:57Z</time></trkpt><trkpt lat="45.86367992009937" lon="12.087027564924751"><ele>127.66666666666666</ele><time>2026-04-15T04:30:58Z</time></trkpt><trkpt lat="45.86373609225291" lon="12.087258414403506"><ele>127.33333333333334</ele><time>2026-04-15T04:30:59Z</time></trkpt><trkpt lat="45.86379185712724" lon="12.087489632892495"><ele>127.0</ele><time>2026-04-15T04:31:00Z</time></trkpt><trkpt lat="45.86384818208335" lon="12.08772143133047"><ele>127.0</ele><time>2026-04-15T04:31:01Z</time></trkpt><trkpt lat="45.86390524888624" lon="12.087952703674926"><ele>127.0</ele><time>2026-04-15T04:31:02Z</time></trkpt><trkpt lat="45.863958924067674" lon="12.08818595531124"><ele>127.0</ele><time>2026-04-15T04:31:03Z</time></trkpt><trkpt lat="45.86400885182912" lon="12.088421999150471"><ele>127.0</ele><time>2026-04-15T04:31:04Z</time></trkpt><trkpt lat="45.86405236364685" lon="12.088658666670359"><ele>127.0</ele><time>2026-04-15T04:31:05Z</time></trkpt><trkpt lat="45.86408635799553" lon="12.088900367008979"><ele>127.0</ele><time>2026-04-15T04:31:06Z</time></trkpt><trkpt lat="45.86411082936019" lon="12.089144438203036"><ele>126.66666666666667</ele><time>2026-04-15T04:31:07Z</time></trkpt><trkpt lat="45.864130358419324" lon="12.089388469906387"><ele>126.33333333333334</ele><time>2026-04-15T04:31:08Z</time></trkpt><trkpt lat="45.864147192992625" lon="12.089632161848554"><ele>126.0</ele><time>2026-04-15T04:31:09Z</time></trkpt><trkpt lat="45.864163084454376" lon="12.08987665675204"><ele>126.0</ele><time>2026-04-15T04:31:10Z</time></trkpt><trkpt lat="45.86417710140288" lon="12.090120907967483"><ele>126.0</ele><time>2026-04-15T04:31:11Z</time></trkpt><trkpt lat="45.86419155702178" lon="12.090365841717666"><ele>126.0</ele><time>2026-04-15T04:31:12Z</time></trkpt><trkpt lat="45.864207263143115" lon="12.090608711060906"><ele>126.0</ele><time>2026-04-15T04:31:13Z</time></trkpt><trkpt lat="45.86422343107422" lon="12.090852308936606"><ele>126.0</ele><time>2026-04-15T04:31:14Z</time></trkpt><trkpt lat="45.864237561763396" lon="12.091093758587943"><ele>126.0</ele><time>2026-04-15T04:31:15Z</time></trkpt><trkpt lat="45.86424999867663" lon="12.091332407187297"><ele>126.0</ele><time>2026-04-15T04:31:16Z</time></trkpt><trkpt lat="45.86425390477389" lon="12.091566904217954"><ele>126.0</ele><time>2026-04-15T04:31:17Z</time></trkpt><trkpt lat="45.864245022814146" lon="12.091799135765303"><ele>126.0</ele><time>2026-04-15T04:31:18Z</time></trkpt><trkpt lat="45.864230287726265" lon="12.092030712185561"><ele>126.0</ele><time>2026-04-15T04:31:19Z</time></trkpt><trkpt lat="45.864211932926395" lon="12.092263019901495"><ele>126.0</ele><time>2026-04-15T04:31:20Z</time></trkpt><trkpt lat="45.86418826433478" lon="12.092497414221668"><ele>126.0</ele><time>2026-04-15T04:31:21Z</time></trkpt><trkpt lat="45.86416117529026" lon="12.092734186414411"><ele>126.0</ele><time>2026-04-15T04:31:22Z</time></trkpt><trkpt lat="45.8641278967208" lon="12.092975346038227"><ele>126.0</ele><time>2026-04-15T04:31:23Z</time></trkpt><trkpt lat="45.86409425520816" lon="12.093219315630446"><ele>126.0</ele><time>2026-04-15T04:31:24Z</time></trkpt><trkpt lat="45.86406408016167" lon="12.09346630261434"><ele>126.0</ele><time>2026-04-15T04:31:25Z</time></trkpt><trkpt lat="45.86403283337903" lon="12.09371651363008"><ele>126.0</ele><time>2026-04-15T04:31:26Z</time></trkpt><trkpt lat="45.86400040556097" lon="12.093969761484233"><ele>126.0</ele><time>2026-04-15T04:31:27Z</time></trkpt><trkpt lat="45.8639662859135" lon="12.094223044205165"><ele>126.33333333333334</ele><time>2026-04-15T04:31:28Z</time></trkpt><trkpt lat="45.863933818663455" lon="12.094477256204938"><ele>126.66666666666667</ele><time>2026-04-15T04:31:29Z</time></trkpt><trkpt lat="45.86390204924187" lon="12.094728284793707"><ele>127.0</ele><time>2026-04-15T04:31:30Z</time></trkpt><trkpt lat="45.863875346421764" lon="12.094975761787452"><ele>126.33333333333334</ele><time>2026-04-15T04:31:31Z</time></trkpt><trkpt lat="45.863854432362004" lon="12.09522061415191"><ele>125.66666666666666</ele><time>2026-04-15T04:31:32Z</time></trkpt><trkpt lat="45.863833568269676" lon="12.095464203861187"><ele>125.0</ele><time>2026-04-15T04:31:33Z</time></trkpt><trkpt lat="45.863817483508214" lon="12.095706977516945"><ele>125.33333333333333</ele><time>2026-04-15T04:31:34Z</time></trkpt><trkpt lat="45.863806952395144" lon="12.095947480876932"><ele>125.66666666666666</ele><time>2026-04-15T04:31:35Z</time></trkpt><trkpt lat="45.863798983049755" lon="12.0961878433243"><ele>126.0</ele><time>2026-04-15T04:31:36Z</time></trkpt><trkpt lat="45.86377658003056" lon="12.096424064120084"><ele>126.0</ele><time>2026-04-15T04:31:37Z</time></trkpt><trkpt lat="45.86379150353291" lon="12.096666329063456"><ele>126.0</ele><time>2026-04-15T04:31:38Z</time></trkpt><trkpt lat="45.86379544486215" lon="12.096903824676978"><ele>126.0</ele><time>2026-04-15T04:31:39Z</time></trkpt><trkpt lat="45.863797045649434" lon="12.09714242139704"><ele>126.0</ele><time>2026-04-15T04:31:40Z</time></trkpt><trkpt lat="45.86380228511852" lon="12.097379241274279"><ele>126.0</ele><time>2026-04-15T04:31:41Z</time></trkpt><trkpt lat="45.8638135082225" lon="12.097615601575363"><ele>126.0</ele><time>2026-04-15T04:31:42Z</time></trkpt><trkpt lat="45.86382682977295" lon="12.0978536100576"><ele>125.66666666666666</ele><time>2026-04-15T04:31:43Z</time></trkpt><trkpt lat="45.86384746560026" lon="12.09808850284867"><ele>125.33333333333333</ele><time>2026-04-15T04:31:44Z</time></trkpt><trkpt lat="45.863872889184364" lon="12.098323814865514"><ele>125.0</ele><time>2026-04-15T04:31:45Z</time></trkpt><trkpt lat="45.86389884393308" lon="12.098557688310272"><ele>124.66666666666666</ele><time>2026-04-15T04:31:45.999Z</time></trkpt><trkpt lat="45.863923583773754" lon="12.098790041865598"><ele>124.33333333333334</ele><time>2026-04-15T04:31:46.999Z</time></trkpt><trkpt lat="45.86394974301244" lon="12.099024718374073"><ele>124.0</ele><time>2026-04-15T04:31:47.999Z</time></trkpt><trkpt lat="45.86397501409198" lon="12.099259793306196"><ele>124.0</ele><time>2026-04-15T04:31:48.999Z</time></trkpt><trkpt lat="45.863998991417915" lon="12.09949065399952"><ele>124.0</ele><time>2026-04-15T04:31:49.999Z</time></trkpt><trkpt lat="45.86402542629179" lon="12.09972623232794"><ele>124.0</ele><time>2026-04-15T04:31:50.999Z</time></trkpt><trkpt lat="45.86405216979386" lon="12.099958794684534"><ele>123.33333333333334</ele><time>2026-04-15T04:31:51.999Z</time></trkpt><trkpt lat="45.86407728327002" lon="12.10018662536303"><ele>122.66666666666666</ele><time>2026-04-15T04:31:52.999Z</time></trkpt><trkpt lat="45.86410058328252" lon="12.100427766416024"><ele>122.0</ele><time>2026-04-15T04:31:53.999Z</time></trkpt><trkpt lat="45.864135303879884" lon="12.100655162423019"><ele>122.33333333333333</ele><time>2026-04-15T04:31:54.999Z</time></trkpt><trkpt lat="45.86416198244975" lon="12.100886318302392"><ele>122.66666666666666</ele><time>2026-04-15T04:31:55.999Z</time></trkpt><trkpt lat="45.864189922911095" lon="12.101114735028103"><ele>123.0</ele><time>2026-04-15T04:31:56.999Z</time></trkpt><trkpt lat="45.86421543634649" lon="12.101342580043422"><ele>123.0</ele><time>2026-04-15T04:31:57.999Z</time></trkpt><trkpt lat="45.86424233370549" lon="12.10157237086849"><ele>123.0</ele><time>2026-04-15T04:31:58.999Z</time></trkpt><trkpt lat="45.86426821984304" lon="12.10180152104356"><ele>123.0</ele><time>2026-04-15T04:31:59.999Z</time></trkpt><trkpt lat="45.864294107546215" lon="12.102030431901461"><ele>123.0</ele><time>2026-04-15T04:32:00.999Z</time></trkpt><trkpt lat="45.86432019159908" lon="12.102257422995576"><ele>123.0</ele><time>2026-04-15T04:32:01.999Z</time></trkpt><trkpt lat="45.864346923602774" lon="12.102485911008676"><ele>123.0</ele><time>2026-04-15T04:32:02.999Z</time></trkpt><trkpt lat="45.864374324515246" lon="12.102712811622336"><ele>123.0</ele><time>2026-04-15T04:32:03.999Z</time></trkpt><trkpt lat="45.86440123089398" lon="12.10293990078035"><ele>123.0</ele><time>2026-04-15T04:32:04.999Z</time></trkpt><trkpt lat="45.86442796101961" lon="12.103167841187126"><ele>123.0</ele><time>2026-04-15T04:32:05.999Z</time></trkpt><trkpt lat="45.86445395828473" lon="12.103394515199932"><ele>122.33333333333334</ele><time>2026-04-15T04:32:06.999Z</time></trkpt><trkpt lat="45.864481262760876" lon="12.10362076813677"><ele>121.66666666666667</ele><time>2026-04-15T04:32:07.999Z</time></trkpt><trkpt lat="45.864508827364816" lon="12.103845300492017"><ele>121.0</ele><time>2026-04-15T04:32:08.999Z</time></trkpt><trkpt lat="45.86453584323874" lon="12.104069060299599"><ele>121.0</ele><time>2026-04-15T04:32:09.999Z</time></trkpt><trkpt lat="45.86456237083556" lon="12.104291466525993"><ele>121.0</ele><time>2026-04-15T04:32:10.999Z</time></trkpt><trkpt lat="45.86458967270301" lon="12.104511851598314"><ele>121.0</ele><time>2026-04-15T04:32:11.999Z</time></trkpt><trkpt lat="45.864616350548175" lon="12.104731885086661"><ele>120.75</ele><time>2026-04-15T04:32:12.999Z</time></trkpt><trkpt lat="45.864642425985735" lon="12.104949359257223"><ele>120.5</ele><time>2026-04-15T04:32:13.999Z</time></trkpt><trkpt lat="45.864666328029244" lon="12.105161838032881"><ele>120.25</ele><time>2026-04-15T04:32:14.999Z</time></trkpt><trkpt lat="45.864691161147675" lon="12.105367673645448"><ele>120.0</ele><time>2026-04-15T04:32:15.999Z</time></trkpt><trkpt lat="45.864713506113674" lon="12.105570434088499"><ele>120.25</ele><time>2026-04-15T04:32:16.999Z</time></trkpt><trkpt lat="45.86473483355761" lon="12.105766973055893"><ele>120.5</ele><time>2026-04-15T04:32:17.999Z</time></trkpt><trkpt lat="45.864755150502084" lon="12.105953140018084"><ele>120.75</ele><time>2026-04-15T04:32:18.999Z</time></trkpt><trkpt lat="45.864768523629515" lon="12.106123923682876"><ele>121.0</ele><time>2026-04-15T04:32:19.999Z</time></trkpt><trkpt lat="45.86476891029623" lon="12.106282091751646"><ele>121.00000000000001</ele><time>2026-04-15T04:32:20.999Z</time></trkpt><trkpt lat="45.864752434954724" lon="12.106425906588388"><ele>121.0</ele><time>2026-04-15T04:32:21.999Z</time></trkpt><trkpt lat="45.86472869159227" lon="12.106539331526278"><ele>121.0</ele><time>2026-04-15T04:32:22.999Z</time></trkpt><trkpt lat="45.86469899892826" lon="12.106640170289177"><ele>121.0</ele><time>2026-04-15T04:32:23.999Z</time></trkpt><trkpt lat="45.86472012780593" lon="12.106809800535345"><ele>121.00000000000001</ele><time>2026-04-15T04:32:25.999Z</time></trkpt><trkpt lat="45.86476991750906" lon="12.106867205180968"><ele>121.0</ele><time>2026-04-15T04:32:26.999Z</time></trkpt><trkpt lat="45.86483134937281" lon="12.10688944349797"><ele>121.0</ele><time>2026-04-15T04:32:27.999Z</time></trkpt><trkpt lat="45.86489431099797" lon="12.106880581004738"><ele>121.0</ele><time>2026-04-15T04:32:28.999Z</time></trkpt><trkpt lat="45.865008355809536" lon="12.106771325390614"><ele>121.0</ele><time>2026-04-15T04:32:30.999Z</time></trkpt><trkpt lat="45.86510414367326" lon="12.106630650131697"><ele>121.0</ele><time>2026-04-15T04:32:32.999Z</time></trkpt><trkpt lat="45.865166571351196" lon="12.106599062750988"><ele>121.0</ele><time>2026-04-15T04:32:33.999Z</time></trkpt><trkpt lat="45.86526736276548" lon="12.10654085619794"><ele>121.0</ele><time>2026-04-15T04:32:35.999Z</time></trkpt><trkpt lat="45.865204497603074" lon="12.10655672164214"><ele>121.0</ele><time>2026-04-15T04:32:53Z</time></trkpt><trkpt lat="45.86515883169589" lon="12.106442353514534"><ele>121.0</ele><time>2026-04-15T04:33:45Z</time></trkpt><trkpt lat="45.86527053714083" lon="12.10654318119558"><ele>121.0</ele><time>2026-04-15T04:35:42Z</time></trkpt><trkpt lat="45.865391029446705" lon="12.106489460159667"><ele>121.0</ele><time>2026-04-15T04:35:44Z</time></trkpt><trkpt lat="45.86550950031198" lon="12.106475150794454"><ele>121.0</ele><time>2026-04-15T04:35:46Z</time></trkpt><trkpt lat="45.86558155905047" lon="12.106487603724101"><ele>121.0</ele><time>2026-04-15T04:35:47Z</time></trkpt><trkpt lat="45.86564960347494" lon="12.106497170972755"><ele>121.0</ele><time>2026-04-15T04:35:48Z</time></trkpt><trkpt lat="45.8657389892977" lon="12.106468015275123"><ele>121.0</ele><time>2026-04-15T04:35:49.999Z</time></trkpt><trkpt lat="45.86576115689788" lon="12.106333841742549"><ele>121.0</ele><time>2026-04-15T04:35:51.999Z</time></trkpt><trkpt lat="45.865740004780605" lon="12.10614750600226"><ele>121.00000000000001</ele><time>2026-04-15T04:35:53.999Z</time></trkpt><trkpt lat="45.86574084400604" lon="12.106052024438734"><ele>121.0</ele><time>2026-04-15T04:35:54.999Z</time></trkpt><trkpt lat="45.86573701015628" lon="12.105950296938957"><ele>121.0</ele><time>2026-04-15T04:35:55.999Z</time></trkpt><trkpt lat="45.86573256194763" lon="12.105855013704517"><ele>121.0</ele><time>2026-04-15T04:35:56.999Z</time></trkpt><trkpt lat="45.8657572478337" lon="12.10572156966748"><ele>121.00000000000001</ele><time>2026-04-15T04:35:58.999Z</time></trkpt><trkpt lat="45.86585059222319" lon="12.105670957337294"><ele>121.0</ele><time>2026-04-15T04:36:00.999Z</time></trkpt><trkpt lat="45.86591447534184" lon="12.105679595644535"><ele>121.0</ele><time>2026-04-15T04:36:01.999Z</time></trkpt><trkpt lat="45.86602778912564" lon="12.105628941102102"><ele>121.0</ele><time>2026-04-15T04:36:03.999Z</time></trkpt><trkpt lat="45.86607024299108" lon="12.10555072080496"><ele>121.0</ele><time>2026-04-15T04:36:04.999Z</time></trkpt><trkpt lat="45.86609510710232" lon="12.105441994083638"><ele>121.0</ele><time>2026-04-15T04:36:05.999Z</time></trkpt><trkpt lat="45.86609063490574" lon="12.105314242631552"><ele>121.0</ele><time>2026-04-15T04:36:06.999Z</time></trkpt><trkpt lat="45.86607424673704" lon="12.105175937220245"><ele>121.0</ele><time>2026-04-15T04:36:07.999Z</time></trkpt><trkpt lat="45.86605727621027" lon="12.105020218938789"><ele>121.0</ele><time>2026-04-15T04:36:08.999Z</time></trkpt><trkpt lat="45.86604477116332" lon="12.104866493501104"><ele>121.0</ele><time>2026-04-15T04:36:09.999Z</time></trkpt><trkpt lat="45.86604045274612" lon="12.104727378913697"><ele>121.0</ele><time>2026-04-15T04:36:10.999Z</time></trkpt><trkpt lat="45.866048504398535" lon="12.104615184155943"><ele>121.0</ele><time>2026-04-15T04:36:11.999Z</time></trkpt><trkpt lat="45.86606040848009" lon="12.104522723420867"><ele>121.00000000000001</ele><time>2026-04-15T04:36:12.999Z</time></trkpt><trkpt lat="45.866035555003045" lon="12.104416254681448"><ele>121.0</ele><time>2026-04-15T04:36:14.999Z</time></trkpt><trkpt lat="45.86597162642456" lon="12.104372942790095"><ele>121.0</ele><time>2026-04-15T04:36:16.999Z</time></trkpt><trkpt lat="45.86585924589729" lon="12.104390050867408"><ele>121.0</ele><time>2026-04-15T04:36:18.999Z</time></trkpt><trkpt lat="45.865793585176434" lon="12.104386395893444"><ele>121.00000000000001</ele><time>2026-04-15T04:36:19.999Z</time></trkpt><trkpt lat="45.86572913454958" lon="12.104382822528729"><ele>121.0</ele><time>2026-04-15T04:36:20.999Z</time></trkpt><trkpt lat="45.865820948343206" lon="12.104378255779446"><ele>121.0</ele><time>2026-04-15T04:36:29.999Z</time></trkpt><trkpt lat="45.86588620367291" lon="12.104384293194755"><ele>121.0</ele><time>2026-04-15T04:36:31.999Z</time></trkpt><trkpt lat="45.86595362854475" lon="12.104385115765837"><ele>121.0</ele><time>2026-04-15T04:36:33.999Z</time></trkpt><trkpt lat="45.86601926137334" lon="12.104382959864704"><ele>121.0</ele><time>2026-04-15T04:36:35.999Z</time></trkpt><trkpt lat="45.86601311704103" lon="12.104793339121295"><ele>121.0</ele><time>2026-04-15T04:36:45.999Z</time></trkpt><trkpt lat="45.86601331159303" lon="12.104916787929339"><ele>121.0</ele><time>2026-04-15T04:36:46.999Z</time></trkpt><trkpt lat="45.866020977896035" lon="12.1050526809923"><ele>121.0</ele><time>2026-04-15T04:36:47.999Z</time></trkpt><trkpt lat="45.86603036651391" lon="12.10520136803248"><ele>121.0</ele><time>2026-04-15T04:36:48.999Z</time></trkpt><trkpt lat="45.86603745271177" lon="12.105343966076378"><ele>121.0</ele><time>2026-04-15T04:36:49.999Z</time></trkpt><trkpt lat="45.866038551817965" lon="12.105469112653388"><ele>121.0</ele><time>2026-04-15T04:36:50.999Z</time></trkpt><trkpt lat="45.86601679284885" lon="12.105563134193353"><ele>120.99999999999999</ele><time>2026-04-15T04:36:51.999Z</time></trkpt><trkpt lat="45.86596914514283" lon="12.105634619465638"><ele>121.0</ele><time>2026-04-15T04:36:52.999Z</time></trkpt><trkpt lat="45.86590384560748" lon="12.105664746920873"><ele>121.0</ele><time>2026-04-15T04:36:53.999Z</time></trkpt><trkpt lat="45.865839743713984" lon="12.105656030858144"><ele>120.99999999999999</ele><time>2026-04-15T04:36:54.999Z</time></trkpt><trkpt lat="45.86577676307932" lon="12.105633195449848"><ele>121.0</ele><time>2026-04-15T04:36:55.999Z</time></trkpt><trkpt lat="45.86568363045164" lon="12.105620397061712"><ele>121.0</ele><time>2026-04-15T04:36:57.999Z</time></trkpt><trkpt lat="45.86560550901053" lon="12.105615201737479"><ele>121.00000000000001</ele><time>2026-04-15T04:37:53.999Z</time></trkpt><trkpt lat="45.86548420304544" lon="12.105619328744112"><ele>121.0</ele><time>2026-04-15T04:37:55.999Z</time></trkpt><trkpt lat="45.86540425210699" lon="12.105614912353815"><ele>121.0</ele><time>2026-04-15T04:37:56.999Z</time></trkpt><trkpt lat="45.86533194887724" lon="12.105610302865395"><ele>121.0</ele><time>2026-04-15T04:37:57.999Z</time></trkpt><trkpt lat="45.86524434297304" lon="12.105618574869785"><ele>121.00000000000001</ele><time>2026-04-15T04:37:59.999Z</time></trkpt><trkpt lat="45.86532449584231" lon="12.105630176150934"><ele>121.0</ele><time>2026-04-15T04:38:14.999Z</time></trkpt><trkpt lat="45.86542941742485" lon="12.105196168896391"><ele>121.0</ele><time>2026-04-15T04:38:17.999Z</time></trkpt><trkpt lat="45.86557055231131" lon="12.105182953636872"><ele>121.0</ele><time>2026-04-15T04:38:18.999Z</time></trkpt><trkpt lat="45.86571173496585" lon="12.105975544863586"><ele>121.00000000000001</ele><time>2026-04-15T04:38:22.999Z</time></trkpt><trkpt lat="45.86570883064467" lon="12.106103916334412"><ele>121.0</ele><time>2026-04-15T04:38:23.999Z</time></trkpt><trkpt lat="45.86571075515183" lon="12.106236052133841"><ele>121.0</ele><time>2026-04-15T04:38:24.999Z</time></trkpt><trkpt lat="45.86571018882976" lon="12.106335570584648"><ele>121.0</ele><time>2026-04-15T04:38:25.999Z</time></trkpt><trkpt lat="45.86571070848284" lon="12.106427264586218"><ele>121.00000000000001</ele><time>2026-04-15T04:38:27.999Z</time></trkpt><trkpt lat="45.86579821135252" lon="12.106498994088586"><ele>121.0</ele><time>2026-04-15T04:38:31.999Z</time></trkpt><trkpt lat="45.86586570747578" lon="12.106493622595009"><ele>121.00000000000001</ele><time>2026-04-15T04:38:32.999Z</time></trkpt><trkpt lat="45.86593963257822" lon="12.106482590419846"><ele>121.0</ele><time>2026-04-15T04:38:33.999Z</time></trkpt><trkpt lat="45.86600822498876" lon="12.106479920772799"><ele>121.0</ele><time>2026-04-15T04:38:34.999Z</time></trkpt><trkpt lat="45.866082130761534" lon="12.106478362944832"><ele>121.0</ele><time>2026-04-15T04:38:35.999Z</time></trkpt><trkpt lat="45.866170306522626" lon="12.10647684683284"><ele>121.00000000000001</ele><time>2026-04-15T04:38:36.999Z</time></trkpt><trkpt lat="45.866269353535635" lon="12.106471395892228"><ele>121.0</ele><time>2026-04-15T04:38:37.999Z</time></trkpt><trkpt lat="45.86636657790613" lon="12.106467800739386"><ele>121.00000000000001</ele><time>2026-04-15T04:38:38.999Z</time></trkpt><trkpt lat="45.866443712364415" lon="12.106467769510495"><ele>121.0</ele><time>2026-04-15T04:38:39.999Z</time></trkpt><trkpt lat="45.86651305565793" lon="12.106467391969135"><ele>121.0</ele><time>2026-04-15T04:38:42.999Z</time></trkpt><trkpt lat="45.866576352951455" lon="12.106469830389694"><ele>121.0</ele><time>2026-04-15T04:39:51Z</time></trkpt><trkpt lat="45.86666815299445" lon="12.106458368098863"><ele>121.00000000000001</ele><time>2026-04-15T04:39:53.999Z</time></trkpt><trkpt lat="45.86677217590459" lon="12.10645753011913"><ele>121.0</ele><time>2026-04-15T04:39:55.999Z</time></trkpt><trkpt lat="45.8668488566241" lon="12.106455531834287"><ele>121.0</ele><time>2026-04-15T04:40:57.999Z</time></trkpt><trkpt lat="45.86696256994681" lon="12.106451099841708"><ele>121.0</ele><time>2026-04-15T04:40:59.999Z</time></trkpt><trkpt lat="45.86706640944727" lon="12.106462002832831"><ele>121.0</ele><time>2026-04-15T04:41:01.999Z</time></trkpt><trkpt lat="45.867137127845616" lon="12.10648054011265"><ele>121.0</ele><time>2026-04-15T04:41:57.999Z</time></trkpt><trkpt lat="45.86718774672588" lon="12.106563283112488"><ele>121.0</ele><time>2026-04-15T04:41:59.999Z</time></trkpt><trkpt lat="45.86719056109768" lon="12.106689142275021"><ele>121.0</ele><time>2026-04-15T04:42:02.999Z</time></trkpt><trkpt lat="45.867143502545815" lon="12.106814185562891"><ele>121.0</ele><time>2026-04-15T04:42:04.999Z</time></trkpt><trkpt lat="45.8670961721508" lon="12.106933864339913"><ele>121.0</ele><time>2026-04-15T04:42:06.999Z</time></trkpt><trkpt lat="45.867083930138804" lon="12.107028864128143"><ele>121.0</ele><time>2026-04-15T04:44:07.999Z</time></trkpt><trkpt lat="45.86717353193409" lon="12.107112454265831"><ele>121.0</ele><time>2026-04-15T04:44:10.999Z</time></trkpt><trkpt lat="45.867253289195595" lon="12.107140982330213"><ele>121.00000000000001</ele><time>2026-04-15T04:44:12.999Z</time></trkpt><trkpt lat="45.86729356378111" lon="12.10704812628286"><ele>121.0</ele><time>2026-04-15T04:44:15.999Z</time></trkpt><trkpt lat="45.86731474826322" lon="12.106942448175095"><ele>121.0</ele><time>2026-04-15T04:44:17.999Z</time></trkpt><trkpt lat="45.86730583578995" lon="12.106783139431421"><ele>121.0</ele><time>2026-04-15T04:44:19.999Z</time></trkpt><trkpt lat="45.86725047131478" lon="12.106736930046727"><ele>121.00000000000001</ele><time>2026-04-15T04:44:21.999Z</time></trkpt><trkpt lat="45.86728014012802" lon="12.106612740459148"><ele>121.0</ele><time>2026-04-15T04:44:25.999Z</time></trkpt><trkpt lat="45.8673512122242" lon="12.106484574359708"><ele>121.0</ele><time>2026-04-15T04:44:27.999Z</time></trkpt><trkpt lat="45.86740688946016" lon="12.106329013079236"><ele>121.0</ele><time>2026-04-15T04:44:29.999Z</time></trkpt><trkpt lat="45.86742433281018" lon="12.106242097876455"><ele>121.0</ele><time>2026-04-15T04:44:30.999Z</time></trkpt><trkpt lat="45.86745667778003" lon="12.106115497500355"><ele>121.0</ele><time>2026-04-15T04:44:32.999Z</time></trkpt><trkpt lat="45.867531082456516" lon="12.106127596295025"><ele>121.0</ele><time>2026-04-15T04:44:34.999Z</time></trkpt><trkpt lat="45.8676336643147" lon="12.106180615745416"><ele>121.50000000000001</ele><time>2026-04-15T04:44:36.999Z</time></trkpt><trkpt lat="45.86770607825568" lon="12.106208192429248"><ele>122.0</ele><time>2026-04-15T04:44:37.999Z</time></trkpt><trkpt lat="45.86779377035882" lon="12.106242542888257"><ele>122.5</ele><time>2026-04-15T04:44:39.999Z</time></trkpt><trkpt lat="45.86787929272843" lon="12.106242999405689"><ele>123.0</ele><time>2026-04-15T04:44:41.999Z</time></trkpt><trkpt lat="45.86794837629041" lon="12.106258709233666"><ele>123.50000000000001</ele><time>2026-04-15T04:44:43.999Z</time></trkpt><trkpt lat="45.86803657751986" lon="12.106275407507157"><ele>124.0</ele><time>2026-04-15T04:44:47.999Z</time></trkpt><trkpt lat="45.86802731221048" lon="12.106139391533487"><ele>124.00000000000001</ele><time>2026-04-15T04:44:51.999Z</time></trkpt><trkpt lat="45.86796199800015" lon="12.106168106399558"><ele>124.0</ele><time>2026-04-15T04:44:53.999Z</time></trkpt><trkpt lat="45.86791962909498" lon="12.10623835775408"><ele>124.0</ele><time>2026-04-15T04:44:56.999Z</time></trkpt><trkpt lat="45.86785560703727" lon="12.10621255707807"><ele>124.0</ele><time>2026-04-15T04:44:58.999Z</time></trkpt><trkpt lat="45.86773449313103" lon="12.106177676984736"><ele>124.00000000000001</ele><time>2026-04-15T04:45:00.999Z</time></trkpt><trkpt lat="45.86766297447679" lon="12.106163335665157"><ele>124.0</ele><time>2026-04-15T04:45:01.999Z</time></trkpt><trkpt lat="45.867599201972375" lon="12.106139673759019"><ele>123.50000000000001</ele><time>2026-04-15T04:45:02.999Z</time></trkpt><trkpt lat="45.867530154319525" lon="12.106109067639755"><ele>123.0</ele><time>2026-04-15T04:45:03.999Z</time></trkpt><trkpt lat="45.8674480590648" lon="12.106058633981538"><ele>122.5</ele><time>2026-04-15T04:45:05.999Z</time></trkpt><trkpt lat="45.86740651628656" lon="12.105904651895505"><ele>122.0</ele><time>2026-04-15T04:45:08.999Z</time></trkpt><trkpt lat="45.867401507930175" lon="12.105812921186693"><ele>121.50000000000001</ele><time>2026-04-15T04:45:09.999Z</time></trkpt><trkpt lat="45.867370442645885" lon="12.105707233477693"><ele>121.0</ele><time>2026-04-15T04:45:11.999Z</time></trkpt><trkpt lat="45.86731257396766" lon="12.1055236653386"><ele>121.0</ele><time>2026-04-15T04:45:57.999Z</time></trkpt><trkpt lat="45.867266640048264" lon="12.105386291920976"><ele>121.0</ele><time>2026-04-15T04:45:59.999Z</time></trkpt><trkpt lat="45.867223158234694" lon="12.105272054318512"><ele>121.0</ele><time>2026-04-15T04:46:01.999Z</time></trkpt><trkpt lat="45.86718248455085" lon="12.105160473759888"><ele>121.0</ele><time>2026-04-15T04:46:03.999Z</time></trkpt><trkpt lat="45.86713301585591" lon="12.1049976794457"><ele>121.0</ele><time>2026-04-15T04:46:05.999Z</time></trkpt><trkpt lat="45.867106967729754" lon="12.104850084882283"><ele>121.00000000000001</ele><time>2026-04-15T04:46:07.999Z</time></trkpt><trkpt lat="45.86709664531221" lon="12.104748949969462"><ele>121.0</ele><time>2026-04-15T04:46:09.999Z</time></trkpt><trkpt lat="45.867100860187406" lon="12.104657736188724"><ele>121.0</ele><time>2026-04-15T04:46:11.999Z</time></trkpt><trkpt lat="45.867139722393226" lon="12.104562681161553"><ele>121.0</ele><time>2026-04-15T04:47:29.999Z</time></trkpt><trkpt lat="45.867169623443445" lon="12.104433887182454"><ele>121.00000000000001</ele><time>2026-04-15T04:47:31.998Z</time></trkpt><trkpt lat="45.867200652894624" lon="12.104301320703515"><ele>121.0</ele><time>2026-04-15T04:47:33.998Z</time></trkpt><trkpt lat="45.867240175443776" lon="12.104202621292183"><ele>121.00000000000001</ele><time>2026-04-15T04:47:36Z</time></trkpt><trkpt lat="45.867265184647984" lon="12.104081118706166"><ele>121.0</ele><time>2026-04-15T04:47:38Z</time></trkpt><trkpt lat="45.867279269845184" lon="12.10392852301508"><ele>121.0</ele><time>2026-04-15T04:47:40Z</time></trkpt><trkpt lat="45.867287915697986" lon="12.103808289692399"><ele>121.0</ele><time>2026-04-15T04:47:42Z</time></trkpt><trkpt lat="45.8672605871484" lon="12.103720585888405"><ele>121.00000000000001</ele><time>2026-04-15T04:51:41.998Z</time></trkpt><trkpt lat="45.86723194518895" lon="12.103618433289856"><ele>121.0</ele><time>2026-04-15T04:51:45.998Z</time></trkpt><trkpt lat="45.867192498440886" lon="12.10349446341559"><ele>121.00000000000001</ele><time>2026-04-15T04:53:07Z</time></trkpt><trkpt lat="45.867098982090994" lon="12.103400039091872"><ele>121.0</ele><time>2026-04-15T04:53:09Z</time></trkpt><trkpt lat="45.86703355812583" lon="12.103371079987568"><ele>121.0</ele><time>2026-04-15T04:53:10Z</time></trkpt><trkpt lat="45.866970770624405" lon="12.103331790358629"><ele>121.0</ele><time>2026-04-15T04:53:11Z</time></trkpt><trkpt lat="45.866910801184716" lon="12.10329688506486"><ele>121.00000000000001</ele><time>2026-04-15T04:53:12Z</time></trkpt><trkpt lat="45.866837750054664" lon="12.103232545725435"><ele>121.0</ele><time>2026-04-15T04:53:14Z</time></trkpt><trkpt lat="45.86678161995213" lon="12.103157700495101"><ele>121.00000000000001</ele><time>2026-04-15T04:54:18Z</time></trkpt><trkpt lat="45.86674481959403" lon="12.103039381219839"><ele>121.0</ele><time>2026-04-15T04:54:20Z</time></trkpt><trkpt lat="45.866715207980064" lon="12.102952927132765"><ele>121.0</ele><time>2026-04-15T04:54:21Z</time></trkpt><trkpt lat="45.86668675177475" lon="12.102859810125304"><ele>121.0</ele><time>2026-04-15T04:54:22Z</time></trkpt><trkpt lat="45.86665840497872" lon="12.102770148183259"><ele>121.00000000000001</ele><time>2026-04-15T04:54:23Z</time></trkpt><trkpt lat="45.8666325201938" lon="12.102679140179312"><ele>121.0</ele><time>2026-04-15T04:54:24Z</time></trkpt><trkpt lat="45.86658979146747" lon="12.102543776921443"><ele>121.00000000000001</ele><time>2026-04-15T04:54:26Z</time></trkpt><trkpt lat="45.866449485726854" lon="12.10253005159953"><ele>121.0</ele><time>2026-04-15T04:54:29Z</time></trkpt><trkpt lat="45.86636090322196" lon="12.102544671905912"><ele>121.0</ele><time>2026-04-15T04:54:31Z</time></trkpt><trkpt lat="45.86628689216512" lon="12.102548885807494"><ele>121.0</ele><time>2026-04-15T04:54:33Z</time></trkpt><trkpt lat="45.86621537678078" lon="12.102552453018768"><ele>121.00000000000001</ele><time>2026-04-15T04:54:35Z</time></trkpt><trkpt lat="45.86614695829068" lon="12.102556339160657"><ele>121.0</ele><time>2026-04-15T04:54:37Z</time></trkpt><trkpt lat="45.86606970503837" lon="12.10256202187116"><ele>121.00000000000001</ele><time>2026-04-15T04:54:40Z</time></trkpt><trkpt lat="45.86598825669999" lon="12.102555436511008"><ele>121.0</ele><time>2026-04-15T04:55:50.999Z</time></trkpt><trkpt lat="45.865921074148346" lon="12.102559322967807"><ele>121.0</ele><time>2026-04-15T04:55:52.999Z</time></trkpt><trkpt lat="45.86581999089216" lon="12.10258142533147"><ele>121.0</ele><time>2026-04-15T04:55:54.999Z</time></trkpt><trkpt lat="45.865736290190824" lon="12.102584326458343"><ele>121.00000000000001</ele><time>2026-04-15T04:55:56.999Z</time></trkpt><trkpt lat="45.8656572414613" lon="12.102573151624252"><ele>121.0</ele><time>2026-04-15T04:56:01Z</time></trkpt><trkpt lat="45.86559161440252" lon="12.10257610986727"><ele>121.19999999999999</ele><time>2026-04-15T04:56:05Z</time></trkpt><trkpt lat="45.865490544003535" lon="12.10259288329209"><ele>121.39999999999999</ele><time>2026-04-15T04:57:11Z</time></trkpt><trkpt lat="45.865373165981445" lon="12.10259488541713"><ele>121.6</ele><time>2026-04-15T04:57:13Z</time></trkpt><trkpt lat="45.86525041299761" lon="12.102591856415904"><ele>121.8</ele><time>2026-04-15T04:57:15Z</time></trkpt><trkpt lat="45.86518447219682" lon="12.102591124119224"><ele>122.0</ele><time>2026-04-15T04:57:16Z</time></trkpt><trkpt lat="45.86510922008743" lon="12.102594630037428"><ele>122.19999999999999</ele><time>2026-04-15T04:58:11Z</time></trkpt><trkpt lat="45.8650274200039" lon="12.102602259663024"><ele>122.39999999999999</ele><time>2026-04-15T04:58:13Z</time></trkpt><trkpt lat="45.86494503870141" lon="12.10259096297769"><ele>122.60000000000001</ele><time>2026-04-15T04:58:15Z</time></trkpt><trkpt lat="45.86489903912876" lon="12.102786805132887"><ele>122.80000000000001</ele><time>2026-04-15T04:58:17Z</time></trkpt><trkpt lat="45.86487016283144" lon="12.102905437802981"><ele>123.0</ele><time>2026-04-15T04:59:10Z</time></trkpt><trkpt lat="45.864844487194205" lon="12.10305331555825"><ele>123.0</ele><time>2026-04-15T04:59:12Z</time></trkpt><trkpt lat="45.864828006047404" lon="12.10314725734546"><ele>123.0</ele><time>2026-04-15T04:59:13Z</time></trkpt><trkpt lat="45.864810666081645" lon="12.103236741953666"><ele>123.0</ele><time>2026-04-15T04:59:14Z</time></trkpt><trkpt lat="45.864781555232184" lon="12.103371842427618"><ele>123.0</ele><time>2026-04-15T04:59:16Z</time></trkpt><trkpt lat="45.864773921699175" lon="12.103495374977824"><ele>123.0</ele><time>2026-04-15T05:01:06Z</time></trkpt><trkpt lat="45.864744959069874" lon="12.103670667802978"><ele>123.0</ele><time>2026-04-15T05:01:08Z</time></trkpt><trkpt lat="45.86472561797076" lon="12.10378551998981"><ele>122.66666666666667</ele><time>2026-04-15T05:01:09Z</time></trkpt><trkpt lat="45.86471116740206" lon="12.10387805485263"><ele>122.33333333333334</ele><time>2026-04-15T05:01:10Z</time></trkpt><trkpt lat="45.86474075766196" lon="12.103998485051662"><ele>122.0</ele><time>2026-04-15T05:01:12Z</time></trkpt><trkpt lat="45.86481834459646" lon="12.103994423555656"><ele>121.66666666666667</ele><time>2026-04-15T05:01:14Z</time></trkpt><trkpt lat="45.86489406640688" lon="12.104006020032283"><ele>121.33333333333334</ele><time>2026-04-15T05:01:16Z</time></trkpt><trkpt lat="45.86498040846612" lon="12.103991019147323"><ele>121.0</ele><time>2026-04-15T05:02:12.999Z</time></trkpt><trkpt lat="45.86507967003974" lon="12.10397180238779"><ele>120.83333333333334</ele><time>2026-04-15T05:02:14.999Z</time></trkpt><trkpt lat="45.86515997554183" lon="12.103980053262461"><ele>120.66666666666667</ele><time>2026-04-15T05:02:15.999Z</time></trkpt><trkpt lat="45.8652402724683" lon="12.103980177492657"><ele>120.5</ele><time>2026-04-15T05:02:17Z</time></trkpt><trkpt lat="45.86532052404731" lon="12.103979643213089"><ele>120.33333333333334</ele><time>2026-04-15T05:02:18Z</time></trkpt><trkpt lat="45.865404655214334" lon="12.103979728518096"><ele>120.16666666666667</ele><time>2026-04-15T05:02:19Z</time></trkpt><trkpt lat="45.86547723162258" lon="12.103978779440478"><ele>120.0</ele><time>2026-04-15T05:02:21Z</time></trkpt><trkpt lat="45.86554613198974" lon="12.10397435505123"><ele>120.0</ele><time>2026-04-15T05:03:29Z</time></trkpt><trkpt lat="45.865661802493285" lon="12.103966379320786"><ele>120.0</ele><time>2026-04-15T05:03:31Z</time></trkpt><trkpt lat="45.865724869956665" lon="12.103961331029517"><ele>120.0</ele><time>2026-04-15T05:03:32Z</time></trkpt><trkpt lat="45.8657889143266" lon="12.103960430191705"><ele>120.0</ele><time>2026-04-15T05:03:33Z</time></trkpt><trkpt lat="45.86586130721399" lon="12.103960007504408"><ele>120.0</ele><time>2026-04-15T05:03:34Z</time></trkpt><trkpt lat="45.86593934231095" lon="12.103953799926076"><ele>120.0</ele><time>2026-04-15T05:03:35Z</time></trkpt><trkpt lat="45.8660129479877" lon="12.10393946299272"><ele>120.0</ele><time>2026-04-15T05:03:36Z</time></trkpt><trkpt lat="45.86611395171979" lon="12.103948516685353"><ele>120.0</ele><time>2026-04-15T05:03:38Z</time></trkpt><trkpt lat="45.86603268340993" lon="12.103940382846902"><ele>120.0</ele><time>2026-04-15T05:04:55Z</time></trkpt><trkpt lat="45.865932701420085" lon="12.10394772264946"><ele>120.0</ele><time>2026-04-15T05:04:57Z</time></trkpt><trkpt lat="45.86584898179086" lon="12.103901158622392"><ele>120.0</ele><time>2026-04-15T05:04:59Z</time></trkpt><trkpt lat="45.86576924634149" lon="12.103902357045836"><ele>120.0</ele><time>2026-04-15T05:05:50.999Z</time></trkpt><trkpt lat="45.865626774729805" lon="12.103916820500256"><ele>120.0</ele><time>2026-04-15T05:05:52.999Z</time></trkpt><trkpt lat="45.86555249663099" lon="12.103919825252328"><ele>120.0</ele><time>2026-04-15T05:05:53.999Z</time></trkpt><trkpt lat="45.86547354539401" lon="12.103921799075785"><ele>120.0</ele><time>2026-04-15T05:05:54.999Z</time></trkpt><trkpt lat="45.86538803940366" lon="12.103922436429304"><ele>120.0</ele><time>2026-04-15T05:05:55.999Z</time></trkpt><trkpt lat="45.865295832684794" lon="12.103922566812171"><ele>120.0</ele><time>2026-04-15T05:05:56.999Z</time></trkpt><trkpt lat="45.865210612778895" lon="12.103924986517836"><ele>120.0</ele><time>2026-04-15T05:05:57.999Z</time></trkpt><trkpt lat="45.86511954046824" lon="12.103922702603883"><ele>120.0</ele><time>2026-04-15T05:05:59.999Z</time></trkpt><trkpt lat="45.86501988482128" lon="12.103927011250429"><ele>120.0</ele><time>2026-04-15T05:06:55Z</time></trkpt><trkpt lat="45.864878286607066" lon="12.10394244936096"><ele>120.0</ele><time>2026-04-15T05:06:57Z</time></trkpt><trkpt lat="45.864799932234746" lon="12.103947092989223"><ele>120.2</ele><time>2026-04-15T05:06:58Z</time></trkpt><trkpt lat="45.864713018531205" lon="12.103902353840839"><ele>120.4</ele><time>2026-04-15T05:07:00Z</time></trkpt><trkpt lat="45.86475382209736" lon="12.103797531213608"><ele>120.6</ele><time>2026-04-15T05:07:02Z</time></trkpt><trkpt lat="45.86477978376656" lon="12.10363437648008"><ele>120.8</ele><time>2026-04-15T05:07:04Z</time></trkpt><trkpt lat="45.86478318068039" lon="12.103515087490342"><ele>121.0</ele><time>2026-04-15T05:07:05Z</time></trkpt><trkpt lat="45.86480516721329" lon="12.103400151700843"><ele>121.00000000000001</ele><time>2026-04-15T05:07:06Z</time></trkpt><trkpt lat="45.86482978426812" lon="12.10328592537137"><ele>121.0</ele><time>2026-04-15T05:07:07Z</time></trkpt><trkpt lat="45.86485699944479" lon="12.103162797800566"><ele>121.0</ele><time>2026-04-15T05:07:08Z</time></trkpt><trkpt lat="45.864886699198344" lon="12.103024475546697"><ele>121.0</ele><time>2026-04-15T05:07:09Z</time></trkpt><trkpt lat="45.864916983974766" lon="12.102875899786099"><ele>121.00000000000001</ele><time>2026-04-15T05:07:10Z</time></trkpt><trkpt lat="45.864934987800325" lon="12.10278702356406"><ele>121.0</ele><time>2026-04-15T05:07:11Z</time></trkpt><trkpt lat="45.86495379174941" lon="12.102688854939068"><ele>121.4</ele><time>2026-04-15T05:07:13Z</time></trkpt><trkpt lat="45.864950531441934" lon="12.102562369398795"><ele>121.8</ele><time>2026-04-15T05:07:19Z</time></trkpt><trkpt lat="45.86497391687169" lon="12.102371262281464"><ele>122.20000000000002</ele><time>2026-04-15T05:07:21Z</time></trkpt><trkpt lat="45.86498426534273" lon="12.10227032447792"><ele>122.60000000000001</ele><time>2026-04-15T05:07:22Z</time></trkpt><trkpt lat="45.864998726940925" lon="12.102156556616325"><ele>123.0</ele><time>2026-04-15T05:08:38Z</time></trkpt><trkpt lat="45.865012195293396" lon="12.102021664366946"><ele>123.0</ele><time>2026-04-15T05:08:40Z</time></trkpt><trkpt lat="45.86503929769383" lon="12.101926616145171"><ele>123.0</ele><time>2026-04-15T05:08:41Z</time></trkpt><trkpt lat="45.86505653293341" lon="12.101836611099225"><ele>123.0</ele><time>2026-04-15T05:08:42Z</time></trkpt><trkpt lat="45.86507494745259" lon="12.101704856897536"><ele>123.0</ele><time>2026-04-15T05:09:35Z</time></trkpt><trkpt lat="45.86509646792577" lon="12.10152164336869"><ele>123.0</ele><time>2026-04-15T05:09:37Z</time></trkpt><trkpt lat="45.86510915690161" lon="12.101419644927523"><ele>123.0</ele><time>2026-04-15T05:09:38Z</time></trkpt><trkpt lat="45.86512334845255" lon="12.101314539583193"><ele>123.0</ele><time>2026-04-15T05:09:39Z</time></trkpt><trkpt lat="45.86513858653456" lon="12.101200228223192"><ele>123.0</ele><time>2026-04-15T05:09:40Z</time></trkpt><trkpt lat="45.86515252871506" lon="12.101079653590665"><ele>123.0</ele><time>2026-04-15T05:09:41Z</time></trkpt><trkpt lat="45.86515850032533" lon="12.100976891585741"><ele>123.0</ele><time>2026-04-15T05:09:42Z</time></trkpt><trkpt lat="45.86518216922078" lon="12.100892424886146"><ele>123.0</ele><time>2026-04-15T05:09:44Z</time></trkpt><trkpt lat="45.86520530483163" lon="12.10077502237178"><ele>123.0</ele><time>2026-04-15T05:10:52Z</time></trkpt><trkpt lat="45.865240188351834" lon="12.100585954485409"><ele>123.0</ele><time>2026-04-15T05:10:54Z</time></trkpt><trkpt lat="45.86525132208037" lon="12.100477332693027"><ele>123.0</ele><time>2026-04-15T05:10:55Z</time></trkpt><trkpt lat="45.86525286327561" lon="12.10037030759294"><ele>123.0</ele><time>2026-04-15T05:10:56Z</time></trkpt><trkpt lat="45.865247151675185" lon="12.100277279136982"><ele>123.0</ele><time>2026-04-15T05:11:01Z</time></trkpt><trkpt lat="45.86522527665154" lon="12.10018299157649"><ele>123.0</ele><time>2026-04-15T05:13:22Z</time></trkpt><trkpt lat="45.865209984757115" lon="12.100037071900502"><ele>123.0</ele><time>2026-04-15T05:13:24Z</time></trkpt><trkpt lat="45.865202805746705" lon="12.099924104648997"><ele>123.16666666666667</ele><time>2026-04-15T05:13:25Z</time></trkpt><trkpt lat="45.86520274267832" lon="12.099804681446813"><ele>123.33333333333334</ele><time>2026-04-15T05:13:26Z</time></trkpt><trkpt lat="45.86520809043793" lon="12.099687127808904"><ele>123.5</ele><time>2026-04-15T05:13:27Z</time></trkpt><trkpt lat="45.865212322473205" lon="12.09956010123408"><ele>123.66666666666667</ele><time>2026-04-15T05:13:28Z</time></trkpt><trkpt lat="45.86521664859853" lon="12.0994428907584"><ele>123.83333333333334</ele><time>2026-04-15T05:13:29Z</time></trkpt><trkpt lat="45.86522479694" lon="12.099344708788712"><ele>124.0</ele><time>2026-04-15T05:13:32Z</time></trkpt><trkpt lat="45.865205844048205" lon="12.099252901711191"><ele>124.0</ele><time>2026-04-15T05:13:39Z</time></trkpt><trkpt lat="45.86506587083109" lon="12.099243345481934"><ele>124.0</ele><time>2026-04-15T05:13:42Z</time></trkpt><trkpt lat="45.86492732142103" lon="12.099224203860794"><ele>124.0</ele><time>2026-04-15T05:13:44Z</time></trkpt><trkpt lat="45.8648394589463" lon="12.099213398760016"><ele>124.0</ele><time>2026-04-15T05:13:45Z</time></trkpt><trkpt lat="45.86475378665587" lon="12.099203795258902"><ele>124.00000000000001</ele><time>2026-04-15T05:13:46Z</time></trkpt><trkpt lat="45.86467218867321" lon="12.09919511696867"><ele>124.0</ele><time>2026-04-15T05:13:46.999Z</time></trkpt><trkpt lat="45.86459867719698" lon="12.099185556091536"><ele>124.0</ele><time>2026-04-15T05:13:47.999Z</time></trkpt><trkpt lat="45.86451200799362" lon="12.099175480084476"><ele>124.0</ele><time>2026-04-15T05:13:49.999Z</time></trkpt><trkpt lat="45.864442810809216" lon="12.099130659848374"><ele>124.00000000000001</ele><time>2026-04-15T05:13:52.999Z</time></trkpt><trkpt lat="45.864369278872076" lon="12.09912488527068"><ele>124.0</ele><time>2026-04-15T05:13:55.999Z</time></trkpt><trkpt lat="45.86399135069357" lon="12.099293767074853"><ele>124.0</ele><time>2026-04-15T05:14:00.999Z</time></trkpt><trkpt lat="45.864504577597266" lon="12.099216187518444"><ele>124.0</ele><time>2026-04-15T05:14:11.999Z</time></trkpt><trkpt lat="45.864599854194196" lon="12.099225884245556"><ele>124.0</ele><time>2026-04-15T05:14:13.999Z</time></trkpt><trkpt lat="45.864701858624215" lon="12.09923778669876"><ele>124.0</ele><time>2026-04-15T05:14:15.999Z</time></trkpt><trkpt lat="45.864783413239124" lon="12.099247099408434"><ele>124.0</ele><time>2026-04-15T05:14:16.999Z</time></trkpt><trkpt lat="45.86486805858412" lon="12.099255537915184"><ele>124.0</ele><time>2026-04-15T05:14:17.999Z</time></trkpt><trkpt lat="45.86495564269138" lon="12.099266319415907"><ele>124.00000000000001</ele><time>2026-04-15T05:14:18.999Z</time></trkpt><trkpt lat="45.865042756216305" lon="12.099277064116043"><ele>124.0</ele><time>2026-04-15T05:14:19.999Z</time></trkpt><trkpt lat="45.86512186019371" lon="12.099286787940466"><ele>124.0</ele><time>2026-04-15T05:14:20.999Z</time></trkpt><trkpt lat="45.86518915045819" lon="12.099291841064414"><ele>124.0</ele><time>2026-04-15T05:14:22.999Z</time></trkpt><trkpt lat="45.865212184237556" lon="12.099206656696246"><ele>124.00000000000001</ele><time>2026-04-15T05:14:24.999Z</time></trkpt><trkpt lat="45.86521589779963" lon="12.09906542256083"><ele>124.0</ele><time>2026-04-15T05:14:26.999Z</time></trkpt><trkpt lat="45.86524744219372" lon="12.098986009790762"><ele>123.83333333333334</ele><time>2026-04-15T05:15:47Z</time></trkpt><trkpt lat="45.865272287659046" lon="12.098887872492675"><ele>123.66666666666667</ele><time>2026-04-15T05:15:49Z</time></trkpt><trkpt lat="45.86533327987371" lon="12.098747946998655"><ele>123.5</ele><time>2026-04-15T05:15:50.999Z</time></trkpt><trkpt lat="45.865410457273946" lon="12.09862935733646"><ele>123.33333333333334</ele><time>2026-04-15T05:15:52.999Z</time></trkpt><trkpt lat="45.865463353768654" lon="12.098579310965395"><ele>123.16666666666667</ele><time>2026-04-15T05:15:53.999Z</time></trkpt><trkpt lat="45.86552335280622" lon="12.098535433884237"><ele>123.0</ele><time>2026-04-15T05:15:54.999Z</time></trkpt><trkpt lat="45.86558652707527" lon="12.098476297878491"><ele>123.0</ele><time>2026-04-15T05:15:55.999Z</time></trkpt><trkpt lat="45.86564135188167" lon="12.098390786172368"><ele>123.0</ele><time>2026-04-15T05:15:56.999Z</time></trkpt><trkpt lat="45.86569403623642" lon="12.098296611157943"><ele>123.0</ele><time>2026-04-15T05:15:57.999Z</time></trkpt><trkpt lat="45.86573923344349" lon="12.098222257812894"><ele>123.0</ele><time>2026-04-15T05:15:58.999Z</time></trkpt><trkpt lat="45.86577552961131" lon="12.098121391182334"><ele>123.0</ele><time>2026-04-15T05:16:03.999Z</time></trkpt><trkpt lat="45.86573535216175" lon="12.098008758986166"><ele>123.0</ele><time>2026-04-15T05:16:05.999Z</time></trkpt><trkpt lat="45.865683139476786" lon="12.097952071502721"><ele>123.33333333333333</ele><time>2026-04-15T05:16:06.999Z</time></trkpt><trkpt lat="45.86562807394602" lon="12.097884097809372"><ele>123.66666666666666</ele><time>2026-04-15T05:16:07.999Z</time></trkpt><trkpt lat="45.86557330371242" lon="12.097814107103137"><ele>124.0</ele><time>2026-04-15T05:16:08.999Z</time></trkpt><trkpt lat="45.86552005019528" lon="12.097742259505289"><ele>124.33333333333333</ele><time>2026-04-15T05:16:09.999Z</time></trkpt><trkpt lat="45.86546145479852" lon="12.097661892703986"><ele>124.66666666666666</ele><time>2026-04-15T05:16:10.999Z</time></trkpt><trkpt lat="45.86539512760412" lon="12.097575802429555"><ele>125.0</ele><time>2026-04-15T05:16:11.999Z</time></trkpt><trkpt lat="45.86532060254361" lon="12.09747991934668"><ele>125.0</ele><time>2026-04-15T05:16:12.999Z</time></trkpt><trkpt lat="45.8652375036502" lon="12.09737474843708"><ele>125.0</ele><time>2026-04-15T05:16:13.999Z</time></trkpt><trkpt lat="45.865149820617106" lon="12.097262857974874"><ele>125.0</ele><time>2026-04-15T05:16:14.999Z</time></trkpt><trkpt lat="45.865066237512" lon="12.097153908315994"><ele>125.0</ele><time>2026-04-15T05:16:15.999Z</time></trkpt><trkpt lat="45.86498462705162" lon="12.09704691278746"><ele>125.0</ele><time>2026-04-15T05:16:16.999Z</time></trkpt><trkpt lat="45.86490580680189" lon="12.096944444567507"><ele>125.0</ele><time>2026-04-15T05:16:17.999Z</time></trkpt><trkpt lat="45.8648371211131" lon="12.096860428835821"><ele>125.0</ele><time>2026-04-15T05:16:18.999Z</time></trkpt><trkpt lat="45.86478389629079" lon="12.096795200211025"><ele>125.0</ele><time>2026-04-15T05:16:19.999Z</time></trkpt><trkpt lat="45.86474397619421" lon="12.096713908245837"><ele>125.0</ele><time>2026-04-15T05:16:21.999Z</time></trkpt><trkpt lat="45.864874140783876" lon="12.096112694417755"><ele>125.0</ele><time>2026-04-15T05:17:48.999Z</time></trkpt><trkpt lat="45.86495308552466" lon="12.096097715324255"><ele>125.0</ele><time>2026-04-15T05:17:51.999Z</time></trkpt><trkpt lat="45.864880877926915" lon="12.096107846733736"><ele>125.0</ele><time>2026-04-15T05:18:00.999Z</time></trkpt><trkpt lat="45.864809685368854" lon="12.09607962384086"><ele>125.0</ele><time>2026-04-15T05:20:03.999Z</time></trkpt><trkpt lat="45.86479348050053" lon="12.096174860585352"><ele>125.0</ele><time>2026-04-15T05:20:05.999Z</time></trkpt><trkpt lat="45.864799451438834" lon="12.0962696916208"><ele>125.0</ele><time>2026-04-15T05:21:04.999Z</time></trkpt><trkpt lat="45.86478553006656" lon="12.09635887753642"><ele>125.0</ele><time>2026-04-15T05:21:06.999Z</time></trkpt><trkpt lat="45.86476832934886" lon="12.09652243359013"><ele>125.0</ele><time>2026-04-15T05:21:09Z</time></trkpt><trkpt lat="45.864747041140454" lon="12.096674042598393"><ele>125.0</ele><time>2026-04-15T05:21:11Z</time></trkpt><trkpt lat="45.864673788617665" lon="12.09671015235223"><ele>125.0</ele><time>2026-04-15T05:21:15Z</time></trkpt><trkpt lat="45.86459436939317" lon="12.09659876784036"><ele>125.0</ele><time>2026-04-15T05:21:17Z</time></trkpt><trkpt lat="45.86454620767038" lon="12.096515260411353"><ele>125.0</ele><time>2026-04-15T05:21:18Z</time></trkpt><trkpt lat="45.864485134602525" lon="12.096425589526975"><ele>124.99999999999999</ele><time>2026-04-15T05:21:19Z</time></trkpt><trkpt lat="45.86442443518909" lon="12.096343623962001"><ele>125.0</ele><time>2026-04-15T05:21:20Z</time></trkpt><trkpt lat="45.864358593631216" lon="12.096256739419683"><ele>125.0</ele><time>2026-04-15T05:21:21Z</time></trkpt><trkpt lat="45.86428794782912" lon="12.096162226164871"><ele>125.0</ele><time>2026-04-15T05:21:22Z</time></trkpt><trkpt lat="45.86422356212142" lon="12.09605501633962"><ele>124.99999999999999</ele><time>2026-04-15T05:21:23Z</time></trkpt><trkpt lat="45.864176501324785" lon="12.095962026627694"><ele>125.0</ele><time>2026-04-15T05:21:24Z</time></trkpt><trkpt lat="45.8641157794605" lon="12.095862609067234"><ele>125.16666666666666</ele><time>2026-04-15T05:21:26Z</time></trkpt><trkpt lat="45.864018609135215" lon="12.095804235702763"><ele>125.33333333333333</ele><time>2026-04-15T05:22:32.999Z</time></trkpt><trkpt lat="45.86396160336631" lon="12.09584295052358"><ele>125.5</ele><time>2026-04-15T05:22:33.999Z</time></trkpt><trkpt lat="45.863899446829635" lon="12.09579952354107"><ele>125.66666666666666</ele><time>2026-04-15T05:22:36.999Z</time></trkpt><trkpt lat="45.86382127078322" lon="12.095863120312174"><ele>125.83333333333333</ele><time>2026-04-15T05:22:38.999Z</time></trkpt><trkpt lat="45.86381442148453" lon="12.095997489628363"><ele>126.0</ele><time>2026-04-15T05:22:40.999Z</time></trkpt><trkpt lat="45.864068744832" lon="12.096090091442393"><ele>126.0</ele><time>2026-04-15T05:22:42.999Z</time></trkpt><trkpt lat="45.86414320208755" lon="12.096133368171149"><ele>126.0</ele><time>2026-04-15T05:22:43.999Z</time></trkpt><trkpt lat="45.864214265117496" lon="12.096181586076808"><ele>126.0</ele><time>2026-04-15T05:22:44.999Z</time></trkpt><trkpt lat="45.86429044263842" lon="12.096246678578856"><ele>126.0</ele><time>2026-04-15T05:22:45.999Z</time></trkpt><trkpt lat="45.86436711005579" lon="12.096337471854238"><ele>126.0</ele><time>2026-04-15T05:22:46.999Z</time></trkpt><trkpt lat="45.8644502574541" lon="12.096445137366425"><ele>125.8</ele><time>2026-04-15T05:22:47.999Z</time></trkpt><trkpt lat="45.86454002270496" lon="12.096561659229268"><ele>125.6</ele><time>2026-04-15T05:22:48.999Z</time></trkpt><trkpt lat="45.864618982273775" lon="12.096668123706479"><ele>125.4</ele><time>2026-04-15T05:22:49.999Z</time></trkpt><trkpt lat="45.86467170381037" lon="12.09674083396784"><ele>125.2</ele><time>2026-04-15T05:22:50.999Z</time></trkpt><trkpt lat="45.86473963637479" lon="12.096831734155865"><ele>125.0</ele><time>2026-04-15T05:23:53.999Z</time></trkpt><trkpt lat="45.86482566363844" lon="12.09693016105709"><ele>124.99999999999999</ele><time>2026-04-15T05:23:55.999Z</time></trkpt><trkpt lat="45.864886602990104" lon="12.097005617834984"><ele>125.0</ele><time>2026-04-15T05:23:56.999Z</time></trkpt><trkpt lat="45.86494387199507" lon="12.097079560772869"><ele>125.0</ele><time>2026-04-15T05:23:57.999Z</time></trkpt><trkpt lat="45.86500228218888" lon="12.09715872300422"><ele>125.0</ele><time>2026-04-15T05:23:58.999Z</time></trkpt><trkpt lat="45.86506761973857" lon="12.097244630694965"><ele>124.99999999999999</ele><time>2026-04-15T05:23:59.999Z</time></trkpt><trkpt lat="45.865140851802835" lon="12.09733707558538"><ele>125.0</ele><time>2026-04-15T05:24:00.999Z</time></trkpt><trkpt lat="45.865214781148836" lon="12.097428844557935"><ele>125.0</ele><time>2026-04-15T05:24:01.999Z</time></trkpt><trkpt lat="45.865287090415016" lon="12.097520911640112"><ele>125.0</ele><time>2026-04-15T05:24:02.999Z</time></trkpt><trkpt lat="45.86534612167016" lon="12.097600677243403"><ele>125.0</ele><time>2026-04-15T05:24:03.999Z</time></trkpt><trkpt lat="45.865430034505515" lon="12.097696072605528"><ele>125.0</ele><time>2026-04-15T05:24:05.999Z</time></trkpt><trkpt lat="45.865506352020105" lon="12.097651250676746"><ele>125.0</ele><time>2026-04-15T05:24:07.999Z</time></trkpt><trkpt lat="45.86554925855876" lon="12.097511368947071"><ele>125.2</ele><time>2026-04-15T05:24:09.999Z</time></trkpt><trkpt lat="45.865570060324856" lon="12.097335161024716"><ele>125.4</ele><time>2026-04-15T05:24:11.999Z</time></trkpt><trkpt lat="45.865597968281605" lon="12.097198047044053"><ele>125.6</ele><time>2026-04-15T05:25:09.999Z</time></trkpt><trkpt lat="45.86562205003121" lon="12.097050689474548"><ele>125.8</ele><time>2026-04-15T05:25:11.999Z</time></trkpt><trkpt lat="45.865618669528644" lon="12.096906097519424"><ele>126.0</ele><time>2026-04-15T05:25:13.999Z</time></trkpt><trkpt lat="45.86565596702241" lon="12.096793555319465"><ele>126.0</ele><time>2026-04-15T05:27:16.999Z</time></trkpt><trkpt lat="45.8656773982537" lon="12.096671170535359"><ele>126.0</ele><time>2026-04-15T05:27:18.999Z</time></trkpt><trkpt lat="45.86570554950274" lon="12.09649359411028"><ele>126.0</ele><time>2026-04-15T05:27:20.999Z</time></trkpt><trkpt lat="45.86573262974783" lon="12.096385167644426"><ele>126.0</ele><time>2026-04-15T05:28:24.999Z</time></trkpt><trkpt lat="45.8657408795592" lon="12.09629196551882"><ele>126.0</ele><time>2026-04-15T05:28:26.999Z</time></trkpt><trkpt lat="45.865769385179256" lon="12.09613353050637"><ele>126.0</ele><time>2026-04-15T05:28:28.999Z</time></trkpt><trkpt lat="45.86579016129751" lon="12.095980018514856"><ele>126.0</ele><time>2026-04-15T05:28:30.999Z</time></trkpt><trkpt lat="45.86571821458444" lon="12.09586706623046"><ele>126.0</ele><time>2026-04-15T05:28:34.999Z</time></trkpt><trkpt lat="45.86561340501323" lon="12.095804654044409"><ele>126.0</ele><time>2026-04-15T05:28:36.999Z</time></trkpt><trkpt lat="45.86555185539532" lon="12.095782201280045"><ele>126.0</ele><time>2026-04-15T05:28:44.999Z</time></trkpt><trkpt lat="45.8654887857712" lon="12.09574322981682"><ele>125.8</ele><time>2026-04-15T05:30:43.999Z</time></trkpt><trkpt lat="45.865383379780695" lon="12.095704806440013"><ele>125.6</ele><time>2026-04-15T05:30:46.999Z</time></trkpt><trkpt lat="45.86531645001933" lon="12.095711864487166"><ele>125.4</ele><time>2026-04-15T05:32:17.999Z</time></trkpt><trkpt lat="45.86523855633628" lon="12.095692563731273"><ele>125.2</ele><time>2026-04-15T05:32:19.999Z</time></trkpt><trkpt lat="45.865099564257285" lon="12.095660916869399"><ele>125.0</ele><time>2026-04-15T05:32:21.999Z</time></trkpt><trkpt lat="45.86501550578661" lon="12.095642335260136"><ele>124.99999999999999</ele><time>2026-04-15T05:32:22.999Z</time></trkpt><trkpt lat="45.864932538851704" lon="12.095625303586777"><ele>125.0</ele><time>2026-04-15T05:32:23.999Z</time></trkpt><trkpt lat="45.86484473801239" lon="12.095607279594951"><ele>125.0</ele><time>2026-04-15T05:32:24.999Z</time></trkpt><trkpt lat="45.86476171165261" lon="12.095588853105204"><ele>125.0</ele><time>2026-04-15T05:32:25.999Z</time></trkpt><trkpt lat="45.86468702606479" lon="12.095571879058163"><ele>124.99999999999999</ele><time>2026-04-15T05:32:26.999Z</time></trkpt><trkpt lat="45.86462365041355" lon="12.09553609961143"><ele>125.0</ele><time>2026-04-15T05:32:28.999Z</time></trkpt><trkpt lat="45.864683066321874" lon="12.095572751216201"><ele>124.99999999999999</ele><time>2026-04-15T05:32:49.999Z</time></trkpt><trkpt lat="45.864758868940086" lon="12.095591508822585"><ele>125.0</ele><time>2026-04-15T05:32:51.999Z</time></trkpt><trkpt lat="45.86488426763521" lon="12.095620829882655"><ele>125.0</ele><time>2026-04-15T05:32:53.999Z</time></trkpt><trkpt lat="45.86494604442209" lon="12.095668465028698"><ele>125.0</ele><time>2026-04-15T05:32:54.999Z</time></trkpt><trkpt lat="45.8650215853561" lon="12.095673033550955"><ele>124.99999999999999</ele><time>2026-04-15T05:32:55.999Z</time></trkpt><trkpt lat="45.86509775514748" lon="12.095687977197988"><ele>125.0</ele><time>2026-04-15T05:32:56.999Z</time></trkpt><trkpt lat="45.865183868235505" lon="12.09570773796503"><ele>125.2</ele><time>2026-04-15T05:32:57.999Z</time></trkpt><trkpt lat="45.865275593381405" lon="12.095730172598223"><ele>125.4</ele><time>2026-04-15T05:32:58.999Z</time></trkpt><trkpt lat="45.86537013549997" lon="12.095752912988257"><ele>125.6</ele><time>2026-04-15T05:32:59.999Z</time></trkpt><trkpt lat="45.86546453731218" lon="12.095776612835824"><ele>125.8</ele><time>2026-04-15T05:33:00.999Z</time></trkpt><trkpt lat="45.8655597518375" lon="12.095800809995799"><ele>126.0</ele><time>2026-04-15T05:33:01.999Z</time></trkpt><trkpt lat="45.86565119938103" lon="12.095835482161709"><ele>126.0</ele><time>2026-04-15T05:33:02.999Z</time></trkpt><trkpt lat="45.865741050986706" lon="12.095875144894961"><ele>126.0</ele><time>2026-04-15T05:33:03.999Z</time></trkpt><trkpt lat="45.86582642821959" lon="12.09591508918948"><ele>126.0</ele><time>2026-04-15T05:33:04.999Z</time></trkpt><trkpt lat="45.86591162735583" lon="12.09595257292829"><ele>126.0</ele><time>2026-04-15T05:33:05.999Z</time></trkpt><trkpt lat="45.86599516826046" lon="12.095991450402293"><ele>126.0</ele><time>2026-04-15T05:33:06.999Z</time></trkpt><trkpt lat="45.866070817229556" lon="12.096059182891834"><ele>125.6</ele><time>2026-04-15T05:33:07.999Z</time></trkpt><trkpt lat="45.866142003771834" lon="12.096106111960276"><ele>125.19999999999999</ele><time>2026-04-15T05:33:08.999Z</time></trkpt><trkpt lat="45.86621269845683" lon="12.096212386583609"><ele>124.80000000000001</ele><time>2026-04-15T05:33:10.999Z</time></trkpt><trkpt lat="45.86622626891793" lon="12.096343817793127"><ele>124.4</ele><time>2026-04-15T05:33:12.999Z</time></trkpt><trkpt lat="45.86619728852511" lon="12.096513582618687"><ele>124.0</ele><time>2026-04-15T05:33:14.999Z</time></trkpt><trkpt lat="45.866181866347425" lon="12.09660902470756"><ele>124.0</ele><time>2026-04-15T05:33:15.999Z</time></trkpt><trkpt lat="45.86616565889983" lon="12.096708146820824"><ele>124.00000000000001</ele><time>2026-04-15T05:33:16.999Z</time></trkpt><trkpt lat="45.86615057066054" lon="12.096800423968999"><ele>124.0</ele><time>2026-04-15T05:33:17.999Z</time></trkpt><trkpt lat="45.86613590383928" lon="12.096890123837435"><ele>124.0</ele><time>2026-04-15T05:33:18.999Z</time></trkpt><trkpt lat="45.866120452677215" lon="12.096984620651126"><ele>124.00000000000001</ele><time>2026-04-15T05:33:19.999Z</time></trkpt><trkpt lat="45.866111747496205" lon="12.097088510846131"><ele>124.0</ele><time>2026-04-15T05:33:20.999Z</time></trkpt><trkpt lat="45.86609555210818" lon="12.097194774513053"><ele>124.0</ele><time>2026-04-15T05:33:21.999Z</time></trkpt><trkpt lat="45.86607867937216" lon="12.097302952300574"><ele>124.00000000000001</ele><time>2026-04-15T05:33:22.999Z</time></trkpt><trkpt lat="45.86606099242616" lon="12.097415103250217"><ele>124.0</ele><time>2026-04-15T05:33:23.999Z</time></trkpt><trkpt lat="45.8660418158811" lon="12.09752370241086"><ele>124.0</ele><time>2026-04-15T05:33:24.999Z</time></trkpt><trkpt lat="45.86602271786643" lon="12.097631682489569"><ele>124.0</ele><time>2026-04-15T05:33:25.999Z</time></trkpt><trkpt lat="45.86600491033294" lon="12.097739912649873"><ele>124.00000000000001</ele><time>2026-04-15T05:33:26.999Z</time></trkpt><trkpt lat="45.86598932703279" lon="12.09784269688415"><ele>124.0</ele><time>2026-04-15T05:33:27.999Z</time></trkpt><trkpt lat="45.86597502003068" lon="12.097946289134393"><ele>123.80000000000001</ele><time>2026-04-15T05:33:28.999Z</time></trkpt><trkpt lat="45.865962780335806" lon="12.098043054472917"><ele>123.60000000000001</ele><time>2026-04-15T05:33:29.999Z</time></trkpt><trkpt lat="45.86593490304131" lon="12.098175809453597"><ele>123.4</ele><time>2026-04-15T05:33:31.999Z</time></trkpt><trkpt lat="45.865858214666616" lon="12.098224555451267"><ele>123.2</ele><time>2026-04-15T05:33:34.998Z</time></trkpt><trkpt lat="45.86579999793837" lon="12.098110166446206"><ele>123.0</ele><time>2026-04-15T05:33:36.998Z</time></trkpt><trkpt lat="45.86571249002583" lon="12.0979966079471"><ele>123.4</ele><time>2026-04-15T05:33:38.998Z</time></trkpt><trkpt lat="45.86561114253136" lon="12.097895772004541"><ele>123.80000000000001</ele><time>2026-04-15T05:33:40.998Z</time></trkpt><trkpt lat="45.8655604915138" lon="12.097829896971193"><ele>124.2</ele><time>2026-04-15T05:33:41.998Z</time></trkpt><trkpt lat="45.86551351521571" lon="12.097738029187827"><ele>124.6</ele><time>2026-04-15T05:33:43Z</time></trkpt><trkpt lat="45.86543861445004" lon="12.097672494507837"><ele>125.0</ele><time>2026-04-15T05:33:44Z</time></trkpt><trkpt lat="45.86538039653341" lon="12.09756554411065"><ele>125.0</ele><time>2026-04-15T05:33:45Z</time></trkpt><trkpt lat="45.865308353749974" lon="12.097472313251352"><ele>125.0</ele><time>2026-04-15T05:33:46Z</time></trkpt><trkpt lat="45.86523297457994" lon="12.097374764592091"><ele>125.0</ele><time>2026-04-15T05:33:47Z</time></trkpt><trkpt lat="45.86515054933005" lon="12.097282519290475"><ele>125.0</ele><time>2026-04-15T05:33:48Z</time></trkpt><trkpt lat="45.865069897590644" lon="12.097177720149975"><ele>125.0</ele><time>2026-04-15T05:33:49Z</time></trkpt><trkpt lat="45.864991760435444" lon="12.097074870066082"><ele>125.0</ele><time>2026-04-15T05:33:50Z</time></trkpt><trkpt lat="45.86491135675057" lon="12.096971788307005"><ele>125.0</ele><time>2026-04-15T05:33:51Z</time></trkpt><trkpt lat="45.86482828848638" lon="12.096868827894694"><ele>125.0</ele><time>2026-04-15T05:33:52Z</time></trkpt><trkpt lat="45.86474420629095" lon="12.096763101532755"><ele>125.0</ele><time>2026-04-15T05:33:53Z</time></trkpt><trkpt lat="45.86466370321942" lon="12.096661287111964"><ele>125.0</ele><time>2026-04-15T05:33:54Z</time></trkpt><trkpt lat="45.864586312008974" lon="12.09656167785648"><ele>125.0</ele><time>2026-04-15T05:33:55Z</time></trkpt><trkpt lat="45.86451170025841" lon="12.096464758835957"><ele>125.0</ele><time>2026-04-15T05:33:56Z</time></trkpt><trkpt lat="45.864440160840104" lon="12.096370855395062"><ele>125.0</ele><time>2026-04-15T05:33:57Z</time></trkpt><trkpt lat="45.864374062957836" lon="12.096283457082205"><ele>125.0</ele><time>2026-04-15T05:33:58Z</time></trkpt><trkpt lat="45.86430914157773" lon="12.096197562282086"><ele>125.0</ele><time>2026-04-15T05:33:58.999Z</time></trkpt><trkpt lat="45.864247037536174" lon="12.09611165075241"><ele>124.99999999999999</ele><time>2026-04-15T05:33:59.999Z</time></trkpt><trkpt lat="45.86418693671268" lon="12.09602212784988"><ele>125.0</ele><time>2026-04-15T05:34:00.999Z</time></trkpt><trkpt lat="45.8641114978315" lon="12.09596668322471"><ele>125.0</ele><time>2026-04-15T05:34:01.999Z</time></trkpt><trkpt lat="45.864045305959344" lon="12.095902551079899"><ele>125.0</ele><time>2026-04-15T05:34:02.999Z</time></trkpt><trkpt lat="45.86402156054942" lon="12.095756949807761"><ele>124.99999999999999</ele><time>2026-04-15T05:34:03.999Z</time></trkpt><trkpt lat="45.86397908464813" lon="12.095689863500834"><ele>125.0</ele><time>2026-04-15T05:34:04.999Z</time></trkpt><trkpt lat="45.86393405293221" lon="12.095609354936947"><ele>125.0</ele><time>2026-04-15T05:34:06.999Z</time></trkpt><trkpt lat="45.86391641357337" lon="12.095516693843509"><ele>125.0</ele><time>2026-04-15T05:34:12.999Z</time></trkpt><trkpt lat="45.863881322555855" lon="12.095391741548834"><ele>125.0</ele><time>2026-04-15T05:34:14.999Z</time></trkpt><trkpt lat="45.863920105680364" lon="12.095284071284384"><ele>125.0</ele><time>2026-04-15T05:34:15.999Z</time></trkpt><trkpt lat="45.86392720587848" lon="12.095192503736211"><ele>125.0</ele><time>2026-04-15T05:34:16.999Z</time></trkpt><trkpt lat="45.863934292287674" lon="12.095100041710147"><ele>125.0</ele><time>2026-04-15T05:34:17.999Z</time></trkpt><trkpt lat="45.86394289755685" lon="12.09499835040267"><ele>125.0</ele><time>2026-04-15T05:34:18.999Z</time></trkpt><trkpt lat="45.863952840494775" lon="12.094887488805197"><ele>125.4</ele><time>2026-04-15T05:34:19.999Z</time></trkpt><trkpt lat="45.863964506638695" lon="12.094764935691545"><ele>125.8</ele><time>2026-04-15T05:34:20.999Z</time></trkpt><trkpt lat="45.863977945836126" lon="12.094628869634361"><ele>126.19999999999999</ele><time>2026-04-15T05:34:21.999Z</time></trkpt><trkpt lat="45.86399403607196" lon="12.094484557790047"><ele>126.6</ele><time>2026-04-15T05:34:22.999Z</time></trkpt><trkpt lat="45.8640107175258" lon="12.09433265476035"><ele>127.0</ele><time>2026-04-15T05:34:23.999Z</time></trkpt><trkpt lat="45.86402916972211" lon="12.094174609474114"><ele>126.8</ele><time>2026-04-15T05:34:24.999Z</time></trkpt><trkpt lat="45.86404959171988" lon="12.094015980701599"><ele>126.6</ele><time>2026-04-15T05:34:25.999Z</time></trkpt><trkpt lat="45.86406973251081" lon="12.093861157397457"><ele>126.39999999999999</ele><time>2026-04-15T05:34:26.999Z</time></trkpt><trkpt lat="45.86409083526591" lon="12.09370579672221"><ele>126.19999999999999</ele><time>2026-04-15T05:34:27.999Z</time></trkpt><trkpt lat="45.86411253355559" lon="12.093546233321069"><ele>126.0</ele><time>2026-04-15T05:34:28.999Z</time></trkpt><trkpt lat="45.86413537161272" lon="12.093381735830814"><ele>125.5</ele><time>2026-04-15T05:34:29.999Z</time></trkpt><trkpt lat="45.86415805622515" lon="12.093210945255112"><ele>125.0</ele><time>2026-04-15T05:34:30.999Z</time></trkpt><trkpt lat="45.86417971553536" lon="12.093033597225434"><ele>124.5</ele><time>2026-04-15T05:34:31.999Z</time></trkpt><trkpt lat="45.8642026659009" lon="12.092847947103216"><ele>124.0</ele><time>2026-04-15T05:34:32.999Z</time></trkpt><trkpt lat="45.8642268405146" lon="12.09265800811743"><ele>124.0</ele><time>2026-04-15T05:34:33.999Z</time></trkpt><trkpt lat="45.864251107839124" lon="12.092461505761925"><ele>124.0</ele><time>2026-04-15T05:34:34.999Z</time></trkpt><trkpt lat="45.864275011656154" lon="12.092260993097694"><ele>124.0</ele><time>2026-04-15T05:34:35.999Z</time></trkpt><trkpt lat="45.86429529690204" lon="12.092056428148329"><ele>124.0</ele><time>2026-04-15T05:34:36.999Z</time></trkpt><trkpt lat="45.86430622186003" lon="12.091848326919555"><ele>124.25</ele><time>2026-04-15T05:34:37.999Z</time></trkpt><trkpt lat="45.86430945269088" lon="12.091637108870579"><ele>124.5</ele><time>2026-04-15T05:34:38.999Z</time></trkpt><trkpt lat="45.864306039085136" lon="12.091427872227305"><ele>124.75</ele><time>2026-04-15T05:34:39.999Z</time></trkpt><trkpt lat="45.86429839984804" lon="12.091221886492043"><ele>125.0</ele><time>2026-04-15T05:34:40.999Z</time></trkpt><trkpt lat="45.864288949657485" lon="12.09101276902033"><ele>125.25</ele><time>2026-04-15T05:34:41.999Z</time></trkpt><trkpt lat="45.86427744082808" lon="12.09080296524305"><ele>125.5</ele><time>2026-04-15T05:34:42.999Z</time></trkpt><trkpt lat="45.86426373606568" lon="12.09058988835417"><ele>125.75</ele><time>2026-04-15T05:34:43.999Z</time></trkpt><trkpt lat="45.86425140966802" lon="12.090372918721833"><ele>126.0</ele><time>2026-04-15T05:34:44.999Z</time></trkpt><trkpt lat="45.864236890247575" lon="12.090155788781896"><ele>126.0</ele><time>2026-04-15T05:34:45.999Z</time></trkpt><trkpt lat="45.86422200313547" lon="12.089933920552614"><ele>126.0</ele><time>2026-04-15T05:34:46.999Z</time></trkpt><trkpt lat="45.86420849550477" lon="12.08971188932254"><ele>126.0</ele><time>2026-04-15T05:34:47.999Z</time></trkpt><trkpt lat="45.86419265271297" lon="12.089488377673241"><ele>126.0</ele><time>2026-04-15T05:34:48.999Z</time></trkpt><trkpt lat="45.86417433689315" lon="12.08926244606823"><ele>126.0</ele><time>2026-04-15T05:34:49.999Z</time></trkpt><trkpt lat="45.86415225618991" lon="12.089038660613689"><ele>126.0</ele><time>2026-04-15T05:34:50.999Z</time></trkpt><trkpt lat="45.86412358487206" lon="12.08881249569637"><ele>126.33333333333334</ele><time>2026-04-15T05:34:51.999Z</time></trkpt><trkpt lat="45.86409005542969" lon="12.088586526825388"><ele>126.66666666666667</ele><time>2026-04-15T05:34:52.999Z</time></trkpt><trkpt lat="45.864048903599645" lon="12.088360578968096"><ele>127.0</ele><time>2026-04-15T05:34:53.999Z</time></trkpt><trkpt lat="45.864001029234075" lon="12.08813546442831"><ele>127.0</ele><time>2026-04-15T05:34:54.999Z</time></trkpt><trkpt lat="45.86394847290583" lon="12.087911969801981"><ele>127.0</ele><time>2026-04-15T05:34:55.999Z</time></trkpt><trkpt lat="45.86389445185288" lon="12.08768671222531"><ele>127.0</ele><time>2026-04-15T05:34:56.999Z</time></trkpt><trkpt lat="45.863841100817325" lon="12.087461711815617"><ele>127.0</ele><time>2026-04-15T05:34:57.999Z</time></trkpt><trkpt lat="45.86378512007864" lon="12.087239740824138"><ele>127.0</ele><time>2026-04-15T05:34:58.999Z</time></trkpt><trkpt lat="45.86373004241316" lon="12.087018512448525"><ele>127.0</ele><time>2026-04-15T05:34:59.999Z</time></trkpt><trkpt lat="45.86367631283313" lon="12.086799706637546"><ele>127.33333333333334</ele><time>2026-04-15T05:35:00.999Z</time></trkpt><trkpt lat="45.86362318151333" lon="12.086582592198063"><ele>127.66666666666666</ele><time>2026-04-15T05:35:01.999Z</time></trkpt><trkpt lat="45.86356968562292" lon="12.086369692423073"><ele>128.0</ele><time>2026-04-15T05:35:02.999Z</time></trkpt><trkpt lat="45.86351793268384" lon="12.086161376585926"><ele>128.0</ele><time>2026-04-15T05:35:03.999Z</time></trkpt><trkpt lat="45.86346770084016" lon="12.085953909450915"><ele>128.0</ele><time>2026-04-15T05:35:04.999Z</time></trkpt><trkpt lat="45.863416540342314" lon="12.085750659605267"><ele>128.0</ele><time>2026-04-15T05:35:05.999Z</time></trkpt><trkpt lat="45.86336684219652" lon="12.085548482112141"><ele>128.0</ele><time>2026-04-15T05:35:06.999Z</time></trkpt><trkpt lat="45.863319192201836" lon="12.085349974584615"><ele>128.0</ele><time>2026-04-15T05:35:07.999Z</time></trkpt><trkpt lat="45.863271020176455" lon="12.085152908312486"><ele>128.0</ele><time>2026-04-15T05:35:08.999Z</time></trkpt><trkpt lat="45.86322248833197" lon="12.084958646813744"><ele>128.0</ele><time>2026-04-15T05:35:09.999Z</time></trkpt><trkpt lat="45.86317552876868" lon="12.084760842726936"><ele>128.0</ele><time>2026-04-15T05:35:10.999Z</time></trkpt><trkpt lat="45.863125600998394" lon="12.08456198822472"><ele>128.0</ele><time>2026-04-15T05:35:11.999Z</time></trkpt><trkpt lat="45.86307621533218" lon="12.084359686056409"><ele>128.0</ele><time>2026-04-15T05:35:12.999Z</time></trkpt><trkpt lat="45.863024394673076" lon="12.084155666856354"><ele>128.0</ele><time>2026-04-15T05:35:13.999Z</time></trkpt><trkpt lat="45.86297372859508" lon="12.083948869019544"><ele>128.66666666666666</ele><time>2026-04-15T05:35:14.999Z</time></trkpt><trkpt lat="45.862923927824944" lon="12.083741684244139"><ele>129.33333333333334</ele><time>2026-04-15T05:35:15.999Z</time></trkpt><trkpt lat="45.86287368851499" lon="12.083536863409703"><ele>130.0</ele><time>2026-04-15T05:35:16.999Z</time></trkpt><trkpt lat="45.86282453734297" lon="12.083337243831739"><ele>130.75</ele><time>2026-04-15T05:35:17.999Z</time></trkpt><trkpt lat="45.86277591612085" lon="12.083140504723614"><ele>131.5</ele><time>2026-04-15T05:35:18.999Z</time></trkpt><trkpt lat="45.862727172917445" lon="12.082949131947597"><ele>132.25</ele><time>2026-04-15T05:35:19.999Z</time></trkpt><trkpt lat="45.8626792721195" lon="12.082759495722668"><ele>133.0</ele><time>2026-04-15T05:35:20.999Z</time></trkpt><trkpt lat="45.862628864738404" lon="12.082572422825947"><ele>132.75</ele><time>2026-04-15T05:35:21.999Z</time></trkpt><trkpt lat="45.862577445091354" lon="12.08238702605081"><ele>132.5</ele><time>2026-04-15T05:35:22.999Z</time></trkpt><trkpt lat="45.86252765983735" lon="12.082196992034795"><ele>132.25</ele><time>2026-04-15T05:35:23.999Z</time></trkpt><trkpt lat="45.8624764804433" lon="12.082007345571762"><ele>132.0</ele><time>2026-04-15T05:35:24.999Z</time></trkpt><trkpt lat="45.86242238479489" lon="12.081816471390749"><ele>132.0</ele><time>2026-04-15T05:35:25.999Z</time></trkpt><trkpt lat="45.86236880094937" lon="12.081628085619593"><ele>132.0</ele><time>2026-04-15T05:35:26.999Z</time></trkpt><trkpt lat="45.86231599116814" lon="12.08143862780175"><ele>132.0</ele><time>2026-04-15T05:35:27.999Z</time></trkpt><trkpt lat="45.862262411546716" lon="12.081250056463398"><ele>132.0</ele><time>2026-04-15T05:35:28.999Z</time></trkpt><trkpt lat="45.86220973015828" lon="12.081059984620236"><ele>131.5</ele><time>2026-04-15T05:35:29.999Z</time></trkpt><trkpt lat="45.862156370938514" lon="12.080870070823648"><ele>131.0</ele><time>2026-04-15T05:35:30.999Z</time></trkpt><trkpt lat="45.86210259052923" lon="12.080679746767213"><ele>130.5</ele><time>2026-04-15T05:35:31.999Z</time></trkpt><trkpt lat="45.86204873618529" lon="12.080490758153276"><ele>130.0</ele><time>2026-04-15T05:35:32.999Z</time></trkpt><trkpt lat="45.86199571306759" lon="12.08030016056171"><ele>130.0</ele><time>2026-04-15T05:35:33.999Z</time></trkpt><trkpt lat="45.86194202692589" lon="12.080110074035364"><ele>130.0</ele><time>2026-04-15T05:35:34.998Z</time></trkpt><trkpt lat="45.86188661621601" lon="12.079921093741424"><ele>130.0</ele><time>2026-04-15T05:35:35.998Z</time></trkpt><trkpt lat="45.86183268305819" lon="12.079730143889671"><ele>130.0</ele><time>2026-04-15T05:35:36.998Z</time></trkpt><trkpt lat="45.861779964520196" lon="12.079537073155038"><ele>130.5</ele><time>2026-04-15T05:35:37.998Z</time></trkpt><trkpt lat="45.861726929771606" lon="12.079343713964764"><ele>131.0</ele><time>2026-04-15T05:35:38.998Z</time></trkpt><trkpt lat="45.861671545870195" lon="12.079152496142536"><ele>131.5</ele><time>2026-04-15T05:35:39.998Z</time></trkpt><trkpt lat="45.861616778116634" lon="12.078959571720942"><ele>132.0</ele><time>2026-04-15T05:35:40.998Z</time></trkpt><trkpt lat="45.86156209481276" lon="12.078766088011507"><ele>132.25</ele><time>2026-04-15T05:35:41.998Z</time></trkpt><trkpt lat="45.86150627272881" lon="12.078572273876734"><ele>132.5</ele><time>2026-04-15T05:35:42.998Z</time></trkpt><trkpt lat="45.861450745130114" lon="12.078378077280043"><ele>132.75</ele><time>2026-04-15T05:35:43.998Z</time></trkpt><trkpt lat="45.86139550235189" lon="12.078185813238711"><ele>133.0</ele><time>2026-04-15T05:35:44.998Z</time></trkpt><trkpt lat="45.86134259310781" lon="12.077998138349031"><ele>133.0</ele><time>2026-04-15T05:35:45.998Z</time></trkpt><trkpt lat="45.86129014515796" lon="12.077814293455527"><ele>133.0</ele><time>2026-04-15T05:35:46.999Z</time></trkpt><trkpt lat="45.86123716520353" lon="12.077641842352168"><ele>133.0</ele><time>2026-04-15T05:35:47.999Z</time></trkpt><trkpt lat="45.861182682419724" lon="12.07748427886339"><ele>133.0</ele><time>2026-04-15T05:35:49Z</time></trkpt><trkpt lat="45.861121217306334" lon="12.077341094676555"><ele>133.20000000000002</ele><time>2026-04-15T05:35:50Z</time></trkpt><trkpt lat="45.86105694137858" lon="12.077210422853396"><ele>133.4</ele><time>2026-04-15T05:35:51Z</time></trkpt><trkpt lat="45.86099094767313" lon="12.0770982921041"><ele>133.60000000000002</ele><time>2026-04-15T05:35:52Z</time></trkpt><trkpt lat="45.86092741830834" lon="12.077000588647637"><ele>133.8</ele><time>2026-04-15T05:35:53Z</time></trkpt><trkpt lat="45.86087043596965" lon="12.076909500717306"><ele>134.0</ele><time>2026-04-15T05:35:54Z</time></trkpt><trkpt lat="45.86082527069177" lon="12.076815853348144"><ele>134.0</ele><time>2026-04-15T05:35:55Z</time></trkpt><trkpt lat="45.8607950094961" lon="12.076723702217146"><ele>134.0</ele><time>2026-04-15T05:35:56Z</time></trkpt><trkpt lat="45.86077906331492" lon="12.076625895105796"><ele>134.0</ele><time>2026-04-15T05:35:57Z</time></trkpt><trkpt lat="45.86077522901696" lon="12.076528969236186"><ele>134.0</ele><time>2026-04-15T05:35:58Z</time></trkpt><trkpt lat="45.86078190679834" lon="12.076433926119375"><ele>134.0</ele><time>2026-04-15T05:35:59Z</time></trkpt><trkpt lat="45.86081149741774" lon="12.076346506142437"><ele>134.0</ele><time>2026-04-15T05:36:00Z</time></trkpt><trkpt lat="45.860842993372785" lon="12.07625696705634"><ele>134.0</ele><time>2026-04-15T05:36:01Z</time></trkpt><trkpt lat="45.86088251301446" lon="12.076176514949886"><ele>134.2</ele><time>2026-04-15T05:36:02Z</time></trkpt><trkpt lat="45.861012271180655" lon="12.076192540987103"><ele>134.4</ele><time>2026-04-15T05:36:03Z</time></trkpt><trkpt lat="45.86110293092251" lon="12.07620331297657"><ele>134.6</ele><time>2026-04-15T05:36:04Z</time></trkpt><trkpt lat="45.8611982317641" lon="12.076190181906998"><ele>134.8</ele><time>2026-04-15T05:36:05Z</time></trkpt><trkpt lat="45.86129901541975" lon="12.076177448037123"><ele>135.0</ele><time>2026-04-15T05:36:06Z</time></trkpt><trkpt lat="45.86140334633366" lon="12.076164265985296"><ele>135.0</ele><time>2026-04-15T05:36:07Z</time></trkpt><trkpt lat="45.86151069055165" lon="12.076150703202611"><ele>135.0</ele><time>2026-04-15T05:36:08Z</time></trkpt><trkpt lat="45.86161512589596" lon="12.076137507955847"><ele>135.0</ele><time>2026-04-15T05:36:09Z</time></trkpt><trkpt lat="45.861723233376765" lon="12.076123848732934"><ele>135.0</ele><time>2026-04-15T05:36:10Z</time></trkpt><trkpt lat="45.86183070934394" lon="12.076097767411134"><ele>135.0</ele><time>2026-04-15T05:36:11Z</time></trkpt><trkpt lat="45.861930297222315" lon="12.076084607103002"><ele>134.83333333333334</ele><time>2026-04-15T05:36:12Z</time></trkpt><trkpt lat="45.862020780664395" lon="12.076072512884508"><ele>134.66666666666666</ele><time>2026-04-15T05:36:13Z</time></trkpt><trkpt lat="45.86210094493961" lon="12.076061980284749"><ele>134.5</ele><time>2026-04-15T05:36:14Z</time></trkpt><trkpt lat="45.86216497124917" lon="12.076051313142058"><ele>134.33333333333331</ele><time>2026-04-15T05:36:15Z</time></trkpt><trkpt lat="45.862261521074615" lon="12.076055854951017"><ele>134.16666666666666</ele><time>2026-04-15T05:36:17Z</time></trkpt><trkpt lat="45.862323210684245" lon="12.076030404512478"><ele>134.0</ele><time>2026-04-15T05:36:20Z</time></trkpt><trkpt lat="45.86230907769603" lon="12.075841675321106"><ele>133.8</ele><time>2026-04-15T05:36:21Z</time></trkpt><trkpt lat="45.86228714146803" lon="12.07570418455441"><ele>133.60000000000002</ele><time>2026-04-15T05:36:23Z</time></trkpt><trkpt lat="45.862260517495145" lon="12.075558365431878"><ele>133.4</ele><time>2026-04-15T05:36:25Z</time></trkpt><trkpt lat="45.86222914306911" lon="12.075392954283773"><ele>133.20000000000002</ele><time>2026-04-15T05:36:27Z</time></trkpt><trkpt lat="45.86220865587612" lon="12.075299071008505"><ele>133.0</ele><time>2026-04-15T05:36:28Z</time></trkpt><trkpt lat="45.862188875698905" lon="12.07519449751545"><ele>133.0</ele><time>2026-04-15T05:36:29Z</time></trkpt><trkpt lat="45.86216972381569" lon="12.075091236869945"><ele>133.0</ele><time>2026-04-15T05:36:30Z</time></trkpt><trkpt lat="45.862153689660175" lon="12.074993348699861"><ele>133.0</ele><time>2026-04-15T05:36:31Z</time></trkpt><trkpt lat="45.86213591448593" lon="12.074901662431913"><ele>133.0</ele><time>2026-04-15T05:36:32Z</time></trkpt><trkpt lat="45.86211871071794" lon="12.074814365284352"><ele>133.0</ele><time>2026-04-15T05:36:33Z</time></trkpt><trkpt lat="45.86209061623662" lon="12.074677288426729"><ele>133.0</ele><time>2026-04-15T05:36:35Z</time></trkpt><trkpt lat="45.86206342343581" lon="12.07456738125606"><ele>133.0</ele><time>2026-04-15T05:36:38Z</time></trkpt><trkpt lat="45.862029872560626" lon="12.074480346269212"><ele>133.0</ele><time>2026-04-15T05:36:40Z</time></trkpt><trkpt lat="45.86196630238347" lon="12.074446395471464"><ele>133.0</ele><time>2026-04-15T05:36:42Z</time></trkpt><trkpt lat="45.86202870467402" lon="12.074407941603498"><ele>133.0</ele><time>2026-04-15T05:36:43Z</time></trkpt><trkpt lat="45.86189773550916" lon="12.074427706192983"><ele>133.0</ele><time>2026-04-15T05:36:45Z</time></trkpt><trkpt lat="45.86182783996971" lon="12.074328273572956"><ele>133.0</ele><time>2026-04-15T05:36:53Z</time></trkpt><trkpt lat="45.86185939296694" lon="12.074448070621632"><ele>133.0</ele><time>2026-04-15T05:37:22Z</time></trkpt><trkpt lat="45.861842221345064" lon="12.074332459349257"><ele>133.0</ele><time>2026-04-15T05:37:46.999Z</time></trkpt><trkpt lat="45.86181049934189" lon="12.074418701848977"><ele>133.0</ele><time>2026-04-15T05:40:25Z</time></trkpt><trkpt lat="45.86184536854746" lon="12.074504615052502"><ele>133.0</ele><time>2026-04-15T05:40:27Z</time></trkpt><trkpt lat="45.86192251536805" lon="12.074501138809463"><ele>133.0</ele><time>2026-04-15T05:40:29Z</time></trkpt><trkpt lat="45.86199509561606" lon="12.074482164077939"><ele>133.0</ele><time>2026-04-15T05:40:38Z</time></trkpt><trkpt lat="45.862064828194" lon="12.074536634019344"><ele>133.0</ele><time>2026-04-15T05:40:41Z</time></trkpt><trkpt lat="45.86208598825904" lon="12.074683083850521"><ele>133.0</ele><time>2026-04-15T05:40:43Z</time></trkpt><trkpt lat="45.86210539091153" lon="12.074843917011986"><ele>133.0</ele><time>2026-04-15T05:40:45Z</time></trkpt><trkpt lat="45.86212927753755" lon="12.075019546844018"><ele>133.0</ele><time>2026-04-15T05:40:47Z</time></trkpt><trkpt lat="45.862146578845405" lon="12.075109316156862"><ele>133.0</ele><time>2026-04-15T05:40:48Z</time></trkpt><trkpt lat="45.86216521526076" lon="12.075200533531193"><ele>133.0</ele><time>2026-04-15T05:40:49Z</time></trkpt><trkpt lat="45.86218225196532" lon="12.075291447549155"><ele>133.0</ele><time>2026-04-15T05:40:50Z</time></trkpt><trkpt lat="45.862200328465015" lon="12.07538366991677"><ele>133.0</ele><time>2026-04-15T05:40:51Z</time></trkpt><trkpt lat="45.86221797467344" lon="12.075474288810673"><ele>133.0</ele><time>2026-04-15T05:40:52Z</time></trkpt><trkpt lat="45.862234557723625" lon="12.07556552847172"><ele>133.0</ele><time>2026-04-15T05:40:53Z</time></trkpt><trkpt lat="45.86225018117365" lon="12.075654446946091"><ele>133.0</ele><time>2026-04-15T05:40:54Z</time></trkpt><trkpt lat="45.862266085806304" lon="12.07574233416608"><ele>133.0</ele><time>2026-04-15T05:40:55Z</time></trkpt><trkpt lat="45.8622918323641" lon="12.075892928420314"><ele>133.16666666666669</ele><time>2026-04-15T05:40:57Z</time></trkpt><trkpt lat="45.86229648538052" lon="12.07599304167604"><ele>133.33333333333334</ele><time>2026-04-15T05:41:02Z</time></trkpt><trkpt lat="45.86240508925168" lon="12.076064956478922"><ele>133.5</ele><time>2026-04-15T05:41:05Z</time></trkpt><trkpt lat="45.862478501957874" lon="12.076022494745185"><ele>133.66666666666666</ele><time>2026-04-15T05:41:06Z</time></trkpt><trkpt lat="45.862551351693185" lon="12.075984142816779"><ele>133.83333333333331</ele><time>2026-04-15T05:41:07Z</time></trkpt><trkpt lat="45.862638993790796" lon="12.075942221650646"><ele>134.0</ele><time>2026-04-15T05:41:08Z</time></trkpt><trkpt lat="45.86272591164726" lon="12.075904578144895"><ele>133.83333333333331</ele><time>2026-04-15T05:41:09Z</time></trkpt><trkpt lat="45.862807141082435" lon="12.075863863942484"><ele>133.66666666666666</ele><time>2026-04-15T05:41:10Z</time></trkpt><trkpt lat="45.86288407952366" lon="12.075827968921063"><ele>133.5</ele><time>2026-04-15T05:41:11Z</time></trkpt><trkpt lat="45.862950944055996" lon="12.075794460116704"><ele>133.33333333333334</ele><time>2026-04-15T05:41:12Z</time></trkpt><trkpt lat="45.86303156462788" lon="12.075750246671296"><ele>133.16666666666669</ele><time>2026-04-15T05:41:14Z</time></trkpt><trkpt lat="45.86309565771322" lon="12.07571435855145"><ele>133.0</ele><time>2026-04-15T05:41:44.999Z</time></trkpt><trkpt lat="45.86319312138322" lon="12.075665016972476"><ele>133.0</ele><time>2026-04-15T05:41:46.999Z</time></trkpt><trkpt lat="45.86330828095393" lon="12.07560720530187"><ele>133.0</ele><time>2026-04-15T05:41:48.999Z</time></trkpt><trkpt lat="45.86336953746117" lon="12.075576163146668"><ele>133.0</ele><time>2026-04-15T05:41:49.999Z</time></trkpt><trkpt lat="45.86343606982618" lon="12.07554145836864"><ele>133.0</ele><time>2026-04-15T05:41:50.999Z</time></trkpt><trkpt lat="45.86350581922858" lon="12.075505713240233"><ele>133.0</ele><time>2026-04-15T05:41:51.999Z</time></trkpt><trkpt lat="45.86357626913615" lon="12.075471069309318"><ele>133.0</ele><time>2026-04-15T05:41:52.999Z</time></trkpt><trkpt lat="45.863641934293064" lon="12.075437486531285"><ele>132.57142857142858</ele><time>2026-04-15T05:41:53.999Z</time></trkpt><trkpt lat="45.86370311786843" lon="12.075404387049057"><ele>132.14285714285714</ele><time>2026-04-15T05:41:54.999Z</time></trkpt><trkpt lat="45.86376487656255" lon="12.07537065044485"><ele>131.71428571428572</ele><time>2026-04-15T05:41:55.999Z</time></trkpt><trkpt lat="45.8638278423153" lon="12.075338034450155"><ele>131.28571428571428</ele><time>2026-04-15T05:41:56.999Z</time></trkpt><trkpt lat="45.86389355885363" lon="12.075307818716256"><ele>130.85714285714286</ele><time>2026-04-15T05:41:57.999Z</time></trkpt><trkpt lat="45.86396351328842" lon="12.07527696654315"><ele>130.42857142857144</ele><time>2026-04-15T05:41:58.999Z</time></trkpt><trkpt lat="45.86404187718503" lon="12.075242186171847"><ele>130.0</ele><time>2026-04-15T05:41:59.999Z</time></trkpt><trkpt lat="45.86412115423916" lon="12.07520568435991"><ele>130.0</ele><time>2026-04-15T05:42:00.999Z</time></trkpt><trkpt lat="45.86420132633781" lon="12.075167741740472"><ele>130.0</ele><time>2026-04-15T05:42:01.999Z</time></trkpt><trkpt lat="45.864276049061175" lon="12.07513538698333"><ele>130.0</ele><time>2026-04-15T05:42:02.999Z</time></trkpt><trkpt lat="45.86434906603238" lon="12.075106546789048"><ele>130.0</ele><time>2026-04-15T05:42:03.999Z</time></trkpt><trkpt lat="45.86442159225189" lon="12.075082124206407"><ele>130.0</ele><time>2026-04-15T05:42:04.999Z</time></trkpt><trkpt lat="45.864484464259505" lon="12.07503629292035"><ele>130.0</ele><time>2026-04-15T05:42:06Z</time></trkpt><trkpt lat="45.864599236889994" lon="12.074994621511529"><ele>129.6</ele><time>2026-04-15T05:42:08Z</time></trkpt><trkpt lat="45.86466825033595" lon="12.074971472409363"><ele>129.2</ele><time>2026-04-15T05:42:10Z</time></trkpt><trkpt lat="45.864754846395456" lon="12.074941917472865"><ele>128.8</ele><time>2026-04-15T05:42:28Z</time></trkpt><trkpt lat="45.86487862400242" lon="12.074923649147596"><ele>128.4</ele><time>2026-04-15T05:42:30Z</time></trkpt><trkpt lat="45.865007563436244" lon="12.074858041595553"><ele>128.0</ele><time>2026-04-15T05:42:32Z</time></trkpt><trkpt lat="45.86509181133343" lon="12.074830376492496"><ele>128.6</ele><time>2026-04-15T05:42:33Z</time></trkpt><trkpt lat="45.865193164253796" lon="12.074800554839905"><ele>129.20000000000002</ele><time>2026-04-15T05:42:34Z</time></trkpt><trkpt lat="45.865299600473506" lon="12.07476360250793"><ele>129.8</ele><time>2026-04-15T05:42:35Z</time></trkpt><trkpt lat="45.86540883765266" lon="12.074723565054024"><ele>130.4</ele><time>2026-04-15T05:42:36Z</time></trkpt><trkpt lat="45.86551773791477" lon="12.074688595364124"><ele>131.0</ele><time>2026-04-15T05:42:37Z</time></trkpt><trkpt lat="45.86562878975103" lon="12.074656085404666"><ele>131.0</ele><time>2026-04-15T05:42:38Z</time></trkpt><trkpt lat="45.865746022870226" lon="12.074624727458431"><ele>131.0</ele><time>2026-04-15T05:42:39Z</time></trkpt><trkpt lat="45.86586928092936" lon="12.074591861064494"><ele>131.0</ele><time>2026-04-15T05:42:40Z</time></trkpt><trkpt lat="45.866001666885076" lon="12.074555656782614"><ele>131.0</ele><time>2026-04-15T05:42:41Z</time></trkpt><trkpt lat="45.86614178915937" lon="12.074517466693747"><ele>130.33333333333331</ele><time>2026-04-15T05:42:42Z</time></trkpt><trkpt lat="45.8662922640492" lon="12.07447916435782"><ele>129.66666666666666</ele><time>2026-04-15T05:42:43Z</time></trkpt><trkpt lat="45.8664499092628" lon="12.07444160559463"><ele>129.0</ele><time>2026-04-15T05:42:44Z</time></trkpt><trkpt lat="45.8666058314085" lon="12.074413618309679"><ele>129.0</ele><time>2026-04-15T05:42:45Z</time></trkpt><trkpt lat="45.86676191170359" lon="12.074403422175294"><ele>129.0</ele><time>2026-04-15T05:42:46Z</time></trkpt><trkpt lat="45.86692057386629" lon="12.07441970584305"><ele>129.0</ele><time>2026-04-15T05:42:47Z</time></trkpt><trkpt lat="45.86707102922201" lon="12.074468841340018"><ele>128.33333333333334</ele><time>2026-04-15T05:42:48Z</time></trkpt><trkpt lat="45.86721929936751" lon="12.074538762897873"><ele>127.66666666666667</ele><time>2026-04-15T05:42:49Z</time></trkpt><trkpt lat="45.86735957825971" lon="12.074636660436724"><ele>127.0</ele><time>2026-04-15T05:42:50Z</time></trkpt><trkpt lat="45.867498969861266" lon="12.074742903778532"><ele>127.0</ele><time>2026-04-15T05:42:51Z</time></trkpt><trkpt lat="45.867640529914034" lon="12.074850594751723"><ele>127.0</ele><time>2026-04-15T05:42:52Z</time></trkpt><trkpt lat="45.867786780398774" lon="12.074951362594772"><ele>127.0</ele><time>2026-04-15T05:42:53Z</time></trkpt><trkpt lat="45.86793742894969" lon="12.075056140034418"><ele>127.0</ele><time>2026-04-15T05:42:54Z</time></trkpt><trkpt lat="45.868090466036925" lon="12.075164162927132"><ele>127.0</ele><time>2026-04-15T05:42:55Z</time></trkpt><trkpt lat="45.86824531807994" lon="12.075278671982838"><ele>127.0</ele><time>2026-04-15T05:42:56Z</time></trkpt><trkpt lat="45.868393184057645" lon="12.075395505701204"><ele>128.33333333333334</ele><time>2026-04-15T05:42:57Z</time></trkpt><trkpt lat="45.86853281407656" lon="12.075523708820887"><ele>129.66666666666666</ele><time>2026-04-15T05:42:58Z</time></trkpt><trkpt lat="45.868667676631205" lon="12.075668277873326"><ele>131.0</ele><time>2026-04-15T05:42:59Z</time></trkpt><trkpt lat="45.86880357985935" lon="12.075816809570162"><ele>131.0</ele><time>2026-04-15T05:43:00Z</time></trkpt><trkpt lat="45.868942574034286" lon="12.07597266898155"><ele>131.0</ele><time>2026-04-15T05:43:01Z</time></trkpt><trkpt lat="45.86908591512667" lon="12.076135022480852"><ele>131.0</ele><time>2026-04-15T05:43:02Z</time></trkpt><trkpt lat="45.869233474596264" lon="12.076305501288385"><ele>131.0</ele><time>2026-04-15T05:43:03Z</time></trkpt><trkpt lat="45.86938563556692" lon="12.076481397549966"><ele>131.0</ele><time>2026-04-15T05:43:04Z</time></trkpt><trkpt lat="45.86954244274216" lon="12.07666120866587"><ele>131.0</ele><time>2026-04-15T05:43:05Z</time></trkpt><trkpt lat="45.869698945138595" lon="12.076838350609679"><ele>131.0</ele><time>2026-04-15T05:43:06Z</time></trkpt><trkpt lat="45.86985203141353" lon="12.077012246545943"><ele>131.0</ele><time>2026-04-15T05:43:07Z</time></trkpt><trkpt lat="45.870001216707756" lon="12.077179320280054"><ele>131.0</ele><time>2026-04-15T05:43:08Z</time></trkpt><trkpt lat="45.87014204434328" lon="12.077336047334919"><ele>131.33333333333331</ele><time>2026-04-15T05:43:09Z</time></trkpt><trkpt lat="45.87027751361469" lon="12.077489548446787"><ele>131.66666666666666</ele><time>2026-04-15T05:43:10Z</time></trkpt><trkpt lat="45.87040606640792" lon="12.077634004267619"><ele>132.0</ele><time>2026-04-15T05:43:11Z</time></trkpt><trkpt lat="45.87053055040193" lon="12.077771481241479"><ele>132.0</ele><time>2026-04-15T05:43:12Z</time></trkpt><trkpt lat="45.870638772862954" lon="12.077895099760642"><ele>132.0</ele><time>2026-04-15T05:43:13Z</time></trkpt><trkpt lat="45.87073814171752" lon="12.07801527286953"><ele>132.0</ele><time>2026-04-15T05:43:14Z</time></trkpt><trkpt lat="45.8708134407954" lon="12.07811401080389"><ele>132.0</ele><time>2026-04-15T05:43:15Z</time></trkpt><trkpt lat="45.87085971658004" lon="12.078184410019174"><ele>132.0</ele><time>2026-04-15T05:43:16Z</time></trkpt><trkpt lat="45.87091214240802" lon="12.078264708588689"><ele>131.66666666666666</ele><time>2026-04-15T05:43:18Z</time></trkpt><trkpt lat="45.870959173915324" lon="12.078343350564987"><ele>131.33333333333334</ele><time>2026-04-15T05:43:22Z</time></trkpt><trkpt lat="45.87098017575065" lon="12.07844209964101"><ele>131.0</ele><time>2026-04-15T05:43:24Z</time></trkpt><trkpt lat="45.871001225542436" lon="12.078581434715398"><ele>130.66666666666669</ele><time>2026-04-15T05:43:26Z</time></trkpt><trkpt lat="45.87102313370252" lon="12.07867291128352"><ele>130.33333333333334</ele><time>2026-04-15T05:43:28Z</time></trkpt><trkpt lat="45.87107233395103" lon="12.078789367400853"><ele>130.0</ele><time>2026-04-15T05:43:31Z</time></trkpt><trkpt lat="45.87113803584457" lon="12.078862212656471"><ele>130.0</ele><time>2026-04-15T05:43:33Z</time></trkpt><trkpt lat="45.87119629842249" lon="12.078926938362518"><ele>130.0</ele><time>2026-04-15T05:43:35Z</time></trkpt><trkpt lat="45.87127145444549" lon="12.079007773773117"><ele>130.0</ele><time>2026-04-15T05:43:37Z</time></trkpt><trkpt lat="45.871350328979275" lon="12.079091018807965"><ele>130.0</ele><time>2026-04-15T05:43:39Z</time></trkpt><trkpt lat="45.87142074037211" lon="12.079161063578605"><ele>130.0</ele><time>2026-04-15T05:43:41Z</time></trkpt><trkpt lat="45.871469904994285" lon="12.079256383824458"><ele>130.0</ele><time>2026-04-15T05:43:43.999Z</time></trkpt><trkpt lat="45.8714134587713" lon="12.079307340309155"><ele>130.0</ele><time>2026-04-15T05:43:46.999Z</time></trkpt><trkpt lat="45.87136967674803" lon="12.079392762840799"><ele>130.0</ele><time>2026-04-15T05:43:48.999Z</time></trkpt><trkpt lat="45.87131747333437" lon="12.079495843797533"><ele>130.0</ele><time>2026-04-15T05:43:51.999Z</time></trkpt><trkpt lat="45.87129707683994" lon="12.079604844129292"><ele>130.0</ele><time>2026-04-15T05:43:53.999Z</time></trkpt><trkpt lat="45.87117437191346" lon="12.079673115798359"><ele>130.0</ele><time>2026-04-15T05:43:55.999Z</time></trkpt><trkpt lat="45.87110009286163" lon="12.079612474932562"><ele>130.0</ele><time>2026-04-15T05:43:57.999Z</time></trkpt><trkpt lat="45.87118397035076" lon="12.07940626520635"><ele>130.0</ele><time>2026-04-15T05:43:58.999Z</time></trkpt><trkpt lat="45.871239822429295" lon="12.079336448358049"><ele>130.0</ele><time>2026-04-15T05:44:15Z</time></trkpt><trkpt lat="45.87129950308534" lon="12.079276404702242"><ele>130.0</ele><time>2026-04-15T05:46:29Z</time></trkpt><trkpt lat="45.87137053420126" lon="12.079276087924354"><ele>130.0</ele><time>2026-04-15T05:46:38Z</time></trkpt><trkpt lat="45.87144245909857" lon="12.079268200940632"><ele>130.0</ele><time>2026-04-15T05:46:47Z</time></trkpt><trkpt lat="45.87145713188888" lon="12.07917777858127"><ele>130.0</ele><time>2026-04-15T05:46:56Z</time></trkpt><trkpt lat="45.871480770625915" lon="12.079063270021747"><ele>130.0</ele><time>2026-04-15T05:47:09Z</time></trkpt><trkpt lat="45.87151532896817" lon="12.078940595482948"><ele>130.0</ele><time>2026-04-15T05:47:20Z</time></trkpt><trkpt lat="45.871466013513675" lon="12.079029213319673"><ele>130.0</ele><time>2026-04-15T05:47:35Z</time></trkpt><trkpt lat="45.871494539351495" lon="12.079172450176028"><ele>130.0</ele><time>2026-04-15T05:47:46.999Z</time></trkpt><trkpt lat="45.871473061872315" lon="12.079050204660327"><ele>130.0</ele><time>2026-04-15T05:47:52.999Z</time></trkpt><trkpt lat="45.87141077958299" lon="12.079018526343901"><ele>130.0</ele><time>2026-04-15T05:47:54.999Z</time></trkpt><trkpt lat="45.871635144524625" lon="12.079486898039418"><ele>130.0</ele><time>2026-04-15T06:07:04.514Z</time></trkpt><trkpt lat="45.87149134513459" lon="12.079330623868277"><ele>130.0</ele><time>2026-04-15T06:07:10.362Z</time></trkpt><trkpt lat="45.87143421568204" lon="12.079250202915315"><ele>130.0</ele><time>2026-04-15T06:07:22.36Z</time></trkpt><trkpt lat="45.8714383344537" lon="12.079137882790079"><ele>130.0</ele><time>2026-04-15T06:07:31.988Z</time></trkpt><trkpt lat="45.871377456257335" lon="12.079105330935572"><ele>130.0</ele><time>2026-04-15T06:07:34.988Z</time></trkpt><trkpt lat="45.87144380720849" lon="12.079080987412475"><ele>130.00000000000003</ele><time>2026-04-15T06:12:54.999Z</time></trkpt><trkpt lat="45.87147435780699" lon="12.079167585025964"><ele>130.0</ele><time>2026-04-15T06:13:02.999Z</time></trkpt><trkpt lat="45.87152525795659" lon="12.079231884315263"><ele>130.0</ele><time>2026-04-15T06:13:14.999Z</time></trkpt><trkpt lat="45.871484275955076" lon="12.079308505775534"><ele>130.0</ele><time>2026-04-15T06:13:20.999Z</time></trkpt><trkpt lat="45.87144160532759" lon="12.079385145452743"><ele>130.0</ele><time>2026-04-15T06:13:27.999Z</time></trkpt><trkpt lat="45.871372782557295" lon="12.079441738786445"><ele>130.00000000000003</ele><time>2026-04-15T06:13:48.999Z</time></trkpt><trkpt lat="45.87130554155626" lon="12.079416431577373"><ele>130.0</ele><time>2026-04-15T06:14:06Z</time></trkpt><trkpt lat="45.871251698395085" lon="12.079359000053191"><ele>130.0</ele><time>2026-04-15T06:14:23Z</time></trkpt><trkpt lat="45.871267278104426" lon="12.079512844907528"><ele>130.0</ele><time>2026-04-15T06:15:05.999Z</time></trkpt><trkpt lat="45.87134264164493" lon="12.079535789890091"><ele>130.0</ele><time>2026-04-15T06:15:07.999Z</time></trkpt><trkpt lat="45.871397892579004" lon="12.079429702270389"><ele>130.0</ele><time>2026-04-15T06:15:09.999Z</time></trkpt><trkpt lat="45.871436842688745" lon="12.079347265283479"><ele>130.0</ele><time>2026-04-15T06:15:11.999Z</time></trkpt><trkpt lat="45.8714756456371" lon="12.079269370133627"><ele>130.0</ele><time>2026-04-15T06:15:13.999Z</time></trkpt><trkpt lat="45.87146779202218" lon="12.079151292334494"><ele>130.0</ele><time>2026-04-15T06:15:17.999Z</time></trkpt><trkpt lat="45.87139912172911" lon="12.07906481740478"><ele>130.0</ele><time>2026-04-15T06:15:19.999Z</time></trkpt><trkpt lat="45.87131737913275" lon="12.078975700939413"><ele>130.0</ele><time>2026-04-15T06:15:21.999Z</time></trkpt><trkpt lat="45.87124713802729" lon="12.078890048376884"><ele>130.0</ele><time>2026-04-15T06:15:23.999Z</time></trkpt><trkpt lat="45.871195472754586" lon="12.078834853613012"><ele>130.0</ele><time>2026-04-15T06:15:25.999Z</time></trkpt><trkpt lat="45.8711423945092" lon="12.07877825735921"><ele>130.0</ele><time>2026-04-15T06:15:27.999Z</time></trkpt><trkpt lat="45.871070397269094" lon="12.07873610706911"><ele>130.0</ele><time>2026-04-15T06:15:29.999Z</time></trkpt><trkpt lat="45.870965558428466" lon="12.078785047582846"><ele>130.0</ele><time>2026-04-15T06:15:31.999Z</time></trkpt><trkpt lat="45.870864154141124" lon="12.078865491110038"><ele>130.0</ele><time>2026-04-15T06:15:33.999Z</time></trkpt><trkpt lat="45.87080464195264" lon="12.078907565250098"><ele>130.0</ele><time>2026-04-15T06:15:34.999Z</time></trkpt><trkpt lat="45.87074546182098" lon="12.078944253726265"><ele>130.0</ele><time>2026-04-15T06:15:35.999Z</time></trkpt><trkpt lat="45.870677575656984" lon="12.079007585473185"><ele>130.0</ele><time>2026-04-15T06:15:36.999Z</time></trkpt><trkpt lat="45.87060894748823" lon="12.079098555039872"><ele>129.8</ele><time>2026-04-15T06:15:37.999Z</time></trkpt><trkpt lat="45.8705453357862" lon="12.079208453152093"><ele>129.6</ele><time>2026-04-15T06:15:38.999Z</time></trkpt><trkpt lat="45.870474920159765" lon="12.07930916255587"><ele>129.4</ele><time>2026-04-15T06:15:39.999Z</time></trkpt><trkpt lat="45.870403657509776" lon="12.079404629559058"><ele>129.2</ele><time>2026-04-15T06:15:40.999Z</time></trkpt><trkpt lat="45.87033486245296" lon="12.079500618514182"><ele>129.0</ele><time>2026-04-15T06:15:41.999Z</time></trkpt><trkpt lat="45.87026728256319" lon="12.079599134091554"><ele>129.0</ele><time>2026-04-15T06:15:42.999Z</time></trkpt><trkpt lat="45.87019532165671" lon="12.079701396661152"><ele>129.0</ele><time>2026-04-15T06:15:43.999Z</time></trkpt><trkpt lat="45.870117466826535" lon="12.079809522318255"><ele>129.0</ele><time>2026-04-15T06:15:44.999Z</time></trkpt><trkpt lat="45.87003717046744" lon="12.079924651844932"><ele>129.0</ele><time>2026-04-15T06:15:45.999Z</time></trkpt><trkpt lat="45.86995705144553" lon="12.08003877524717"><ele>129.0</ele><time>2026-04-15T06:15:46.999Z</time></trkpt><trkpt lat="45.869882499255844" lon="12.080149999903771"><ele>128.8</ele><time>2026-04-15T06:15:47.999Z</time></trkpt><trkpt lat="45.86980688770128" lon="12.080249864370703"><ele>128.60000000000002</ele><time>2026-04-15T06:15:48.999Z</time></trkpt><trkpt lat="45.86973647904471" lon="12.080362184517153"><ele>128.4</ele><time>2026-04-15T06:15:49.999Z</time></trkpt><trkpt lat="45.86968750946854" lon="12.08047162210375"><ele>128.20000000000002</ele><time>2026-04-15T06:15:50.999Z</time></trkpt><trkpt lat="45.869676750782105" lon="12.080605502143525"><ele>128.0</ele><time>2026-04-15T06:15:51.999Z</time></trkpt><trkpt lat="45.869692134361614" lon="12.080743474711637"><ele>128.16666666666666</ele><time>2026-04-15T06:15:52.999Z</time></trkpt><trkpt lat="45.86971791044365" lon="12.080877667996832"><ele>128.33333333333331</ele><time>2026-04-15T06:15:53.999Z</time></trkpt><trkpt lat="45.86973759886614" lon="12.08100513241747"><ele>128.5</ele><time>2026-04-15T06:15:54.999Z</time></trkpt><trkpt lat="45.869743184817395" lon="12.081128834404746"><ele>128.66666666666666</ele><time>2026-04-15T06:15:55.999Z</time></trkpt><trkpt lat="45.86974345118774" lon="12.081243583989982"><ele>128.83333333333334</ele><time>2026-04-15T06:15:56.999Z</time></trkpt><trkpt lat="45.8697451801279" lon="12.081361179550564"><ele>129.0</ele><time>2026-04-15T06:15:57.999Z</time></trkpt><trkpt lat="45.86974263622599" lon="12.081477649854948"><ele>129.0</ele><time>2026-04-15T06:15:58.999Z</time></trkpt><trkpt lat="45.86971642736267" lon="12.081586393840501"><ele>129.0</ele><time>2026-04-15T06:15:59.999Z</time></trkpt><trkpt lat="45.869660673345756" lon="12.081664841307708"><ele>129.0</ele><time>2026-04-15T06:16:01Z</time></trkpt><trkpt lat="45.869617785573475" lon="12.081731281484192"><ele>129.0</ele><time>2026-04-15T06:16:02Z</time></trkpt><trkpt lat="45.869503052613155" lon="12.081722537586785"><ele>129.0</ele><time>2026-04-15T06:16:03Z</time></trkpt><trkpt lat="45.869411576146454" lon="12.0817255888491"><ele>129.0</ele><time>2026-04-15T06:16:04Z</time></trkpt><trkpt lat="45.86931561456776" lon="12.08171611467037"><ele>129.0</ele><time>2026-04-15T06:16:05Z</time></trkpt><trkpt lat="45.86922158044493" lon="12.081714277080913"><ele>129.0</ele><time>2026-04-15T06:16:06Z</time></trkpt><trkpt lat="45.86912428268689" lon="12.081714646770045"><ele>129.0</ele><time>2026-04-15T06:16:07Z</time></trkpt><trkpt lat="45.86902915945716" lon="12.081717294637214"><ele>129.0</ele><time>2026-04-15T06:16:08Z</time></trkpt><trkpt lat="45.86893646526416" lon="12.08172087682907"><ele>129.0</ele><time>2026-04-15T06:16:09Z</time></trkpt><trkpt lat="45.86884741956236" lon="12.081721685646748"><ele>129.0</ele><time>2026-04-15T06:16:10Z</time></trkpt><trkpt lat="45.86876052988376" lon="12.08172226600404"><ele>129.0</ele><time>2026-04-15T06:16:11Z</time></trkpt><trkpt lat="45.868664498808" lon="12.081720169518617"><ele>129.0</ele><time>2026-04-15T06:16:12Z</time></trkpt><trkpt lat="45.8685717748939" lon="12.08172268801625"><ele>129.0</ele><time>2026-04-15T06:16:13Z</time></trkpt><trkpt lat="45.86847936702873" lon="12.081724621305439"><ele>129.0</ele><time>2026-04-15T06:16:14Z</time></trkpt><trkpt lat="45.868384749442306" lon="12.0817247849124"><ele>129.0</ele><time>2026-04-15T06:16:15Z</time></trkpt><trkpt lat="45.86829059160943" lon="12.081726738071497"><ele>129.0</ele><time>2026-04-15T06:16:16Z</time></trkpt><trkpt lat="45.86819662174711" lon="12.081728611495905"><ele>129.0</ele><time>2026-04-15T06:16:17Z</time></trkpt><trkpt lat="45.868100957525364" lon="12.08172911878933"><ele>129.0</ele><time>2026-04-15T06:16:18Z</time></trkpt><trkpt lat="45.868003977257615" lon="12.081729871825333"><ele>129.0</ele><time>2026-04-15T06:16:19Z</time></trkpt><trkpt lat="45.867900817889044" lon="12.081730071179502"><ele>129.0</ele><time>2026-04-15T06:16:20Z</time></trkpt><trkpt lat="45.86779103828201" lon="12.08172992752433"><ele>129.0</ele><time>2026-04-15T06:16:21Z</time></trkpt><trkpt lat="45.8676746949394" lon="12.08173236828318"><ele>129.0</ele><time>2026-04-15T06:16:22Z</time></trkpt><trkpt lat="45.86756310019327" lon="12.08173553792155"><ele>129.0</ele><time>2026-04-15T06:16:23Z</time></trkpt><trkpt lat="45.86745096990865" lon="12.081737345967351"><ele>129.25</ele><time>2026-04-15T06:16:24Z</time></trkpt><trkpt lat="45.86733153756853" lon="12.081740732115145"><ele>129.5</ele><time>2026-04-15T06:16:25Z</time></trkpt><trkpt lat="45.86720793628949" lon="12.081742189531932"><ele>129.75</ele><time>2026-04-15T06:16:26Z</time></trkpt><trkpt lat="45.86707629165093" lon="12.08174390165502"><ele>130.0</ele><time>2026-04-15T06:16:27Z</time></trkpt><trkpt lat="45.866935994912076" lon="12.081748768794142"><ele>130.0</ele><time>2026-04-15T06:16:28Z</time></trkpt><trkpt lat="45.86679021768851" lon="12.081746858358482"><ele>130.0</ele><time>2026-04-15T06:16:28.999Z</time></trkpt><trkpt lat="45.86664312570367" lon="12.081748135011516"><ele>130.0</ele><time>2026-04-15T06:16:29.999Z</time></trkpt><trkpt lat="45.86650595918951" lon="12.081753608102042"><ele>130.0</ele><time>2026-04-15T06:16:30.999Z</time></trkpt><trkpt lat="45.866363695690836" lon="12.081760590403706"><ele>130.25</ele><time>2026-04-15T06:16:31.999Z</time></trkpt><trkpt lat="45.86622614569272" lon="12.081758958531273"><ele>130.5</ele><time>2026-04-15T06:16:32.999Z</time></trkpt><trkpt lat="45.866089034788125" lon="12.081754844756784"><ele>130.75</ele><time>2026-04-15T06:16:33.999Z</time></trkpt><trkpt lat="45.86595213351031" lon="12.081750173289052"><ele>131.0</ele><time>2026-04-15T06:16:34.999Z</time></trkpt><trkpt lat="45.86581237229891" lon="12.081742560575474"><ele>130.5</ele><time>2026-04-15T06:16:35.999Z</time></trkpt><trkpt lat="45.86567123712145" lon="12.081736095081459"><ele>130.0</ele><time>2026-04-15T06:16:36.999Z</time></trkpt><trkpt lat="45.86552662555705" lon="12.081733791355175"><ele>129.5</ele><time>2026-04-15T06:16:37.999Z</time></trkpt><trkpt lat="45.865382086517755" lon="12.081733448492182"><ele>129.0</ele><time>2026-04-15T06:16:38.999Z</time></trkpt><trkpt lat="45.8652363103647" lon="12.081734894482222"><ele>128.5</ele><time>2026-04-15T06:16:39.999Z</time></trkpt><trkpt lat="45.86508999637503" lon="12.081728886095037"><ele>128.0</ele><time>2026-04-15T06:16:40.999Z</time></trkpt><trkpt lat="45.86494737039996" lon="12.081725676038396"><ele>127.5</ele><time>2026-04-15T06:16:41.999Z</time></trkpt><trkpt lat="45.86480166493099" lon="12.081721361610565"><ele>127.0</ele><time>2026-04-15T06:16:42.999Z</time></trkpt><trkpt lat="45.86466527397347" lon="12.081730952909236"><ele>127.0</ele><time>2026-04-15T06:16:43.999Z</time></trkpt><trkpt lat="45.864526805698695" lon="12.081744676361767"><ele>127.0</ele><time>2026-04-15T06:16:44.999Z</time></trkpt><trkpt lat="45.864395471205164" lon="12.081781594479"><ele>127.0</ele><time>2026-04-15T06:16:45.999Z</time></trkpt><trkpt lat="45.864264638727406" lon="12.081812035731652"><ele>127.0</ele><time>2026-04-15T06:16:46.999Z</time></trkpt><trkpt lat="45.86413544562468" lon="12.081863313498243"><ele>128.0</ele><time>2026-04-15T06:16:47.999Z</time></trkpt><trkpt lat="45.864010328666126" lon="12.081913733176556"><ele>129.0</ele><time>2026-04-15T06:16:48.999Z</time></trkpt><trkpt lat="45.863891528750834" lon="12.08197537587693"><ele>130.0</ele><time>2026-04-15T06:16:49.999Z</time></trkpt><trkpt lat="45.86377463245017" lon="12.082030909625157"><ele>131.0</ele><time>2026-04-15T06:16:50.999Z</time></trkpt><trkpt lat="45.863657499514396" lon="12.08208483210399"><ele>131.0</ele><time>2026-04-15T06:16:51.999Z</time></trkpt><trkpt lat="45.863541529399455" lon="12.082136406818366"><ele>131.0</ele><time>2026-04-15T06:16:52.999Z</time></trkpt><trkpt lat="45.86342696378133" lon="12.082185611181409"><ele>131.0</ele><time>2026-04-15T06:16:53.999Z</time></trkpt><trkpt lat="45.863316978866536" lon="12.08223671676525"><ele>131.0</ele><time>2026-04-15T06:16:54.999Z</time></trkpt><trkpt lat="45.86320898248747" lon="12.0822885484792"><ele>131.4</ele><time>2026-04-15T06:16:55.999Z</time></trkpt><trkpt lat="45.863105398257275" lon="12.082338800490628"><ele>131.8</ele><time>2026-04-15T06:16:56.999Z</time></trkpt><trkpt lat="45.86300574893401" lon="12.082387319518606"><ele>132.20000000000002</ele><time>2026-04-15T06:16:57.999Z</time></trkpt><trkpt lat="45.86290623017589" lon="12.082425799398129"><ele>132.6</ele><time>2026-04-15T06:16:58.999Z</time></trkpt><trkpt lat="45.8628341715238" lon="12.082466746220604"><ele>133.0</ele><time>2026-04-15T06:16:59.999Z</time></trkpt><trkpt lat="45.86276297113687" lon="12.082499371341633"><ele>133.0</ele><time>2026-04-15T06:17:00.999Z</time></trkpt><trkpt lat="45.86266305227332" lon="12.082541574096812"><ele>133.0</ele><time>2026-04-15T06:17:02.999Z</time></trkpt><trkpt lat="45.86258758171837" lon="12.082577697580117"><ele>133.0</ele><time>2026-04-15T06:17:53.999Z</time></trkpt><trkpt lat="45.862595221451656" lon="12.082697028507486"><ele>133.0</ele><time>2026-04-15T06:17:54.999Z</time></trkpt><trkpt lat="45.8626415142065" lon="12.082850308449672"><ele>133.0</ele><time>2026-04-15T06:17:56.999Z</time></trkpt><trkpt lat="45.86268802289655" lon="12.083000131455485"><ele>133.0</ele><time>2026-04-15T06:17:58.999Z</time></trkpt><trkpt lat="45.86271355779681" lon="12.083091247658757"><ele>133.0</ele><time>2026-04-15T06:17:59.999Z</time></trkpt><trkpt lat="45.86274185439897" lon="12.083200374979887"><ele>133.0</ele><time>2026-04-15T06:18:00.999Z</time></trkpt><trkpt lat="45.86277051415021" lon="12.083329467463246"><ele>133.0</ele><time>2026-04-15T06:18:01.999Z</time></trkpt><trkpt lat="45.8628040395299" lon="12.083475403429086"><ele>133.0</ele><time>2026-04-15T06:18:02.999Z</time></trkpt><trkpt lat="45.86284238139623" lon="12.083627643138081"><ele>132.25</ele><time>2026-04-15T06:18:03.999Z</time></trkpt><trkpt lat="45.8628796013373" lon="12.083787964171254"><ele>131.5</ele><time>2026-04-15T06:18:04.998Z</time></trkpt><trkpt lat="45.86291590368543" lon="12.083944626914473"><ele>130.75</ele><time>2026-04-15T06:18:06Z</time></trkpt><trkpt lat="45.862954939616536" lon="12.084103162456246"><ele>130.0</ele><time>2026-04-15T06:18:07Z</time></trkpt><trkpt lat="45.86299452090965" lon="12.084271931890264"><ele>129.5</ele><time>2026-04-15T06:18:08Z</time></trkpt><trkpt lat="45.863039008730404" lon="12.084448462313887"><ele>129.0</ele><time>2026-04-15T06:18:09Z</time></trkpt><trkpt lat="45.863085624019874" lon="12.084634239195742"><ele>128.5</ele><time>2026-04-15T06:18:10Z</time></trkpt><trkpt lat="45.86313445673889" lon="12.084835287306525"><ele>128.0</ele><time>2026-04-15T06:18:11Z</time></trkpt><trkpt lat="45.8631845575065" lon="12.085049753028832"><ele>128.0</ele><time>2026-04-15T06:18:12Z</time></trkpt><trkpt lat="45.86323834520903" lon="12.08527654201655"><ele>128.0</ele><time>2026-04-15T06:18:13Z</time></trkpt><trkpt lat="45.863297133135504" lon="12.085515331889681"><ele>128.0</ele><time>2026-04-15T06:18:14Z</time></trkpt><trkpt lat="45.86335853258563" lon="12.085765546983986"><ele>128.0</ele><time>2026-04-15T06:18:15Z</time></trkpt><trkpt lat="45.86341985067607" lon="12.086024648590612"><ele>128.0</ele><time>2026-04-15T06:18:16Z</time></trkpt><trkpt lat="45.863483809678456" lon="12.086291350356017"><ele>128.0</ele><time>2026-04-15T06:18:17Z</time></trkpt><trkpt lat="45.86355060957561" lon="12.086559361234217"><ele>127.66666666666666</ele><time>2026-04-15T06:18:18Z</time></trkpt><trkpt lat="45.86361790419139" lon="12.086821385984042"><ele>127.33333333333334</ele><time>2026-04-15T06:18:19Z</time></trkpt><trkpt lat="45.8636854718446" lon="12.0870878813061"><ele>127.0</ele><time>2026-04-15T06:18:20Z</time></trkpt><trkpt lat="45.86375363040841" lon="12.087360071637127"><ele>127.0</ele><time>2026-04-15T06:18:21Z</time></trkpt><trkpt lat="45.863822942690376" lon="12.087639813630883"><ele>127.0</ele><time>2026-04-15T06:18:22Z</time></trkpt><trkpt lat="45.863891415573725" lon="12.087919913664242"><ele>127.0</ele><time>2026-04-15T06:18:23Z</time></trkpt><trkpt lat="45.86395384204534" lon="12.088193800943454"><ele>127.0</ele><time>2026-04-15T06:18:24Z</time></trkpt><trkpt lat="45.8640104076436" lon="12.08846407763484"><ele>127.0</ele><time>2026-04-15T06:18:25Z</time></trkpt><trkpt lat="45.86405461980193" lon="12.088732508525215"><ele>127.0</ele><time>2026-04-15T06:18:26Z</time></trkpt><trkpt lat="45.86408966815313" lon="12.089003651551542"><ele>126.66666666666667</ele><time>2026-04-15T06:18:27Z</time></trkpt><trkpt lat="45.86411719188639" lon="12.089276740007595"><ele>126.33333333333334</ele><time>2026-04-15T06:18:27.999Z</time></trkpt><trkpt lat="45.864135456397086" lon="12.089550681635465"><ele>126.0</ele><time>2026-04-15T06:18:28.999Z</time></trkpt><trkpt lat="45.864151884742775" lon="12.089816379095168"><ele>126.0</ele><time>2026-04-15T06:18:29.999Z</time></trkpt><trkpt lat="45.8641685581629" lon="12.090071937548629"><ele>126.0</ele><time>2026-04-15T06:18:30.999Z</time></trkpt><trkpt lat="45.86418496495074" lon="12.090321539110503"><ele>126.0</ele><time>2026-04-15T06:18:31.999Z</time></trkpt><trkpt lat="45.86420173276183" lon="12.090565322102469"><ele>126.0</ele><time>2026-04-15T06:18:32.999Z</time></trkpt><trkpt lat="45.864217874726066" lon="12.090804203659316"><ele>126.0</ele><time>2026-04-15T06:18:33.999Z</time></trkpt><trkpt lat="45.864232627071864" lon="12.091038004320705"><ele>126.0</ele><time>2026-04-15T06:18:34.999Z</time></trkpt><trkpt lat="45.86424590391868" lon="12.091266494959742"><ele>126.0</ele><time>2026-04-15T06:18:35.999Z</time></trkpt><trkpt lat="45.864254139791655" lon="12.091489363464186"><ele>126.0</ele><time>2026-04-15T06:18:36.999Z</time></trkpt><trkpt lat="45.86425193159135" lon="12.091707454226498"><ele>126.0</ele><time>2026-04-15T06:18:37.999Z</time></trkpt><trkpt lat="45.864242779801266" lon="12.091921025740902"><ele>126.0</ele><time>2026-04-15T06:18:38.999Z</time></trkpt><trkpt lat="45.86422749866596" lon="12.092129088422805"><ele>126.0</ele><time>2026-04-15T06:18:39.999Z</time></trkpt><trkpt lat="45.864207636410555" lon="12.092332779608693"><ele>126.0</ele><time>2026-04-15T06:18:40.999Z</time></trkpt><trkpt lat="45.864182007873254" lon="12.092534058079114"><ele>126.0</ele><time>2026-04-15T06:18:41.999Z</time></trkpt><trkpt lat="45.86415420152448" lon="12.092736299834236"><ele>126.0</ele><time>2026-04-15T06:18:42.999Z</time></trkpt><trkpt lat="45.8641298329379" lon="12.092935256550598"><ele>126.0</ele><time>2026-04-15T06:18:43.999Z</time></trkpt><trkpt lat="45.864106475422126" lon="12.093129144632607"><ele>126.0</ele><time>2026-04-15T06:18:44.999Z</time></trkpt><trkpt lat="45.864082468432976" lon="12.093319713913825"><ele>126.0</ele><time>2026-04-15T06:18:45.999Z</time></trkpt><trkpt lat="45.864060303163235" lon="12.093506145602598"><ele>126.0</ele><time>2026-04-15T06:18:46.999Z</time></trkpt><trkpt lat="45.864038333119744" lon="12.093688400532878"><ele>126.0</ele><time>2026-04-15T06:18:47.999Z</time></trkpt><trkpt lat="45.864017064274876" lon="12.093867966587593"><ele>126.0</ele><time>2026-04-15T06:18:48.999Z</time></trkpt><trkpt lat="45.86399639065202" lon="12.09404380231469"><ele>126.0</ele><time>2026-04-15T06:18:49.999Z</time></trkpt><trkpt lat="45.863975799137066" lon="12.094215755232582"><ele>126.16666666666667</ele><time>2026-04-15T06:18:50.999Z</time></trkpt><trkpt lat="45.86395471456585" lon="12.094370685018335"><ele>126.33333333333334</ele><time>2026-04-15T06:18:51.999Z</time></trkpt><trkpt lat="45.863931286506066" lon="12.094495945569875"><ele>126.5</ele><time>2026-04-15T06:18:52.999Z</time></trkpt><trkpt lat="45.86390896118722" lon="12.094585193939386"><ele>126.66666666666667</ele><time>2026-04-15T06:18:53.999Z</time></trkpt><trkpt lat="45.863882778219825" lon="12.094681613624235"><ele>126.83333333333334</ele><time>2026-04-15T06:18:55.999Z</time></trkpt><trkpt lat="45.86389687149465" lon="12.09477974516731"><ele>127.0</ele><time>2026-04-15T06:19:50.999Z</time></trkpt><trkpt lat="45.863886650308714" lon="12.094952290556162"><ele>126.66666666666667</ele><time>2026-04-15T06:19:52.999Z</time></trkpt><trkpt lat="45.86387621030105" lon="12.095057255126953"><ele>126.33333333333334</ele><time>2026-04-15T06:19:53.999Z</time></trkpt><trkpt lat="45.86386771810443" lon="12.09516502542431"><ele>126.0</ele><time>2026-04-15T06:19:54.999Z</time></trkpt><trkpt lat="45.86385946589826" lon="12.095285461489324"><ele>125.66666666666666</ele><time>2026-04-15T06:19:55.999Z</time></trkpt><trkpt lat="45.863851360680755" lon="12.095414472923133"><ele>125.33333333333333</ele><time>2026-04-15T06:19:56.999Z</time></trkpt><trkpt lat="45.863845384211615" lon="12.095534976149704"><ele>125.0</ele><time>2026-04-15T06:19:57.999Z</time></trkpt><trkpt lat="45.863840219644935" lon="12.095633978875423"><ele>125.25</ele><time>2026-04-15T06:19:58.999Z</time></trkpt><trkpt lat="45.863829937093065" lon="12.095799898135317"><ele>125.5</ele><time>2026-04-15T06:20:00.999Z</time></trkpt><trkpt lat="45.86381533146392" lon="12.095973575428808"><ele>125.75</ele><time>2026-04-15T06:20:02.999Z</time></trkpt><trkpt lat="45.8640033464091" lon="12.095981182214606"><ele>126.0</ele><time>2026-04-15T06:20:03.998Z</time></trkpt><trkpt lat="45.86408922369901" lon="12.096060175986919"><ele>126.0</ele><time>2026-04-15T06:20:04.998Z</time></trkpt><trkpt lat="45.86418522110638" lon="12.096155564654344"><ele>126.0</ele><time>2026-04-15T06:20:05.998Z</time></trkpt><trkpt lat="45.8642944777174" lon="12.096266989162382"><ele>126.0</ele><time>2026-04-15T06:20:06.998Z</time></trkpt><trkpt lat="45.86441186476816" lon="12.09639168265361"><ele>126.0</ele><time>2026-04-15T06:20:07.998Z</time></trkpt><trkpt lat="45.86451352943639" lon="12.096528042421332"><ele>125.75</ele><time>2026-04-15T06:20:08.998Z</time></trkpt><trkpt lat="45.86461701678802" lon="12.096663384423742"><ele>125.5</ele><time>2026-04-15T06:20:09.998Z</time></trkpt><trkpt lat="45.86472518561517" lon="12.0968041428641"><ele>125.25</ele><time>2026-04-15T06:20:10.998Z</time></trkpt><trkpt lat="45.86483463756708" lon="12.096948174186636"><ele>125.0</ele><time>2026-04-15T06:20:12Z</time></trkpt><trkpt lat="45.86494191705565" lon="12.097087937099145"><ele>125.0</ele><time>2026-04-15T06:20:13Z</time></trkpt><trkpt lat="45.865048034224856" lon="12.097218611205584"><ele>125.0</ele><time>2026-04-15T06:20:14Z</time></trkpt><trkpt lat="45.8651517794528" lon="12.097341080887265"><ele>125.0</ele><time>2026-04-15T06:20:15Z</time></trkpt><trkpt lat="45.8652414125899" lon="12.09745311145095"><ele>125.0</ele><time>2026-04-15T06:20:16Z</time></trkpt><trkpt lat="45.865314380149044" lon="12.097552960259502"><ele>125.0</ele><time>2026-04-15T06:20:17Z</time></trkpt><trkpt lat="45.86537222441312" lon="12.097633521985472"><ele>125.0</ele><time>2026-04-15T06:20:18Z</time></trkpt><trkpt lat="45.865446132321985" lon="12.09771484736702"><ele>125.0</ele><time>2026-04-15T06:20:20Z</time></trkpt><trkpt lat="45.865532102150446" lon="12.097581114419247"><ele>125.0</ele><time>2026-04-15T06:20:22Z</time></trkpt><trkpt lat="45.86554462222252" lon="12.09743503195836"><ele>125.0</ele><time>2026-04-15T06:20:24Z</time></trkpt><trkpt lat="45.86555468435539" lon="12.097332659700987"><ele>125.16666666666666</ele><time>2026-04-15T06:20:25Z</time></trkpt><trkpt lat="45.86557019000923" lon="12.097231263072933"><ele>125.33333333333333</ele><time>2026-04-15T06:20:26Z</time></trkpt><trkpt lat="45.86558678154638" lon="12.09713044779592"><ele>125.5</ele><time>2026-04-15T06:20:27Z</time></trkpt><trkpt lat="45.86560359610214" lon="12.097014274812345"><ele>125.66666666666666</ele><time>2026-04-15T06:20:28Z</time></trkpt><trkpt lat="45.86562103700367" lon="12.096881692375703"><ele>125.83333333333333</ele><time>2026-04-15T06:20:29Z</time></trkpt><trkpt lat="45.865639725887526" lon="12.096736316121762"><ele>126.0</ele><time>2026-04-15T06:20:30Z</time></trkpt><trkpt lat="45.865665405861314" lon="12.096592561121485"><ele>126.0</ele><time>2026-04-15T06:20:30.999Z</time></trkpt><trkpt lat="45.86568592897345" lon="12.09645406097869"><ele>126.0</ele><time>2026-04-15T06:20:31.999Z</time></trkpt><trkpt lat="45.86570966092068" lon="12.096305784601755"><ele>126.0</ele><time>2026-04-15T06:20:32.999Z</time></trkpt><trkpt lat="45.86573545244109" lon="12.096154986110085"><ele>126.0</ele><time>2026-04-15T06:20:33.999Z</time></trkpt><trkpt lat="45.865756897247095" lon="12.096033247824264"><ele>126.0</ele><time>2026-04-15T06:20:34.999Z</time></trkpt><trkpt lat="45.86577789621427" lon="12.095931660997094"><ele>126.0</ele><time>2026-04-15T06:20:36.999Z</time></trkpt><trkpt lat="45.865886792886364" lon="12.09596888982317"><ele>126.0</ele><time>2026-04-15T06:20:39.999Z</time></trkpt><trkpt lat="45.86595382443021" lon="12.095989171207233"><ele>126.0</ele><time>2026-04-15T06:20:40.999Z</time></trkpt><trkpt lat="45.86602317891507" lon="12.096022871320908"><ele>126.0</ele><time>2026-04-15T06:20:41.999Z</time></trkpt><trkpt lat="45.866088149578445" lon="12.096060067828295"><ele>126.0</ele><time>2026-04-15T06:20:42.999Z</time></trkpt><trkpt lat="45.86615773334857" lon="12.096108311827235"><ele>126.0</ele><time>2026-04-15T06:20:43.999Z</time></trkpt><trkpt lat="45.866207824704766" lon="12.09616878857633"><ele>125.71428571428572</ele><time>2026-04-15T06:20:44.999Z</time></trkpt><trkpt lat="45.86623087324321" lon="12.09626757225405"><ele>125.42857142857143</ele><time>2026-04-15T06:20:46.999Z</time></trkpt><trkpt lat="45.86621214576221" lon="12.09637136432369"><ele>125.14285714285714</ele><time>2026-04-15T06:21:47.999Z</time></trkpt><trkpt lat="45.86618102149121" lon="12.09645787174446"><ele>124.85714285714286</ele><time>2026-04-15T06:21:49.999Z</time></trkpt><trkpt lat="45.866198847373575" lon="12.09657173668827"><ele>124.57142857142858</ele><time>2026-04-15T06:22:46.999Z</time></trkpt><trkpt lat="45.86618577615821" lon="12.096683770639725"><ele>124.28571428571429</ele><time>2026-04-15T06:22:50.999Z</time></trkpt><trkpt lat="45.8661651502994" lon="12.096775474187424"><ele>124.0</ele><time>2026-04-15T06:22:52.999Z</time></trkpt><trkpt lat="45.86613641498605" lon="12.096894372007792"><ele>124.00000000000001</ele><time>2026-04-15T06:22:55Z</time></trkpt><trkpt lat="45.8661111022144" lon="12.097025426569179"><ele>124.0</ele><time>2026-04-15T06:22:57Z</time></trkpt><trkpt lat="45.866089390850036" lon="12.097151383535095"><ele>124.0</ele><time>2026-04-15T06:22:59Z</time></trkpt><trkpt lat="45.86609221027223" lon="12.097245273746557"><ele>124.0</ele><time>2026-04-15T06:23:46Z</time></trkpt><trkpt lat="45.866063119609144" lon="12.097346940245579"><ele>124.00000000000001</ele><time>2026-04-15T06:23:48Z</time></trkpt><trkpt lat="45.86603508602578" lon="12.097468812643816"><ele>124.0</ele><time>2026-04-15T06:24:46Z</time></trkpt><trkpt lat="45.8660301735379" lon="12.09759268842607"><ele>123.83333333333334</ele><time>2026-04-15T06:25:29Z</time></trkpt><trkpt lat="45.866009166175175" lon="12.097690963831981"><ele>123.66666666666667</ele><time>2026-04-15T06:25:31Z</time></trkpt><trkpt lat="45.865979981556734" lon="12.097804623823608"><ele>123.5</ele><time>2026-04-15T06:26:33Z</time></trkpt><trkpt lat="45.86598293754132" lon="12.097900121724145"><ele>123.33333333333334</ele><time>2026-04-15T06:27:26Z</time></trkpt><trkpt lat="45.86595996289617" lon="12.09805848598068"><ele>123.16666666666667</ele><time>2026-04-15T06:27:28Z</time></trkpt><trkpt lat="45.865941845934145" lon="12.098150257917096"><ele>123.0</ele><time>2026-04-15T06:27:29Z</time></trkpt><trkpt lat="45.86591767376094" lon="12.098245301528074"><ele>123.2</ele><time>2026-04-15T06:27:32Z</time></trkpt><trkpt lat="45.86597983193272" lon="12.098390342563485"><ele>123.4</ele><time>2026-04-15T06:27:35Z</time></trkpt><trkpt lat="45.8660457132742" lon="12.098489613972665"><ele>123.60000000000001</ele><time>2026-04-15T06:27:37Z</time></trkpt><trkpt lat="45.86608459315035" lon="12.098597318051125"><ele>123.80000000000001</ele><time>2026-04-15T06:29:12Z</time></trkpt><trkpt lat="45.866161484800976" lon="12.098670105039059"><ele>124.0</ele><time>2026-04-15T06:29:14Z</time></trkpt><trkpt lat="45.8662109697132" lon="12.098733579673883"><ele>124.00000000000001</ele><time>2026-04-15T06:29:17Z</time></trkpt><trkpt lat="45.866281241613535" lon="12.098735052374192"><ele>124.0</ele><time>2026-04-15T06:29:19Z</time></trkpt><trkpt lat="45.86632734259299" lon="12.098650304726037"><ele>124.0</ele><time>2026-04-15T06:29:20Z</time></trkpt><trkpt lat="45.86638088068349" lon="12.09856043214157"><ele>124.0</ele><time>2026-04-15T06:29:21Z</time></trkpt><trkpt lat="45.86643542508072" lon="12.09847662912842"><ele>124.00000000000001</ele><time>2026-04-15T06:29:22Z</time></trkpt><trkpt lat="45.8664894963717" lon="12.098375455755223"><ele>124.0</ele><time>2026-04-15T06:29:23Z</time></trkpt><trkpt lat="45.86655115109369" lon="12.09828025558869"><ele>123.75</ele><time>2026-04-15T06:29:24Z</time></trkpt><trkpt lat="45.86656838782151" lon="12.098131411190304"><ele>123.5</ele><time>2026-04-15T06:29:25Z</time></trkpt><trkpt lat="45.86659402657128" lon="12.09797799525076"><ele>123.25</ele><time>2026-04-15T06:29:26Z</time></trkpt><trkpt lat="45.86662034420855" lon="12.097808432292961"><ele>123.0</ele><time>2026-04-15T06:29:27Z</time></trkpt><trkpt lat="45.866644105231515" lon="12.097631478480936"><ele>123.0</ele><time>2026-04-15T06:29:28Z</time></trkpt><trkpt lat="45.866669822338" lon="12.097468890111779"><ele>123.00000000000001</ele><time>2026-04-15T06:29:29Z</time></trkpt><trkpt lat="45.866691200143165" lon="12.097337144673878"><ele>123.00000000000001</ele><time>2026-04-15T06:29:30Z</time></trkpt><trkpt lat="45.866707712398075" lon="12.09723020195352"><ele>123.0</ele><time>2026-04-15T06:29:31Z</time></trkpt><trkpt lat="45.86672845363982" lon="12.097095558381481"><ele>123.0</ele><time>2026-04-15T06:29:33Z</time></trkpt><trkpt lat="45.866661429384216" lon="12.097148487176618"><ele>123.0</ele><time>2026-04-15T06:30:59Z</time></trkpt><trkpt lat="45.866661259674764" lon="12.097245525150996"><ele>123.0</ele><time>2026-04-15T06:31:00Z</time></trkpt><trkpt lat="45.866648769531814" lon="12.097359923878455"><ele>123.0</ele><time>2026-04-15T06:31:01Z</time></trkpt><trkpt lat="45.86663499462851" lon="12.09748534643618"><ele>123.0</ele><time>2026-04-15T06:31:02Z</time></trkpt><trkpt lat="45.86661984501252" lon="12.097608980624775"><ele>123.0</ele><time>2026-04-15T06:31:03Z</time></trkpt><trkpt lat="45.86660266819029" lon="12.097745111978478"><ele>123.0</ele><time>2026-04-15T06:31:04Z</time></trkpt><trkpt lat="45.866577764987966" lon="12.09789602792846"><ele>123.0</ele><time>2026-04-15T06:31:05Z</time></trkpt><trkpt lat="45.86654997358723" lon="12.098052758416554"><ele>123.00000000000001</ele><time>2026-04-15T06:31:06Z</time></trkpt><trkpt lat="45.866524359018285" lon="12.098188596096835"><ele>123.00000000000001</ele><time>2026-04-15T06:31:07Z</time></trkpt><trkpt lat="45.866491058853335" lon="12.098303105261628"><ele>123.0</ele><time>2026-04-15T06:31:08Z</time></trkpt><trkpt lat="45.866436675859745" lon="12.098397779058047"><ele>123.0</ele><time>2026-04-15T06:31:09Z</time></trkpt><trkpt lat="45.86636928389704" lon="12.098480370430815"><ele>123.16666666666667</ele><time>2026-04-15T06:31:10Z</time></trkpt><trkpt lat="45.86630989225555" lon="12.098553601929742"><ele>123.33333333333334</ele><time>2026-04-15T06:31:11Z</time></trkpt><trkpt lat="45.86625781532646" lon="12.098633195677266"><ele>123.5</ele><time>2026-04-15T06:31:16Z</time></trkpt><trkpt lat="45.86623871274121" lon="12.098735613051591"><ele>123.66666666666667</ele><time>2026-04-15T06:31:20Z</time></trkpt><trkpt lat="45.866306297996935" lon="12.09886345797274"><ele>123.83333333333334</ele><time>2026-04-15T06:31:22Z</time></trkpt><trkpt lat="45.86635737396212" lon="12.098928178888535"><ele>124.0</ele><time>2026-04-15T06:31:23Z</time></trkpt><trkpt lat="45.86640648952502" lon="12.09899720025169"><ele>124.00000000000001</ele><time>2026-04-15T06:31:24Z</time></trkpt><trkpt lat="45.866454462896506" lon="12.09906920313493"><ele>124.0</ele><time>2026-04-15T06:31:25Z</time></trkpt><trkpt lat="45.86650310264457" lon="12.099154614533466"><ele>124.0</ele><time>2026-04-15T06:31:26Z</time></trkpt><trkpt lat="45.86653863289677" lon="12.09923159294811"><ele>124.0</ele><time>2026-04-15T06:31:27Z</time></trkpt><trkpt lat="45.86653581877772" lon="12.099342379790556"><ele>124.00000000000001</ele><time>2026-04-15T06:31:29Z</time></trkpt><trkpt lat="45.86643672999492" lon="12.09935968976835"><ele>124.0</ele><time>2026-04-15T06:31:32Z</time></trkpt><trkpt lat="45.86634395778533" lon="12.099302837518543"><ele>124.0</ele><time>2026-04-15T06:32:26.999Z</time></trkpt><trkpt lat="45.86619777063492" lon="12.099313947914348"><ele>124.0</ele><time>2026-04-15T06:32:28.999Z</time></trkpt><trkpt lat="45.86612787221976" lon="12.099289704246537"><ele>124.0</ele><time>2026-04-15T06:32:29.999Z</time></trkpt><trkpt lat="45.86604718504575" lon="12.099324267494943"><ele>124.0</ele><time>2026-04-15T06:33:18Z</time></trkpt><trkpt lat="45.86593186191006" lon="12.099330254284215"><ele>124.0</ele><time>2026-04-15T06:33:20Z</time></trkpt><trkpt lat="45.86584520044135" lon="12.099330539781091"><ele>124.0</ele><time>2026-04-15T06:33:21Z</time></trkpt><trkpt lat="45.86576089173102" lon="12.09932984797827"><ele>124.0</ele><time>2026-04-15T06:33:22Z</time></trkpt><trkpt lat="45.86566925066769" lon="12.099326668933752"><ele>124.0</ele><time>2026-04-15T06:33:23Z</time></trkpt><trkpt lat="45.86557019264726" lon="12.099323420401758"><ele>124.0</ele><time>2026-04-15T06:33:24Z</time></trkpt><trkpt lat="45.86546594865402" lon="12.099311897174491"><ele>124.0</ele><time>2026-04-15T06:33:25Z</time></trkpt><trkpt lat="45.865360919533394" lon="12.099289095000355"><ele>124.0</ele><time>2026-04-15T06:33:26Z</time></trkpt><trkpt lat="45.86527715099411" lon="12.09927587346482"><ele>124.0</ele><time>2026-04-15T06:33:27Z</time></trkpt><trkpt lat="45.8651929904476" lon="12.0992423303602"><ele>124.0</ele><time>2026-04-15T06:33:29Z</time></trkpt><trkpt lat="45.86521600308937" lon="12.099133538687552"><ele>124.0</ele><time>2026-04-15T06:33:31Z</time></trkpt><trkpt lat="45.86523263839428" lon="12.09895408851224"><ele>124.0</ele><time>2026-04-15T06:33:33Z</time></trkpt><trkpt lat="45.865269518281366" lon="12.098848366797085"><ele>123.80000000000001</ele><time>2026-04-15T06:33:34Z</time></trkpt><trkpt lat="45.86531568362769" lon="12.09875279564911"><ele>123.60000000000001</ele><time>2026-04-15T06:33:35Z</time></trkpt><trkpt lat="45.86537658015666" lon="12.098659749802492"><ele>123.4</ele><time>2026-04-15T06:33:36Z</time></trkpt><trkpt lat="45.86545705244387" lon="12.098571415204834"><ele>123.2</ele><time>2026-04-15T06:33:37Z</time></trkpt><trkpt lat="45.86556518572558" lon="12.09850266092416"><ele>123.0</ele><time>2026-04-15T06:33:38Z</time></trkpt><trkpt lat="45.86565113362766" lon="12.098385653875342"><ele>123.0</ele><time>2026-04-15T06:33:39Z</time></trkpt><trkpt lat="45.8657129363305" lon="12.098275023783769"><ele>123.00000000000001</ele><time>2026-04-15T06:33:40Z</time></trkpt><trkpt lat="45.865757516648884" lon="12.098174857116483"><ele>123.00000000000001</ele><time>2026-04-15T06:33:42Z</time></trkpt><trkpt lat="45.86585385857106" lon="12.098229694322395"><ele>123.0</ele><time>2026-04-15T06:33:46Z</time></trkpt><trkpt lat="45.86595962650573" lon="12.098369680238356"><ele>123.0</ele><time>2026-04-15T06:33:48Z</time></trkpt><trkpt lat="45.86602713173876" lon="12.098451787181164"><ele>123.2</ele><time>2026-04-15T06:33:49Z</time></trkpt><trkpt lat="45.86609084379162" lon="12.098534089196047"><ele>123.4</ele><time>2026-04-15T06:33:50Z</time></trkpt><trkpt lat="45.86616589243892" lon="12.098630416638585"><ele>123.60000000000001</ele><time>2026-04-15T06:33:51Z</time></trkpt><trkpt lat="45.86624743286025" lon="12.09873762572222"><ele>123.80000000000001</ele><time>2026-04-15T06:33:52Z</time></trkpt><trkpt lat="45.866336273433696" lon="12.098855406849331"><ele>124.0</ele><time>2026-04-15T06:33:53Z</time></trkpt><trkpt lat="45.86641683761081" lon="12.098974875131768"><ele>124.00000000000001</ele><time>2026-04-15T06:33:54Z</time></trkpt><trkpt lat="45.86648097082825" lon="12.09908834545977"><ele>124.0</ele><time>2026-04-15T06:33:55Z</time></trkpt><trkpt lat="45.86652512243717" lon="12.099190529617193"><ele>124.0</ele><time>2026-04-15T06:33:56Z</time></trkpt><trkpt lat="45.86655414475125" lon="12.099273694908463"><ele>124.0</ele><time>2026-04-15T06:33:57Z</time></trkpt><trkpt lat="45.866591934438695" lon="12.09938324262672"><ele>124.00000000000001</ele><time>2026-04-15T06:33:59Z</time></trkpt><trkpt lat="45.866677094358735" lon="12.099359132689859"><ele>124.0</ele><time>2026-04-15T06:34:00Z</time></trkpt><trkpt lat="45.866804646766745" lon="12.099367425223702"><ele>123.66666666666667</ele><time>2026-04-15T06:34:02Z</time></trkpt><trkpt lat="45.866873797754614" lon="12.099368918727405"><ele>123.33333333333334</ele><time>2026-04-15T06:34:03Z</time></trkpt><trkpt lat="45.86695146511698" lon="12.099369092758565"><ele>123.0</ele><time>2026-04-15T06:34:04Z</time></trkpt><trkpt lat="45.86703699214343" lon="12.099368233056058"><ele>122.66666666666666</ele><time>2026-04-15T06:34:05Z</time></trkpt><trkpt lat="45.86712053832382" lon="12.099366718365566"><ele>122.33333333333333</ele><time>2026-04-15T06:34:06Z</time></trkpt><trkpt lat="45.867197175367" lon="12.099367797060976"><ele>122.0</ele><time>2026-04-15T06:34:07Z</time></trkpt><trkpt lat="45.867281188718955" lon="12.099375810190773"><ele>121.99999999999999</ele><time>2026-04-15T06:34:09Z</time></trkpt><trkpt lat="45.867343581026276" lon="12.099348856330215"><ele>122.0</ele><time>2026-04-15T06:34:13.999Z</time></trkpt><trkpt lat="45.86736506456768" lon="12.099252137916945"><ele>122.0</ele><time>2026-04-15T06:34:15.999Z</time></trkpt><trkpt lat="45.86739858214007" lon="12.099098311145218"><ele>122.0</ele><time>2026-04-15T06:34:17.999Z</time></trkpt><trkpt lat="45.86742126161915" lon="12.099007957899783"><ele>121.99999999999999</ele><time>2026-04-15T06:34:18.999Z</time></trkpt><trkpt lat="45.86744534782315" lon="12.098918792749165"><ele>122.0</ele><time>2026-04-15T06:34:19.999Z</time></trkpt><trkpt lat="45.867466150914666" lon="12.09882366887"><ele>122.14285714285712</ele><time>2026-04-15T06:34:20.999Z</time></trkpt><trkpt lat="45.86748584767699" lon="12.098726454288407"><ele>122.28571428571428</ele><time>2026-04-15T06:34:21.999Z</time></trkpt><trkpt lat="45.867505654444926" lon="12.098627069964115"><ele>122.42857142857143</ele><time>2026-04-15T06:34:22.999Z</time></trkpt><trkpt lat="45.86752026619996" lon="12.098526196151514"><ele>122.57142857142857</ele><time>2026-04-15T06:34:23.999Z</time></trkpt><trkpt lat="45.86752792814932" lon="12.098421630080546"><ele>122.71428571428572</ele><time>2026-04-15T06:34:24.999Z</time></trkpt><trkpt lat="45.86753268118355" lon="12.098313413136806"><ele>122.85714285714288</ele><time>2026-04-15T06:34:25.999Z</time></trkpt><trkpt lat="45.86753559368153" lon="12.098212164720026"><ele>123.00000000000001</ele><time>2026-04-15T06:34:26.999Z</time></trkpt><trkpt lat="45.86753625123915" lon="12.098110011268234"><ele>123.0</ele><time>2026-04-15T06:34:27.999Z</time></trkpt><trkpt lat="45.86754627368795" lon="12.098014400865864"><ele>123.00000000000001</ele><time>2026-04-15T06:35:21Z</time></trkpt><trkpt lat="45.8675489284228" lon="12.098114237794722"><ele>123.00000000000001</ele><time>2026-04-15T06:35:41Z</time></trkpt><trkpt lat="45.86754970678761" lon="12.098204843109391"><ele>123.0</ele><time>2026-04-15T06:35:43Z</time></trkpt><trkpt lat="45.867521440136635" lon="12.0983976927714"><ele>123.0</ele><time>2026-04-15T06:35:46Z</time></trkpt><trkpt lat="45.86749954355965" lon="12.098566979631512"><ele>123.0</ele><time>2026-04-15T06:35:48Z</time></trkpt><trkpt lat="45.8674662602144" lon="12.098744553653404"><ele>123.0</ele><time>2026-04-15T06:35:50Z</time></trkpt><trkpt lat="45.86744263966609" lon="12.098849532177624"><ele>123.0</ele><time>2026-04-15T06:35:51Z</time></trkpt><trkpt lat="45.8674164918608" lon="12.09896124319085"><ele>123.0</ele><time>2026-04-15T06:35:52Z</time></trkpt><trkpt lat="45.86739214815062" lon="12.099068545101098"><ele>123.0</ele><time>2026-04-15T06:35:53Z</time></trkpt><trkpt lat="45.86737111379926" lon="12.099160575926865"><ele>123.0</ele><time>2026-04-15T06:35:54Z</time></trkpt><trkpt lat="45.86735007651808" lon="12.099258103174312"><ele>122.80000000000001</ele><time>2026-04-15T06:35:56Z</time></trkpt><trkpt lat="45.86736831485717" lon="12.099349950750296"><ele>122.60000000000001</ele><time>2026-04-15T06:36:00Z</time></trkpt><trkpt lat="45.86747804598863" lon="12.099406225642149"><ele>122.39999999999999</ele><time>2026-04-15T06:36:02Z</time></trkpt><trkpt lat="45.86754280339873" lon="12.099402326829766"><ele>122.19999999999999</ele><time>2026-04-15T06:36:03Z</time></trkpt><trkpt lat="45.86766568603098" lon="12.099414894989271"><ele>122.0</ele><time>2026-04-15T06:36:05Z</time></trkpt><trkpt lat="45.86773824042563" lon="12.099536573109111"><ele>121.99999999999999</ele><time>2026-04-15T06:36:07Z</time></trkpt><trkpt lat="45.867744041439714" lon="12.099630968622161"><ele>122.0</ele><time>2026-04-15T06:36:08Z</time></trkpt><trkpt lat="45.86772454606894" lon="12.099741092111731"><ele>122.0</ele><time>2026-04-15T06:36:09Z</time></trkpt><trkpt lat="45.8677110924079" lon="12.09986489584405"><ele>122.0</ele><time>2026-04-15T06:36:10Z</time></trkpt><trkpt lat="45.86769789095448" lon="12.099999998726144"><ele>121.99999999999999</ele><time>2026-04-15T06:36:11Z</time></trkpt><trkpt lat="45.867689459408886" lon="12.100108493122292"><ele>122.0</ele><time>2026-04-15T06:36:12Z</time></trkpt><trkpt lat="45.86768118439385" lon="12.100208796700866"><ele>121.83333333333333</ele><time>2026-04-15T06:36:14.999Z</time></trkpt><trkpt lat="45.86768521174463" lon="12.100343837348014"><ele>121.66666666666666</ele><time>2026-04-15T06:36:17.999Z</time></trkpt><trkpt lat="45.86767878262813" lon="12.100447656862709"><ele>121.5</ele><time>2026-04-15T06:36:19.999Z</time></trkpt><trkpt lat="45.86765010582883" lon="12.100593170123515"><ele>121.33333333333334</ele><time>2026-04-15T06:37:47Z</time></trkpt><trkpt lat="45.86766473221606" lon="12.1006833274815"><ele>121.16666666666667</ele><time>2026-04-15T06:37:48Z</time></trkpt><trkpt lat="45.86767106765298" lon="12.100774865267603"><ele>121.0</ele><time>2026-04-15T06:37:49Z</time></trkpt><trkpt lat="45.86767872288552" lon="12.100869271246614"><ele>120.8</ele><time>2026-04-15T06:37:51Z</time></trkpt><trkpt lat="45.86769699309122" lon="12.100998862665863"><ele>120.6</ele><time>2026-04-15T06:38:47.999Z</time></trkpt><trkpt lat="45.86771160103547" lon="12.101158549649272"><ele>120.4</ele><time>2026-04-15T06:38:49.999Z</time></trkpt><trkpt lat="45.867616179607246" lon="12.101213984398987"><ele>120.2</ele><time>2026-04-15T06:38:52.999Z</time></trkpt><trkpt lat="45.86749668410288" lon="12.101248732616416"><ele>120.0</ele><time>2026-04-15T06:38:54.999Z</time></trkpt><trkpt lat="45.8674092126588" lon="12.101274113433961"><ele>120.33333333333333</ele><time>2026-04-15T06:38:55.999Z</time></trkpt><trkpt lat="45.867327558886146" lon="12.101297806166022"><ele>120.66666666666666</ele><time>2026-04-15T06:38:56.999Z</time></trkpt><trkpt lat="45.867240090531986" lon="12.101323186019107"><ele>121.0</ele><time>2026-04-15T06:38:57.999Z</time></trkpt><trkpt lat="45.86715089537178" lon="12.101336254334385"><ele>121.33333333333333</ele><time>2026-04-15T06:38:58.999Z</time></trkpt><trkpt lat="45.867057781208224" lon="12.101336522337911"><ele>121.66666666666666</ele><time>2026-04-15T06:38:59.999Z</time></trkpt><trkpt lat="45.86696985872342" lon="12.10134245532876"><ele>122.0</ele><time>2026-04-15T06:39:00.999Z</time></trkpt><trkpt lat="45.866894605919875" lon="12.101333951304165"><ele>122.0</ele><time>2026-04-15T06:39:01.999Z</time></trkpt><trkpt lat="45.86679811390117" lon="12.10133007620205"><ele>121.99999999999999</ele><time>2026-04-15T06:39:04Z</time></trkpt><trkpt lat="45.86687658405871" lon="12.101344696708386"><ele>121.99999999999999</ele><time>2026-04-15T06:39:16Z</time></trkpt><trkpt lat="45.86695236242984" lon="12.101331378105366"><ele>122.0</ele><time>2026-04-15T06:40:05Z</time></trkpt><trkpt lat="45.86703893931316" lon="12.101335602913364"><ele>122.0</ele><time>2026-04-15T06:40:07Z</time></trkpt><trkpt lat="45.86715619345506" lon="12.101336973134877"><ele>122.0</ele><time>2026-04-15T06:40:08Z</time></trkpt><trkpt lat="45.867238624779596" lon="12.101389892829001"><ele>121.99999999999999</ele><time>2026-04-15T06:40:09Z</time></trkpt><trkpt lat="45.867320989862726" lon="12.10137054217793"><ele>121.99999999999999</ele><time>2026-04-15T06:40:10Z</time></trkpt><trkpt lat="45.867412385938835" lon="12.10134225355584"><ele>122.0</ele><time>2026-04-15T06:40:11Z</time></trkpt><trkpt lat="45.86751495937001" lon="12.101310905574067"><ele>122.0</ele><time>2026-04-15T06:40:12Z</time></trkpt><trkpt lat="45.86759987941273" lon="12.101283324383934"><ele>121.85714285714283</ele><time>2026-04-15T06:40:12.999Z</time></trkpt><trkpt lat="45.86766263844976" lon="12.101265366701357"><ele>121.71428571428571</ele><time>2026-04-15T06:40:13.999Z</time></trkpt><trkpt lat="45.86772851011633" lon="12.101324942747347"><ele>121.57142857142856</ele><time>2026-04-15T06:40:24.999Z</time></trkpt><trkpt lat="45.86773560810732" lon="12.10143279235972"><ele>121.42857142857142</ele><time>2026-04-15T06:40:26.999Z</time></trkpt><trkpt lat="45.867751159094276" lon="12.101529249984749"><ele>121.28571428571428</ele><time>2026-04-15T06:40:27.999Z</time></trkpt><trkpt lat="45.867771048718076" lon="12.101640983550613"><ele>121.14285714285714</ele><time>2026-04-15T06:40:28.999Z</time></trkpt><trkpt lat="45.8677898086617" lon="12.10175468991024"><ele>121.0</ele><time>2026-04-15T06:40:29.999Z</time></trkpt><trkpt lat="45.86780735425521" lon="12.101877982763687"><ele>121.00000000000001</ele><time>2026-04-15T06:40:30.999Z</time></trkpt><trkpt lat="45.86782559148723" lon="12.102015764675674"><ele>121.0</ele><time>2026-04-15T06:40:31.999Z</time></trkpt><trkpt lat="45.867838065397294" lon="12.102121685374577"><ele>121.0</ele><time>2026-04-15T06:40:32.999Z</time></trkpt><trkpt lat="45.867871547383" lon="12.102255216575912"><ele>121.0</ele><time>2026-04-15T06:40:34.999Z</time></trkpt><trkpt lat="45.86788939417392" lon="12.102345951869001"><ele>121.00000000000001</ele><time>2026-04-15T06:40:37.999Z</time></trkpt><trkpt lat="45.867880724317146" lon="12.102450842273312"><ele>121.0</ele><time>2026-04-15T06:40:42.999Z</time></trkpt><trkpt lat="45.86785005511129" lon="12.102539824185714"><ele>121.0</ele><time>2026-04-15T06:40:45.999Z</time></trkpt><trkpt lat="45.86778479572876" lon="12.102634051857333"><ele>121.0</ele><time>2026-04-15T06:40:50.999Z</time></trkpt><trkpt lat="45.86768986168256" lon="12.102616154594575"><ele>121.0</ele><time>2026-04-15T06:40:52.999Z</time></trkpt><trkpt lat="45.86761812924027" lon="12.102573117733153"><ele>121.0</ele><time>2026-04-15T06:41:47Z</time></trkpt><trkpt lat="45.86751033448124" lon="12.10251706372433"><ele>121.0</ele><time>2026-04-15T06:41:50Z</time></trkpt><trkpt lat="45.86744028037082" lon="12.102486544639289"><ele>121.00000000000001</ele><time>2026-04-15T06:41:51Z</time></trkpt><trkpt lat="45.867375846436666" lon="12.102462879052991"><ele>121.0</ele><time>2026-04-15T06:41:52Z</time></trkpt><trkpt lat="45.86730434521381" lon="12.102463376559896"><ele>121.0</ele><time>2026-04-15T06:41:54Z</time></trkpt><trkpt lat="45.86723412719992" lon="12.102465981787688"><ele>121.0</ele><time>2026-04-15T06:44:14.999Z</time></trkpt><trkpt lat="45.867143582943285" lon="12.102472486276913"><ele>121.00000000000001</ele><time>2026-04-15T06:44:16.999Z</time></trkpt><trkpt lat="45.86706034553397" lon="12.102473967508594"><ele>121.0</ele><time>2026-04-15T06:44:17.999Z</time></trkpt><trkpt lat="45.8669868994829" lon="12.102472287263016"><ele>121.00000000000001</ele><time>2026-04-15T06:44:18.999Z</time></trkpt><trkpt lat="45.866912077166305" lon="12.102471206662463"><ele>121.0</ele><time>2026-04-15T06:44:19.999Z</time></trkpt><trkpt lat="45.86681929502107" lon="12.102467514356555"><ele>121.0</ele><time>2026-04-15T06:44:20.999Z</time></trkpt><trkpt lat="45.866734397838954" lon="12.10246589336638"><ele>121.0</ele><time>2026-04-15T06:44:21.999Z</time></trkpt><trkpt lat="45.866661229764176" lon="12.102464720598963"><ele>121.00000000000001</ele><time>2026-04-15T06:44:22.999Z</time></trkpt><trkpt lat="45.86659505865887" lon="12.102465802563566"><ele>121.0</ele><time>2026-04-15T06:44:24.999Z</time></trkpt><trkpt lat="45.86652461305048" lon="12.102484034130622"><ele>121.19999999999999</ele><time>2026-04-15T06:44:28.999Z</time></trkpt><trkpt lat="45.866536212638835" lon="12.102368957980428"><ele>121.39999999999999</ele><time>2026-04-15T06:44:29.999Z</time></trkpt><trkpt lat="45.866516961620924" lon="12.102232895830765"><ele>121.6</ele><time>2026-04-15T06:44:31.999Z</time></trkpt><trkpt lat="45.86650629172265" lon="12.102057323482054"><ele>121.8</ele><time>2026-04-15T06:44:33.999Z</time></trkpt><trkpt lat="45.866493598171154" lon="12.101931447282107"><ele>122.0</ele><time>2026-04-15T06:44:35.999Z</time></trkpt><trkpt lat="45.86651130888474" lon="12.101779068778859"><ele>121.99999999999999</ele><time>2026-04-15T06:45:36Z</time></trkpt><trkpt lat="45.86651462493466" lon="12.10167766367311"><ele>122.0</ele><time>2026-04-15T06:45:37Z</time></trkpt><trkpt lat="45.866518733125055" lon="12.101552035376903"><ele>122.0</ele><time>2026-04-15T06:45:38Z</time></trkpt><trkpt lat="45.866522645457366" lon="12.101432396618904"><ele>122.0</ele><time>2026-04-15T06:45:39Z</time></trkpt><trkpt lat="45.86652693992561" lon="12.101301074778338"><ele>121.99999999999999</ele><time>2026-04-15T06:45:40Z</time></trkpt><trkpt lat="45.86653017897424" lon="12.101163405205547"><ele>122.0</ele><time>2026-04-15T06:45:41Z</time></trkpt><trkpt lat="45.86653430506331" lon="12.10100295840074"><ele>122.0</ele><time>2026-04-15T06:45:42Z</time></trkpt><trkpt lat="45.866538487861106" lon="12.100840306601132"><ele>121.99999999999999</ele><time>2026-04-15T06:45:43Z</time></trkpt><trkpt lat="45.866543222462944" lon="12.100685891978081"><ele>121.99999999999999</ele><time>2026-04-15T06:45:44Z</time></trkpt><trkpt lat="45.86654789485147" lon="12.100553863591847"><ele>122.0</ele><time>2026-04-15T06:45:45Z</time></trkpt><trkpt lat="45.866553713806915" lon="12.100446374701521"><ele>122.0</ele><time>2026-04-15T06:45:46Z</time></trkpt><trkpt lat="45.8665482816356" lon="12.100302662675798"><ele>122.19999999999999</ele><time>2026-04-15T06:46:45.999Z</time></trkpt><trkpt lat="45.86656872602049" lon="12.100194546468403"><ele>122.39999999999999</ele><time>2026-04-15T06:46:47.999Z</time></trkpt><trkpt lat="45.86660424385414" lon="12.100002227028364"><ele>122.60000000000001</ele><time>2026-04-15T06:46:49.999Z</time></trkpt><trkpt lat="45.86660819451643" lon="12.09986699171208"><ele>122.80000000000001</ele><time>2026-04-15T06:46:51.999Z</time></trkpt><trkpt lat="45.86661409084666" lon="12.099773075581286"><ele>123.0</ele><time>2026-04-15T06:46:53.999Z</time></trkpt><trkpt lat="45.86662386998389" lon="12.099628263623488"><ele>123.2</ele><time>2026-04-15T06:46:55.999Z</time></trkpt><trkpt lat="45.866619785293096" lon="12.099529607865492"><ele>123.4</ele><time>2026-04-15T06:46:56.999Z</time></trkpt><trkpt lat="45.86663765854731" lon="12.099373543103846"><ele>123.60000000000001</ele><time>2026-04-15T06:46:58.999Z</time></trkpt><trkpt lat="45.86671735094896" lon="12.099344688883457"><ele>123.80000000000001</ele><time>2026-04-15T06:47:00.999Z</time></trkpt><trkpt lat="45.86683337639874" lon="12.099374234405277"><ele>124.0</ele><time>2026-04-15T06:47:02.999Z</time></trkpt><trkpt lat="45.866921364993125" lon="12.099366873737058"><ele>123.6</ele><time>2026-04-15T06:47:03.999Z</time></trkpt><trkpt lat="45.86702049340058" lon="12.099365351612054"><ele>123.2</ele><time>2026-04-15T06:47:04.999Z</time></trkpt><trkpt lat="45.86711228771264" lon="12.099363284521854"><ele>122.79999999999998</ele><time>2026-04-15T06:47:05.999Z</time></trkpt><trkpt lat="45.86722762335927" lon="12.099376721031643"><ele>122.39999999999999</ele><time>2026-04-15T06:47:06.999Z</time></trkpt><trkpt lat="45.867333650108144" lon="12.099377133704571"><ele>122.0</ele><time>2026-04-15T06:47:07.999Z</time></trkpt><trkpt lat="45.867437087855585" lon="12.099391561804161"><ele>122.0</ele><time>2026-04-15T06:47:08.999Z</time></trkpt><trkpt lat="45.86753766360189" lon="12.099399907021445"><ele>121.99999999999999</ele><time>2026-04-15T06:47:09.999Z</time></trkpt><trkpt lat="45.86763232412437" lon="12.099419227733025"><ele>121.99999999999999</ele><time>2026-04-15T06:47:10.999Z</time></trkpt><trkpt lat="45.867729910685476" lon="12.099439657039202"><ele>122.0</ele><time>2026-04-15T06:47:11.999Z</time></trkpt><trkpt lat="45.86782605373987" lon="12.099470212894573"><ele>122.0</ele><time>2026-04-15T06:47:12.999Z</time></trkpt><trkpt lat="45.86792580807246" lon="12.099493764685697"><ele>121.99999999999999</ele><time>2026-04-15T06:47:13.999Z</time></trkpt><trkpt lat="45.86802290182225" lon="12.099504156596453"><ele>122.0</ele><time>2026-04-15T06:47:14.999Z</time></trkpt><trkpt lat="45.86812171737988" lon="12.099503882177796"><ele>122.0</ele><time>2026-04-15T06:47:15.999Z</time></trkpt><trkpt lat="45.86821994573478" lon="12.09950249236729"><ele>122.0</ele><time>2026-04-15T06:47:16.999Z</time></trkpt><trkpt lat="45.868309234854145" lon="12.099508594509942"><ele>121.99999999999999</ele><time>2026-04-15T06:47:17.999Z</time></trkpt><trkpt lat="45.8683725874539" lon="12.09950371184851"><ele>122.0</ele><time>2026-04-15T06:47:18.999Z</time></trkpt><trkpt lat="45.86844103139335" lon="12.099514123587149"><ele>121.83333333333333</ele><time>2026-04-15T06:48:18.999Z</time></trkpt><trkpt lat="45.86853113260558" lon="12.09950881674791"><ele>121.66666666666666</ele><time>2026-04-15T06:48:20.999Z</time></trkpt><trkpt lat="45.86860023390399" lon="12.09950061658555"><ele>121.5</ele><time>2026-04-15T06:48:21.999Z</time></trkpt><trkpt lat="45.86868894574013" lon="12.099494038915457"><ele>121.33333333333334</ele><time>2026-04-15T06:48:22.999Z</time></trkpt><trkpt lat="45.86877254795637" lon="12.099488220341847"><ele>121.16666666666667</ele><time>2026-04-15T06:48:23.999Z</time></trkpt><trkpt lat="45.86886133798599" lon="12.099485620267467"><ele>121.0</ele><time>2026-04-15T06:48:24.999Z</time></trkpt><trkpt lat="45.86895996253644" lon="12.099481712315363"><ele>121.0</ele><time>2026-04-15T06:48:25.999Z</time></trkpt><trkpt lat="45.86906864516702" lon="12.099475336962561"><ele>121.0</ele><time>2026-04-15T06:48:26.999Z</time></trkpt><trkpt lat="45.86919158317604" lon="12.09946463021552"><ele>121.0</ele><time>2026-04-15T06:48:27.999Z</time></trkpt><trkpt lat="45.86933165752233" lon="12.099463464418786"><ele>121.0</ele><time>2026-04-15T06:48:28.999Z</time></trkpt><trkpt lat="45.869484086041524" lon="12.099461164712332"><ele>121.5</ele><time>2026-04-15T06:48:29.999Z</time></trkpt><trkpt lat="45.86963314095385" lon="12.099454516613553"><ele>122.0</ele><time>2026-04-15T06:48:30.999Z</time></trkpt><trkpt lat="45.869777061099924" lon="12.09944549336642"><ele>122.5</ele><time>2026-04-15T06:48:31.999Z</time></trkpt><trkpt lat="45.86991961663267" lon="12.099442720961775"><ele>123.0</ele><time>2026-04-15T06:48:32.999Z</time></trkpt><trkpt lat="45.87004664559635" lon="12.099434158502447"><ele>123.5</ele><time>2026-04-15T06:48:33.999Z</time></trkpt><trkpt lat="45.8701454674031" lon="12.099428097108765"><ele>124.0</ele><time>2026-04-15T06:48:34.999Z</time></trkpt><trkpt lat="45.87021440585793" lon="12.099425049599702"><ele>124.5</ele><time>2026-04-15T06:48:35.999Z</time></trkpt><trkpt lat="45.870279552952695" lon="12.099437707066688"><ele>125.0</ele><time>2026-04-15T06:48:37.999Z</time></trkpt><trkpt lat="45.87026625597129" lon="12.09954911982641"><ele>125.5</ele><time>2026-04-15T06:48:38.999Z</time></trkpt><trkpt lat="45.87026933668576" lon="12.099681497533583"><ele>126.0</ele><time>2026-04-15T06:48:40.999Z</time></trkpt><trkpt lat="45.87030092956332" lon="12.099836114252039"><ele>126.19999999999999</ele><time>2026-04-15T06:48:42.999Z</time></trkpt><trkpt lat="45.87039312428751" lon="12.0999586746212"><ele>126.39999999999999</ele><time>2026-04-15T06:48:44.999Z</time></trkpt><trkpt lat="45.87045786966141" lon="12.09998649553771"><ele>126.6</ele><time>2026-04-15T06:48:45.999Z</time></trkpt><trkpt lat="45.870545410555394" lon="12.100001760927784"><ele>126.8</ele><time>2026-04-15T06:48:46.999Z</time></trkpt><trkpt lat="45.87064238948356" lon="12.100020704383686"><ele>127.0</ele><time>2026-04-15T06:48:47.999Z</time></trkpt><trkpt lat="45.870751058583416" lon="12.100038825216924"><ele>127.0</ele><time>2026-04-15T06:48:48.999Z</time></trkpt><trkpt lat="45.870850733951386" lon="12.100061520528547"><ele>126.99999999999999</ele><time>2026-04-15T06:48:49.999Z</time></trkpt><trkpt lat="45.87094316202561" lon="12.100075315602801"><ele>126.99999999999999</ele><time>2026-04-15T06:48:50.999Z</time></trkpt><trkpt lat="45.87101826465715" lon="12.100078201935872"><ele>127.0</ele><time>2026-04-15T06:48:51.999Z</time></trkpt><trkpt lat="45.87110522445953" lon="12.100083453257541"><ele>127.0</ele><time>2026-04-15T06:48:53.999Z</time></trkpt><trkpt lat="45.87112439086748" lon="12.09992369641686"><ele>126.66666666666667</ele><time>2026-04-15T06:48:55.999Z</time></trkpt><trkpt lat="45.871102227702124" lon="12.100011087864104"><ele>126.33333333333334</ele><time>2026-04-15T06:49:03.999Z</time></trkpt><trkpt lat="45.87122547390781" lon="12.100094127019563"><ele>126.0</ele><time>2026-04-15T06:49:13.999Z</time></trkpt><trkpt lat="45.871294059902695" lon="12.100077005551004"><ele>125.66666666666666</ele><time>2026-04-15T06:49:17.999Z</time></trkpt><trkpt lat="45.871361724555115" lon="12.100071321306508"><ele>125.33333333333333</ele><time>2026-04-15T06:49:22.999Z</time></trkpt><trkpt lat="45.87142527319773" lon="12.100030465957516"><ele>125.0</ele><time>2026-04-15T06:49:29.999Z</time></trkpt><trkpt lat="45.87147485754672" lon="12.099943386957074"><ele>125.0</ele><time>2026-04-15T06:49:34Z</time></trkpt><trkpt lat="45.87151492321899" lon="12.099847234168989"><ele>125.0</ele><time>2026-04-15T06:49:38Z</time></trkpt><trkpt lat="45.87146244081928" lon="12.099966023362894"><ele>125.0</ele><time>2026-04-15T06:49:49Z</time></trkpt><trkpt lat="45.87141662205409" lon="12.100035384014346"><ele>125.0</ele><time>2026-04-15T06:51:07.999Z</time></trkpt><trkpt lat="45.871359225474414" lon="12.10014077780879"><ele>125.0</ele><time>2026-04-15T06:51:09.999Z</time></trkpt><trkpt lat="45.87123154341648" lon="12.100076285523462"><ele>124.99999999999999</ele><time>2026-04-15T06:51:10.999Z</time></trkpt><trkpt lat="45.871156489863644" lon="12.10005435880484"><ele>125.0</ele><time>2026-04-15T06:51:11.999Z</time></trkpt><trkpt lat="45.87108952141145" lon="12.100049268104426"><ele>125.0</ele><time>2026-04-15T06:51:12.999Z</time></trkpt><trkpt lat="45.871021145609525" lon="12.100044078957886"><ele>125.0</ele><time>2026-04-15T06:51:13.999Z</time></trkpt><trkpt lat="45.870943969562155" lon="12.100038800967429"><ele>124.99999999999999</ele><time>2026-04-15T06:51:14.999Z</time></trkpt><trkpt lat="45.87085634012881" lon="12.1000268586585"><ele>125.0</ele><time>2026-04-15T06:51:15.999Z</time></trkpt><trkpt lat="45.87076708491358" lon="12.100016582782136"><ele>125.2</ele><time>2026-04-15T06:51:16.999Z</time></trkpt><trkpt lat="45.870674872371985" lon="12.09999787509233"><ele>125.4</ele><time>2026-04-15T06:51:17.999Z</time></trkpt><trkpt lat="45.870582701709665" lon="12.09997633321687"><ele>125.6</ele><time>2026-04-15T06:51:18.999Z</time></trkpt><trkpt lat="45.87049264494342" lon="12.09995765245306"><ele>125.8</ele><time>2026-04-15T06:51:19.999Z</time></trkpt><trkpt lat="45.87041715477817" lon="12.099935878969779"><ele>126.0</ele><time>2026-04-15T06:51:20.999Z</time></trkpt><trkpt lat="45.870330515841204" lon="12.099845654422168"><ele>126.0</ele><time>2026-04-15T06:51:22.999Z</time></trkpt><trkpt lat="45.87028368651852" lon="12.099726001944799"><ele>126.0</ele><time>2026-04-15T06:51:24.999Z</time></trkpt><trkpt lat="45.8702919870994" lon="12.099565445972324"><ele>126.0</ele><time>2026-04-15T06:51:26.999Z</time></trkpt><trkpt lat="45.87031020701368" lon="12.099444952340729"><ele>126.0</ele><time>2026-04-15T06:51:28.999Z</time></trkpt><trkpt lat="45.870237149331565" lon="12.099369716042236"><ele>126.0</ele><time>2026-04-15T06:51:40Z</time></trkpt><trkpt lat="45.870121168196675" lon="12.099389150448392"><ele>125.5</ele><time>2026-04-15T06:51:42Z</time></trkpt><trkpt lat="45.87005460326236" lon="12.099393170413949"><ele>125.0</ele><time>2026-04-15T06:51:43Z</time></trkpt><trkpt lat="45.86998950986896" lon="12.099391255991616"><ele>124.5</ele><time>2026-04-15T06:51:44Z</time></trkpt><trkpt lat="45.86991470368027" lon="12.099390144996269"><ele>124.0</ele><time>2026-04-15T06:51:45Z</time></trkpt><trkpt lat="45.86982865251541" lon="12.099394132400391"><ele>123.5</ele><time>2026-04-15T06:51:46Z</time></trkpt><trkpt lat="45.86972949194294" lon="12.099396115135132"><ele>123.0</ele><time>2026-04-15T06:51:47Z</time></trkpt><trkpt lat="45.86961974375915" lon="12.099396924094272"><ele>123.0</ele><time>2026-04-15T06:51:48Z</time></trkpt><trkpt lat="45.86950252158378" lon="12.099400241561698"><ele>123.0</ele><time>2026-04-15T06:51:49Z</time></trkpt><trkpt lat="45.86938719852546" lon="12.099402406758658"><ele>123.0</ele><time>2026-04-15T06:51:50Z</time></trkpt><trkpt lat="45.86927093517614" lon="12.0994042375216"><ele>123.0</ele><time>2026-04-15T06:51:51Z</time></trkpt><trkpt lat="45.86914948014695" lon="12.099406078180067"><ele>122.60000000000001</ele><time>2026-04-15T06:51:52Z</time></trkpt><trkpt lat="45.869024024489256" lon="12.099406849548513"><ele>122.20000000000002</ele><time>2026-04-15T06:51:53Z</time></trkpt><trkpt lat="45.868903413071074" lon="12.099413244083534"><ele>121.8</ele><time>2026-04-15T06:51:54Z</time></trkpt><trkpt lat="45.868798205097825" lon="12.099422959721302"><ele>121.4</ele><time>2026-04-15T06:51:55Z</time></trkpt><trkpt lat="45.868709149635556" lon="12.099431929471333"><ele>121.0</ele><time>2026-04-15T06:51:56Z</time></trkpt><trkpt lat="45.868637813418566" lon="12.0994331486084"><ele>121.00000000000001</ele><time>2026-04-15T06:51:57Z</time></trkpt><trkpt lat="45.868548177960555" lon="12.09939362670363"><ele>121.0</ele><time>2026-04-15T06:51:59Z</time></trkpt><trkpt lat="45.868562795190044" lon="12.099235185470578"><ele>121.0</ele><time>2026-04-15T06:52:00Z</time></trkpt><trkpt lat="45.86856822839115" lon="12.09913404444543"><ele>121.0</ele><time>2026-04-15T06:52:01Z</time></trkpt><trkpt lat="45.86856029881285" lon="12.099020382607424"><ele>121.00000000000001</ele><time>2026-04-15T06:52:02Z</time></trkpt><trkpt lat="45.86857770859176" lon="12.098889463816187"><ele>121.0</ele><time>2026-04-15T06:52:03Z</time></trkpt><trkpt lat="45.86858490258539" lon="12.09874664173148"><ele>121.00000000000001</ele><time>2026-04-15T06:52:04Z</time></trkpt><trkpt lat="45.86859047901203" lon="12.09861392840993"><ele>121.0</ele><time>2026-04-15T06:52:05Z</time></trkpt><trkpt lat="45.86859192250807" lon="12.098501014546137"><ele>121.0</ele><time>2026-04-15T06:52:06Z</time></trkpt><trkpt lat="45.868612579753616" lon="12.098357078678486"><ele>121.0</ele><time>2026-04-15T06:52:08Z</time></trkpt><trkpt lat="45.86861873975489" lon="12.098264602592943"><ele>121.00000000000001</ele><time>2026-04-15T06:52:11Z</time></trkpt><trkpt lat="45.868647662600594" lon="12.098134545123832"><ele>121.0</ele><time>2026-04-15T06:53:18.999Z</time></trkpt><trkpt lat="45.8686637892755" lon="12.098042523702818"><ele>121.19999999999999</ele><time>2026-04-15T06:53:19.999Z</time></trkpt><trkpt lat="45.86866924935559" lon="12.097917285889505"><ele>121.39999999999999</ele><time>2026-04-15T06:53:20.999Z</time></trkpt><trkpt lat="45.86867558973823" lon="12.097798181679265"><ele>121.6</ele><time>2026-04-15T06:53:21.999Z</time></trkpt><trkpt lat="45.86868269245549" lon="12.09767450775781"><ele>121.8</ele><time>2026-04-15T06:53:22.999Z</time></trkpt><trkpt lat="45.868690543689496" lon="12.097536177514515"><ele>122.0</ele><time>2026-04-15T06:53:23.999Z</time></trkpt><trkpt lat="45.86869739508191" lon="12.097376493523095"><ele>122.0</ele><time>2026-04-15T06:53:24.999Z</time></trkpt><trkpt lat="45.868711844896524" lon="12.09720219905762"><ele>122.0</ele><time>2026-04-15T06:53:25.999Z</time></trkpt><trkpt lat="45.8687343027357" lon="12.09703480243682"><ele>122.0</ele><time>2026-04-15T06:53:26.999Z</time></trkpt><trkpt lat="45.86875538824279" lon="12.096868778665904"><ele>122.0</ele><time>2026-04-15T06:53:27.999Z</time></trkpt><trkpt lat="45.86877113358763" lon="12.096712418445152"><ele>121.99999999999999</ele><time>2026-04-15T06:53:28.999Z</time></trkpt><trkpt lat="45.86880730929868" lon="12.096601788803966"><ele>122.0</ele><time>2026-04-15T06:53:29.999Z</time></trkpt><trkpt lat="45.86882393138555" lon="12.096508136539256"><ele>121.99999999999999</ele><time>2026-04-15T06:53:31.999Z</time></trkpt><trkpt lat="45.86883969359811" lon="12.09641932909734"><ele>121.99999999999999</ele><time>2026-04-15T06:54:40.999Z</time></trkpt><trkpt lat="45.86885980336623" lon="12.096306026555226"><ele>122.0</ele><time>2026-04-15T06:54:43.999Z</time></trkpt><trkpt lat="45.86887912818675" lon="12.096197146682954"><ele>121.99999999999999</ele><time>2026-04-15T06:54:45.999Z</time></trkpt><trkpt lat="45.86889477869442" lon="12.096108968581738"><ele>121.99999999999999</ele><time>2026-04-15T06:54:47.999Z</time></trkpt><trkpt lat="45.86892001341769" lon="12.095966791078105"><ele>122.16666666666666</ele><time>2026-04-15T06:55:49Z</time></trkpt><trkpt lat="45.868943530087634" lon="12.095835171462825"><ele>122.33333333333333</ele><time>2026-04-15T06:55:51Z</time></trkpt><trkpt lat="45.86897649908111" lon="12.095694912664475"><ele>122.5</ele><time>2026-04-15T06:57:02.999Z</time></trkpt><trkpt lat="45.86900176368647" lon="12.095583710061721"><ele>122.66666666666666</ele><time>2026-04-15T06:57:04.999Z</time></trkpt><trkpt lat="45.869009144791065" lon="12.09548266992716"><ele>122.83333333333333</ele><time>2026-04-15T06:57:10.999Z</time></trkpt><trkpt lat="45.8690224533448" lon="12.095393785814773"><ele>123.0</ele><time>2026-04-15T06:57:12.999Z</time></trkpt><trkpt lat="45.869039198575905" lon="12.095300136558722"><ele>123.16666666666667</ele><time>2026-04-15T06:57:14.999Z</time></trkpt><trkpt lat="45.869050239901824" lon="12.095180330903403"><ele>123.33333333333334</ele><time>2026-04-15T06:58:37.999Z</time></trkpt><trkpt lat="45.86910089513984" lon="12.095013724741701"><ele>123.5</ele><time>2026-04-15T06:58:39.999Z</time></trkpt><trkpt lat="45.86911215605711" lon="12.094914690566755"><ele>123.66666666666667</ele><time>2026-04-15T06:58:40.999Z</time></trkpt><trkpt lat="45.86912748352996" lon="12.094819883333134"><ele>123.83333333333334</ele><time>2026-04-15T06:58:41.999Z</time></trkpt><trkpt lat="45.86914530804814" lon="12.09471375778556"><ele>124.0</ele><time>2026-04-15T06:58:42.999Z</time></trkpt><trkpt lat="45.86916615754973" lon="12.094597138351917"><ele>124.0</ele><time>2026-04-15T06:58:43.999Z</time></trkpt><trkpt lat="45.86918774749278" lon="12.094466982767164"><ele>124.0</ele><time>2026-04-15T06:58:44.999Z</time></trkpt><trkpt lat="45.86920903724315" lon="12.094332288601317"><ele>124.0</ele><time>2026-04-15T06:58:45.999Z</time></trkpt><trkpt lat="45.86923317069783" lon="12.094198123352017"><ele>124.0</ele><time>2026-04-15T06:58:46.999Z</time></trkpt><trkpt lat="45.86925870919691" lon="12.094068227910231"><ele>124.0</ele><time>2026-04-15T06:58:47.999Z</time></trkpt><trkpt lat="45.86928154281098" lon="12.09394372585412"><ele>123.83333333333334</ele><time>2026-04-15T06:58:48.999Z</time></trkpt><trkpt lat="45.869305264425755" lon="12.093822328364041"><ele>123.66666666666667</ele><time>2026-04-15T06:58:49.999Z</time></trkpt><trkpt lat="45.86932475035797" lon="12.093709584812602"><ele>123.5</ele><time>2026-04-15T06:58:50.999Z</time></trkpt><trkpt lat="45.86933689638913" lon="12.093612170934628"><ele>123.33333333333334</ele><time>2026-04-15T06:58:51.999Z</time></trkpt><trkpt lat="45.869365967994895" lon="12.093475016118786"><ele>123.16666666666667</ele><time>2026-04-15T06:58:53.999Z</time></trkpt><trkpt lat="45.86938697839588" lon="12.093358489762785"><ele>123.0</ele><time>2026-04-15T07:00:04Z</time></trkpt><trkpt lat="45.86940982717833" lon="12.09320134205322"><ele>123.0</ele><time>2026-04-15T07:00:06Z</time></trkpt><trkpt lat="45.86943325580601" lon="12.09308956788206"><ele>123.0</ele><time>2026-04-15T07:00:07Z</time></trkpt><trkpt lat="45.869449038717164" lon="12.092979544980066"><ele>123.0</ele><time>2026-04-15T07:00:07.999Z</time></trkpt><trkpt lat="45.86946815504769" lon="12.092863250782715"><ele>123.0</ele><time>2026-04-15T07:00:09Z</time></trkpt><trkpt lat="45.86948770864939" lon="12.092734468821785"><ele>123.0</ele><time>2026-04-15T07:00:10Z</time></trkpt><trkpt lat="45.86950622436007" lon="12.092597281567324"><ele>123.0</ele><time>2026-04-15T07:00:11Z</time></trkpt><trkpt lat="45.869518733799666" lon="12.092449776380652"><ele>123.60000000000001</ele><time>2026-04-15T07:00:12Z</time></trkpt><trkpt lat="45.86952346369768" lon="12.0922951059336"><ele>124.20000000000002</ele><time>2026-04-15T07:00:13Z</time></trkpt><trkpt lat="45.8695214323722" lon="12.0921448462067"><ele>124.8</ele><time>2026-04-15T07:00:14Z</time></trkpt><trkpt lat="45.86951113863016" lon="12.091992551636423"><ele>125.4</ele><time>2026-04-15T07:00:14.999Z</time></trkpt><trkpt lat="45.86949079819272" lon="12.091847476062489"><ele>126.0</ele><time>2026-04-15T07:00:15.999Z</time></trkpt><trkpt lat="45.86946225903785" lon="12.091702376019587"><ele>126.4</ele><time>2026-04-15T07:00:16.999Z</time></trkpt><trkpt lat="45.86943257558206" lon="12.091554166801178"><ele>126.8</ele><time>2026-04-15T07:00:17.999Z</time></trkpt><trkpt lat="45.86940585628801" lon="12.091407202857116"><ele>127.20000000000002</ele><time>2026-04-15T07:00:18.999Z</time></trkpt><trkpt lat="45.86937858310269" lon="12.091255770372834"><ele>127.60000000000001</ele><time>2026-04-15T07:00:19.999Z</time></trkpt><trkpt lat="45.86935262941518" lon="12.091107174437123"><ele>128.0</ele><time>2026-04-15T07:00:20.999Z</time></trkpt><trkpt lat="45.86932836399999" lon="12.090959945860956"><ele>128.0</ele><time>2026-04-15T07:00:21.999Z</time></trkpt><trkpt lat="45.86930836285917" lon="12.09081981895327"><ele>128.0</ele><time>2026-04-15T07:00:22.999Z</time></trkpt><trkpt lat="45.86929210382566" lon="12.09068231915678"><ele>128.0</ele><time>2026-04-15T07:00:23.999Z</time></trkpt><trkpt lat="45.8692875458404" lon="12.090538310915372"><ele>128.0</ele><time>2026-04-15T07:00:24.999Z</time></trkpt><trkpt lat="45.86929407942871" lon="12.090391567288707"><ele>128.0</ele><time>2026-04-15T07:00:25.999Z</time></trkpt><trkpt lat="45.869310984453065" lon="12.090236749870957"><ele>127.5</ele><time>2026-04-15T07:00:26.999Z</time></trkpt><trkpt lat="45.869338452969394" lon="12.090076833808244"><ele>127.0</ele><time>2026-04-15T07:00:27.999Z</time></trkpt><trkpt lat="45.86937342128325" lon="12.089907811433973"><ele>126.5</ele><time>2026-04-15T07:00:28.999Z</time></trkpt><trkpt lat="45.86941186656446" lon="12.089740973681268"><ele>126.0</ele><time>2026-04-15T07:00:29.999Z</time></trkpt><trkpt lat="45.86945379163176" lon="12.089581861185518"><ele>125.66666666666667</ele><time>2026-04-15T07:00:30.999Z</time></trkpt><trkpt lat="45.869489999901454" lon="12.089449380153885"><ele>125.33333333333334</ele><time>2026-04-15T07:00:31.999Z</time></trkpt><trkpt lat="45.86951291520916" lon="12.089360081041495"><ele>125.0</ele><time>2026-04-15T07:00:32.999Z</time></trkpt><trkpt lat="45.86953319350066" lon="12.089274169970846"><ele>124.66666666666667</ele><time>2026-04-15T07:00:37.999Z</time></trkpt><trkpt lat="45.86948005646691" lon="12.08917711966634"><ele>124.33333333333334</ele><time>2026-04-15T07:00:44.999Z</time></trkpt><trkpt lat="45.869393279603365" lon="12.089184824996991"><ele>124.0</ele><time>2026-04-15T07:00:46.999Z</time></trkpt><trkpt lat="45.86932977378619" lon="12.08919340580395"><ele>124.16666666666667</ele><time>2026-04-15T07:00:47.999Z</time></trkpt><trkpt lat="45.86920212043047" lon="12.089205803989461"><ele>124.33333333333334</ele><time>2026-04-15T07:00:49.999Z</time></trkpt><trkpt lat="45.8691343647366" lon="12.089211152646083"><ele>124.5</ele><time>2026-04-15T07:00:50.999Z</time></trkpt><trkpt lat="45.869073094321124" lon="12.089170358365923"><ele>124.66666666666666</ele><time>2026-04-15T07:00:52.999Z</time></trkpt><trkpt lat="45.86900465600245" lon="12.089190714331009"><ele>124.83333333333333</ele><time>2026-04-15T07:00:55.999Z</time></trkpt><trkpt lat="45.86906740400693" lon="12.089255888550433"><ele>125.0</ele><time>2026-04-15T07:01:00.999Z</time></trkpt><trkpt lat="45.869164471837856" lon="12.08923931170627"><ele>124.99999999999999</ele><time>2026-04-15T07:01:02.999Z</time></trkpt><trkpt lat="45.86923360060558" lon="12.089229756865846"><ele>125.0</ele><time>2026-04-15T07:01:03.999Z</time></trkpt><trkpt lat="45.86929912560856" lon="12.089222193507569"><ele>125.0</ele><time>2026-04-15T07:01:04.999Z</time></trkpt><trkpt lat="45.86936427558483" lon="12.08921473180575"><ele>125.0</ele><time>2026-04-15T07:01:05.999Z</time></trkpt><trkpt lat="45.86944768965377" lon="12.0892115283704"><ele>124.99999999999999</ele><time>2026-04-15T07:01:07.999Z</time></trkpt><trkpt lat="45.869492745641345" lon="12.089381033045864"><ele>125.0</ele><time>2026-04-15T07:01:59.998Z</time></trkpt><trkpt lat="45.869467162137404" lon="12.089467007613331"><ele>124.8</ele><time>2026-04-15T07:02:00.998Z</time></trkpt><trkpt lat="45.86943023768003" lon="12.089584598474154"><ele>124.6</ele><time>2026-04-15T07:02:01.998Z</time></trkpt><trkpt lat="45.86939737424327" lon="12.089715257411077"><ele>124.4</ele><time>2026-04-15T07:02:02.999Z</time></trkpt><trkpt lat="45.86936815143847" lon="12.089833953911604"><ele>124.2</ele><time>2026-04-15T07:02:03.999Z</time></trkpt><trkpt lat="45.869335335738114" lon="12.089968495279981"><ele>124.0</ele><time>2026-04-15T07:02:04.999Z</time></trkpt><trkpt lat="45.8692965089402" lon="12.090121718163923"><ele>124.0</ele><time>2026-04-15T07:02:06.001Z</time></trkpt><trkpt lat="45.86927103645301" lon="12.09030041044573"><ele>124.0</ele><time>2026-04-15T07:02:07.001Z</time></trkpt><trkpt lat="45.869256036668496" lon="12.090474711176194"><ele>124.0</ele><time>2026-04-15T07:02:08Z</time></trkpt><trkpt lat="45.86925299006285" lon="12.090648854330242"><ele>124.0</ele><time>2026-04-15T07:02:09.001Z</time></trkpt><trkpt lat="45.86926597327201" lon="12.090827983161608"><ele>124.5</ele><time>2026-04-15T07:02:10.001Z</time></trkpt><trkpt lat="45.86929661546798" lon="12.09101312264521"><ele>125.0</ele><time>2026-04-15T07:02:11Z</time></trkpt><trkpt lat="45.869333883218026" lon="12.091204033188562"><ele>125.5</ele><time>2026-04-15T07:02:12Z</time></trkpt><trkpt lat="45.869375788884184" lon="12.091406618208923"><ele>126.0</ele><time>2026-04-15T07:02:13.001Z</time></trkpt><trkpt lat="45.86942068531958" lon="12.091618269476772"><ele>126.0</ele><time>2026-04-15T07:02:14Z</time></trkpt><trkpt lat="45.86946018406982" lon="12.091830012284108"><ele>126.0</ele><time>2026-04-15T07:02:15Z</time></trkpt><trkpt lat="45.869488785901865" lon="12.092038902988502"><ele>126.0</ele><time>2026-04-15T07:02:16.001Z</time></trkpt><trkpt lat="45.86949398455377" lon="12.092251661428069"><ele>126.0</ele><time>2026-04-15T07:02:17Z</time></trkpt><trkpt lat="45.86948837523203" lon="12.092468187640048"><ele>125.0</ele><time>2026-04-15T07:02:18Z</time></trkpt><trkpt lat="45.86946905996189" lon="12.092686023171677"><ele>124.0</ele><time>2026-04-15T07:02:19Z</time></trkpt><trkpt lat="45.86943438181998" lon="12.092904247457716"><ele>123.0</ele><time>2026-04-15T07:02:20Z</time></trkpt><trkpt lat="45.86939156910087" lon="12.09312098605034"><ele>123.0</ele><time>2026-04-15T07:02:21Z</time></trkpt><trkpt lat="45.86935112624071" lon="12.093339595542934"><ele>123.0</ele><time>2026-04-15T07:02:22Z</time></trkpt><trkpt lat="45.86931166543997" lon="12.093567726682187"><ele>123.0</ele><time>2026-04-15T07:02:23Z</time></trkpt><trkpt lat="45.869269080268744" lon="12.093807008029357"><ele>123.33333333333334</ele><time>2026-04-15T07:02:24Z</time></trkpt><trkpt lat="45.86922702715571" lon="12.094056477658837"><ele>123.66666666666667</ele><time>2026-04-15T07:02:25Z</time></trkpt><trkpt lat="45.86917673862544" lon="12.094319176803664"><ele>124.0</ele><time>2026-04-15T07:02:26Z</time></trkpt><trkpt lat="45.86913054529303" lon="12.094589167791241"><ele>124.0</ele><time>2026-04-15T07:02:27Z</time></trkpt><trkpt lat="45.869079718539446" lon="12.0948660488321"><ele>124.0</ele><time>2026-04-15T07:02:28Z</time></trkpt><trkpt lat="45.869032126801294" lon="12.09513727964678"><ele>124.0</ele><time>2026-04-15T07:02:29Z</time></trkpt><trkpt lat="45.86898476224746" lon="12.09540803088808"><ele>124.0</ele><time>2026-04-15T07:02:30Z</time></trkpt><trkpt lat="45.86893284861162" lon="12.095683537198784"><ele>124.0</ele><time>2026-04-15T07:02:31Z</time></trkpt><trkpt lat="45.86888312210788" lon="12.095965455164746"><ele>124.0</ele><time>2026-04-15T07:02:32Z</time></trkpt><trkpt lat="45.86883221784249" lon="12.096251765665553"><ele>123.66666666666667</ele><time>2026-04-15T07:02:33Z</time></trkpt><trkpt lat="45.86878052653671" lon="12.096545246409326"><ele>123.33333333333334</ele><time>2026-04-15T07:02:34Z</time></trkpt><trkpt lat="45.86873018034458" lon="12.09683813243142"><ele>123.0</ele><time>2026-04-15T07:02:35Z</time></trkpt><trkpt lat="45.868683325350744" lon="12.097124964115677"><ele>122.66666666666666</ele><time>2026-04-15T07:02:36Z</time></trkpt><trkpt lat="45.86864676845352" lon="12.097404552227534"><ele>122.33333333333333</ele><time>2026-04-15T07:02:37Z</time></trkpt><trkpt lat="45.868622732181024" lon="12.09768242493499"><ele>122.0</ele><time>2026-04-15T07:02:38Z</time></trkpt><trkpt lat="45.86860201010601" lon="12.097950655192635"><ele>121.66666666666666</ele><time>2026-04-15T07:02:39Z</time></trkpt><trkpt lat="45.86858575222753" lon="12.09819910217949"><ele>121.33333333333334</ele><time>2026-04-15T07:02:40Z</time></trkpt><trkpt lat="45.86857511108501" lon="12.098440771447565"><ele>121.0</ele><time>2026-04-15T07:02:41Z</time></trkpt><trkpt lat="45.868560666673204" lon="12.098674764553664"><ele>121.0</ele><time>2026-04-15T07:02:42Z</time></trkpt><trkpt lat="45.868546471498114" lon="12.098881572161277"><ele>121.0</ele><time>2026-04-15T07:02:43Z</time></trkpt><trkpt lat="45.86853378064549" lon="12.09902128588761"><ele>121.0</ele><time>2026-04-15T07:02:44Z</time></trkpt><trkpt lat="45.8685233851708" lon="12.099154627427083"><ele>121.0</ele><time>2026-04-15T07:02:45Z</time></trkpt><trkpt lat="45.868515204088965" lon="12.099281796726137"><ele>121.0</ele><time>2026-04-15T07:02:46Z</time></trkpt><trkpt lat="45.868507189229526" lon="12.099393039264488"><ele>121.16666666666667</ele><time>2026-04-15T07:02:48Z</time></trkpt><trkpt lat="45.868406020779325" lon="12.099431489901837"><ele>121.33333333333334</ele><time>2026-04-15T07:02:51Z</time></trkpt><trkpt lat="45.86833827458997" lon="12.099434162381957"><ele>121.5</ele><time>2026-04-15T07:02:52Z</time></trkpt><trkpt lat="45.86827676585805" lon="12.099455578396961"><ele>121.66666666666666</ele><time>2026-04-15T07:02:53Z</time></trkpt><trkpt lat="45.86820866347064" lon="12.099449677467367"><ele>121.83333333333333</ele><time>2026-04-15T07:02:54Z</time></trkpt><trkpt lat="45.86812991570521" lon="12.09945194082384"><ele>122.0</ele><time>2026-04-15T07:02:55Z</time></trkpt><trkpt lat="45.868040095429286" lon="12.099437307858087"><ele>122.0</ele><time>2026-04-15T07:02:56Z</time></trkpt><trkpt lat="45.86794938007234" lon="12.099450477390418"><ele>122.0</ele><time>2026-04-15T07:02:57Z</time></trkpt><trkpt lat="45.86786754493677" lon="12.099427190667537"><ele>122.0</ele><time>2026-04-15T07:02:58Z</time></trkpt><trkpt lat="45.86777092547312" lon="12.099392369174394"><ele>122.0</ele><time>2026-04-15T07:03:00Z</time></trkpt><trkpt lat="45.867720027126644" lon="12.099656590031682"><ele>122.0</ele><time>2026-04-15T07:03:02Z</time></trkpt><trkpt lat="45.86771627498683" lon="12.099770884569978"><ele>121.99999999999999</ele><time>2026-04-15T07:03:03Z</time></trkpt><trkpt lat="45.86771353845194" lon="12.099900588247495"><ele>121.99999999999999</ele><time>2026-04-15T07:03:04Z</time></trkpt><trkpt lat="45.86770650137877" lon="12.10004205599959"><ele>122.0</ele><time>2026-04-15T07:03:05Z</time></trkpt><trkpt lat="45.867696287545144" lon="12.1001814057606"><ele>122.0</ele><time>2026-04-15T07:03:06Z</time></trkpt><trkpt lat="45.86768564384965" lon="12.100317838956661"><ele>121.8</ele><time>2026-04-15T07:03:07Z</time></trkpt><trkpt lat="45.86767559224786" lon="12.100453186994072"><ele>121.6</ele><time>2026-04-15T07:03:08Z</time></trkpt><trkpt lat="45.86767474360006" lon="12.100592805498083"><ele>121.39999999999999</ele><time>2026-04-15T07:03:09Z</time></trkpt><trkpt lat="45.86768033899197" lon="12.100740884382306"><ele>121.19999999999999</ele><time>2026-04-15T07:03:10Z</time></trkpt><trkpt lat="45.867695459037584" lon="12.100896187134188"><ele>121.0</ele><time>2026-04-15T07:03:11Z</time></trkpt><trkpt lat="45.867710695045496" lon="12.101060830811605"><ele>121.0</ele><time>2026-04-15T07:03:12Z</time></trkpt><trkpt lat="45.86772673658716" lon="12.10123772534458"><ele>121.0</ele><time>2026-04-15T07:03:13Z</time></trkpt><trkpt lat="45.867749970555465" lon="12.101425434533919"><ele>121.0</ele><time>2026-04-15T07:03:14Z</time></trkpt><trkpt lat="45.867776623780244" lon="12.101621359752707"><ele>121.0</ele><time>2026-04-15T07:03:15Z</time></trkpt><trkpt lat="45.86780640386208" lon="12.101820554230649"><ele>121.0</ele><time>2026-04-15T07:03:16Z</time></trkpt><trkpt lat="45.86783233550555" lon="12.10200854878296"><ele>121.0</ele><time>2026-04-15T07:03:17Z</time></trkpt><trkpt lat="45.86785560182511" lon="12.102171042268516"><ele>121.0</ele><time>2026-04-15T07:03:18Z</time></trkpt><trkpt lat="45.86786941205026" lon="12.102299998874193"><ele>121.0</ele><time>2026-04-15T07:03:19Z</time></trkpt><trkpt lat="45.867874690062635" lon="12.102406176840052"><ele>121.0</ele><time>2026-04-15T07:03:21Z</time></trkpt><trkpt lat="45.86789235593496" lon="12.10249561470798"><ele>121.0</ele><time>2026-04-15T07:03:23Z</time></trkpt><trkpt lat="45.86784428615649" lon="12.102556037758418"><ele>121.0</ele><time>2026-04-15T07:03:24Z</time></trkpt><trkpt lat="45.86778383888823" lon="12.102664978679366"><ele>121.0</ele><time>2026-04-15T07:03:26Z</time></trkpt><trkpt lat="45.867723894637884" lon="12.102792763386956"><ele>121.0</ele><time>2026-04-15T07:03:28Z</time></trkpt><trkpt lat="45.867662120102096" lon="12.10292249649527"><ele>121.0</ele><time>2026-04-15T07:03:30Z</time></trkpt><trkpt lat="45.86759021730826" lon="12.103069091400616"><ele>121.00000000000001</ele><time>2026-04-15T07:03:32Z</time></trkpt><trkpt lat="45.86755477863122" lon="12.103147605781027"><ele>121.0</ele><time>2026-04-15T07:03:33Z</time></trkpt><trkpt lat="45.86751890324429" lon="12.10322919614335"><ele>121.0</ele><time>2026-04-15T07:03:34Z</time></trkpt><trkpt lat="45.867457236527905" lon="12.103362573538188"><ele>121.0</ele><time>2026-04-15T07:03:36Z</time></trkpt><trkpt lat="45.86740032549731" lon="12.103476139300339"><ele>121.00000000000001</ele><time>2026-04-15T07:03:38Z</time></trkpt><trkpt lat="45.86735607819507" lon="12.103568490843957"><ele>121.0</ele><time>2026-04-15T07:03:40Z</time></trkpt><trkpt lat="45.86726958837617" lon="12.103578416059786"><ele>121.00000000000001</ele><time>2026-04-15T07:03:44Z</time></trkpt><trkpt lat="45.867199456512424" lon="12.103520595001362"><ele>121.0</ele><time>2026-04-15T07:03:48Z</time></trkpt><trkpt lat="45.867115829690974" lon="12.103446567778313"><ele>121.0</ele><time>2026-04-15T07:03:50Z</time></trkpt><trkpt lat="45.86706119493573" lon="12.103400111720399"><ele>121.0</ele><time>2026-04-15T07:03:51Z</time></trkpt><trkpt lat="45.86694627662789" lon="12.103318182352691"><ele>121.00000000000001</ele><time>2026-04-15T07:03:53Z</time></trkpt><trkpt lat="45.86687758969718" lon="12.103277327626449"><ele>121.0</ele><time>2026-04-15T07:03:54Z</time></trkpt><trkpt lat="45.86681349893221" lon="12.103212691561053"><ele>121.00000000000001</ele><time>2026-04-15T07:03:54.999Z</time></trkpt><trkpt lat="45.86675960021529" lon="12.10312940317895"><ele>121.0</ele><time>2026-04-15T07:03:55.999Z</time></trkpt><trkpt lat="45.86672002391498" lon="12.103029648593004"><ele>121.0</ele><time>2026-04-15T07:03:56.999Z</time></trkpt><trkpt lat="45.86668757363421" lon="12.102920475147288"><ele>121.0</ele><time>2026-04-15T07:03:57.999Z</time></trkpt><trkpt lat="45.86665663735811" lon="12.102810564760278"><ele>121.00000000000001</ele><time>2026-04-15T07:03:58.999Z</time></trkpt><trkpt lat="45.866625549455925" lon="12.102706262724857"><ele>121.0</ele><time>2026-04-15T07:03:59.999Z</time></trkpt><trkpt lat="45.86659822734017" lon="12.10261772143534"><ele>121.0</ele><time>2026-04-15T07:04:00.999Z</time></trkpt><trkpt lat="45.866570989795164" lon="12.102508347885696"><ele>121.0</ele><time>2026-04-15T07:04:02.999Z</time></trkpt><trkpt lat="45.86640143405679" lon="12.102543757777623"><ele>121.0</ele><time>2026-04-15T07:04:05.999Z</time></trkpt><trkpt lat="45.86632971532122" lon="12.102554720888492"><ele>121.0</ele><time>2026-04-15T07:04:06.999Z</time></trkpt><trkpt lat="45.86625254301186" lon="12.102559722707515"><ele>121.0</ele><time>2026-04-15T07:04:07.999Z</time></trkpt><trkpt lat="45.86617586758255" lon="12.102562270996136"><ele>121.0</ele><time>2026-04-15T07:04:08.999Z</time></trkpt><trkpt lat="45.8660924616904" lon="12.102569168161196"><ele>121.0</ele><time>2026-04-15T07:04:09.999Z</time></trkpt><trkpt lat="45.866000507656054" lon="12.102574792454718"><ele>121.0</ele><time>2026-04-15T07:04:10.999Z</time></trkpt><trkpt lat="45.86589552963355" lon="12.102565781310325"><ele>121.0</ele><time>2026-04-15T07:04:12Z</time></trkpt><trkpt lat="45.86578328379219" lon="12.102570740166778"><ele>121.0</ele><time>2026-04-15T07:04:13Z</time></trkpt><trkpt lat="45.86566516010962" lon="12.102574615511383"><ele>121.25</ele><time>2026-04-15T07:04:14Z</time></trkpt><trkpt lat="45.86554261220758" lon="12.102579468306638"><ele>121.5</ele><time>2026-04-15T07:04:15Z</time></trkpt><trkpt lat="45.86542164511609" lon="12.10258138033615"><ele>121.75</ele><time>2026-04-15T07:04:16Z</time></trkpt><trkpt lat="45.86530062115005" lon="12.102585881027217"><ele>122.0</ele><time>2026-04-15T07:04:17Z</time></trkpt><trkpt lat="45.865173779385074" lon="12.1025942226683"><ele>122.25</ele><time>2026-04-15T07:04:18Z</time></trkpt><trkpt lat="45.86504407561082" lon="12.102598372095912"><ele>122.5</ele><time>2026-04-15T07:04:19Z</time></trkpt><trkpt lat="45.86492344702687" lon="12.10259534247865"><ele>122.75</ele><time>2026-04-15T07:04:20Z</time></trkpt><trkpt lat="45.86480647042944" lon="12.10258162451015"><ele>123.0</ele><time>2026-04-15T07:04:21Z</time></trkpt><trkpt lat="45.86469857149301" lon="12.10257589687854"><ele>123.0</ele><time>2026-04-15T07:04:22Z</time></trkpt><trkpt lat="45.86460709302533" lon="12.102574466257634"><ele>123.0</ele><time>2026-04-15T07:04:23Z</time></trkpt><trkpt lat="45.86453993254238" lon="12.102569928456862"><ele>123.0</ele><time>2026-04-15T07:04:24Z</time></trkpt><trkpt lat="45.86447263950068" lon="12.102559608166901"><ele>123.0</ele><time>2026-04-15T07:04:26Z</time></trkpt><trkpt lat="45.86440892693247" lon="12.102545552450069"><ele>123.0</ele><time>2026-04-15T07:04:36Z</time></trkpt><trkpt lat="45.864384003620785" lon="12.102382451696164"><ele>123.0</ele><time>2026-04-15T07:04:38Z</time></trkpt><trkpt lat="45.86437175627334" lon="12.102202950260084"><ele>123.0</ele><time>2026-04-15T07:04:40Z</time></trkpt><trkpt lat="45.86436208907829" lon="12.102103170981021"><ele>123.0</ele><time>2026-04-15T07:04:41Z</time></trkpt><trkpt lat="45.8643486010603" lon="12.10199256970723"><ele>123.0</ele><time>2026-04-15T07:04:42Z</time></trkpt><trkpt lat="45.86433541356868" lon="12.101871249650722"><ele>123.0</ele><time>2026-04-15T07:04:43Z</time></trkpt><trkpt lat="45.86432183012425" lon="12.101743789599253"><ele>123.0</ele><time>2026-04-15T07:04:44Z</time></trkpt><trkpt lat="45.864307407098885" lon="12.101608469537588"><ele>123.0</ele><time>2026-04-15T07:04:45Z</time></trkpt><trkpt lat="45.86429222740458" lon="12.101471267313874"><ele>123.0</ele><time>2026-04-15T07:04:46Z</time></trkpt><trkpt lat="45.86427846059252" lon="12.10133853135424"><ele>123.00000000000001</ele><time>2026-04-15T07:04:47Z</time></trkpt><trkpt lat="45.86426499159289" lon="12.101203948071351"><ele>123.00000000000001</ele><time>2026-04-15T07:04:48Z</time></trkpt><trkpt lat="45.86425004833608" lon="12.101065652708527"><ele>123.0</ele><time>2026-04-15T07:04:49Z</time></trkpt><trkpt lat="45.86423423368412" lon="12.100925926328495"><ele>123.0</ele><time>2026-04-15T07:04:50Z</time></trkpt><trkpt lat="45.86421802577169" lon="12.1007834034021"><ele>122.75</ele><time>2026-04-15T07:04:51Z</time></trkpt><trkpt lat="45.8642008266507" lon="12.10063386643944"><ele>122.5</ele><time>2026-04-15T07:04:52Z</time></trkpt><trkpt lat="45.864182827551936" lon="12.100480139002311"><ele>122.25</ele><time>2026-04-15T07:04:53Z</time></trkpt><trkpt lat="45.86416253475873" lon="12.10031600784146"><ele>122.0</ele><time>2026-04-15T07:04:54Z</time></trkpt><trkpt lat="45.86414279114736" lon="12.10014668405131"><ele>122.0</ele><time>2026-04-15T07:04:55Z</time></trkpt><trkpt lat="45.86412341419063" lon="12.099971228066899"><ele>122.0</ele><time>2026-04-15T07:04:56Z</time></trkpt><trkpt lat="45.864103289950556" lon="12.099790886387623"><ele>122.0</ele><time>2026-04-15T07:04:57Z</time></trkpt><trkpt lat="45.864082415695876" lon="12.099611499906693"><ele>122.0</ele><time>2026-04-15T07:04:58Z</time></trkpt><trkpt lat="45.864061039237974" lon="12.099431711447357"><ele>122.5</ele><time>2026-04-15T07:04:59Z</time></trkpt><trkpt lat="45.86403933790448" lon="12.09925236355976"><ele>123.0</ele><time>2026-04-15T07:05:00Z</time></trkpt><trkpt lat="45.864017749394066" lon="12.099074606948836"><ele>123.5</ele><time>2026-04-15T07:05:01Z</time></trkpt><trkpt lat="45.86399753041074" lon="12.09890200121493"><ele>124.0</ele><time>2026-04-15T07:05:02Z</time></trkpt><trkpt lat="45.8639790046102" lon="12.098741641926608"><ele>124.00000000000001</ele><time>2026-04-15T07:05:03Z</time></trkpt><trkpt lat="45.86396639943714" lon="12.09860567075526"><ele>124.0</ele><time>2026-04-15T07:05:04Z</time></trkpt><trkpt lat="45.8639600529026" lon="12.098503565866915"><ele>124.0</ele><time>2026-04-15T07:05:05Z</time></trkpt><trkpt lat="45.863953052042305" lon="12.098386720044173"><ele>124.0</ele><time>2026-04-15T07:05:07Z</time></trkpt><trkpt lat="45.86393332714896" lon="12.098279734790086"><ele>124.00000000000001</ele><time>2026-04-15T07:06:17Z</time></trkpt><trkpt lat="45.86391932126836" lon="12.098139905744834"><ele>124.0</ele><time>2026-04-15T07:06:19Z</time></trkpt><trkpt lat="45.86390886096733" lon="12.098030048931694"><ele>124.2</ele><time>2026-04-15T07:06:20Z</time></trkpt><trkpt lat="45.86389827022946" lon="12.09791701835839"><ele>124.4</ele><time>2026-04-15T07:06:21Z</time></trkpt><trkpt lat="45.86388954022559" lon="12.097804229521273"><ele>124.6</ele><time>2026-04-15T07:06:22Z</time></trkpt><trkpt lat="45.86388129788957" lon="12.097678195815876"><ele>124.8</ele><time>2026-04-15T07:06:23Z</time></trkpt><trkpt lat="45.863872065659336" lon="12.097539616261978"><ele>125.0</ele><time>2026-04-15T07:06:24Z</time></trkpt><trkpt lat="45.863864839437966" lon="12.097386539850254"><ele>125.2</ele><time>2026-04-15T07:06:25Z</time></trkpt><trkpt lat="45.863859286297775" lon="12.097227078809452"><ele>125.4</ele><time>2026-04-15T07:06:26Z</time></trkpt><trkpt lat="45.86385620945247" lon="12.097066957124502"><ele>125.6</ele><time>2026-04-15T07:06:27Z</time></trkpt><trkpt lat="45.863851781409885" lon="12.096910640819004"><ele>125.8</ele><time>2026-04-15T07:06:28Z</time></trkpt><trkpt lat="45.863850450445575" lon="12.09674914130348"><ele>126.0</ele><time>2026-04-15T07:06:29Z</time></trkpt><trkpt lat="45.86385170878385" lon="12.096583770630637"><ele>126.0</ele><time>2026-04-15T07:06:30Z</time></trkpt><trkpt lat="45.8638528645404" lon="12.09641341633536"><ele>126.0</ele><time>2026-04-15T07:06:31Z</time></trkpt><trkpt lat="45.863856882894076" lon="12.096237575020954"><ele>126.0</ele><time>2026-04-15T07:06:32Z</time></trkpt><trkpt lat="45.86386182766287" lon="12.096060973198894"><ele>126.0</ele><time>2026-04-15T07:06:33Z</time></trkpt><trkpt lat="45.86386862174011" lon="12.09588970920509"><ele>125.8</ele><time>2026-04-15T07:06:34Z</time></trkpt><trkpt lat="45.86387756416562" lon="12.095723298298502"><ele>125.6</ele><time>2026-04-15T07:06:35Z</time></trkpt><trkpt lat="45.86388824528576" lon="12.095568628684095"><ele>125.4</ele><time>2026-04-15T07:06:36Z</time></trkpt><trkpt lat="45.86389503885734" lon="12.095438187802792"><ele>125.2</ele><time>2026-04-15T07:06:37Z</time></trkpt><trkpt lat="45.863886694243" lon="12.095332716029795"><ele>125.0</ele><time>2026-04-15T07:06:38Z</time></trkpt><trkpt lat="45.86389211297609" lon="12.095218112923916"><ele>125.0</ele><time>2026-04-15T07:06:40Z</time></trkpt><trkpt lat="45.863709088363635" lon="12.095188015041453"><ele>125.0</ele><time>2026-04-15T07:06:41Z</time></trkpt><trkpt lat="45.86364465942084" lon="12.095170500487106"><ele>125.0</ele><time>2026-04-15T07:06:42Z</time></trkpt><trkpt lat="45.8635741828185" lon="12.09514379053406"><ele>125.0</ele><time>2026-04-15T07:06:43Z</time></trkpt><trkpt lat="45.863509363747745" lon="12.095118370800302"><ele>125.0</ele><time>2026-04-15T07:06:44Z</time></trkpt><trkpt lat="45.86338045549979" lon="12.095068855701786"><ele>125.16666666666666</ele><time>2026-04-15T07:06:46Z</time></trkpt><trkpt lat="45.86330497430944" lon="12.095039320691011"><ele>125.33333333333333</ele><time>2026-04-15T07:06:47Z</time></trkpt><trkpt lat="45.863220430236126" lon="12.095005067801553"><ele>125.5</ele><time>2026-04-15T07:06:48Z</time></trkpt><trkpt lat="45.863136125660695" lon="12.094973984341397"><ele>125.66666666666666</ele><time>2026-04-15T07:06:49Z</time></trkpt><trkpt lat="45.8630566802663" lon="12.094943873133342"><ele>125.83333333333333</ele><time>2026-04-15T07:06:50Z</time></trkpt><trkpt lat="45.862978865423734" lon="12.094917885387886"><ele>126.0</ele><time>2026-04-15T07:06:51Z</time></trkpt><trkpt lat="45.86290493654338" lon="12.094891981057298"><ele>125.66666666666667</ele><time>2026-04-15T07:06:52Z</time></trkpt><trkpt lat="45.862827517751704" lon="12.094864359648339"><ele>125.33333333333334</ele><time>2026-04-15T07:06:53Z</time></trkpt><trkpt lat="45.862747101253376" lon="12.094840450621831"><ele>125.0</ele><time>2026-04-15T07:06:54Z</time></trkpt><trkpt lat="45.862662431620784" lon="12.09481422253579"><ele>124.66666666666667</ele><time>2026-04-15T07:06:55Z</time></trkpt><trkpt lat="45.86257303530586" lon="12.094788715343407"><ele>124.33333333333334</ele><time>2026-04-15T07:06:56Z</time></trkpt><trkpt lat="45.86247936227687" lon="12.09476307844756"><ele>124.0</ele><time>2026-04-15T07:06:57Z</time></trkpt><trkpt lat="45.862386779647416" lon="12.094734015470321"><ele>124.0</ele><time>2026-04-15T07:06:58Z</time></trkpt><trkpt lat="45.862294453804594" lon="12.094707104696543"><ele>124.0</ele><time>2026-04-15T07:06:59Z</time></trkpt><trkpt lat="45.86220132287617" lon="12.094679688397271"><ele>124.0</ele><time>2026-04-15T07:07:00Z</time></trkpt><trkpt lat="45.862107497367276" lon="12.094658478264662"><ele>124.0</ele><time>2026-04-15T07:07:01Z</time></trkpt><trkpt lat="45.86201336653224" lon="12.094640586816183"><ele>124.0</ele><time>2026-04-15T07:07:02Z</time></trkpt><trkpt lat="45.861923978948866" lon="12.094630528001122"><ele>124.00000000000001</ele><time>2026-04-15T07:07:03Z</time></trkpt><trkpt lat="45.861841590940294" lon="12.094602176408504"><ele>124.0</ele><time>2026-04-15T07:07:04Z</time></trkpt><trkpt lat="45.86176338243376" lon="12.09459957766844"><ele>124.0</ele><time>2026-04-15T07:07:05Z</time></trkpt><trkpt lat="45.86169003138732" lon="12.094617112123846"><ele>124.0</ele><time>2026-04-15T07:07:06Z</time></trkpt><trkpt lat="45.86162605497713" lon="12.09457513163269"><ele>124.00000000000001</ele><time>2026-04-15T07:07:07Z</time></trkpt><trkpt lat="45.86151997766316" lon="12.094460964790585"><ele>124.0</ele><time>2026-04-15T07:07:09Z</time></trkpt><trkpt lat="45.86147384473625" lon="12.094393322015685"><ele>124.00000000000001</ele><time>2026-04-15T07:07:10Z</time></trkpt><trkpt lat="45.861430895972006" lon="12.094307996975234"><ele>124.0</ele><time>2026-04-15T07:07:11Z</time></trkpt><trkpt lat="45.86139095929777" lon="12.0942153753018"><ele>124.0</ele><time>2026-04-15T07:07:12Z</time></trkpt><trkpt lat="45.86135673342632" lon="12.094107799674516"><ele>124.0</ele><time>2026-04-15T07:07:13Z</time></trkpt><trkpt lat="45.861340690809676" lon="12.093987096167627"><ele>124.00000000000001</ele><time>2026-04-15T07:07:14Z</time></trkpt><trkpt lat="45.861335435738965" lon="12.093866825984609"><ele>124.0</ele><time>2026-04-15T07:07:15Z</time></trkpt><trkpt lat="45.86133767139365" lon="12.0937568370136"><ele>124.00000000000001</ele><time>2026-04-15T07:07:16Z</time></trkpt><trkpt lat="45.86134183373415" lon="12.09365193960647"><ele>124.0</ele><time>2026-04-15T07:07:17Z</time></trkpt><trkpt lat="45.86135169871092" lon="12.0935537748725"><ele>124.0</ele><time>2026-04-15T07:07:18Z</time></trkpt><trkpt lat="45.861360354680805" lon="12.09346320135176"><ele>124.0</ele><time>2026-04-15T07:07:19Z</time></trkpt><trkpt lat="45.86137211274573" lon="12.093283929639925"><ele>124.00000000000001</ele><time>2026-04-15T07:07:21Z</time></trkpt><trkpt lat="45.86138199038117" lon="12.093117366506728"><ele>124.0</ele><time>2026-04-15T07:07:23Z</time></trkpt><trkpt lat="45.86138908925737" lon="12.093016815114737"><ele>124.00000000000001</ele><time>2026-04-15T07:07:25Z</time></trkpt><trkpt lat="45.861387231500366" lon="12.09316743052725"><ele>124.0</ele><time>2026-04-15T07:07:41Z</time></trkpt><trkpt lat="45.86138140082743" lon="12.09325976175976"><ele>124.0</ele><time>2026-04-15T07:07:42Z</time></trkpt><trkpt lat="45.86135443450399" lon="12.093350221069892"><ele>124.0</ele><time>2026-04-15T07:07:43Z</time></trkpt><trkpt lat="45.86134800432817" lon="12.093441048287517"><ele>124.00000000000001</ele><time>2026-04-15T07:07:44Z</time></trkpt><trkpt lat="45.86134038309952" lon="12.093542981315894"><ele>124.0</ele><time>2026-04-15T07:07:45Z</time></trkpt><trkpt lat="45.861332101216355" lon="12.093658574120315"><ele>124.0</ele><time>2026-04-15T07:07:46Z</time></trkpt><trkpt lat="45.86132315482922" lon="12.093785256083256"><ele>124.0</ele><time>2026-04-15T07:07:47Z</time></trkpt><trkpt lat="45.86132153522998" lon="12.09390610621661"><ele>124.0</ele><time>2026-04-15T07:07:48Z</time></trkpt><trkpt lat="45.86132294515618" lon="12.094024338260363"><ele>124.0</ele><time>2026-04-15T07:07:49Z</time></trkpt><trkpt lat="45.861347345108555" lon="12.094154587860476"><ele>124.0</ele><time>2026-04-15T07:07:50Z</time></trkpt><trkpt lat="45.86139670015633" lon="12.094280958007742"><ele>124.16666666666667</ele><time>2026-04-15T07:07:51Z</time></trkpt><trkpt lat="45.86145230023533" lon="12.094370092478856"><ele>124.33333333333334</ele><time>2026-04-15T07:07:52Z</time></trkpt><trkpt lat="45.86152806525263" lon="12.094490203848427"><ele>124.5</ele><time>2026-04-15T07:07:54Z</time></trkpt><trkpt lat="45.86152487656889" lon="12.094597915985526"><ele>124.66666666666666</ele><time>2026-04-15T07:07:56Z</time></trkpt><trkpt lat="45.861452583150914" lon="12.094645616730798"><ele>124.83333333333333</ele><time>2026-04-15T07:07:57.999Z</time></trkpt><trkpt lat="45.86139306622733" lon="12.0945991203444"><ele>125.0</ele><time>2026-04-15T07:07:58.999Z</time></trkpt><trkpt lat="45.86132124823157" lon="12.09459085326155"><ele>125.0</ele><time>2026-04-15T07:07:59.999Z</time></trkpt><trkpt lat="45.86123257088899" lon="12.094599596686836"><ele>125.0</ele><time>2026-04-15T07:08:00.999Z</time></trkpt><trkpt lat="45.86115009163248" lon="12.094587454532206"><ele>125.0</ele><time>2026-04-15T07:08:01.999Z</time></trkpt><trkpt lat="45.861061478539085" lon="12.094575127946332"><ele>125.0</ele><time>2026-04-15T07:08:02.999Z</time></trkpt><trkpt lat="45.86096343798243" lon="12.094563823018605"><ele>125.0</ele><time>2026-04-15T07:08:03.999Z</time></trkpt><trkpt lat="45.86084957131218" lon="12.094552535641743"><ele>125.0</ele><time>2026-04-15T07:08:04.999Z</time></trkpt><trkpt lat="45.86072508301264" lon="12.094541010969659"><ele>125.0</ele><time>2026-04-15T07:08:05.999Z</time></trkpt><trkpt lat="45.86059161039309" lon="12.094526256999622"><ele>125.0</ele><time>2026-04-15T07:08:06.999Z</time></trkpt><trkpt lat="45.86045050424096" lon="12.094507664825644"><ele>125.0</ele><time>2026-04-15T07:08:07.999Z</time></trkpt><trkpt lat="45.860306308467784" lon="12.09448968922356"><ele>125.0</ele><time>2026-04-15T07:08:08.999Z</time></trkpt><trkpt lat="45.86016585627424" lon="12.094472979569055"><ele>125.0</ele><time>2026-04-15T07:08:09.999Z</time></trkpt><trkpt lat="45.86002310464875" lon="12.09445895265896"><ele>125.0</ele><time>2026-04-15T07:08:10.999Z</time></trkpt><trkpt lat="45.859877398535566" lon="12.094442262479028"><ele>125.0</ele><time>2026-04-15T07:08:11.999Z</time></trkpt><trkpt lat="45.859731970988925" lon="12.094427138574119"><ele>125.0</ele><time>2026-04-15T07:08:12.999Z</time></trkpt><trkpt lat="45.85959039577919" lon="12.094410070656291"><ele>125.0</ele><time>2026-04-15T07:08:13.999Z</time></trkpt><trkpt lat="45.85946220538357" lon="12.094393327212511"><ele>125.0</ele><time>2026-04-15T07:08:14.999Z</time></trkpt><trkpt lat="45.85935862875133" lon="12.09438053946294"><ele>125.0</ele><time>2026-04-15T07:08:15.999Z</time></trkpt><trkpt lat="45.859274509780974" lon="12.094372753031461"><ele>124.99999999999999</ele><time>2026-04-15T07:08:16.999Z</time></trkpt><trkpt lat="45.85920360804885" lon="12.094374312030876"><ele>125.0</ele><time>2026-04-15T07:09:26Z</time></trkpt><trkpt lat="45.85910268557478" lon="12.094361642097839"><ele>125.0</ele><time>2026-04-15T07:09:29Z</time></trkpt><trkpt lat="45.85903804063958" lon="12.094358662080019"><ele>125.0</ele><time>2026-04-15T07:09:30Z</time></trkpt><trkpt lat="45.8589609688513" lon="12.094352342471584"><ele>124.99999999999999</ele><time>2026-04-15T07:09:31Z</time></trkpt><trkpt lat="45.858885109164035" lon="12.094342917542374"><ele>125.0</ele><time>2026-04-15T07:09:32Z</time></trkpt><trkpt lat="45.858803654306676" lon="12.094332256264932"><ele>125.0</ele><time>2026-04-15T07:09:33Z</time></trkpt><trkpt lat="45.858713100557175" lon="12.094326073628805"><ele>125.0</ele><time>2026-04-15T07:09:34Z</time></trkpt><trkpt lat="45.8586227280396" lon="12.094319882711398"><ele>125.0</ele><time>2026-04-15T07:09:35Z</time></trkpt><trkpt lat="45.85853304394603" lon="12.094304818189803"><ele>125.0</ele><time>2026-04-15T07:09:36Z</time></trkpt><trkpt lat="45.8584411800086" lon="12.0942963970191"><ele>125.0</ele><time>2026-04-15T07:09:37Z</time></trkpt><trkpt lat="45.85834776943161" lon="12.094285442421771"><ele>125.2</ele><time>2026-04-15T07:09:38Z</time></trkpt><trkpt lat="45.85825324777255" lon="12.094274793980048"><ele>125.4</ele><time>2026-04-15T07:09:39Z</time></trkpt><trkpt lat="45.85815832977073" lon="12.094262732685998"><ele>125.6</ele><time>2026-04-15T07:09:40Z</time></trkpt><trkpt lat="45.858063231581895" lon="12.09424588030207"><ele>125.8</ele><time>2026-04-15T07:09:41Z</time></trkpt><trkpt lat="45.857969422905434" lon="12.094229265203042"><ele>126.0</ele><time>2026-04-15T07:09:42Z</time></trkpt><trkpt lat="45.857873716617426" lon="12.094220125685762"><ele>126.0</ele><time>2026-04-15T07:09:43Z</time></trkpt><trkpt lat="45.85777718557652" lon="12.094211144464756"><ele>126.0</ele><time>2026-04-15T07:09:44Z</time></trkpt><trkpt lat="45.85769644143366" lon="12.094203263512206"><ele>126.0</ele><time>2026-04-15T07:09:45Z</time></trkpt><trkpt lat="45.857627511728204" lon="12.094193954804723"><ele>126.0</ele><time>2026-04-15T07:09:46Z</time></trkpt><trkpt lat="45.857535572709644" lon="12.09418333578433"><ele>126.0</ele><time>2026-04-15T07:10:41Z</time></trkpt><trkpt lat="45.85741938889628" lon="12.094175854388414"><ele>126.16666666666667</ele><time>2026-04-15T07:10:43Z</time></trkpt><trkpt lat="45.85734229576119" lon="12.09416866755294"><ele>126.33333333333334</ele><time>2026-04-15T07:10:44Z</time></trkpt><trkpt lat="45.85726656377252" lon="12.094160963554756"><ele>126.5</ele><time>2026-04-15T07:10:45Z</time></trkpt><trkpt lat="45.85718477859012" lon="12.09415067730822"><ele>126.66666666666667</ele><time>2026-04-15T07:10:46Z</time></trkpt><trkpt lat="45.85709165412416" lon="12.094138052960238"><ele>126.83333333333334</ele><time>2026-04-15T07:10:47Z</time></trkpt><trkpt lat="45.856985376601536" lon="12.094124924406765"><ele>127.0</ele><time>2026-04-15T07:10:48Z</time></trkpt><trkpt lat="45.85686908142684" lon="12.094110831369882"><ele>126.75</ele><time>2026-04-15T07:10:49Z</time></trkpt><trkpt lat="45.856746269338835" lon="12.094095758713644"><ele>126.5</ele><time>2026-04-15T07:10:50Z</time></trkpt><trkpt lat="45.85662258014889" lon="12.094081519922183"><ele>126.25</ele><time>2026-04-15T07:10:51Z</time></trkpt><trkpt lat="45.85650193507532" lon="12.094067203138172"><ele>126.0</ele><time>2026-04-15T07:10:52Z</time></trkpt><trkpt lat="45.85637617045764" lon="12.09404946428703"><ele>125.75</ele><time>2026-04-15T07:10:53Z</time></trkpt><trkpt lat="45.85624160900351" lon="12.094034126634574"><ele>125.5</ele><time>2026-04-15T07:10:54Z</time></trkpt><trkpt lat="45.856100262439604" lon="12.09402001353304"><ele>125.25</ele><time>2026-04-15T07:10:55Z</time></trkpt><trkpt lat="45.855951864883885" lon="12.094003478514823"><ele>125.0</ele><time>2026-04-15T07:10:56Z</time></trkpt><trkpt lat="45.855805215051404" lon="12.09398863661599"><ele>125.5</ele><time>2026-04-15T07:10:57Z</time></trkpt><trkpt lat="45.85566136361712" lon="12.093974079197089"><ele>126.0</ele><time>2026-04-15T07:10:58Z</time></trkpt><trkpt lat="45.855521213085694" lon="12.09395841213888"><ele>126.5</ele><time>2026-04-15T07:10:59Z</time></trkpt><trkpt lat="45.85538346964355" lon="12.093948159976009"><ele>127.0</ele><time>2026-04-15T07:11:00Z</time></trkpt><trkpt lat="45.85524885098884" lon="12.0939448157924"><ele>126.5</ele><time>2026-04-15T07:11:01Z</time></trkpt><trkpt lat="45.85511679427334" lon="12.093948319700678"><ele>126.0</ele><time>2026-04-15T07:11:02Z</time></trkpt><trkpt lat="45.854983922636954" lon="12.093952076678312"><ele>125.5</ele><time>2026-04-15T07:11:03Z</time></trkpt><trkpt lat="45.85484893487498" lon="12.093953867783933"><ele>125.0</ele><time>2026-04-15T07:11:04Z</time></trkpt><trkpt lat="45.85471192844579" lon="12.093953513141217"><ele>125.0</ele><time>2026-04-15T07:11:05Z</time></trkpt><trkpt lat="45.85457882526144" lon="12.093958720070239"><ele>125.0</ele><time>2026-04-15T07:11:06Z</time></trkpt><trkpt lat="45.854448901217964" lon="12.093977190753101"><ele>125.0</ele><time>2026-04-15T07:11:07Z</time></trkpt><trkpt lat="45.85432528263262" lon="12.09401971879161"><ele>125.0</ele><time>2026-04-15T07:11:08Z</time></trkpt><trkpt lat="45.85420820566802" lon="12.094082786710358"><ele>125.5</ele><time>2026-04-15T07:11:09Z</time></trkpt><trkpt lat="45.85409698100301" lon="12.094157347857458"><ele>126.0</ele><time>2026-04-15T07:11:10Z</time></trkpt><trkpt lat="45.85399278640274" lon="12.094242987210233"><ele>126.5</ele><time>2026-04-15T07:11:11Z</time></trkpt><trkpt lat="45.85389902124999" lon="12.094345428267939"><ele>127.0</ele><time>2026-04-15T07:11:12Z</time></trkpt><trkpt lat="45.85382339244041" lon="12.094463402121832"><ele>127.00000000000001</ele><time>2026-04-15T07:11:13Z</time></trkpt><trkpt lat="45.85377231244344" lon="12.094588638715733"><ele>127.0</ele><time>2026-04-15T07:11:14Z</time></trkpt><trkpt lat="45.85374428479751" lon="12.094709316662332"><ele>127.0</ele><time>2026-04-15T07:11:15Z</time></trkpt><trkpt lat="45.85372916050855" lon="12.094805764053199"><ele>127.0</ele><time>2026-04-15T07:11:16Z</time></trkpt><trkpt lat="45.85367384060944" lon="12.094897753666867"><ele>127.00000000000001</ele><time>2026-04-15T07:11:18Z</time></trkpt><trkpt lat="45.853600628608255" lon="12.094881890281089"><ele>127.0</ele><time>2026-04-15T07:11:20Z</time></trkpt><trkpt lat="45.853502186000135" lon="12.094824475376186"><ele>127.0</ele><time>2026-04-15T07:11:22Z</time></trkpt><trkpt lat="45.85338418218735" lon="12.094782446774113"><ele>126.99999999999999</ele><time>2026-04-15T07:11:24Z</time></trkpt><trkpt lat="45.853309496999344" lon="12.09476441682901"><ele>126.99999999999999</ele><time>2026-04-15T07:11:25Z</time></trkpt><trkpt lat="45.853226000769" lon="12.094744445484988"><ele>127.0</ele><time>2026-04-15T07:11:26Z</time></trkpt><trkpt lat="45.853132895351585" lon="12.094721813491304"><ele>127.0</ele><time>2026-04-15T07:11:27Z</time></trkpt><trkpt lat="45.85303213171141" lon="12.094705917651401"><ele>127.0</ele><time>2026-04-15T07:11:28Z</time></trkpt><trkpt lat="45.85292832797429" lon="12.094676975829412"><ele>126.99999999999999</ele><time>2026-04-15T07:11:29Z</time></trkpt><trkpt lat="45.85282499414798" lon="12.094668123295968"><ele>126.99999999999999</ele><time>2026-04-15T07:11:30Z</time></trkpt><trkpt lat="45.85272490504419" lon="12.094668612660808"><ele>127.0</ele><time>2026-04-15T07:11:31Z</time></trkpt><trkpt lat="45.852631173191725" lon="12.094680632599559"><ele>127.0</ele><time>2026-04-15T07:11:32Z</time></trkpt><trkpt lat="45.85254256959892" lon="12.094703019465614"><ele>126.50000000000001</ele><time>2026-04-15T07:11:33Z</time></trkpt><trkpt lat="45.85245858546915" lon="12.094728856080689"><ele>126.0</ele><time>2026-04-15T07:11:34Z</time></trkpt><trkpt lat="45.85237080440375" lon="12.094743927354717"><ele>125.5</ele><time>2026-04-15T07:11:35Z</time></trkpt><trkpt lat="45.85227417169815" lon="12.094789545865028"><ele>125.0</ele><time>2026-04-15T07:11:37Z</time></trkpt><trkpt lat="45.852209450526225" lon="12.094795809003752"><ele>124.50000000000001</ele><time>2026-04-15T07:11:39Z</time></trkpt><trkpt lat="45.852299836337714" lon="12.094741255200397"><ele>124.0</ele><time>2026-04-15T07:12:01.999Z</time></trkpt><trkpt lat="45.85243825312754" lon="12.094718477536933"><ele>124.0</ele><time>2026-04-15T07:12:03.999Z</time></trkpt><trkpt lat="45.85251581244715" lon="12.09471144829424"><ele>124.0</ele><time>2026-04-15T07:12:04.999Z</time></trkpt><trkpt lat="45.85231071224922" lon="12.094961377761898"><ele>124.0</ele><time>2026-04-15T07:12:05.999Z</time></trkpt><trkpt lat="45.85272339231546" lon="12.094715324409616"><ele>124.6</ele><time>2026-04-15T07:12:06.999Z</time></trkpt><trkpt lat="45.85281765955308" lon="12.094711310617908"><ele>125.2</ele><time>2026-04-15T07:12:07.999Z</time></trkpt><trkpt lat="45.85292082082536" lon="12.094718857584418"><ele>125.79999999999998</ele><time>2026-04-15T07:12:08.999Z</time></trkpt><trkpt lat="45.85303235057152" lon="12.0947398384262"><ele>126.39999999999999</ele><time>2026-04-15T07:12:09.999Z</time></trkpt><trkpt lat="45.85315417577503" lon="12.094763324314533"><ele>127.0</ele><time>2026-04-15T07:12:10.999Z</time></trkpt><trkpt lat="45.85327116228999" lon="12.094789918386967"><ele>127.00000000000001</ele><time>2026-04-15T07:12:11.999Z</time></trkpt><trkpt lat="45.85338543021821" lon="12.094819304232272"><ele>127.0</ele><time>2026-04-15T07:12:12.999Z</time></trkpt><trkpt lat="45.85348444982629" lon="12.094857446610131"><ele>127.0</ele><time>2026-04-15T07:12:13.999Z</time></trkpt><trkpt lat="45.85355877643298" lon="12.094891462261891"><ele>127.0</ele><time>2026-04-15T07:12:14.999Z</time></trkpt><trkpt lat="45.85361544242072" lon="12.094931970472631"><ele>127.00000000000001</ele><time>2026-04-15T07:12:15.999Z</time></trkpt><trkpt lat="45.8536581005002" lon="12.095000386335856"><ele>127.0</ele><time>2026-04-15T07:12:17.999Z</time></trkpt><trkpt lat="45.85367741206972" lon="12.095100787214866"><ele>126.8</ele><time>2026-04-15T07:12:19.999Z</time></trkpt><trkpt lat="45.853689639970405" lon="12.095286240773353"><ele>126.6</ele><time>2026-04-15T07:12:21.999Z</time></trkpt><trkpt lat="45.853691550453384" lon="12.09538839000712"><ele>126.39999999999999</ele><time>2026-04-15T07:12:22.999Z</time></trkpt><trkpt lat="45.853684761119744" lon="12.095495592795135"><ele>126.19999999999999</ele><time>2026-04-15T07:12:23.999Z</time></trkpt><trkpt lat="45.85367838754631" lon="12.095614797805267"><ele>126.0</ele><time>2026-04-15T07:12:24.999Z</time></trkpt><trkpt lat="45.85367598967077" lon="12.09575281251283"><ele>126.0</ele><time>2026-04-15T07:12:25.999Z</time></trkpt><trkpt lat="45.85367212709371" lon="12.095893292516646"><ele>126.0</ele><time>2026-04-15T07:12:26.999Z</time></trkpt><trkpt lat="45.85366855932104" lon="12.09602578080224"><ele>126.0</ele><time>2026-04-15T07:12:27.999Z</time></trkpt><trkpt lat="45.85366495469078" lon="12.096164015680392"><ele>126.0</ele><time>2026-04-15T07:12:28.999Z</time></trkpt><trkpt lat="45.85366588670164" lon="12.096310292524215"><ele>126.0</ele><time>2026-04-15T07:12:29.999Z</time></trkpt><trkpt lat="45.853670852824855" lon="12.096462322201551"><ele>125.5</ele><time>2026-04-15T07:12:30.999Z</time></trkpt><trkpt lat="45.85367922793716" lon="12.096623264442888"><ele>125.0</ele><time>2026-04-15T07:12:31.999Z</time></trkpt><trkpt lat="45.853687580417464" lon="12.096794106802712"><ele>124.5</ele><time>2026-04-15T07:12:32.999Z</time></trkpt><trkpt lat="45.85369654248074" lon="12.096977524053099"><ele>124.0</ele><time>2026-04-15T07:12:34Z</time></trkpt><trkpt lat="45.85370812215515" lon="12.097168784638036"><ele>124.0</ele><time>2026-04-15T07:12:35Z</time></trkpt><trkpt lat="45.85372064148619" lon="12.09736417432134"><ele>124.0</ele><time>2026-04-15T07:12:36Z</time></trkpt><trkpt lat="45.853733225251084" lon="12.097556372462218"><ele>124.0</ele><time>2026-04-15T07:12:37Z</time></trkpt><trkpt lat="45.85373783869029" lon="12.097739117047022"><ele>124.0</ele><time>2026-04-15T07:12:38Z</time></trkpt><trkpt lat="45.85372568837516" lon="12.097909215227332"><ele>124.0</ele><time>2026-04-15T07:12:39Z</time></trkpt><trkpt lat="45.85368916365077" lon="12.09807022443024"><ele>124.0</ele><time>2026-04-15T07:12:40Z</time></trkpt><trkpt lat="45.85363818265252" lon="12.098233879603491"><ele>124.0</ele><time>2026-04-15T07:12:41Z</time></trkpt><trkpt lat="45.85358894519645" lon="12.09840300221349"><ele>124.0</ele><time>2026-04-15T07:12:42Z</time></trkpt><trkpt lat="45.85355337149766" lon="12.098566851325216"><ele>124.00000000000001</ele><time>2026-04-15T07:12:43Z</time></trkpt><trkpt lat="45.853526916245855" lon="12.09871027672568"><ele>124.0</ele><time>2026-04-15T07:12:44Z</time></trkpt><trkpt lat="45.85351413772512" lon="12.098819465255282"><ele>124.0</ele><time>2026-04-15T07:12:45Z</time></trkpt><trkpt lat="45.853502179358394" lon="12.098930251835789"><ele>124.0</ele><time>2026-04-15T07:12:47Z</time></trkpt><trkpt lat="45.853509454099544" lon="12.099056724547633"><ele>124.00000000000001</ele><time>2026-04-15T07:14:21.999Z</time></trkpt><trkpt lat="45.85349938301271" lon="12.099180716019319"><ele>124.0</ele><time>2026-04-15T07:14:23.999Z</time></trkpt><trkpt lat="45.85349067665137" lon="12.09932320672351"><ele>124.00000000000001</ele><time>2026-04-15T07:14:25.999Z</time></trkpt><trkpt lat="45.85347770163987" lon="12.09947769860275"><ele>124.0</ele><time>2026-04-15T07:14:27.999Z</time></trkpt><trkpt lat="45.85346392830113" lon="12.099635480820455"><ele>124.0</ele><time>2026-04-15T07:14:29.999Z</time></trkpt><trkpt lat="45.853456775009086" lon="12.099730306582154"><ele>124.0</ele><time>2026-04-15T07:14:30.999Z</time></trkpt><trkpt lat="45.85345037552698" lon="12.099835274421515"><ele>124.00000000000001</ele><time>2026-04-15T07:14:31.999Z</time></trkpt><trkpt lat="45.85344515228637" lon="12.09994772533684"><ele>124.0</ele><time>2026-04-15T07:14:32.999Z</time></trkpt><trkpt lat="45.85343654151807" lon="12.100067245326029"><ele>124.0</ele><time>2026-04-15T07:14:33.999Z</time></trkpt><trkpt lat="45.853425581485254" lon="12.100192936491743"><ele>124.0</ele><time>2026-04-15T07:14:34.999Z</time></trkpt><trkpt lat="45.85341549561061" lon="12.100322857765757"><ele>124.0</ele><time>2026-04-15T07:14:35.999Z</time></trkpt><trkpt lat="45.85340588194949" lon="12.100454085209547"><ele>124.0</ele><time>2026-04-15T07:14:36.999Z</time></trkpt><trkpt lat="45.853397235571855" lon="12.100586634308794"><ele>124.0</ele><time>2026-04-15T07:14:37.999Z</time></trkpt><trkpt lat="45.85338935151332" lon="12.100720022466298"><ele>123.83333333333334</ele><time>2026-04-15T07:14:39Z</time></trkpt><trkpt lat="45.8533816581702" lon="12.10085322910879"><ele>123.66666666666667</ele><time>2026-04-15T07:14:40Z</time></trkpt><trkpt lat="45.853372136819544" lon="12.100982868175612"><ele>123.5</ele><time>2026-04-15T07:14:41Z</time></trkpt><trkpt lat="45.853360880126985" lon="12.101105867899532"><ele>123.33333333333334</ele><time>2026-04-15T07:14:42Z</time></trkpt><trkpt lat="45.853349986072054" lon="12.10122590180629"><ele>123.16666666666667</ele><time>2026-04-15T07:14:43Z</time></trkpt><trkpt lat="45.853341993351926" lon="12.101339354470241"><ele>123.0</ele><time>2026-04-15T07:14:44Z</time></trkpt><trkpt lat="45.85333538196625" lon="12.101443594208874"><ele>123.0</ele><time>2026-04-15T07:14:45Z</time></trkpt><trkpt lat="45.853329650716205" lon="12.101538430022837"><ele>123.0</ele><time>2026-04-15T07:14:46Z</time></trkpt><trkpt lat="45.8533257479803" lon="12.101631125916942"><ele>123.0</ele><time>2026-04-15T07:14:47Z</time></trkpt><trkpt lat="45.85333557635171" lon="12.101799346691514"><ele>123.0</ele><time>2026-04-15T07:14:49Z</time></trkpt><trkpt lat="45.85333318040346" lon="12.101985606961625"><ele>123.0</ele><time>2026-04-15T07:14:51Z</time></trkpt><trkpt lat="45.85332307686322" lon="12.102086785992494"><ele>123.0</ele><time>2026-04-15T07:14:52Z</time></trkpt><trkpt lat="45.85331365791511" lon="12.10219535581223"><ele>122.83333333333333</ele><time>2026-04-15T07:14:53Z</time></trkpt><trkpt lat="45.853303375693926" lon="12.102308539225023"><ele>122.66666666666666</ele><time>2026-04-15T07:14:54Z</time></trkpt><trkpt lat="45.85329418043075" lon="12.102425006107975"><ele>122.5</ele><time>2026-04-15T07:14:55Z</time></trkpt><trkpt lat="45.853285063123" lon="12.10254480152235"><ele>122.33333333333333</ele><time>2026-04-15T07:14:56Z</time></trkpt><trkpt lat="45.85327238714505" lon="12.10266492467844"><ele>122.16666666666666</ele><time>2026-04-15T07:14:57Z</time></trkpt><trkpt lat="45.85326009852044" lon="12.102789515280248"><ele>122.0</ele><time>2026-04-15T07:14:58Z</time></trkpt><trkpt lat="45.853248077580496" lon="12.10291512400573"><ele>121.99999999999999</ele><time>2026-04-15T07:14:59Z</time></trkpt><trkpt lat="45.85323776818688" lon="12.10303919786885"><ele>122.0</ele><time>2026-04-15T07:15:00Z</time></trkpt><trkpt lat="45.85322483662567" lon="12.103160770200592"><ele>122.0</ele><time>2026-04-15T07:15:01Z</time></trkpt><trkpt lat="45.853209827086964" lon="12.10327863247238"><ele>122.0</ele><time>2026-04-15T07:15:02Z</time></trkpt><trkpt lat="45.853193496039864" lon="12.103389664855648"><ele>121.99999999999999</ele><time>2026-04-15T07:15:03Z</time></trkpt><trkpt lat="45.853177451924466" lon="12.103498083444755"><ele>122.0</ele><time>2026-04-15T07:15:04Z</time></trkpt><trkpt lat="45.853162173883135" lon="12.103598967775136"><ele>122.14285714285712</ele><time>2026-04-15T07:15:05Z</time></trkpt><trkpt lat="45.85314813715016" lon="12.103698743667247"><ele>122.28571428571428</ele><time>2026-04-15T07:15:06Z</time></trkpt><trkpt lat="45.8531329382459" lon="12.10379719996791"><ele>122.42857142857143</ele><time>2026-04-15T07:15:07Z</time></trkpt><trkpt lat="45.85311988447456" lon="12.10389824603276"><ele>122.57142857142857</ele><time>2026-04-15T07:15:08Z</time></trkpt><trkpt lat="45.85310727667104" lon="12.1040017512152"><ele>122.71428571428572</ele><time>2026-04-15T07:15:09Z</time></trkpt><trkpt lat="45.85309847718657" lon="12.104109920413768"><ele>122.85714285714288</ele><time>2026-04-15T07:15:10Z</time></trkpt><trkpt lat="45.853094222278386" lon="12.104221135578195"><ele>123.00000000000001</ele><time>2026-04-15T07:15:11Z</time></trkpt><trkpt lat="45.85309316735439" lon="12.104332800245954"><ele>123.0</ele><time>2026-04-15T07:15:12Z</time></trkpt><trkpt lat="45.85309664379109" lon="12.104447416656463"><ele>123.0</ele><time>2026-04-15T07:15:13Z</time></trkpt><trkpt lat="45.8531030732614" lon="12.104561230858197"><ele>123.0</ele><time>2026-04-15T07:15:14Z</time></trkpt><trkpt lat="45.85311156136856" lon="12.104669034690184"><ele>123.0</ele><time>2026-04-15T07:15:15Z</time></trkpt><trkpt lat="45.853123727667636" lon="12.104770290813889"><ele>123.0</ele><time>2026-04-15T07:15:16Z</time></trkpt><trkpt lat="45.8531456120527" lon="12.104926835782708"><ele>123.0</ele><time>2026-04-15T07:15:18Z</time></trkpt><trkpt lat="45.85314650327587" lon="12.105017428065006"><ele>123.0</ele><time>2026-04-15T07:15:20Z</time></trkpt><trkpt lat="45.853019429938136" lon="12.105028545813953"><ele>123.0</ele><time>2026-04-15T07:15:21Z</time></trkpt><trkpt lat="45.85295493937416" lon="12.105046749926581"><ele>123.0</ele><time>2026-04-15T07:15:22Z</time></trkpt><trkpt lat="45.85288413416495" lon="12.105062806455825"><ele>123.0</ele><time>2026-04-15T07:15:23Z</time></trkpt><trkpt lat="45.852808743148834" lon="12.105076868082143"><ele>123.0</ele><time>2026-04-15T07:15:24Z</time></trkpt><trkpt lat="45.852728332355206" lon="12.105091866023173"><ele>123.0</ele><time>2026-04-15T07:15:25Z</time></trkpt><trkpt lat="45.852647056691325" lon="12.105107025260182"><ele>123.14285714285717</ele><time>2026-04-15T07:15:26Z</time></trkpt><trkpt lat="45.85256693960039" lon="12.105121968402077"><ele>123.28571428571429</ele><time>2026-04-15T07:15:27Z</time></trkpt><trkpt lat="45.85248785769634" lon="12.105159408832108"><ele>123.42857142857144</ele><time>2026-04-15T07:15:28Z</time></trkpt><trkpt lat="45.85241264208275" lon="12.105172328898488"><ele>123.57142857142858</ele><time>2026-04-15T07:15:29Z</time></trkpt><trkpt lat="45.85234254529188" lon="12.105182888785619"><ele>123.71428571428572</ele><time>2026-04-15T07:15:30Z</time></trkpt><trkpt lat="45.85227437049888" lon="12.10518639043856"><ele>123.85714285714286</ele><time>2026-04-15T07:15:31Z</time></trkpt><trkpt lat="45.85220695606523" lon="12.10519313477563"><ele>124.0</ele><time>2026-04-15T07:15:32Z</time></trkpt><trkpt lat="45.85210448248077" lon="12.105217200040954"><ele>124.00000000000001</ele><time>2026-04-15T07:15:34Z</time></trkpt><trkpt lat="45.85204250618627" lon="12.105322899910064"><ele>124.0</ele><time>2026-04-15T07:15:36Z</time></trkpt><trkpt lat="45.85202116312058" lon="12.105442571909489"><ele>124.0</ele><time>2026-04-15T07:15:38Z</time></trkpt><trkpt lat="45.85195012703089" lon="12.105443609842768"><ele>124.0</ele><time>2026-04-15T07:15:41Z</time></trkpt><trkpt lat="45.8518858955003" lon="12.105451493828937"><ele>124.00000000000001</ele><time>2026-04-15T07:15:43Z</time></trkpt><trkpt lat="45.85180037165877" lon="12.10545641891108"><ele>124.0</ele><time>2026-04-15T07:15:45Z</time></trkpt><trkpt lat="45.8516947643785" lon="12.10547003250093"><ele>123.00000000000001</ele><time>2026-04-15T07:15:47Z</time></trkpt><trkpt lat="45.85158095153629" lon="12.105479069849743"><ele>122.0</ele><time>2026-04-15T07:15:49Z</time></trkpt><trkpt lat="45.851515264274184" lon="12.105483373865582"><ele>121.0</ele><time>2026-04-15T07:15:50Z</time></trkpt><trkpt lat="45.85144600825293" lon="12.105463250052997"><ele>120.0</ele><time>2026-04-15T07:15:51Z</time></trkpt><trkpt lat="45.85137497660648" lon="12.105468149264324"><ele>119.00000000000001</ele><time>2026-04-15T07:15:52Z</time></trkpt><trkpt lat="45.85130967953441" lon="12.105494326457638"><ele>118.0</ele><time>2026-04-15T07:15:53Z</time></trkpt><trkpt lat="45.851213414898425" lon="12.105489768495582"><ele>118.0</ele><time>2026-04-15T07:15:55Z</time></trkpt><trkpt lat="45.851177823381505" lon="12.105382444392225"><ele>118.0</ele><time>2026-04-15T07:15:58Z</time></trkpt><trkpt lat="45.85117171051444" lon="12.105277336121526"><ele>118.0</ele><time>2026-04-15T07:15:59.999Z</time></trkpt><trkpt lat="45.85117639588161" lon="12.105160088579387"><ele>118.0</ele><time>2026-04-15T07:16:01.999Z</time></trkpt><trkpt lat="45.85108648616831" lon="12.105463450779615"><ele>118.0</ele><time>2026-04-15T07:16:04.999Z</time></trkpt><trkpt lat="45.8511719739725" lon="12.105100274099765"><ele>118.0</ele><time>2026-04-15T07:16:05.999Z</time></trkpt><trkpt lat="45.85115984867054" lon="12.105467309368265"><ele>118.0</ele><time>2026-04-15T07:16:20.999Z</time></trkpt><trkpt lat="45.85123501489176" lon="12.105529701473543"><ele>118.00000000000001</ele><time>2026-04-15T07:16:25.999Z</time></trkpt><trkpt lat="45.85131308039882" lon="12.105494990796958"><ele>118.00000000000001</ele><time>2026-04-15T07:16:27.999Z</time></trkpt><trkpt lat="45.85141175417188" lon="12.105492412554616"><ele>118.0</ele><time>2026-04-15T07:16:29.999Z</time></trkpt><trkpt lat="45.85152189799354" lon="12.105495515645824"><ele>118.0</ele><time>2026-04-15T07:16:31.999Z</time></trkpt><trkpt lat="45.851644824772116" lon="12.105494121943911"><ele>118.00000000000001</ele><time>2026-04-15T07:16:33.999Z</time></trkpt><trkpt lat="45.851719927139385" lon="12.105486570523299"><ele>118.0</ele><time>2026-04-15T07:16:34.999Z</time></trkpt><trkpt lat="45.85179201857124" lon="12.105474838978669"><ele>118.0</ele><time>2026-04-15T07:16:35.999Z</time></trkpt><trkpt lat="45.85185609936443" lon="12.105464180314456"><ele>118.0</ele><time>2026-04-15T07:16:36.999Z</time></trkpt><trkpt lat="45.85196962156214" lon="12.105485615199347"><ele>118.00000000000001</ele><time>2026-04-15T07:16:38.999Z</time></trkpt><trkpt lat="45.852034150006" lon="12.105467136019556"><ele>118.0</ele><time>2026-04-15T07:16:40.999Z</time></trkpt><trkpt lat="45.85205712670771" lon="12.105373642052946"><ele>119.00000000000001</ele><time>2026-04-15T07:16:42.999Z</time></trkpt><trkpt lat="45.852092120513944" lon="12.105266418686021"><ele>120.0</ele><time>2026-04-15T07:16:45Z</time></trkpt><trkpt lat="45.85220188421712" lon="12.10521950312484"><ele>121.0</ele><time>2026-04-15T07:16:47Z</time></trkpt><trkpt lat="45.85227892541322" lon="12.105221027949053"><ele>122.0</ele><time>2026-04-15T07:16:48Z</time></trkpt><trkpt lat="45.85236292202917" lon="12.105210416330646"><ele>123.00000000000001</ele><time>2026-04-15T07:16:49Z</time></trkpt><trkpt lat="45.85244120088369" lon="12.105200716644324"><ele>124.0</ele><time>2026-04-15T07:16:50Z</time></trkpt><trkpt lat="45.852521651713175" lon="12.105185123163544"><ele>124.0</ele><time>2026-04-15T07:16:51Z</time></trkpt><trkpt lat="45.85261211567052" lon="12.10516694593637"><ele>124.0</ele><time>2026-04-15T07:16:52Z</time></trkpt><trkpt lat="45.85271213558059" lon="12.105144189156935"><ele>124.0</ele><time>2026-04-15T07:16:53Z</time></trkpt><trkpt lat="45.85282000510464" lon="12.105124826735414"><ele>124.0</ele><time>2026-04-15T07:16:54Z</time></trkpt><trkpt lat="45.85292383081302" lon="12.10510416390113"><ele>124.0</ele><time>2026-04-15T07:16:55Z</time></trkpt><trkpt lat="45.85302036774862" lon="12.105081482528577"><ele>123.80000000000001</ele><time>2026-04-15T07:16:56Z</time></trkpt><trkpt lat="45.85309138824183" lon="12.105054834056421"><ele>123.60000000000001</ele><time>2026-04-15T07:16:57Z</time></trkpt><trkpt lat="45.85316016562483" lon="12.105012033005245"><ele>123.4</ele><time>2026-04-15T07:16:59Z</time></trkpt><trkpt lat="45.853263913076354" lon="12.105153937055524"><ele>123.2</ele><time>2026-04-15T07:17:02Z</time></trkpt><trkpt lat="45.85333014914628" lon="12.105295356030219"><ele>123.0</ele><time>2026-04-15T07:17:04Z</time></trkpt><trkpt lat="45.85336641529465" lon="12.105373660746288"><ele>123.0</ele><time>2026-04-15T07:17:05Z</time></trkpt><trkpt lat="45.853406216413816" lon="12.105458695757681"><ele>123.0</ele><time>2026-04-15T07:17:06Z</time></trkpt><trkpt lat="45.85344475779163" lon="12.105548280852569"><ele>123.0</ele><time>2026-04-15T07:17:07Z</time></trkpt><trkpt lat="45.853482768293674" lon="12.1056467017594"><ele>123.0</ele><time>2026-04-15T07:17:08Z</time></trkpt><trkpt lat="45.85351271553972" lon="12.105758721704321"><ele>123.0</ele><time>2026-04-15T07:17:09Z</time></trkpt><trkpt lat="45.85353998501271" lon="12.105878405287388"><ele>123.0</ele><time>2026-04-15T07:17:10Z</time></trkpt><trkpt lat="45.85355929933101" lon="12.10600868607517"><ele>123.0</ele><time>2026-04-15T07:17:11Z</time></trkpt><trkpt lat="45.85357425574684" lon="12.106144800093759"><ele>123.00000000000001</ele><time>2026-04-15T07:17:12Z</time></trkpt><trkpt lat="45.853589915558274" lon="12.106281835853862"><ele>123.00000000000001</ele><time>2026-04-15T07:17:13Z</time></trkpt><trkpt lat="45.85360908518123" lon="12.106418871872767"><ele>123.0</ele><time>2026-04-15T07:17:14Z</time></trkpt><trkpt lat="45.85363343383778" lon="12.106558802305855"><ele>123.0</ele><time>2026-04-15T07:17:15Z</time></trkpt><trkpt lat="45.85366124330892" lon="12.106696801918757"><ele>123.0</ele><time>2026-04-15T07:17:16Z</time></trkpt><trkpt lat="45.85368633783152" lon="12.106826567755048"><ele>123.0</ele><time>2026-04-15T07:17:17Z</time></trkpt><trkpt lat="45.85370426392761" lon="12.106937322862935"><ele>123.0</ele><time>2026-04-15T07:17:18Z</time></trkpt><trkpt lat="45.85371567879214" lon="12.107083830649325"><ele>123.0</ele><time>2026-04-15T07:17:20Z</time></trkpt><trkpt lat="45.85369982609551" lon="12.107174776808671"><ele>123.0</ele><time>2026-04-15T07:17:29Z</time></trkpt><trkpt lat="45.85364138934112" lon="12.107123331953861"><ele>123.0</ele><time>2026-04-15T07:17:30Z</time></trkpt><trkpt lat="45.85354739126919" lon="12.107108007671568"><ele>122.4</ele><time>2026-04-15T07:17:32Z</time></trkpt><trkpt lat="45.85343955022519" lon="12.107091605357361"><ele>121.80000000000001</ele><time>2026-04-15T07:17:34Z</time></trkpt><trkpt lat="45.853324293311225" lon="12.107074517202388"><ele>121.2</ele><time>2026-04-15T07:17:36Z</time></trkpt><trkpt lat="45.853255692214354" lon="12.107065938491528"><ele>120.6</ele><time>2026-04-15T07:17:37Z</time></trkpt><trkpt lat="45.853178224558434" lon="12.10705980373477"><ele>120.0</ele><time>2026-04-15T07:17:38Z</time></trkpt><trkpt lat="45.85309429320898" lon="12.107056489712772"><ele>120.0</ele><time>2026-04-15T07:17:39Z</time></trkpt><trkpt lat="45.853009397150466" lon="12.107058430076666"><ele>120.0</ele><time>2026-04-15T07:17:40Z</time></trkpt><trkpt lat="45.85292383343539" lon="12.107062521987881"><ele>120.0</ele><time>2026-04-15T07:17:41Z</time></trkpt><trkpt lat="45.852836264320956" lon="12.107071294252792"><ele>120.0</ele><time>2026-04-15T07:17:42Z</time></trkpt><trkpt lat="45.85274590424388" lon="12.10708445739541"><ele>120.0</ele><time>2026-04-15T07:17:43Z</time></trkpt><trkpt lat="45.85265523395462" lon="12.10710983827192"><ele>120.0</ele><time>2026-04-15T07:17:44Z</time></trkpt><trkpt lat="45.852564120925464" lon="12.107142521141144"><ele>120.0</ele><time>2026-04-15T07:17:45Z</time></trkpt><trkpt lat="45.85247171857305" lon="12.107184673417509"><ele>120.0</ele><time>2026-04-15T07:17:46Z</time></trkpt><trkpt lat="45.85237883165297" lon="12.107236490675284"><ele>120.0</ele><time>2026-04-15T07:17:47Z</time></trkpt><trkpt lat="45.85228915085275" lon="12.10730061197948"><ele>120.0</ele><time>2026-04-15T07:17:48Z</time></trkpt><trkpt lat="45.85219889414024" lon="12.107371487044217"><ele>120.0</ele><time>2026-04-15T07:17:49Z</time></trkpt><trkpt lat="45.85210942104315" lon="12.10744855050741"><ele>119.8</ele><time>2026-04-15T07:17:50Z</time></trkpt><trkpt lat="45.852020885404556" lon="12.107535861524713"><ele>119.6</ele><time>2026-04-15T07:17:51Z</time></trkpt><trkpt lat="45.85193806842867" lon="12.107629502191399"><ele>119.4</ele><time>2026-04-15T07:17:52Z</time></trkpt><trkpt lat="45.85185693891578" lon="12.107728323957412"><ele>119.2</ele><time>2026-04-15T07:17:53Z</time></trkpt><trkpt lat="45.851754771136584" lon="12.107783469783914"><ele>119.0</ele><time>2026-04-15T07:17:54Z</time></trkpt><trkpt lat="45.851638610642766" lon="12.107817127584877"><ele>118.5</ele><time>2026-04-15T07:17:55Z</time></trkpt><trkpt lat="45.851518762517436" lon="12.107847009245882"><ele>118.0</ele><time>2026-04-15T07:17:56Z</time></trkpt><trkpt lat="45.85138708094215" lon="12.107859092926848"><ele>117.5</ele><time>2026-04-15T07:17:57Z</time></trkpt><trkpt lat="45.85125638849121" lon="12.107897567984992"><ele>117.0</ele><time>2026-04-15T07:17:58Z</time></trkpt><trkpt lat="45.85112071586045" lon="12.107942441062914"><ele>117.0</ele><time>2026-04-15T07:17:58.999Z</time></trkpt><trkpt lat="45.85098180659206" lon="12.10798928400005"><ele>117.0</ele><time>2026-04-15T07:17:59.999Z</time></trkpt><trkpt lat="45.85083876628635" lon="12.108039044132385"><ele>117.0</ele><time>2026-04-15T07:18:00.999Z</time></trkpt><trkpt lat="45.85069459768433" lon="12.108085635130582"><ele>117.0</ele><time>2026-04-15T07:18:01.999Z</time></trkpt><trkpt lat="45.850551213643186" lon="12.108127804909659"><ele>116.5</ele><time>2026-04-15T07:18:02.999Z</time></trkpt><trkpt lat="45.850405614944904" lon="12.108158097312488"><ele>116.0</ele><time>2026-04-15T07:18:03.999Z</time></trkpt><trkpt lat="45.85025947978335" lon="12.10817109207233"><ele>115.5</ele><time>2026-04-15T07:18:04.999Z</time></trkpt><trkpt lat="45.85010919727545" lon="12.108173384612028"><ele>115.0</ele><time>2026-04-15T07:18:05.999Z</time></trkpt><trkpt lat="45.849954873123174" lon="12.108171015577764"><ele>115.0</ele><time>2026-04-15T07:18:06.999Z</time></trkpt><trkpt lat="45.84979700167" lon="12.108170126206502"><ele>115.0</ele><time>2026-04-15T07:18:07.999Z</time></trkpt><trkpt lat="45.84963574464069" lon="12.108168882739538"><ele>115.0</ele><time>2026-04-15T07:18:08.999Z</time></trkpt><trkpt lat="45.849471841557936" lon="12.108167509913153"><ele>115.0</ele><time>2026-04-15T07:18:09.999Z</time></trkpt><trkpt lat="45.84930547081326" lon="12.108169490199055"><ele>115.0</ele><time>2026-04-15T07:18:10.999Z</time></trkpt><trkpt lat="45.849143857622856" lon="12.108168496035498"><ele>115.0</ele><time>2026-04-15T07:18:11.999Z</time></trkpt><trkpt lat="45.84898560923407" lon="12.108165861107949"><ele>115.0</ele><time>2026-04-15T07:18:12.999Z</time></trkpt><trkpt lat="45.84883317897272" lon="12.108163371326965"><ele>115.0</ele><time>2026-04-15T07:18:13.999Z</time></trkpt><trkpt lat="45.848690555199866" lon="12.1081633450043"><ele>115.0</ele><time>2026-04-15T07:18:14.999Z</time></trkpt><trkpt lat="45.84855135585982" lon="12.108159993412597"><ele>115.0</ele><time>2026-04-15T07:18:15.999Z</time></trkpt><trkpt lat="45.84841635336118" lon="12.10816103807072"><ele>115.0</ele><time>2026-04-15T07:18:16.999Z</time></trkpt><trkpt lat="45.84828342112628" lon="12.10816284210124"><ele>115.0</ele><time>2026-04-15T07:18:17.999Z</time></trkpt><trkpt lat="45.84815458592646" lon="12.108161868791377"><ele>115.0</ele><time>2026-04-15T07:18:18.999Z</time></trkpt><trkpt lat="45.84803570782011" lon="12.108160384602414"><ele>115.0</ele><time>2026-04-15T07:18:19.999Z</time></trkpt><trkpt lat="45.84793423472454" lon="12.108158725076738"><ele>115.0</ele><time>2026-04-15T07:18:20.999Z</time></trkpt><trkpt lat="45.84785085554903" lon="12.108159465826004"><ele>115.0</ele><time>2026-04-15T07:18:21.999Z</time></trkpt><trkpt lat="45.84778114448807" lon="12.108160259847985"><ele>115.0</ele><time>2026-04-15T07:18:22.999Z</time></trkpt><trkpt lat="45.847658973252216" lon="12.108188265579617"><ele>115.0</ele><time>2026-04-15T07:18:24.999Z</time></trkpt><trkpt lat="45.84760794415228" lon="12.108242668294483"><ele>115.0</ele><time>2026-04-15T07:18:25.999Z</time></trkpt><trkpt lat="45.84753935342747" lon="12.108389184888685"><ele>115.16666666666667</ele><time>2026-04-15T07:18:27.999Z</time></trkpt><trkpt lat="45.84750711851761" lon="12.108472592932658"><ele>115.33333333333334</ele><time>2026-04-15T07:18:28.999Z</time></trkpt><trkpt lat="45.84746804228205" lon="12.108558495956611"><ele>115.5</ele><time>2026-04-15T07:18:29.999Z</time></trkpt><trkpt lat="45.84742357500896" lon="12.108647944177617"><ele>115.66666666666666</ele><time>2026-04-15T07:18:30.999Z</time></trkpt><trkpt lat="45.84738687157813" lon="12.108751636966861"><ele>115.83333333333333</ele><time>2026-04-15T07:18:31.999Z</time></trkpt><trkpt lat="45.8473600235581" lon="12.108869619960004"><ele>116.0</ele><time>2026-04-15T07:18:32.999Z</time></trkpt><trkpt lat="45.84734391701739" lon="12.10900194560438"><ele>115.8</ele><time>2026-04-15T07:18:33.999Z</time></trkpt><trkpt lat="45.84733546348678" lon="12.109142269674155"><ele>115.6</ele><time>2026-04-15T07:18:34.999Z</time></trkpt><trkpt lat="45.84732867463925" lon="12.109289731552646"><ele>115.4</ele><time>2026-04-15T07:18:35.999Z</time></trkpt><trkpt lat="45.847324101970045" lon="12.109455179536518"><ele>115.2</ele><time>2026-04-15T07:18:36.999Z</time></trkpt><trkpt lat="45.8473129025652" lon="12.109598877840066"><ele>115.0</ele><time>2026-04-15T07:18:37.999Z</time></trkpt><trkpt lat="45.84730815888808" lon="12.10973509005441"><ele>115.00000000000001</ele><time>2026-04-15T07:18:38.999Z</time></trkpt><trkpt lat="45.84729275922903" lon="12.109867322657237"><ele>115.0</ele><time>2026-04-15T07:18:39.999Z</time></trkpt><trkpt lat="45.847274108666845" lon="12.10999716184315"><ele>115.0</ele><time>2026-04-15T07:18:40.999Z</time></trkpt><trkpt lat="45.84724974199549" lon="12.110112617627827"><ele>115.0</ele><time>2026-04-15T07:18:41.999Z</time></trkpt><trkpt lat="45.84722437955535" lon="12.110214574348486"><ele>115.00000000000001</ele><time>2026-04-15T07:18:42.999Z</time></trkpt><trkpt lat="45.84720379736552" lon="12.11030978213131"><ele>115.0</ele><time>2026-04-15T07:18:43.999Z</time></trkpt><trkpt lat="45.84719074769986" lon="12.110407002762008"><ele>114.50000000000001</ele><time>2026-04-15T07:18:44.999Z</time></trkpt><trkpt lat="45.84719608674577" lon="12.110502524653306"><ele>114.0</ele><time>2026-04-15T07:18:45.999Z</time></trkpt><trkpt lat="45.84725706567979" lon="12.110644218940593"><ele>113.5</ele><time>2026-04-15T07:18:47.999Z</time></trkpt><trkpt lat="45.84735442066686" lon="12.110736325213518"><ele>113.0</ele><time>2026-04-15T07:18:50Z</time></trkpt><trkpt lat="45.847409996504744" lon="12.11078491276294"><ele>112.50000000000001</ele><time>2026-04-15T07:18:51Z</time></trkpt><trkpt lat="45.847468879895565" lon="12.1108320495967"><ele>112.0</ele><time>2026-04-15T07:18:52Z</time></trkpt><trkpt lat="45.8475221442108" lon="12.11088820565042"><ele>112.0</ele><time>2026-04-15T07:18:53Z</time></trkpt><trkpt lat="45.847572806614295" lon="12.11094503524778"><ele>112.0</ele><time>2026-04-15T07:18:54Z</time></trkpt><trkpt lat="45.84762612072451" lon="12.111000003176366"><ele>112.0</ele><time>2026-04-15T07:18:55Z</time></trkpt><trkpt lat="45.84768085273674" lon="12.111057827456916"><ele>112.0</ele><time>2026-04-15T07:18:56Z</time></trkpt><trkpt lat="45.847737513701574" lon="12.11111749615511"><ele>112.0</ele><time>2026-04-15T07:18:57Z</time></trkpt><trkpt lat="45.84779986298938" lon="12.111173321104033"><ele>112.0</ele><time>2026-04-15T07:18:58Z</time></trkpt><trkpt lat="45.84786579498493" lon="12.111232549926612"><ele>112.0</ele><time>2026-04-15T07:18:59Z</time></trkpt><trkpt lat="45.84793230000018" lon="12.11130353661362"><ele>112.19999999999999</ele><time>2026-04-15T07:19:00Z</time></trkpt><trkpt lat="45.84800870029929" lon="12.11137582082255"><ele>112.39999999999999</ele><time>2026-04-15T07:19:01Z</time></trkpt><trkpt lat="45.84808353918024" lon="12.111449394284662"><ele>112.60000000000001</ele><time>2026-04-15T07:19:02Z</time></trkpt><trkpt lat="45.84815140092249" lon="12.111529111293057"><ele>112.80000000000001</ele><time>2026-04-15T07:19:03Z</time></trkpt><trkpt lat="45.848230756339966" lon="12.111592717198278"><ele>113.0</ele><time>2026-04-15T07:19:04Z</time></trkpt><trkpt lat="45.8483089766657" lon="12.11167253854357"><ele>113.0</ele><time>2026-04-15T07:19:05Z</time></trkpt><trkpt lat="45.84838776614818" lon="12.1117592864526"><ele>113.00000000000001</ele><time>2026-04-15T07:19:06Z</time></trkpt><trkpt lat="45.84846517528299" lon="12.111839930502388"><ele>113.00000000000001</ele><time>2026-04-15T07:19:07Z</time></trkpt><trkpt lat="45.848544618118574" lon="12.111899996227809"><ele>113.0</ele><time>2026-04-15T07:19:08Z</time></trkpt><trkpt lat="45.84862315075253" lon="12.11196427692079"><ele>113.0</ele><time>2026-04-15T07:19:09Z</time></trkpt><trkpt lat="45.8486994438542" lon="12.112046239080144"><ele>112.80000000000001</ele><time>2026-04-15T07:19:10Z</time></trkpt><trkpt lat="45.84877409895454" lon="12.1121198463904"><ele>112.60000000000001</ele><time>2026-04-15T07:19:11Z</time></trkpt><trkpt lat="45.848852793174565" lon="12.112189358098094"><ele>112.39999999999999</ele><time>2026-04-15T07:19:12Z</time></trkpt><trkpt lat="45.84893454604862" lon="12.112263706463061"><ele>112.19999999999999</ele><time>2026-04-15T07:19:13Z</time></trkpt><trkpt lat="45.84902051204455" lon="12.112338220852955"><ele>112.0</ele><time>2026-04-15T07:19:14Z</time></trkpt><trkpt lat="45.849108997352445" lon="12.112414047761169"><ele>112.00000000000001</ele><time>2026-04-15T07:19:15Z</time></trkpt><trkpt lat="45.84919493364229" lon="12.112485128203817"><ele>112.0</ele><time>2026-04-15T07:19:16Z</time></trkpt><trkpt lat="45.84926844782835" lon="12.112549896317615"><ele>112.0</ele><time>2026-04-15T07:19:17Z</time></trkpt><trkpt lat="45.84932886012694" lon="12.112615465635923"><ele>112.0</ele><time>2026-04-15T07:19:18Z</time></trkpt><trkpt lat="45.8493778095507" lon="12.11269316061919"><ele>112.00000000000001</ele><time>2026-04-15T07:19:19Z</time></trkpt><trkpt lat="45.849414780049415" lon="12.112786315006941"><ele>112.0</ele><time>2026-04-15T07:19:20Z</time></trkpt><trkpt lat="45.84944651380507" lon="12.112899291789079"><ele>112.0</ele><time>2026-04-15T07:19:21Z</time></trkpt><trkpt lat="45.84948097442474" lon="12.113028133029262"><ele>111.99999999999999</ele><time>2026-04-15T07:19:22Z</time></trkpt><trkpt lat="45.84951683300868" lon="12.11315352148124"><ele>111.99999999999999</ele><time>2026-04-15T07:19:23Z</time></trkpt><trkpt lat="45.84955124548446" lon="12.113278322081515"><ele>112.0</ele><time>2026-04-15T07:19:24Z</time></trkpt><trkpt lat="45.849589337820014" lon="12.113401874366849"><ele>112.0</ele><time>2026-04-15T07:19:25Z</time></trkpt><trkpt lat="45.84962105857839" lon="12.113530164562267"><ele>111.8</ele><time>2026-04-15T07:19:26Z</time></trkpt><trkpt lat="45.84965330106494" lon="12.11366224940443"><ele>111.6</ele><time>2026-04-15T07:19:27Z</time></trkpt><trkpt lat="45.84968327864925" lon="12.113790141082863"><ele>111.39999999999999</ele><time>2026-04-15T07:19:28Z</time></trkpt><trkpt lat="45.84971363217368" lon="12.113918722546618"><ele>111.19999999999999</ele><time>2026-04-15T07:19:29Z</time></trkpt><trkpt lat="45.84974145645801" lon="12.114043246711935"><ele>111.0</ele><time>2026-04-15T07:19:30Z</time></trkpt><trkpt lat="45.849770247024075" lon="12.11416250178201"><ele>111.0</ele><time>2026-04-15T07:19:31Z</time></trkpt><trkpt lat="45.84980140110594" lon="12.11427909855429"><ele>111.0</ele><time>2026-04-15T07:19:32Z</time></trkpt><trkpt lat="45.84983143907617" lon="12.114393121797246"><ele>111.0</ele><time>2026-04-15T07:19:33Z</time></trkpt><trkpt lat="45.84986315354541" lon="12.114517314336771"><ele>111.0</ele><time>2026-04-15T07:19:34Z</time></trkpt><trkpt lat="45.84988967728855" lon="12.114655569638835"><ele>111.0</ele><time>2026-04-15T07:19:35Z</time></trkpt><trkpt lat="45.84991207172057" lon="12.114802968997514"><ele>110.8</ele><time>2026-04-15T07:19:36Z</time></trkpt><trkpt lat="45.84993672893396" lon="12.11495596134825"><ele>110.6</ele><time>2026-04-15T07:19:37Z</time></trkpt><trkpt lat="45.84995953958804" lon="12.11510495493656"><ele>110.4</ele><time>2026-04-15T07:19:38Z</time></trkpt><trkpt lat="45.84998278881925" lon="12.115255003836166"><ele>110.2</ele><time>2026-04-15T07:19:39Z</time></trkpt><trkpt lat="45.85000725678695" lon="12.115413338020131"><ele>110.0</ele><time>2026-04-15T07:19:40Z</time></trkpt><trkpt lat="45.85003281535331" lon="12.115581520258294"><ele>110.0</ele><time>2026-04-15T07:19:41Z</time></trkpt><trkpt lat="45.8500598689343" lon="12.115757841433913"><ele>110.0</ele><time>2026-04-15T07:19:42Z</time></trkpt><trkpt lat="45.8500877999996" lon="12.1159422379246"><ele>110.0</ele><time>2026-04-15T07:19:43Z</time></trkpt><trkpt lat="45.85011486806646" lon="12.11612847947908"><ele>110.0</ele><time>2026-04-15T07:19:44Z</time></trkpt><trkpt lat="45.85014284480086" lon="12.116315016175118"><ele>110.25</ele><time>2026-04-15T07:19:45Z</time></trkpt><trkpt lat="45.85017137027529" lon="12.116500024605884"><ele>110.5</ele><time>2026-04-15T07:19:46Z</time></trkpt><trkpt lat="45.850199229624806" lon="12.116679828212465"><ele>110.75</ele><time>2026-04-15T07:19:47Z</time></trkpt><trkpt lat="45.85022608861424" lon="12.116855666479786"><ele>111.0</ele><time>2026-04-15T07:19:48Z</time></trkpt><trkpt lat="45.85025097345678" lon="12.117023922145876"><ele>111.0</ele><time>2026-04-15T07:19:49Z</time></trkpt><trkpt lat="45.850274600653584" lon="12.117178606452619"><ele>111.0</ele><time>2026-04-15T07:19:50Z</time></trkpt><trkpt lat="45.850300287507764" lon="12.11731223936597"><ele>111.0</ele><time>2026-04-15T07:19:51Z</time></trkpt><trkpt lat="45.8503258478355" lon="12.117423030468089"><ele>111.0</ele><time>2026-04-15T07:19:52Z</time></trkpt><trkpt lat="45.85034463556225" lon="12.117515684169762"><ele>111.0</ele><time>2026-04-15T07:19:53Z</time></trkpt><trkpt lat="45.8503450340773" lon="12.1176172581412"><ele>111.0</ele><time>2026-04-15T07:19:55Z</time></trkpt><trkpt lat="45.850261855408775" lon="12.11759580777604"><ele>110.83333333333333</ele><time>2026-04-15T07:19:57Z</time></trkpt><trkpt lat="45.85015098558352" lon="12.11757484647118"><ele>110.66666666666666</ele><time>2026-04-15T07:19:59Z</time></trkpt><trkpt lat="45.85008142135677" lon="12.117562205449383"><ele>110.5</ele><time>2026-04-15T07:20:00Z</time></trkpt><trkpt lat="45.85001616957756" lon="12.117550500231637"><ele>110.33333333333333</ele><time>2026-04-15T07:20:01Z</time></trkpt><trkpt lat="45.84994525866471" lon="12.117537779843683"><ele>110.16666666666666</ele><time>2026-04-15T07:20:01.999Z</time></trkpt><trkpt lat="45.849867750244336" lon="12.117523875952372"><ele>110.0</ele><time>2026-04-15T07:20:02.999Z</time></trkpt><trkpt lat="45.849779924734" lon="12.117508121330566"><ele>109.8</ele><time>2026-04-15T07:20:03.999Z</time></trkpt><trkpt lat="45.84967896624714" lon="12.117490010836947"><ele>109.6</ele><time>2026-04-15T07:20:04.999Z</time></trkpt><trkpt lat="45.849570321375104" lon="12.11747052151157"><ele>109.4</ele><time>2026-04-15T07:20:05.999Z</time></trkpt><trkpt lat="45.849456504516816" lon="12.117452643750484"><ele>109.2</ele><time>2026-04-15T07:20:06.999Z</time></trkpt><trkpt lat="45.84933769214836" lon="12.117428464515749"><ele>109.0</ele><time>2026-04-15T07:20:07.999Z</time></trkpt><trkpt lat="45.84922310136445" lon="12.1174050609037"><ele>109.0</ele><time>2026-04-15T07:20:08.999Z</time></trkpt><trkpt lat="45.849107612935036" lon="12.117381921549654"><ele>109.0</ele><time>2026-04-15T07:20:09.999Z</time></trkpt><trkpt lat="45.848993900656716" lon="12.117359091048671"><ele>109.0</ele><time>2026-04-15T07:20:10.999Z</time></trkpt><trkpt lat="45.84888319719504" lon="12.11733672995477"><ele>109.0</ele><time>2026-04-15T07:20:11.999Z</time></trkpt><trkpt lat="45.84877578671739" lon="12.117315588214657"><ele>109.00000000000001</ele><time>2026-04-15T07:20:12.999Z</time></trkpt><trkpt lat="45.84867126647749" lon="12.117296426068622"><ele>109.0</ele><time>2026-04-15T07:20:13.999Z</time></trkpt><trkpt lat="45.848574087707" lon="12.11728619353093"><ele>109.0</ele><time>2026-04-15T07:20:14.999Z</time></trkpt><trkpt lat="45.84848636345175" lon="12.11728213153101"><ele>109.0</ele><time>2026-04-15T07:20:15.999Z</time></trkpt><trkpt lat="45.84840789293798" lon="12.11728190050887"><ele>109.00000000000001</ele><time>2026-04-15T07:20:16.999Z</time></trkpt><trkpt lat="45.848337732580184" lon="12.117280440785104"><ele>109.0</ele><time>2026-04-15T07:20:17.999Z</time></trkpt><trkpt lat="45.84827103805402" lon="12.11727636711205"><ele>109.16666666666667</ele><time>2026-04-15T07:20:18.999Z</time></trkpt><trkpt lat="45.84816288106533" lon="12.117267913900495"><ele>109.33333333333334</ele><time>2026-04-15T07:20:20.999Z</time></trkpt><trkpt lat="45.848070979711764" lon="12.117270200113888"><ele>109.5</ele><time>2026-04-15T07:20:22.999Z</time></trkpt><trkpt lat="45.847990663534894" lon="12.117273706726325"><ele>109.66666666666666</ele><time>2026-04-15T07:20:24.999Z</time></trkpt><trkpt lat="45.84792188763018" lon="12.117271489190639"><ele>109.83333333333333</ele><time>2026-04-15T07:20:26.999Z</time></trkpt><trkpt lat="45.847858121653594" lon="12.117288104042546"><ele>110.0</ele><time>2026-04-15T07:20:28.999Z</time></trkpt><trkpt lat="45.84797018045567" lon="12.11734165488717"><ele>110.0</ele><time>2026-04-15T07:20:46.999Z</time></trkpt><trkpt lat="45.84806904517329" lon="12.117328458331013"><ele>110.0</ele><time>2026-04-15T07:20:48.999Z</time></trkpt><trkpt lat="45.84817678049954" lon="12.11732532359265"><ele>110.0</ele><time>2026-04-15T07:20:50.999Z</time></trkpt><trkpt lat="45.8482849596625" lon="12.117323536908915"><ele>110.0</ele><time>2026-04-15T07:20:52.999Z</time></trkpt><trkpt lat="45.84841482804173" lon="12.117330400925747"><ele>110.0</ele><time>2026-04-15T07:20:54.999Z</time></trkpt><trkpt lat="45.84848800549705" lon="12.117334510210938"><ele>109.83333333333333</ele><time>2026-04-15T07:20:56Z</time></trkpt><trkpt lat="45.848565609605814" lon="12.117340394707261"><ele>109.66666666666666</ele><time>2026-04-15T07:20:57Z</time></trkpt><trkpt lat="45.848645271192815" lon="12.117350368919343"><ele>109.5</ele><time>2026-04-15T07:20:58Z</time></trkpt><trkpt lat="45.848730105560534" lon="12.117363659848621"><ele>109.33333333333334</ele><time>2026-04-15T07:20:59Z</time></trkpt><trkpt lat="45.84881880565021" lon="12.117376662976454"><ele>109.16666666666667</ele><time>2026-04-15T07:21:00Z</time></trkpt><trkpt lat="45.848912104922924" lon="12.117392596640466"><ele>109.0</ele><time>2026-04-15T07:21:01Z</time></trkpt><trkpt lat="45.84900598251878" lon="12.117412340171358"><ele>109.0</ele><time>2026-04-15T07:21:02Z</time></trkpt><trkpt lat="45.84910249207132" lon="12.117436757400938"><ele>109.0</ele><time>2026-04-15T07:21:03Z</time></trkpt><trkpt lat="45.84919687826149" lon="12.117458861343968"><ele>109.0</ele><time>2026-04-15T07:21:04Z</time></trkpt><trkpt lat="45.84929517126983" lon="12.117478197174073"><ele>109.0</ele><time>2026-04-15T07:21:05Z</time></trkpt><trkpt lat="45.8493969261875" lon="12.117496540671702"><ele>109.0</ele><time>2026-04-15T07:21:06Z</time></trkpt><trkpt lat="45.84950392592275" lon="12.117516069627715"><ele>109.6</ele><time>2026-04-15T07:21:07Z</time></trkpt><trkpt lat="45.84961393359418" lon="12.117533926811262"><ele>110.2</ele><time>2026-04-15T07:21:08Z</time></trkpt><trkpt lat="45.84972310074024" lon="12.117551061655355"><ele>110.79999999999998</ele><time>2026-04-15T07:21:09Z</time></trkpt><trkpt lat="45.849829931428445" lon="12.11756763120521"><ele>111.39999999999999</ele><time>2026-04-15T07:21:10Z</time></trkpt><trkpt lat="45.84993280497528" lon="12.11758727481624"><ele>112.0</ele><time>2026-04-15T07:21:11Z</time></trkpt><trkpt lat="45.85003220059617" lon="12.117608144620538"><ele>111.6</ele><time>2026-04-15T07:21:12Z</time></trkpt><trkpt lat="45.85012870919224" lon="12.117629666933214"><ele>111.19999999999999</ele><time>2026-04-15T07:21:13Z</time></trkpt><trkpt lat="45.850217428022766" lon="12.117647719254373"><ele>110.8</ele><time>2026-04-15T07:21:14Z</time></trkpt><trkpt lat="45.850293169326264" lon="12.11765834056796"><ele>110.4</ele><time>2026-04-15T07:21:15Z</time></trkpt><trkpt lat="45.85039868480188" lon="12.11768147743423"><ele>110.0</ele><time>2026-04-15T07:21:17Z</time></trkpt><trkpt lat="45.850423374586256" lon="12.117791006170435"><ele>109.99999999999999</ele><time>2026-04-15T07:21:19Z</time></trkpt><trkpt lat="45.85046152620766" lon="12.117910584858809"><ele>110.0</ele><time>2026-04-15T07:21:21Z</time></trkpt><trkpt lat="45.85053491503472" lon="12.118031941299636"><ele>110.0</ele><time>2026-04-15T07:21:23Z</time></trkpt><trkpt lat="45.85058010575491" lon="12.118105961506906"><ele>110.0</ele><time>2026-04-15T07:21:24Z</time></trkpt><trkpt lat="45.8506303789491" lon="12.118189308211548"><ele>109.99999999999999</ele><time>2026-04-15T07:21:25Z</time></trkpt><trkpt lat="45.850684410755775" lon="12.118284085916601"><ele>110.0</ele><time>2026-04-15T07:21:26Z</time></trkpt><trkpt lat="45.85074069340427" lon="12.118386652495074"><ele>110.0</ele><time>2026-04-15T07:21:27Z</time></trkpt><trkpt lat="45.850800932706015" lon="12.11849575155426"><ele>110.0</ele><time>2026-04-15T07:21:28Z</time></trkpt><trkpt lat="45.8508650017811" lon="12.118607952968985"><ele>110.0</ele><time>2026-04-15T07:21:29Z</time></trkpt><trkpt lat="45.85092850869259" lon="12.118718427146522"><ele>110.0</ele><time>2026-04-15T07:21:30Z</time></trkpt><trkpt lat="45.85099407505403" lon="12.118830095224801"><ele>110.0</ele><time>2026-04-15T07:21:31Z</time></trkpt><trkpt lat="45.85106224263741" lon="12.118946178097936"><ele>110.0</ele><time>2026-04-15T07:21:32Z</time></trkpt><trkpt lat="45.851131880693174" lon="12.119064947298888"><ele>110.0</ele><time>2026-04-15T07:21:33Z</time></trkpt><trkpt lat="45.8511984595232" lon="12.119186114377957"><ele>110.0</ele><time>2026-04-15T07:21:34Z</time></trkpt><trkpt lat="45.85126331404737" lon="12.119309816741671"><ele>110.0</ele><time>2026-04-15T07:21:35Z</time></trkpt><trkpt lat="45.85133155794363" lon="12.119431948623772"><ele>110.0</ele><time>2026-04-15T07:21:36Z</time></trkpt><trkpt lat="45.851399512122384" lon="12.1195537846582"><ele>109.8</ele><time>2026-04-15T07:21:37Z</time></trkpt><trkpt lat="45.85146870326023" lon="12.119676947535854"><ele>109.6</ele><time>2026-04-15T07:21:38Z</time></trkpt><trkpt lat="45.85153846102204" lon="12.119800888027612"><ele>109.4</ele><time>2026-04-15T07:21:39Z</time></trkpt><trkpt lat="45.851607879026375" lon="12.119925089118194"><ele>109.2</ele><time>2026-04-15T07:21:40Z</time></trkpt><trkpt lat="45.85167792736667" lon="12.12004955274639"><ele>109.0</ele><time>2026-04-15T07:21:41Z</time></trkpt><trkpt lat="45.85174844250262" lon="12.120175496446182"><ele>109.0</ele><time>2026-04-15T07:21:42Z</time></trkpt><trkpt lat="45.8518182356254" lon="12.120299838412679"><ele>109.0</ele><time>2026-04-15T07:21:43Z</time></trkpt><trkpt lat="45.85188700804194" lon="12.120421038314214"><ele>109.0</ele><time>2026-04-15T07:21:44Z</time></trkpt><trkpt lat="45.85195415858023" lon="12.12053888446816"><ele>109.0</ele><time>2026-04-15T07:21:45Z</time></trkpt><trkpt lat="45.85201943154616" lon="12.120652548992982"><ele>109.0</ele><time>2026-04-15T07:21:46Z</time></trkpt><trkpt lat="45.852082031245985" lon="12.120761689377792"><ele>109.00000000000001</ele><time>2026-04-15T07:21:47Z</time></trkpt><trkpt lat="45.852136308313064" lon="12.120855415105224"><ele>109.0</ele><time>2026-04-15T07:21:48Z</time></trkpt><trkpt lat="45.85217954721167" lon="12.120928885340675"><ele>109.0</ele><time>2026-04-15T07:21:49Z</time></trkpt><trkpt lat="45.852223539100024" lon="12.121036061550434"><ele>109.0</ele><time>2026-04-15T07:21:51Z</time></trkpt><trkpt lat="45.8521835325118" lon="12.120963797151004"><ele>109.00000000000001</ele><time>2026-04-15T07:22:05.999Z</time></trkpt><trkpt lat="45.85214984909879" lon="12.12088089911714"><ele>109.0</ele><time>2026-04-15T07:22:15.999Z</time></trkpt><trkpt lat="45.852232212560104" lon="12.12123916744499"><ele>109.5</ele><time>2026-04-15T07:22:18.999Z</time></trkpt><trkpt lat="45.85205582451131" lon="12.120689553873143"><ele>110.0</ele><time>2026-04-15T07:22:19.999Z</time></trkpt><trkpt lat="45.85197928615047" lon="12.120555376405196"><ele>109.99999999999999</ele><time>2026-04-15T07:22:21.999Z</time></trkpt><trkpt lat="45.85193703860098" lon="12.120480546612955"><ele>110.0</ele><time>2026-04-15T07:22:22.999Z</time></trkpt><trkpt lat="45.85189111259685" lon="12.120397343373812"><ele>110.0</ele><time>2026-04-15T07:22:23.999Z</time></trkpt><trkpt lat="45.85183989075779" lon="12.120303532939113"><ele>110.0</ele><time>2026-04-15T07:22:24.999Z</time></trkpt><trkpt lat="45.85178500820503" lon="12.12020516519819"><ele>109.99999999999999</ele><time>2026-04-15T07:22:25.999Z</time></trkpt><trkpt lat="45.851727851890715" lon="12.12010591461836"><ele>110.0</ele><time>2026-04-15T07:22:26.999Z</time></trkpt><trkpt lat="45.851669190336075" lon="12.120005475139832"><ele>109.8</ele><time>2026-04-15T07:22:27.999Z</time></trkpt><trkpt lat="45.851626261925084" lon="12.119884879863577"><ele>109.6</ele><time>2026-04-15T07:22:28.999Z</time></trkpt><trkpt lat="45.85156673110043" lon="12.119778215071882"><ele>109.4</ele><time>2026-04-15T07:22:29.999Z</time></trkpt><trkpt lat="45.85150631595128" lon="12.119670860649084"><ele>109.2</ele><time>2026-04-15T07:22:30.999Z</time></trkpt><trkpt lat="45.85144642811153" lon="12.119563822975083"><ele>109.0</ele><time>2026-04-15T07:22:31.999Z</time></trkpt><trkpt lat="45.85137527389829" lon="12.119473890712548"><ele>109.0</ele><time>2026-04-15T07:22:32.999Z</time></trkpt><trkpt lat="45.8513158618255" lon="12.119364317925779"><ele>109.0</ele><time>2026-04-15T07:22:33.999Z</time></trkpt><trkpt lat="45.851254084765834" lon="12.119249747682465"><ele>109.0</ele><time>2026-04-15T07:22:34.999Z</time></trkpt><trkpt lat="45.85118897419782" lon="12.119133742990348"><ele>109.0</ele><time>2026-04-15T07:22:35.999Z</time></trkpt><trkpt lat="45.85113199298109" lon="12.11900501780269"><ele>109.0</ele><time>2026-04-15T07:22:36.999Z</time></trkpt><trkpt lat="45.851060784321774" lon="12.118884250996343"><ele>109.0</ele><time>2026-04-15T07:22:37.999Z</time></trkpt><trkpt lat="45.85098996552559" lon="12.118762902558537"><ele>109.0</ele><time>2026-04-15T07:22:38.999Z</time></trkpt><trkpt lat="45.850922537170156" lon="12.11864446990249"><ele>109.0</ele><time>2026-04-15T07:22:39.999Z</time></trkpt><trkpt lat="45.85085713107914" lon="12.118528431933287"><ele>109.0</ele><time>2026-04-15T07:22:40.999Z</time></trkpt><trkpt lat="45.85079314556647" lon="12.118416663369896"><ele>109.0</ele><time>2026-04-15T07:22:41.999Z</time></trkpt><trkpt lat="45.85073295241372" lon="12.118307418294588"><ele>109.2</ele><time>2026-04-15T07:22:42.999Z</time></trkpt><trkpt lat="45.85067586252527" lon="12.118199374545298"><ele>109.4</ele><time>2026-04-15T07:22:43.999Z</time></trkpt><trkpt lat="45.85061862268251" lon="12.11809806270431"><ele>109.6</ele><time>2026-04-15T07:22:44.999Z</time></trkpt><trkpt lat="45.850562049081006" lon="12.118005006211853"><ele>109.8</ele><time>2026-04-15T07:22:45.999Z</time></trkpt><trkpt lat="45.85051041986067" lon="12.117925973634668"><ele>110.0</ele><time>2026-04-15T07:22:46.999Z</time></trkpt><trkpt lat="45.85046216236121" lon="12.117786992685982"><ele>109.99999999999999</ele><time>2026-04-15T07:22:48.999Z</time></trkpt><trkpt lat="45.8504750357526" lon="12.117696399659465"><ele>110.0</ele><time>2026-04-15T07:22:49.999Z</time></trkpt><trkpt lat="45.85056382127599" lon="12.117710410615324"><ele>110.0</ele><time>2026-04-15T07:22:51.999Z</time></trkpt><trkpt lat="45.85062778512044" lon="12.117709730492916"><ele>110.0</ele><time>2026-04-15T07:22:52.999Z</time></trkpt><trkpt lat="45.85076179341698" lon="12.117760683164637"><ele>109.99999999999999</ele><time>2026-04-15T07:22:54.999Z</time></trkpt><trkpt lat="45.850849460260875" lon="12.117784986270056"><ele>110.0</ele><time>2026-04-15T07:22:55.999Z</time></trkpt><trkpt lat="45.85094134084807" lon="12.11781033270679"><ele>110.0</ele><time>2026-04-15T07:22:56.999Z</time></trkpt><trkpt lat="45.851036583109256" lon="12.117838519299957"><ele>110.0</ele><time>2026-04-15T07:22:57.999Z</time></trkpt><trkpt lat="45.85113310678428" lon="12.117862933605064"><ele>110.0</ele><time>2026-04-15T07:22:58.999Z</time></trkpt><trkpt lat="45.85122617535324" lon="12.117887572966266"><ele>110.0</ele><time>2026-04-15T07:22:59.999Z</time></trkpt><trkpt lat="45.85132128004891" lon="12.117914161659268"><ele>110.0</ele><time>2026-04-15T07:23:00.999Z</time></trkpt><trkpt lat="45.851423709413865" lon="12.117943417860657"><ele>110.0</ele><time>2026-04-15T07:23:02Z</time></trkpt><trkpt lat="45.851531096839445" lon="12.117975823324866"><ele>110.0</ele><time>2026-04-15T07:23:03Z</time></trkpt><trkpt lat="45.85163366393974" lon="12.118006429475631"><ele>110.0</ele><time>2026-04-15T07:23:04Z</time></trkpt><trkpt lat="45.85173230517515" lon="12.118035616167477"><ele>110.0</ele><time>2026-04-15T07:23:05Z</time></trkpt><trkpt lat="45.85182949278292" lon="12.118062769735095"><ele>110.0</ele><time>2026-04-15T07:23:06Z</time></trkpt><trkpt lat="45.85192360648655" lon="12.118088930827083"><ele>109.8</ele><time>2026-04-15T07:23:07Z</time></trkpt><trkpt lat="45.85202296273923" lon="12.118119281741235"><ele>109.6</ele><time>2026-04-15T07:23:08Z</time></trkpt><trkpt lat="45.852127843280265" lon="12.118150249802108"><ele>109.4</ele><time>2026-04-15T07:23:09Z</time></trkpt><trkpt lat="45.852238016044566" lon="12.118180679457552"><ele>109.2</ele><time>2026-04-15T07:23:10Z</time></trkpt><trkpt lat="45.852351712479596" lon="12.118211655748416"><ele>109.0</ele><time>2026-04-15T07:23:11Z</time></trkpt><trkpt lat="45.8524692696979" lon="12.118243274182479"><ele>109.0</ele><time>2026-04-15T07:23:12Z</time></trkpt><trkpt lat="45.852589339791265" lon="12.118277378897446"><ele>109.0</ele><time>2026-04-15T07:23:13Z</time></trkpt><trkpt lat="45.85271154252791" lon="12.118313707106854"><ele>109.0</ele><time>2026-04-15T07:23:14Z</time></trkpt><trkpt lat="45.85283696274987" lon="12.11835356707303"><ele>109.0</ele><time>2026-04-15T07:23:15Z</time></trkpt><trkpt lat="45.8529658134513" lon="12.1183862186237"><ele>109.25</ele><time>2026-04-15T07:23:16Z</time></trkpt><trkpt lat="45.85309657396395" lon="12.118420914360243"><ele>109.5</ele><time>2026-04-15T07:23:17Z</time></trkpt><trkpt lat="45.85322996954511" lon="12.118455127317567"><ele>109.75</ele><time>2026-04-15T07:23:18Z</time></trkpt><trkpt lat="45.85336457855527" lon="12.118488466620427"><ele>110.0</ele><time>2026-04-15T07:23:19Z</time></trkpt><trkpt lat="45.85350156499247" lon="12.11851853375492"><ele>110.5</ele><time>2026-04-15T07:23:20Z</time></trkpt><trkpt lat="45.85364049695226" lon="12.118543301967922"><ele>111.0</ele><time>2026-04-15T07:23:21Z</time></trkpt><trkpt lat="45.853782554901365" lon="12.118558140911134"><ele>111.5</ele><time>2026-04-15T07:23:22Z</time></trkpt><trkpt lat="45.8539222648512" lon="12.118574192139407"><ele>112.0</ele><time>2026-04-15T07:23:23Z</time></trkpt><trkpt lat="45.85405804873769" lon="12.118590706073231"><ele>112.0</ele><time>2026-04-15T07:23:24Z</time></trkpt><trkpt lat="45.8541894912419" lon="12.118605535592701"><ele>112.0</ele><time>2026-04-15T07:23:25Z</time></trkpt><trkpt lat="45.854317845832476" lon="12.118615734658427"><ele>112.0</ele><time>2026-04-15T07:23:26Z</time></trkpt><trkpt lat="45.85444023336695" lon="12.118627450211022"><ele>112.0</ele><time>2026-04-15T07:23:27Z</time></trkpt><trkpt lat="45.854561310922264" lon="12.118639721772123"><ele>112.19999999999999</ele><time>2026-04-15T07:23:28Z</time></trkpt><trkpt lat="45.85467767164031" lon="12.11865341565922"><ele>112.39999999999999</ele><time>2026-04-15T07:23:29Z</time></trkpt><trkpt lat="45.85479033415576" lon="12.118667809861272"><ele>112.60000000000001</ele><time>2026-04-15T07:23:30Z</time></trkpt><trkpt lat="45.85489716402441" lon="12.11869633704285"><ele>112.80000000000001</ele><time>2026-04-15T07:23:31Z</time></trkpt><trkpt lat="45.854997601783516" lon="12.11874366919911"><ele>113.0</ele><time>2026-04-15T07:23:32Z</time></trkpt><trkpt lat="45.85508407595616" lon="12.118819329542529"><ele>113.2</ele><time>2026-04-15T07:23:33Z</time></trkpt><trkpt lat="45.85515562790828" lon="12.118915953033921"><ele>113.4</ele><time>2026-04-15T07:23:34Z</time></trkpt><trkpt lat="45.855213518610874" lon="12.119028504102197"><ele>113.60000000000001</ele><time>2026-04-15T07:23:35Z</time></trkpt><trkpt lat="45.8552664593978" lon="12.11912949795833"><ele>113.80000000000001</ele><time>2026-04-15T07:23:36Z</time></trkpt><trkpt lat="45.85531473685875" lon="12.119200550549518"><ele>114.0</ele><time>2026-04-15T07:23:37Z</time></trkpt><trkpt lat="45.855410486377586" lon="12.119277303207658"><ele>114.0</ele><time>2026-04-15T07:23:39Z</time></trkpt><trkpt lat="45.85550606185091" lon="12.119320244991345"><ele>114.0</ele><time>2026-04-15T07:23:41Z</time></trkpt><trkpt lat="45.85560177064437" lon="12.119370764719378"><ele>114.0</ele><time>2026-04-15T07:23:43Z</time></trkpt><trkpt lat="45.855665569146716" lon="12.11936926191319"><ele>114.0</ele><time>2026-04-15T07:23:45Z</time></trkpt><trkpt lat="45.85566466588508" lon="12.119244769272536"><ele>114.0</ele><time>2026-04-15T07:23:49Z</time></trkpt><trkpt lat="45.85564492047899" lon="12.119118892473894"><ele>114.0</ele><time>2026-04-15T07:23:51Z</time></trkpt><trkpt lat="45.85559491652212" lon="12.11895618862926"><ele>114.16666666666667</ele><time>2026-04-15T07:23:53Z</time></trkpt><trkpt lat="45.85556931799302" lon="12.118872895566012"><ele>114.33333333333334</ele><time>2026-04-15T07:23:54Z</time></trkpt><trkpt lat="45.855514619980966" lon="12.118715715516137"><ele>114.5</ele><time>2026-04-15T07:23:56Z</time></trkpt><trkpt lat="45.85548995530818" lon="12.118623411564666"><ele>114.66666666666667</ele><time>2026-04-15T07:23:57Z</time></trkpt><trkpt lat="45.855469022031045" lon="12.118529059606809"><ele>114.83333333333334</ele><time>2026-04-15T07:23:58Z</time></trkpt><trkpt lat="45.85544641458319" lon="12.11843252181687"><ele>115.0</ele><time>2026-04-15T07:23:59Z</time></trkpt><trkpt lat="45.855421886285285" lon="12.118334562166627"><ele>114.99999999999999</ele><time>2026-04-15T07:24:00Z</time></trkpt><trkpt lat="45.855397582682414" lon="12.118239072603858"><ele>115.0</ele><time>2026-04-15T07:24:01Z</time></trkpt><trkpt lat="45.85537186752422" lon="12.118144923732121"><ele>114.99999999999999</ele><time>2026-04-15T07:24:02Z</time></trkpt><trkpt lat="45.85534158562706" lon="12.118050181981092"><ele>114.99999999999999</ele><time>2026-04-15T07:24:03Z</time></trkpt><trkpt lat="45.85530345091107" lon="12.117958739030433"><ele>115.0</ele><time>2026-04-15T07:24:04Z</time></trkpt><trkpt lat="45.85526201672924" lon="12.117875714488395"><ele>114.99999999999999</ele><time>2026-04-15T07:24:05Z</time></trkpt><trkpt lat="45.85522206064964" lon="12.117798012384188"><ele>114.99999999999999</ele><time>2026-04-15T07:24:05.999Z</time></trkpt><trkpt lat="45.85516101033082" lon="12.117653200151443"><ele>115.00000000000001</ele><time>2026-04-15T07:24:07.999Z</time></trkpt><trkpt lat="45.85510568688306" lon="12.117512645200623"><ele>115.0</ele><time>2026-04-15T07:24:09.999Z</time></trkpt><trkpt lat="45.85506678945958" lon="12.117354435798617"><ele>115.0</ele><time>2026-04-15T07:24:11.999Z</time></trkpt><trkpt lat="45.85505282926705" lon="12.117263142171408"><ele>115.0</ele><time>2026-04-15T07:24:12.999Z</time></trkpt><trkpt lat="45.85503789460103" lon="12.117165380794555"><ele>115.00000000000001</ele><time>2026-04-15T07:24:13.999Z</time></trkpt><trkpt lat="45.85502782798311" lon="12.117059573482754"><ele>115.0</ele><time>2026-04-15T07:24:14.999Z</time></trkpt><trkpt lat="45.85501958114862" lon="12.116947187150792"><ele>115.00000000000001</ele><time>2026-04-15T07:24:15.999Z</time></trkpt><trkpt lat="45.85501093180519" lon="12.116830592307382"><ele>115.0</ele><time>2026-04-15T07:24:16.999Z</time></trkpt><trkpt lat="45.85500409447993" lon="12.116718785668573"><ele>115.0</ele><time>2026-04-15T07:24:17.999Z</time></trkpt><trkpt lat="45.85499926511594" lon="12.116609485336195"><ele>115.0</ele><time>2026-04-15T07:24:18.999Z</time></trkpt><trkpt lat="45.85498053839253" lon="12.11649589817561"><ele>115.00000000000001</ele><time>2026-04-15T07:24:19.999Z</time></trkpt><trkpt lat="45.85494950925572" lon="12.116330959663266"><ele>115.0</ele><time>2026-04-15T07:24:21.999Z</time></trkpt><trkpt lat="45.854919990132686" lon="12.116159988145345"><ele>115.00000000000001</ele><time>2026-04-15T07:24:23.999Z</time></trkpt><trkpt lat="45.85489715432565" lon="12.116068814405487"><ele>115.0</ele><time>2026-04-15T07:24:24.999Z</time></trkpt><trkpt lat="45.85486974003105" lon="12.115968607178827"><ele>115.0</ele><time>2026-04-15T07:24:25.999Z</time></trkpt><trkpt lat="45.85483985909967" lon="12.115855913488987"><ele>115.0</ele><time>2026-04-15T07:24:26.999Z</time></trkpt><trkpt lat="45.85479986188667" lon="12.115728236852659"><ele>115.00000000000001</ele><time>2026-04-15T07:24:27.999Z</time></trkpt><trkpt lat="45.8547476878741" lon="12.115590974053319"><ele>115.0</ele><time>2026-04-15T07:24:28.999Z</time></trkpt><trkpt lat="45.85468557294019" lon="12.115435277696836"><ele>115.2</ele><time>2026-04-15T07:24:29.999Z</time></trkpt><trkpt lat="45.85462235376226" lon="12.115269320999174"><ele>115.4</ele><time>2026-04-15T07:24:30.999Z</time></trkpt><trkpt lat="45.854565031708034" lon="12.115116637674015"><ele>115.6</ele><time>2026-04-15T07:24:31.999Z</time></trkpt><trkpt lat="45.85452351731051" lon="12.114994919959885"><ele>115.8</ele><time>2026-04-15T07:24:32.999Z</time></trkpt><trkpt lat="45.85448991084792" lon="12.114897847437241"><ele>116.0</ele><time>2026-04-15T07:24:33.999Z</time></trkpt><trkpt lat="45.85444837507833" lon="12.11481091908537"><ele>116.00000000000001</ele><time>2026-04-15T07:24:34.999Z</time></trkpt><trkpt lat="45.854423870984476" lon="12.114710554721215"><ele>116.0</ele><time>2026-04-15T07:24:35.999Z</time></trkpt><trkpt lat="45.854393571769855" lon="12.114623719730474"><ele>116.00000000000001</ele><time>2026-04-15T07:24:36.999Z</time></trkpt><trkpt lat="45.85436291949969" lon="12.114540798769324"><ele>116.00000000000001</ele><time>2026-04-15T07:24:37.999Z</time></trkpt><trkpt lat="45.854314448603525" lon="12.114459911497944"><ele>116.0</ele><time>2026-04-15T07:24:38.999Z</time></trkpt><trkpt lat="45.85426583814109" lon="12.114366219368426"><ele>116.00000000000001</ele><time>2026-04-15T07:24:39.999Z</time></trkpt><trkpt lat="45.85421774612568" lon="12.1142631032908"><ele>116.00000000000001</ele><time>2026-04-15T07:24:40.999Z</time></trkpt><trkpt lat="45.854152347248586" lon="12.114186453176337"><ele>116.0</ele><time>2026-04-15T07:24:41.999Z</time></trkpt><trkpt lat="45.854107058924725" lon="12.114072270141042"><ele>116.0</ele><time>2026-04-15T07:24:42.999Z</time></trkpt><trkpt lat="45.854056460226644" lon="12.113971535563737"><ele>116.0</ele><time>2026-04-15T07:24:43.999Z</time></trkpt><trkpt lat="45.854005141889374" lon="12.113861669240906"><ele>116.0</ele><time>2026-04-15T07:24:44.999Z</time></trkpt><trkpt lat="45.85394570012485" lon="12.113747971423876"><ele>116.0</ele><time>2026-04-15T07:24:45.999Z</time></trkpt><trkpt lat="45.85391220664913" lon="12.113598490468304"><ele>115.99999999999999</ele><time>2026-04-15T07:24:46.999Z</time></trkpt><trkpt lat="45.853887211187086" lon="12.113465009275405"><ele>116.0</ele><time>2026-04-15T07:24:47.999Z</time></trkpt><trkpt lat="45.853862930092305" lon="12.11335623447914"><ele>116.0</ele><time>2026-04-15T07:24:48.999Z</time></trkpt><trkpt lat="45.853848398181846" lon="12.113233699389758"><ele>116.0</ele><time>2026-04-15T07:24:49.999Z</time></trkpt><trkpt lat="45.85384314198258" lon="12.113113605728026"><ele>115.99999999999999</ele><time>2026-04-15T07:24:50.999Z</time></trkpt><trkpt lat="45.85384147989876" lon="12.112994954382192"><ele>116.0</ele><time>2026-04-15T07:24:51.999Z</time></trkpt><trkpt lat="45.85384938720751" lon="12.1128797603448"><ele>115.83333333333333</ele><time>2026-04-15T07:24:52.999Z</time></trkpt><trkpt lat="45.8538589405991" lon="12.112771480270883"><ele>115.66666666666666</ele><time>2026-04-15T07:24:53.999Z</time></trkpt><trkpt lat="45.85388700948472" lon="12.112673712089295"><ele>115.5</ele><time>2026-04-15T07:24:54.999Z</time></trkpt><trkpt lat="45.853912686823165" lon="12.112575831074219"><ele>115.33333333333334</ele><time>2026-04-15T07:24:55.999Z</time></trkpt><trkpt lat="45.85392595590202" lon="12.112426315618722"><ele>115.16666666666667</ele><time>2026-04-15T07:24:57.999Z</time></trkpt><trkpt lat="45.853917613035094" lon="12.112297837769669"><ele>115.0</ele><time>2026-04-15T07:24:59.999Z</time></trkpt><trkpt lat="45.853927684959565" lon="12.112208560025202"><ele>114.66666666666667</ele><time>2026-04-15T07:25:02.999Z</time></trkpt><trkpt lat="45.85390890611328" lon="12.112117854391911"><ele>114.33333333333334</ele><time>2026-04-15T07:26:20.999Z</time></trkpt><trkpt lat="45.85388892651779" lon="12.111949643285168"><ele>114.0</ele><time>2026-04-15T07:26:22.999Z</time></trkpt><trkpt lat="45.85386781486469" lon="12.111825000906144"><ele>113.66666666666666</ele><time>2026-04-15T07:26:23.999Z</time></trkpt><trkpt lat="45.85384672912123" lon="12.111709287396527"><ele>113.33333333333333</ele><time>2026-04-15T07:26:24.999Z</time></trkpt><trkpt lat="45.853826163818006" lon="12.111599036984254"><ele>113.0</ele><time>2026-04-15T07:26:25.999Z</time></trkpt><trkpt lat="45.85380544638723" lon="12.111498425008188"><ele>113.83333333333333</ele><time>2026-04-15T07:26:26.999Z</time></trkpt><trkpt lat="45.8537836369367" lon="12.111403501152786"><ele>114.66666666666666</ele><time>2026-04-15T07:26:27.999Z</time></trkpt><trkpt lat="45.85378000777917" lon="12.11130849294139"><ele>115.5</ele><time>2026-04-15T07:26:28.999Z</time></trkpt><trkpt lat="45.85374740957911" lon="12.111142270832984"><ele>116.33333333333334</ele><time>2026-04-15T07:26:30.999Z</time></trkpt><trkpt lat="45.85373438757318" lon="12.110973078991801"><ele>117.16666666666667</ele><time>2026-04-15T07:26:32.999Z</time></trkpt><trkpt lat="45.85374144946257" lon="12.110871434741611"><ele>118.0</ele><time>2026-04-15T07:26:33.999Z</time></trkpt><trkpt lat="45.853722474315866" lon="12.110769330115904"><ele>118.4</ele><time>2026-04-15T07:26:34.999Z</time></trkpt><trkpt lat="45.85372826309522" lon="12.110653131131006"><ele>118.80000000000001</ele><time>2026-04-15T07:26:35.999Z</time></trkpt><trkpt lat="45.85373030999586" lon="12.110517472018737"><ele>119.2</ele><time>2026-04-15T07:26:36.999Z</time></trkpt><trkpt lat="45.8537343859428" lon="12.110361776777042"><ele>119.6</ele><time>2026-04-15T07:26:37.999Z</time></trkpt><trkpt lat="45.85373779971793" lon="12.110194158353474"><ele>120.0</ele><time>2026-04-15T07:26:38.999Z</time></trkpt><trkpt lat="45.8537382930204" lon="12.110009573229336"><ele>119.75</ele><time>2026-04-15T07:26:39.999Z</time></trkpt><trkpt lat="45.85372666978438" lon="12.109809608314619"><ele>119.5</ele><time>2026-04-15T07:26:40.999Z</time></trkpt><trkpt lat="45.85370899906824" lon="12.10959918806744"><ele>119.25</ele><time>2026-04-15T07:26:41.999Z</time></trkpt><trkpt lat="45.85369519799977" lon="12.109395959215274"><ele>119.0</ele><time>2026-04-15T07:26:42.999Z</time></trkpt><trkpt lat="45.85368926680208" lon="12.109214882492259"><ele>118.80000000000001</ele><time>2026-04-15T07:26:43.999Z</time></trkpt><trkpt lat="45.85369335578011" lon="12.109063029134802"><ele>118.60000000000001</ele><time>2026-04-15T07:26:44.999Z</time></trkpt><trkpt lat="45.85369784147025" lon="12.108929195454841"><ele>118.4</ele><time>2026-04-15T07:26:45.999Z</time></trkpt><trkpt lat="45.85370654936082" lon="12.10879782684857"><ele>118.2</ele><time>2026-04-15T07:26:46.999Z</time></trkpt><trkpt lat="45.85371796531486" lon="12.10866627277089"><ele>118.0</ele><time>2026-04-15T07:26:47.999Z</time></trkpt><trkpt lat="45.85372910078024" lon="12.108530458661699"><ele>118.0</ele><time>2026-04-15T07:26:48.999Z</time></trkpt><trkpt lat="45.85373922536536" lon="12.108386693400368"><ele>118.00000000000001</ele><time>2026-04-15T07:26:49.999Z</time></trkpt><trkpt lat="45.85374868211882" lon="12.108234248817181"><ele>118.00000000000001</ele><time>2026-04-15T07:26:50.999Z</time></trkpt><trkpt lat="45.853750598805924" lon="12.108074104701355"><ele>118.0</ele><time>2026-04-15T07:26:51.999Z</time></trkpt><trkpt lat="45.85375140908782" lon="12.107904255029997"><ele>118.0</ele><time>2026-04-15T07:26:52.999Z</time></trkpt><trkpt lat="45.85375143380934" lon="12.107737404899526"><ele>118.4</ele><time>2026-04-15T07:26:53.999Z</time></trkpt><trkpt lat="45.85374813517394" lon="12.10758098998709"><ele>118.80000000000001</ele><time>2026-04-15T07:26:54.999Z</time></trkpt><trkpt lat="45.853742376066904" lon="12.107449407957086"><ele>119.2</ele><time>2026-04-15T07:26:55.999Z</time></trkpt><trkpt lat="45.85373887768821" lon="12.107340952873907"><ele>119.6</ele><time>2026-04-15T07:26:56.999Z</time></trkpt><trkpt lat="45.85377375705816" lon="12.107210246182524"><ele>120.0</ele><time>2026-04-15T07:26:58.999Z</time></trkpt><trkpt lat="45.853862096142144" lon="12.107204983345076"><ele>120.2</ele><time>2026-04-15T07:27:00.999Z</time></trkpt><trkpt lat="45.85400113831119" lon="12.107209232966314"><ele>120.4</ele><time>2026-04-15T07:27:02.999Z</time></trkpt><trkpt lat="45.85409395796137" lon="12.107222520824408"><ele>120.6</ele><time>2026-04-15T07:27:03.999Z</time></trkpt><trkpt lat="45.8541768596569" lon="12.107225171018499"><ele>120.8</ele><time>2026-04-15T07:27:04.999Z</time></trkpt><trkpt lat="45.85426844545558" lon="12.107217603432368"><ele>121.0</ele><time>2026-04-15T07:27:05.999Z</time></trkpt><trkpt lat="45.8543700230904" lon="12.107199828220896"><ele>121.0</ele><time>2026-04-15T07:27:06.999Z</time></trkpt><trkpt lat="45.85448378733661" lon="12.107170151039881"><ele>121.0</ele><time>2026-04-15T07:27:07.999Z</time></trkpt><trkpt lat="45.85461053334031" lon="12.107130414344196"><ele>121.0</ele><time>2026-04-15T07:27:08.999Z</time></trkpt><trkpt lat="45.85474697308225" lon="12.107089820234693"><ele>121.0</ele><time>2026-04-15T07:27:09.999Z</time></trkpt><trkpt lat="45.854887009967136" lon="12.107058005021965"><ele>121.0</ele><time>2026-04-15T07:27:10.999Z</time></trkpt><trkpt lat="45.855023593654394" lon="12.107057232688922"><ele>121.0</ele><time>2026-04-15T07:27:11.999Z</time></trkpt><trkpt lat="45.85515606676423" lon="12.107073430236568"><ele>121.0</ele><time>2026-04-15T07:27:12.999Z</time></trkpt><trkpt lat="45.855284085935594" lon="12.107102327432697"><ele>121.0</ele><time>2026-04-15T07:27:14Z</time></trkpt><trkpt lat="45.8554086527662" lon="12.107123852393222"><ele>121.0</ele><time>2026-04-15T07:27:15Z</time></trkpt><trkpt lat="45.8555307532448" lon="12.107144028889314"><ele>121.0</ele><time>2026-04-15T07:27:16Z</time></trkpt><trkpt lat="45.85565148065673" lon="12.107162968731517"><ele>121.0</ele><time>2026-04-15T07:27:17Z</time></trkpt><trkpt lat="45.85577264319125" lon="12.10717776166739"><ele>121.0</ele><time>2026-04-15T07:27:18Z</time></trkpt><trkpt lat="45.85589438249975" lon="12.107191124525343"><ele>121.25</ele><time>2026-04-15T07:27:19Z</time></trkpt><trkpt lat="45.85601690031142" lon="12.107203338524334"><ele>121.5</ele><time>2026-04-15T07:27:20Z</time></trkpt><trkpt lat="45.856138923515324" lon="12.107210628041033"><ele>121.75</ele><time>2026-04-15T07:27:21Z</time></trkpt><trkpt lat="45.856260836081816" lon="12.107211809841337"><ele>122.0</ele><time>2026-04-15T07:27:22Z</time></trkpt><trkpt lat="45.85638385068109" lon="12.107214591961206"><ele>122.0</ele><time>2026-04-15T07:27:23Z</time></trkpt><trkpt lat="45.85650854080192" lon="12.10721789882177"><ele>122.0</ele><time>2026-04-15T07:27:24Z</time></trkpt><trkpt lat="45.85663407022093" lon="12.10722037723209"><ele>122.0</ele><time>2026-04-15T07:27:25Z</time></trkpt><trkpt lat="45.85676034329963" lon="12.107224050165751"><ele>122.0</ele><time>2026-04-15T07:27:26Z</time></trkpt><trkpt lat="45.85688781315642" lon="12.10722502729016"><ele>121.25</ele><time>2026-04-15T07:27:27Z</time></trkpt><trkpt lat="45.857010431080276" lon="12.10723283167275"><ele>120.5</ele><time>2026-04-15T07:27:28Z</time></trkpt><trkpt lat="45.85712923094636" lon="12.107239294245973"><ele>119.75</ele><time>2026-04-15T07:27:29Z</time></trkpt><trkpt lat="45.857245673477905" lon="12.107249033581736"><ele>119.0</ele><time>2026-04-15T07:27:30Z</time></trkpt><trkpt lat="45.85735858788339" lon="12.107259070933459"><ele>119.0</ele><time>2026-04-15T07:27:31Z</time></trkpt><trkpt lat="45.85746865012024" lon="12.107271732964472"><ele>119.0</ele><time>2026-04-15T07:27:32Z</time></trkpt><trkpt lat="45.857574147466785" lon="12.107292840267045"><ele>119.0</ele><time>2026-04-15T07:27:33Z</time></trkpt><trkpt lat="45.85767703681923" lon="12.10732239302441"><ele>119.0</ele><time>2026-04-15T07:27:34Z</time></trkpt><trkpt lat="45.85778281090389" lon="12.107353112092374"><ele>119.0</ele><time>2026-04-15T07:27:35Z</time></trkpt><trkpt lat="45.85789067206713" lon="12.107369181041387"><ele>119.5</ele><time>2026-04-15T07:27:36Z</time></trkpt><trkpt lat="45.858000123756796" lon="12.107374133149424"><ele>120.0</ele><time>2026-04-15T07:27:37Z</time></trkpt><trkpt lat="45.858114446169395" lon="12.10737244469351"><ele>120.5</ele><time>2026-04-15T07:27:38Z</time></trkpt><trkpt lat="45.85823194877972" lon="12.107366314348504"><ele>121.0</ele><time>2026-04-15T07:27:39Z</time></trkpt><trkpt lat="45.858352298764665" lon="12.107358869807722"><ele>120.75</ele><time>2026-04-15T07:27:40Z</time></trkpt><trkpt lat="45.85847565559812" lon="12.107352743776431"><ele>120.5</ele><time>2026-04-15T07:27:41Z</time></trkpt><trkpt lat="45.85860190321175" lon="12.107351552389405"><ele>120.25</ele><time>2026-04-15T07:27:42Z</time></trkpt><trkpt lat="45.858731177422364" lon="12.107355176276746"><ele>120.0</ele><time>2026-04-15T07:27:43Z</time></trkpt><trkpt lat="45.858861517036274" lon="12.107364029071523"><ele>120.0</ele><time>2026-04-15T07:27:44Z</time></trkpt><trkpt lat="45.858993485029394" lon="12.107377872311753"><ele>120.0</ele><time>2026-04-15T07:27:45Z</time></trkpt><trkpt lat="45.85912791380726" lon="12.10738757670821"><ele>120.0</ele><time>2026-04-15T07:27:46Z</time></trkpt><trkpt lat="45.859263467249264" lon="12.107393832070525"><ele>120.0</ele><time>2026-04-15T07:27:47Z</time></trkpt><trkpt lat="45.859400555113226" lon="12.107402405343269"><ele>120.0</ele><time>2026-04-15T07:27:48Z</time></trkpt><trkpt lat="45.85953907522171" lon="12.107409544015034"><ele>120.0</ele><time>2026-04-15T07:27:49Z</time></trkpt><trkpt lat="45.85967814666205" lon="12.107412294702428"><ele>120.0</ele><time>2026-04-15T07:27:50Z</time></trkpt><trkpt lat="45.859818085067005" lon="12.107411995965661"><ele>120.0</ele><time>2026-04-15T07:27:51Z</time></trkpt><trkpt lat="45.85995911780741" lon="12.107410659940763"><ele>120.25</ele><time>2026-04-15T07:27:52Z</time></trkpt><trkpt lat="45.860099596953944" lon="12.10741343816638"><ele>120.5</ele><time>2026-04-15T07:27:53Z</time></trkpt><trkpt lat="45.86023773712326" lon="12.107417592615231"><ele>120.75</ele><time>2026-04-15T07:27:54Z</time></trkpt><trkpt lat="45.860377174671626" lon="12.10742353725422"><ele>121.0</ele><time>2026-04-15T07:27:55Z</time></trkpt><trkpt lat="45.86051825648774" lon="12.107427857343971"><ele>121.0</ele><time>2026-04-15T07:27:56Z</time></trkpt><trkpt lat="45.86066081513394" lon="12.107429689840748"><ele>121.0</ele><time>2026-04-15T07:27:57Z</time></trkpt><trkpt lat="45.86080519129645" lon="12.10743195259325"><ele>121.0</ele><time>2026-04-15T07:27:58Z</time></trkpt><trkpt lat="45.86095062919047" lon="12.107433801072187"><ele>121.0</ele><time>2026-04-15T07:27:59Z</time></trkpt><trkpt lat="45.86109817329023" lon="12.107434172003991"><ele>121.0</ele><time>2026-04-15T07:28:00Z</time></trkpt><trkpt lat="45.86124401029172" lon="12.107431224625225"><ele>121.0</ele><time>2026-04-15T07:28:01Z</time></trkpt><trkpt lat="45.86138481891323" lon="12.107421581279468"><ele>121.0</ele><time>2026-04-15T07:28:02Z</time></trkpt><trkpt lat="45.861520014052" lon="12.107394312190253"><ele>121.0</ele><time>2026-04-15T07:28:03Z</time></trkpt><trkpt lat="45.86164827961636" lon="12.10734724888423"><ele>121.19999999999999</ele><time>2026-04-15T07:28:04Z</time></trkpt><trkpt lat="45.861761155815515" lon="12.1072814632292"><ele>121.39999999999999</ele><time>2026-04-15T07:28:05Z</time></trkpt><trkpt lat="45.86185722757942" lon="12.107206393013682"><ele>121.6</ele><time>2026-04-15T07:28:06Z</time></trkpt><trkpt lat="45.861949459081266" lon="12.107122892595237"><ele>121.8</ele><time>2026-04-15T07:28:07Z</time></trkpt><trkpt lat="45.86203514532754" lon="12.10703649674517"><ele>122.0</ele><time>2026-04-15T07:28:08Z</time></trkpt><trkpt lat="45.862117603155255" lon="12.106948678037705"><ele>121.6</ele><time>2026-04-15T07:28:09Z</time></trkpt><trkpt lat="45.86219982997708" lon="12.106859613303994"><ele>121.19999999999999</ele><time>2026-04-15T07:28:10Z</time></trkpt><trkpt lat="45.8622850068194" lon="12.106771090375348"><ele>120.8</ele><time>2026-04-15T07:28:11Z</time></trkpt><trkpt lat="45.862374059996185" lon="12.106683560873263"><ele>120.4</ele><time>2026-04-15T07:28:11.999Z</time></trkpt><trkpt lat="45.86247073142613" lon="12.106611312647125"><ele>120.0</ele><time>2026-04-15T07:28:12.999Z</time></trkpt><trkpt lat="45.862565818898496" lon="12.106567371483514"><ele>119.83333333333333</ele><time>2026-04-15T07:28:13.999Z</time></trkpt><trkpt lat="45.86265457855295" lon="12.106554524118625"><ele>119.66666666666666</ele><time>2026-04-15T07:28:14.999Z</time></trkpt><trkpt lat="45.86273440611538" lon="12.106558708521385"><ele>119.5</ele><time>2026-04-15T07:28:15.999Z</time></trkpt><trkpt lat="45.8628030611793" lon="12.10655864855337"><ele>119.33333333333333</ele><time>2026-04-15T07:28:16.999Z</time></trkpt><trkpt lat="45.8629124305522" lon="12.106554571842024"><ele>119.16666666666666</ele><time>2026-04-15T07:28:18.999Z</time></trkpt><trkpt lat="45.86299239639794" lon="12.10655537408318"><ele>119.0</ele><time>2026-04-15T07:28:21.999Z</time></trkpt><trkpt lat="45.862890124466574" lon="12.106524233304022"><ele>119.0</ele><time>2026-04-15T07:28:35.999Z</time></trkpt><trkpt lat="45.8627263447234" lon="12.106529576773076"><ele>119.0</ele><time>2026-04-15T07:28:38.999Z</time></trkpt><trkpt lat="45.86265736554005" lon="12.106531716597704"><ele>119.0</ele><time>2026-04-15T07:28:39.999Z</time></trkpt><trkpt lat="45.862587283216044" lon="12.106543479472146"><ele>119.0</ele><time>2026-04-15T07:28:40.999Z</time></trkpt><trkpt lat="45.86251055698778" lon="12.106573955428535"><ele>119.0</ele><time>2026-04-15T07:28:41.999Z</time></trkpt><trkpt lat="45.86244516547051" lon="12.106608792272237"><ele>119.2</ele><time>2026-04-15T07:28:42.999Z</time></trkpt><trkpt lat="45.86233609366334" lon="12.106576659311187"><ele>119.4</ele><time>2026-04-15T07:28:44.999Z</time></trkpt><trkpt lat="45.862281580206606" lon="12.106426914063798"><ele>119.6</ele><time>2026-04-15T07:28:46.999Z</time></trkpt><trkpt lat="45.86228941967056" lon="12.1063285399026"><ele>119.8</ele><time>2026-04-15T07:28:47.999Z</time></trkpt><trkpt lat="45.86230310935714" lon="12.10622418681941"><ele>120.0</ele><time>2026-04-15T07:28:48.999Z</time></trkpt><trkpt lat="45.862311701889006" lon="12.106104221543251"><ele>120.0</ele><time>2026-04-15T07:28:49.999Z</time></trkpt><trkpt lat="45.862321063338655" lon="12.105966485657556"><ele>120.0</ele><time>2026-04-15T07:28:50.999Z</time></trkpt><trkpt lat="45.86233240815405" lon="12.105812023024788"><ele>120.0</ele><time>2026-04-15T07:28:51.999Z</time></trkpt><trkpt lat="45.86234023599925" lon="12.105638773779585"><ele>120.0</ele><time>2026-04-15T07:28:52.999Z</time></trkpt><trkpt lat="45.86234637945663" lon="12.105451483708435"><ele>120.0</ele><time>2026-04-15T07:28:53.999Z</time></trkpt><trkpt lat="45.86235608514073" lon="12.10525038326287"><ele>120.0</ele><time>2026-04-15T07:28:54.999Z</time></trkpt><trkpt lat="45.86236533708769" lon="12.105037119383267"><ele>120.0</ele><time>2026-04-15T07:28:55.999Z</time></trkpt><trkpt lat="45.86237171901654" lon="12.104828770722861"><ele>120.0</ele><time>2026-04-15T07:28:56.999Z</time></trkpt><trkpt lat="45.86237898444086" lon="12.104627585038862"><ele>120.0</ele><time>2026-04-15T07:28:57.999Z</time></trkpt><trkpt lat="45.86239262801625" lon="12.104426868983913"><ele>120.0</ele><time>2026-04-15T07:28:58.999Z</time></trkpt><trkpt lat="45.86240829316381" lon="12.104235823514857"><ele>120.0</ele><time>2026-04-15T07:28:59.999Z</time></trkpt><trkpt lat="45.8624299065289" lon="12.10405496499174"><ele>120.0</ele><time>2026-04-15T07:29:00.999Z</time></trkpt><trkpt lat="45.86245828032559" lon="12.103881899429513"><ele>120.0</ele><time>2026-04-15T07:29:01.999Z</time></trkpt><trkpt lat="45.86249012760564" lon="12.103717613770002"><ele>120.0</ele><time>2026-04-15T07:29:02.999Z</time></trkpt><trkpt lat="45.862527840658615" lon="12.103559543961424"><ele>120.0</ele><time>2026-04-15T07:29:03.999Z</time></trkpt><trkpt lat="45.862568045528974" lon="12.10340526552226"><ele>120.0</ele><time>2026-04-15T07:29:04.999Z</time></trkpt><trkpt lat="45.8626027384082" lon="12.103262713677502"><ele>119.8</ele><time>2026-04-15T07:29:05.999Z</time></trkpt><trkpt lat="45.8626346930846" lon="12.103136203750662"><ele>119.6</ele><time>2026-04-15T07:29:06.999Z</time></trkpt><trkpt lat="45.86266155898477" lon="12.103017583982435"><ele>119.4</ele><time>2026-04-15T07:29:07.999Z</time></trkpt><trkpt lat="45.86268720014008" lon="12.102911820664275"><ele>119.2</ele><time>2026-04-15T07:29:08.999Z</time></trkpt><trkpt lat="45.86271001225842" lon="12.102811121937714"><ele>119.0</ele><time>2026-04-15T07:29:09.999Z</time></trkpt><trkpt lat="45.86280509420138" lon="12.10266456823109"><ele>118.99999999999999</ele><time>2026-04-15T07:29:11.999Z</time></trkpt><trkpt lat="45.86281201552488" lon="12.102572118300081"><ele>119.0</ele><time>2026-04-15T07:29:13.999Z</time></trkpt><trkpt lat="45.86282304486422" lon="12.10243046889968"><ele>119.0</ele><time>2026-04-15T07:29:16.999Z</time></trkpt><trkpt lat="45.86282604443153" lon="12.102308482848173"><ele>119.0</ele><time>2026-04-15T07:29:18.999Z</time></trkpt><trkpt lat="45.86283457533164" lon="12.102214181993293"><ele>118.99999999999999</ele><time>2026-04-15T07:29:21Z</time></trkpt><trkpt lat="45.862838384316696" lon="12.102105233930843"><ele>119.0</ele><time>2026-04-15T07:29:23Z</time></trkpt><trkpt lat="45.86284168457094" lon="12.10201117317428"><ele>119.16666666666666</ele><time>2026-04-15T07:29:25Z</time></trkpt><trkpt lat="45.86284728973116" lon="12.10190732170604"><ele>119.33333333333333</ele><time>2026-04-15T07:29:28Z</time></trkpt><trkpt lat="45.86285721337245" lon="12.101814317024472"><ele>119.5</ele><time>2026-04-15T07:29:30Z</time></trkpt><trkpt lat="45.86287264463722" lon="12.101703758209373"><ele>119.66666666666666</ele><time>2026-04-15T07:29:32Z</time></trkpt><trkpt lat="45.8628942603687" lon="12.101596383176782"><ele>119.83333333333333</ele><time>2026-04-15T07:29:34Z</time></trkpt><trkpt lat="45.86291652601981" lon="12.101479335736382"><ele>120.0</ele><time>2026-04-15T07:29:36Z</time></trkpt><trkpt lat="45.86293996118192" lon="12.101345000147152"><ele>120.4</ele><time>2026-04-15T07:29:38Z</time></trkpt><trkpt lat="45.862976355697306" lon="12.101213949470136"><ele>120.8</ele><time>2026-04-15T07:29:40Z</time></trkpt><trkpt lat="45.86301833423295" lon="12.101065928923248"><ele>121.19999999999999</ele><time>2026-04-15T07:29:42Z</time></trkpt><trkpt lat="45.86306411978002" lon="12.100906143142751"><ele>121.6</ele><time>2026-04-15T07:29:44Z</time></trkpt><trkpt lat="45.863107651445354" lon="12.100754971947353"><ele>122.0</ele><time>2026-04-15T07:29:46Z</time></trkpt><trkpt lat="45.86311928168473" lon="12.100661990000475"><ele>122.0</ele><time>2026-04-15T07:29:49Z</time></trkpt><trkpt lat="45.86312182616237" lon="12.100527892920464"><ele>121.99999999999999</ele><time>2026-04-15T07:31:02.999Z</time></trkpt><trkpt lat="45.863155866046384" lon="12.100330611074726"><ele>121.99999999999999</ele><time>2026-04-15T07:31:04.999Z</time></trkpt><trkpt lat="45.86314900277299" lon="12.100222016707738"><ele>122.0</ele><time>2026-04-15T07:31:05.999Z</time></trkpt><trkpt lat="45.863159906179305" lon="12.100110526972383"><ele>122.0</ele><time>2026-04-15T07:31:06.999Z</time></trkpt><trkpt lat="45.863170051602935" lon="12.099988431381659"><ele>122.33333333333333</ele><time>2026-04-15T07:31:07.999Z</time></trkpt><trkpt lat="45.863178367872436" lon="12.099854078667358"><ele>122.66666666666666</ele><time>2026-04-15T07:31:08.999Z</time></trkpt><trkpt lat="45.86318582255747" lon="12.099724287539708"><ele>123.0</ele><time>2026-04-15T07:31:09.999Z</time></trkpt><trkpt lat="45.86319303361859" lon="12.099599915496077"><ele>123.33333333333334</ele><time>2026-04-15T07:31:10.999Z</time></trkpt><trkpt lat="45.86319992874992" lon="12.099485295720848"><ele>123.66666666666667</ele><time>2026-04-15T07:31:11.999Z</time></trkpt><trkpt lat="45.863206205172766" lon="12.09938002819704"><ele>124.0</ele><time>2026-04-15T07:31:12.999Z</time></trkpt><trkpt lat="45.86321444870961" lon="12.099237103000787"><ele>124.0</ele><time>2026-04-15T07:31:14.999Z</time></trkpt><trkpt lat="45.86312695140377" lon="12.09913980937839"><ele>124.0</ele><time>2026-04-15T07:31:21.999Z</time></trkpt><trkpt lat="45.86300386985734" lon="12.099123369159653"><ele>124.0</ele><time>2026-04-15T07:31:23.999Z</time></trkpt><trkpt lat="45.862915315128966" lon="12.099113642638004"><ele>124.0</ele><time>2026-04-15T07:31:24.999Z</time></trkpt><trkpt lat="45.862832273827415" lon="12.099104303087156"><ele>124.0</ele><time>2026-04-15T07:31:26Z</time></trkpt><trkpt lat="45.86274337889888" lon="12.099092745535126"><ele>123.6</ele><time>2026-04-15T07:31:27Z</time></trkpt><trkpt lat="45.86264785105678" lon="12.099080325661117"><ele>123.2</ele><time>2026-04-15T07:31:28Z</time></trkpt><trkpt lat="45.86254998467806" lon="12.099067601698355"><ele>122.79999999999998</ele><time>2026-04-15T07:31:29Z</time></trkpt><trkpt lat="45.86245575625646" lon="12.099055350753456"><ele>122.39999999999999</ele><time>2026-04-15T07:31:30Z</time></trkpt><trkpt lat="45.86235983707434" lon="12.099042879963934"><ele>122.0</ele><time>2026-04-15T07:31:31Z</time></trkpt><trkpt lat="45.86225851305224" lon="12.09902970647425"><ele>122.0</ele><time>2026-04-15T07:31:32Z</time></trkpt><trkpt lat="45.86215705632998" lon="12.099016259963244"><ele>121.99999999999999</ele><time>2026-04-15T07:31:33Z</time></trkpt><trkpt lat="45.862053899806256" lon="12.099001562445173"><ele>121.99999999999999</ele><time>2026-04-15T07:31:34Z</time></trkpt><trkpt lat="45.861947282765165" lon="12.098986371877949"><ele>122.0</ele><time>2026-04-15T07:31:35Z</time></trkpt><trkpt lat="45.861842490454904" lon="12.098971441288413"><ele>122.0</ele><time>2026-04-15T07:31:36Z</time></trkpt><trkpt lat="45.861741767829955" lon="12.098955463507314"><ele>122.33333333333333</ele><time>2026-04-15T07:31:37Z</time></trkpt><trkpt lat="45.86164799079451" lon="12.098940529021782"><ele>122.66666666666666</ele><time>2026-04-15T07:31:38Z</time></trkpt><trkpt lat="45.86156147171034" lon="12.098949788285152"><ele>123.0</ele><time>2026-04-15T07:31:39Z</time></trkpt><trkpt lat="45.861484710425636" lon="12.098939169018477"><ele>123.33333333333334</ele><time>2026-04-15T07:31:40Z</time></trkpt><trkpt lat="45.861411630765424" lon="12.09890714610132"><ele>123.66666666666667</ele><time>2026-04-15T07:31:41Z</time></trkpt><trkpt lat="45.861332818844694" lon="12.098896312176162"><ele>124.0</ele><time>2026-04-15T07:31:42Z</time></trkpt><trkpt lat="45.8612484595124" lon="12.098884715668975"><ele>124.00000000000001</ele><time>2026-04-15T07:31:43Z</time></trkpt><trkpt lat="45.861159871387635" lon="12.098872537842254"><ele>124.0</ele><time>2026-04-15T07:31:44Z</time></trkpt><trkpt lat="45.861071132525666" lon="12.098860339296973"><ele>124.0</ele><time>2026-04-15T07:31:45Z</time></trkpt><trkpt lat="45.860982892924596" lon="12.098848209383466"><ele>124.0</ele><time>2026-04-15T07:31:46Z</time></trkpt><trkpt lat="45.860895408354835" lon="12.098836183264806"><ele>124.00000000000001</ele><time>2026-04-15T07:31:47Z</time></trkpt><trkpt lat="45.86080849337776" lon="12.09882423543874"><ele>124.0</ele><time>2026-04-15T07:31:48Z</time></trkpt><trkpt lat="45.860722724650934" lon="12.098812445185674"><ele>123.85714285714286</ele><time>2026-04-15T07:31:49Z</time></trkpt><trkpt lat="45.8606424963223" lon="12.098801416552693"><ele>123.71428571428572</ele><time>2026-04-15T07:31:50Z</time></trkpt><trkpt lat="45.860566090938235" lon="12.09879091343102"><ele>123.57142857142858</ele><time>2026-04-15T07:31:51Z</time></trkpt><trkpt lat="45.86049351729426" lon="12.098780937048558"><ele>123.42857142857144</ele><time>2026-04-15T07:31:52Z</time></trkpt><trkpt lat="45.86042348711404" lon="12.098793451791853"><ele>123.28571428571429</ele><time>2026-04-15T07:31:53Z</time></trkpt><trkpt lat="45.8603563574167" lon="12.09877867493539"><ele>123.14285714285717</ele><time>2026-04-15T07:31:54Z</time></trkpt><trkpt lat="45.86028479593602" lon="12.098766366402774"><ele>123.00000000000001</ele><time>2026-04-15T07:31:55Z</time></trkpt><trkpt lat="45.86021062090459" lon="12.098757856435924"><ele>123.0</ele><time>2026-04-15T07:31:56Z</time></trkpt><trkpt lat="45.860133460415526" lon="12.098750835925555"><ele>123.0</ele><time>2026-04-15T07:31:57Z</time></trkpt><trkpt lat="45.860058672569025" lon="12.098737969836229"><ele>123.0</ele><time>2026-04-15T07:31:58Z</time></trkpt><trkpt lat="45.85998399400654" lon="12.098725068841084"><ele>123.0</ele><time>2026-04-15T07:31:59Z</time></trkpt><trkpt lat="45.859911984204764" lon="12.09869151135869"><ele>123.0</ele><time>2026-04-15T07:32:00Z</time></trkpt><trkpt lat="45.859839279319495" lon="12.098678939612277"><ele>123.0</ele><time>2026-04-15T07:32:01Z</time></trkpt><trkpt lat="45.85976628153728" lon="12.098666317219012"><ele>122.85714285714288</ele><time>2026-04-15T07:32:02Z</time></trkpt><trkpt lat="45.859693602634174" lon="12.098653749966683"><ele>122.71428571428572</ele><time>2026-04-15T07:32:03Z</time></trkpt><trkpt lat="45.85962084146288" lon="12.098641700496556"><ele>122.57142857142857</ele><time>2026-04-15T07:32:04Z</time></trkpt><trkpt lat="45.85954824313846" lon="12.098630164243772"><ele>122.42857142857143</ele><time>2026-04-15T07:32:05Z</time></trkpt><trkpt lat="45.85947707230966" lon="12.098618854833749"><ele>122.28571428571428</ele><time>2026-04-15T07:32:06Z</time></trkpt><trkpt lat="45.85940445546469" lon="12.098607474927483"><ele>122.14285714285712</ele><time>2026-04-15T07:32:07Z</time></trkpt><trkpt lat="45.85933009136393" lon="12.098596920405308"><ele>121.99999999999999</ele><time>2026-04-15T07:32:08Z</time></trkpt><trkpt lat="45.85925352311521" lon="12.098586672888754"><ele>121.83333333333333</ele><time>2026-04-15T07:32:09Z</time></trkpt><trkpt lat="45.85917382442154" lon="12.098576702749908"><ele>121.66666666666666</ele><time>2026-04-15T07:32:10Z</time></trkpt><trkpt lat="45.859090199819754" lon="12.098568078232073"><ele>121.5</ele><time>2026-04-15T07:32:11Z</time></trkpt><trkpt lat="45.85900057221284" lon="12.098561275112564"><ele>121.33333333333334</ele><time>2026-04-15T07:32:12Z</time></trkpt><trkpt lat="45.858908713542355" lon="12.09855753275456"><ele>121.16666666666667</ele><time>2026-04-15T07:32:12.999Z</time></trkpt><trkpt lat="45.858811078180885" lon="12.098554113619683"><ele>121.0</ele><time>2026-04-15T07:32:13.999Z</time></trkpt><trkpt lat="45.85870464179996" lon="12.098576311356684"><ele>121.0</ele><time>2026-04-15T07:32:14.999Z</time></trkpt><trkpt lat="45.85859728849524" lon="12.098575314885318"><ele>121.0</ele><time>2026-04-15T07:32:15.999Z</time></trkpt><trkpt lat="45.85849296331923" lon="12.098576939192585"><ele>121.0</ele><time>2026-04-15T07:32:16.999Z</time></trkpt><trkpt lat="45.85838820442748" lon="12.09857837033598"><ele>121.0</ele><time>2026-04-15T07:32:17.999Z</time></trkpt><trkpt lat="45.85827978429152" lon="12.098578643613628"><ele>121.0</ele><time>2026-04-15T07:32:18.999Z</time></trkpt><trkpt lat="45.85816784782338" lon="12.098573851114267"><ele>121.5</ele><time>2026-04-15T07:32:19.999Z</time></trkpt><trkpt lat="45.85804962369229" lon="12.098565088983142"><ele>122.0</ele><time>2026-04-15T07:32:20.999Z</time></trkpt><trkpt lat="45.857932310603296" lon="12.098553739512887"><ele>122.5</ele><time>2026-04-15T07:32:21.999Z</time></trkpt><trkpt lat="45.857816529238534" lon="12.098544998930105"><ele>123.0</ele><time>2026-04-15T07:32:22.999Z</time></trkpt><trkpt lat="45.857705409415956" lon="12.098534062130309"><ele>123.0</ele><time>2026-04-15T07:32:23.999Z</time></trkpt><trkpt lat="45.857603566202634" lon="12.098522665737832"><ele>123.00000000000001</ele><time>2026-04-15T07:32:24.999Z</time></trkpt><trkpt lat="45.85752822297902" lon="12.098498579799815"><ele>123.00000000000001</ele><time>2026-04-15T07:32:25.999Z</time></trkpt><trkpt lat="45.85741182903108" lon="12.098496347962227"><ele>123.0</ele><time>2026-04-15T07:32:27.999Z</time></trkpt><trkpt lat="45.8573387491262" lon="12.098473412379848"><ele>123.0</ele><time>2026-04-15T07:32:29.999Z</time></trkpt><trkpt lat="45.857303067626" lon="12.098659900345858"><ele>123.0</ele><time>2026-04-15T07:32:30.999Z</time></trkpt><trkpt lat="45.857269985529" lon="12.098829560299695"><ele>123.0</ele><time>2026-04-15T07:32:32.999Z</time></trkpt><trkpt lat="45.857258014139106" lon="12.098926121991575"><ele>123.0</ele><time>2026-04-15T07:32:33.999Z</time></trkpt><trkpt lat="45.85725361484624" lon="12.099025209860892"><ele>123.0</ele><time>2026-04-15T07:32:34.999Z</time></trkpt><trkpt lat="45.85724903779781" lon="12.099129310089337"><ele>123.0</ele><time>2026-04-15T07:32:35.999Z</time></trkpt><trkpt lat="45.85724705479773" lon="12.09923808650178"><ele>123.0</ele><time>2026-04-15T07:32:36.999Z</time></trkpt><trkpt lat="45.85725190944353" lon="12.099361696479304"><ele>123.0</ele><time>2026-04-15T07:32:37.999Z</time></trkpt><trkpt lat="45.85726212479781" lon="12.09949940319851"><ele>123.00000000000001</ele><time>2026-04-15T07:32:38.999Z</time></trkpt><trkpt lat="45.85727423811565" lon="12.099649329241265"><ele>123.00000000000001</ele><time>2026-04-15T07:32:39.999Z</time></trkpt><trkpt lat="45.857279753447905" lon="12.099795194852158"><ele>123.0</ele><time>2026-04-15T07:32:40.999Z</time></trkpt><trkpt lat="45.85727837563734" lon="12.099941756050328"><ele>123.0</ele><time>2026-04-15T07:32:41.999Z</time></trkpt><trkpt lat="45.85726865488634" lon="12.100083822590426"><ele>122.80000000000001</ele><time>2026-04-15T07:32:42.999Z</time></trkpt><trkpt lat="45.85724833272975" lon="12.100232893312471"><ele>122.60000000000001</ele><time>2026-04-15T07:32:43.999Z</time></trkpt><trkpt lat="45.857219015926624" lon="12.100386488484032"><ele>122.39999999999999</ele><time>2026-04-15T07:32:44.999Z</time></trkpt><trkpt lat="45.85719536301837" lon="12.100542452591592"><ele>122.19999999999999</ele><time>2026-04-15T07:32:45.999Z</time></trkpt><trkpt lat="45.85717725468321" lon="12.100692004113967"><ele>122.0</ele><time>2026-04-15T07:32:46.999Z</time></trkpt><trkpt lat="45.85717415928579" lon="12.10084707239573"><ele>121.75</ele><time>2026-04-15T07:32:47.999Z</time></trkpt><trkpt lat="45.857147497230706" lon="12.101006395072861"><ele>121.5</ele><time>2026-04-15T07:32:48.999Z</time></trkpt><trkpt lat="45.8570997585663" lon="12.101157092606131"><ele>121.25</ele><time>2026-04-15T07:32:49.999Z</time></trkpt><trkpt lat="45.85705675093444" lon="12.101307134542248"><ele>121.0</ele><time>2026-04-15T07:32:50.999Z</time></trkpt><trkpt lat="45.857009671694485" lon="12.101466521830739"><ele>121.0</ele><time>2026-04-15T07:32:51.999Z</time></trkpt><trkpt lat="45.85697184062512" lon="12.101606923978077"><ele>121.0</ele><time>2026-04-15T07:32:52.999Z</time></trkpt><trkpt lat="45.85695996078794" lon="12.101746151800883"><ele>121.0</ele><time>2026-04-15T07:32:53.999Z</time></trkpt><trkpt lat="45.85694611376899" lon="12.101883384051078"><ele>121.0</ele><time>2026-04-15T07:32:54.999Z</time></trkpt><trkpt lat="45.85692948742792" lon="12.102012128026596"><ele>121.0</ele><time>2026-04-15T07:32:55.999Z</time></trkpt><trkpt lat="45.85691873335689" lon="12.102137563002264"><ele>121.0</ele><time>2026-04-15T07:32:56.999Z</time></trkpt><trkpt lat="45.856907719362944" lon="12.102257560564022"><ele>121.0</ele><time>2026-04-15T07:32:57.999Z</time></trkpt><trkpt lat="45.85689684599224" lon="12.102371979574263"><ele>121.0</ele><time>2026-04-15T07:32:58.999Z</time></trkpt><trkpt lat="45.85686963115054" lon="12.10247798713089"><ele>121.0</ele><time>2026-04-15T07:32:59.999Z</time></trkpt><trkpt lat="45.856852234827535" lon="12.102570747947121"><ele>121.0</ele><time>2026-04-15T07:33:00.999Z</time></trkpt><trkpt lat="45.85691597782871" lon="12.10278235236186"><ele>121.0</ele><time>2026-04-15T07:33:06.999Z</time></trkpt><trkpt lat="45.85702992042021" lon="12.102770574571997"><ele>121.0</ele><time>2026-04-15T07:33:08.999Z</time></trkpt><trkpt lat="45.85717475110551" lon="12.102780799388816"><ele>121.0</ele><time>2026-04-15T07:33:10.999Z</time></trkpt><trkpt lat="45.85726368082663" lon="12.102790855503905"><ele>121.0</ele><time>2026-04-15T07:33:11.999Z</time></trkpt><trkpt lat="45.85734913364045" lon="12.102796813091274"><ele>121.0</ele><time>2026-04-15T07:33:12.999Z</time></trkpt><trkpt lat="45.857442052441186" lon="12.102803040262621"><ele>121.0</ele><time>2026-04-15T07:33:13.999Z</time></trkpt><trkpt lat="45.85754683427756" lon="12.10281562476855"><ele>121.0</ele><time>2026-04-15T07:33:14.999Z</time></trkpt><trkpt lat="45.85766619466732" lon="12.102833141420152"><ele>121.0</ele><time>2026-04-15T07:33:15.999Z</time></trkpt><trkpt lat="45.857796359720204" lon="12.10284785197252"><ele>121.0</ele><time>2026-04-15T07:33:16.999Z</time></trkpt><trkpt lat="45.857940006651596" lon="12.102861348191125"><ele>121.0</ele><time>2026-04-15T07:33:17.999Z</time></trkpt><trkpt lat="45.8580798626361" lon="12.10286957784021"><ele>121.0</ele><time>2026-04-15T07:33:18.999Z</time></trkpt><trkpt lat="45.85821550053046" lon="12.10287833514095"><ele>121.0</ele><time>2026-04-15T07:33:19.999Z</time></trkpt><trkpt lat="45.85835546018186" lon="12.102889514331608"><ele>121.0</ele><time>2026-04-15T07:33:20.999Z</time></trkpt><trkpt lat="45.85850133915914" lon="12.10290491822927"><ele>121.0</ele><time>2026-04-15T07:33:21.999Z</time></trkpt><trkpt lat="45.85865384207395" lon="12.102918474094713"><ele>121.0</ele><time>2026-04-15T07:33:22.999Z</time></trkpt><trkpt lat="45.85880219279897" lon="12.102933997779868"><ele>121.0</ele><time>2026-04-15T07:33:23.999Z</time></trkpt><trkpt lat="45.858926759306875" lon="12.102943055301877"><ele>121.0</ele><time>2026-04-15T07:33:24.999Z</time></trkpt><trkpt lat="45.85904847436259" lon="12.102948899144044"><ele>121.0</ele><time>2026-04-15T07:33:25.999Z</time></trkpt><trkpt lat="45.85916543761187" lon="12.102944572556828"><ele>121.0</ele><time>2026-04-15T07:33:26.999Z</time></trkpt><trkpt lat="45.85928154325528" lon="12.10291273848901"><ele>121.0</ele><time>2026-04-15T07:33:27.999Z</time></trkpt><trkpt lat="45.859394236951" lon="12.10285270953264"><ele>121.0</ele><time>2026-04-15T07:33:28.999Z</time></trkpt><trkpt lat="45.859500499747405" lon="12.102760918146279"><ele>121.0</ele><time>2026-04-15T07:33:29.999Z</time></trkpt><trkpt lat="45.859600496085996" lon="12.102647357025974"><ele>121.0</ele><time>2026-04-15T07:33:30.999Z</time></trkpt><trkpt lat="45.859689397523766" lon="12.102535844370035"><ele>121.0</ele><time>2026-04-15T07:33:32Z</time></trkpt><trkpt lat="45.859760126832235" lon="12.102429494081978"><ele>121.0</ele><time>2026-04-15T07:33:33Z</time></trkpt><trkpt lat="45.859825834920706" lon="12.102330830648718"><ele>121.0</ele><time>2026-04-15T07:33:34Z</time></trkpt><trkpt lat="45.85990152918443" lon="12.102238896794802"><ele>121.19999999999999</ele><time>2026-04-15T07:33:35Z</time></trkpt><trkpt lat="45.859986832249284" lon="12.102156582171004"><ele>121.39999999999999</ele><time>2026-04-15T07:33:36Z</time></trkpt><trkpt lat="45.86008533119701" lon="12.102103019006252"><ele>121.6</ele><time>2026-04-15T07:33:37Z</time></trkpt><trkpt lat="45.86018930026554" lon="12.102077136348552"><ele>121.8</ele><time>2026-04-15T07:33:38Z</time></trkpt><trkpt lat="45.86029554263308" lon="12.102084412741927"><ele>122.0</ele><time>2026-04-15T07:33:39Z</time></trkpt><trkpt lat="45.86041548208607" lon="12.102122235190976"><ele>122.0</ele><time>2026-04-15T07:33:40Z</time></trkpt><trkpt lat="45.860541938654954" lon="12.10217918544897"><ele>122.0</ele><time>2026-04-15T07:33:41Z</time></trkpt><trkpt lat="45.860667469561875" lon="12.102237803736685"><ele>122.0</ele><time>2026-04-15T07:33:42Z</time></trkpt><trkpt lat="45.86079072059523" lon="12.102297200407746"><ele>122.0</ele><time>2026-04-15T07:33:43Z</time></trkpt><trkpt lat="45.860916164144754" lon="12.10235682499241"><ele>121.75</ele><time>2026-04-15T07:33:44Z</time></trkpt><trkpt lat="45.86104719646619" lon="12.102420782025366"><ele>121.5</ele><time>2026-04-15T07:33:45Z</time></trkpt><trkpt lat="45.86118594830952" lon="12.102480498070062"><ele>121.25</ele><time>2026-04-15T07:33:46Z</time></trkpt><trkpt lat="45.86133417945577" lon="12.102528836127622"><ele>121.0</ele><time>2026-04-15T07:33:47Z</time></trkpt><trkpt lat="45.86149067597543" lon="12.102562878374428"><ele>121.0</ele><time>2026-04-15T07:33:48Z</time></trkpt><trkpt lat="45.86165441876028" lon="12.102579510914461"><ele>121.0</ele><time>2026-04-15T07:33:49Z</time></trkpt><trkpt lat="45.86181639692364" lon="12.102593207815731"><ele>121.0</ele><time>2026-04-15T07:33:50Z</time></trkpt><trkpt lat="45.86196786965557" lon="12.10260152267629"><ele>121.0</ele><time>2026-04-15T07:33:51Z</time></trkpt><trkpt lat="45.862089705070304" lon="12.1026134448571"><ele>121.0</ele><time>2026-04-15T07:33:52Z</time></trkpt><trkpt lat="45.8622046691054" lon="12.10262462650748"><ele>121.0</ele><time>2026-04-15T07:33:53Z</time></trkpt><trkpt lat="45.86231695812457" lon="12.102633117367462"><ele>121.0</ele><time>2026-04-15T07:33:54Z</time></trkpt><trkpt lat="45.86242687419598" lon="12.102634176655933"><ele>121.00000000000001</ele><time>2026-04-15T07:33:55Z</time></trkpt><trkpt lat="45.86253345425088" lon="12.10262993223502"><ele>121.0</ele><time>2026-04-15T07:33:56Z</time></trkpt><trkpt lat="45.8626234821939" lon="12.102621113796575"><ele>121.0</ele><time>2026-04-15T07:33:57Z</time></trkpt><trkpt lat="45.86270681607398" lon="12.102610096235503"><ele>121.0</ele><time>2026-04-15T07:33:58Z</time></trkpt><trkpt lat="45.86278659019089" lon="12.102598512804917"><ele>121.00000000000001</ele><time>2026-04-15T07:33:59Z</time></trkpt><trkpt lat="45.86286546593644" lon="12.102585043230784"><ele>121.0</ele><time>2026-04-15T07:34:00Z</time></trkpt><trkpt lat="45.86294591869075" lon="12.102575592875382"><ele>120.6</ele><time>2026-04-15T07:34:01Z</time></trkpt><trkpt lat="45.863036381141626" lon="12.1025670626075"><ele>120.19999999999999</ele><time>2026-04-15T07:34:02Z</time></trkpt><trkpt lat="45.86314089913926" lon="12.10256192239628"><ele>119.80000000000001</ele><time>2026-04-15T07:34:03Z</time></trkpt><trkpt lat="45.863229019293556" lon="12.102575276420785"><ele>119.4</ele><time>2026-04-15T07:34:04Z</time></trkpt><trkpt lat="45.86332591075285" lon="12.102578685640395"><ele>119.0</ele><time>2026-04-15T07:34:05Z</time></trkpt><trkpt lat="45.86342270702066" lon="12.102577638918373"><ele>119.4</ele><time>2026-04-15T07:34:06Z</time></trkpt><trkpt lat="45.8635233615245" lon="12.102582009075913"><ele>119.80000000000001</ele><time>2026-04-15T07:34:07Z</time></trkpt><trkpt lat="45.8636296791461" lon="12.102589349701567"><ele>120.19999999999999</ele><time>2026-04-15T07:34:08Z</time></trkpt><trkpt lat="45.86374129103615" lon="12.102595402289099"><ele>120.6</ele><time>2026-04-15T07:34:09Z</time></trkpt><trkpt lat="45.86385397732375" lon="12.102602259392972"><ele>121.0</ele><time>2026-04-15T07:34:10Z</time></trkpt><trkpt lat="45.86395861355724" lon="12.102607928298703"><ele>121.00000000000001</ele><time>2026-04-15T07:34:11Z</time></trkpt><trkpt lat="45.86404819390929" lon="12.102619996648885"><ele>121.0</ele><time>2026-04-15T07:34:12Z</time></trkpt><trkpt lat="45.864114293536545" lon="12.102624864234315"><ele>121.0</ele><time>2026-04-15T07:34:13Z</time></trkpt><trkpt lat="45.864216870985494" lon="12.10262789604634"><ele>121.0</ele><time>2026-04-15T07:34:15Z</time></trkpt><trkpt lat="45.86430288383084" lon="12.10261733302583"><ele>121.00000000000001</ele><time>2026-04-15T07:34:16.999Z</time></trkpt><trkpt lat="45.864381886654165" lon="12.102598348500308"><ele>121.0</ele><time>2026-04-15T07:34:44.999Z</time></trkpt><trkpt lat="45.86440745605715" lon="12.102472092810206"><ele>121.33333333333334</ele><time>2026-04-15T07:34:46.999Z</time></trkpt><trkpt lat="45.864397773748195" lon="12.102372371375676"><ele>121.66666666666667</ele><time>2026-04-15T07:34:47.999Z</time></trkpt><trkpt lat="45.864384536589355" lon="12.102248587251548"><ele>122.0</ele><time>2026-04-15T07:34:48.999Z</time></trkpt><trkpt lat="45.86436825988199" lon="12.10212917189996"><ele>122.33333333333334</ele><time>2026-04-15T07:34:49.999Z</time></trkpt><trkpt lat="45.8643513108214" lon="12.102005640601813"><ele>122.66666666666667</ele><time>2026-04-15T07:34:50.999Z</time></trkpt><trkpt lat="45.86433459496618" lon="12.101869329903485"><ele>123.0</ele><time>2026-04-15T07:34:51.999Z</time></trkpt><trkpt lat="45.864319064173046" lon="12.101714281255301"><ele>123.0</ele><time>2026-04-15T07:34:52.999Z</time></trkpt><trkpt lat="45.86429947784071" lon="12.101541441445715"><ele>123.0</ele><time>2026-04-15T07:34:53.999Z</time></trkpt><trkpt lat="45.86427740884098" lon="12.101352630085882"><ele>123.0</ele><time>2026-04-15T07:34:54.999Z</time></trkpt><trkpt lat="45.86425296645531" lon="12.101146703074017"><ele>123.0</ele><time>2026-04-15T07:34:55.999Z</time></trkpt><trkpt lat="45.86422660450769" lon="12.100936873765681"><ele>122.75</ele><time>2026-04-15T07:34:56.999Z</time></trkpt><trkpt lat="45.86420348108123" lon="12.10073078046981"><ele>122.5</ele><time>2026-04-15T07:34:57.999Z</time></trkpt><trkpt lat="45.864179979049524" lon="12.100520762325765"><ele>122.25</ele><time>2026-04-15T07:34:58.999Z</time></trkpt><trkpt lat="45.86415511452173" lon="12.100302417938362"><ele>122.0</ele><time>2026-04-15T07:34:59.999Z</time></trkpt><trkpt lat="45.86412936880509" lon="12.100076234940055"><ele>122.66666666666666</ele><time>2026-04-15T07:35:00.999Z</time></trkpt><trkpt lat="45.86410163938255" lon="12.099839928579488"><ele>123.33333333333334</ele><time>2026-04-15T07:35:01.999Z</time></trkpt><trkpt lat="45.86407065363659" lon="12.099595117964727"><ele>124.0</ele><time>2026-04-15T07:35:02.999Z</time></trkpt><trkpt lat="45.86403897712596" lon="12.0993412345856"><ele>124.0</ele><time>2026-04-15T07:35:03.999Z</time></trkpt><trkpt lat="45.864006603727944" lon="12.099078095029556"><ele>124.0</ele><time>2026-04-15T07:35:04.999Z</time></trkpt><trkpt lat="45.86397513117874" lon="12.09880725725426"><ele>124.0</ele><time>2026-04-15T07:35:05.999Z</time></trkpt><trkpt lat="45.86394402989599" lon="12.09852659054699"><ele>124.33333333333334</ele><time>2026-04-15T07:35:06.999Z</time></trkpt><trkpt lat="45.86391634640824" lon="12.098248581262224"><ele>124.66666666666666</ele><time>2026-04-15T07:35:07.999Z</time></trkpt><trkpt lat="45.863891855820725" lon="12.09797149004493"><ele>125.0</ele><time>2026-04-15T07:35:08.999Z</time></trkpt><trkpt lat="45.86387033929829" lon="12.097692052914232"><ele>125.33333333333333</ele><time>2026-04-15T07:35:09.999Z</time></trkpt><trkpt lat="45.863857437980144" lon="12.097406826536321"><ele>125.66666666666666</ele><time>2026-04-15T07:35:10.999Z</time></trkpt><trkpt lat="45.86384758011495" lon="12.097116485199482"><ele>126.0</ele><time>2026-04-15T07:35:11.999Z</time></trkpt><trkpt lat="45.86384297406298" lon="12.096821066330557"><ele>126.0</ele><time>2026-04-15T07:35:12.999Z</time></trkpt><trkpt lat="45.86384460000875" lon="12.096524679458462"><ele>126.0</ele><time>2026-04-15T07:35:13.999Z</time></trkpt><trkpt lat="45.86385132649609" lon="12.096235617129206"><ele>126.0</ele><time>2026-04-15T07:35:14.999Z</time></trkpt><trkpt lat="45.86386233519618" lon="12.095954831151687"><ele>125.66666666666666</ele><time>2026-04-15T07:35:15.999Z</time></trkpt><trkpt lat="45.86387910378627" lon="12.09568042343097"><ele>125.33333333333333</ele><time>2026-04-15T07:35:16.999Z</time></trkpt><trkpt lat="45.86389770832208" lon="12.0954125967022"><ele>125.0</ele><time>2026-04-15T07:35:17.999Z</time></trkpt><trkpt lat="45.86392217497959" lon="12.09515177478149"><ele>125.66666666666666</ele><time>2026-04-15T07:35:18.999Z</time></trkpt><trkpt lat="45.863948034412175" lon="12.094890342862497"><ele>126.33333333333334</ele><time>2026-04-15T07:35:19.999Z</time></trkpt><trkpt lat="45.86397766792037" lon="12.094631538097486"><ele>127.0</ele><time>2026-04-15T07:35:20.999Z</time></trkpt><trkpt lat="45.86400687569151" lon="12.094372965187324"><ele>127.0</ele><time>2026-04-15T07:35:21.999Z</time></trkpt><trkpt lat="45.864039083343755" lon="12.09411654440301"><ele>127.0</ele><time>2026-04-15T07:35:22.999Z</time></trkpt><trkpt lat="45.86407202305683" lon="12.09386054440055"><ele>127.0</ele><time>2026-04-15T07:35:23.999Z</time></trkpt><trkpt lat="45.864103877478364" lon="12.093604726264793"><ele>126.66666666666667</ele><time>2026-04-15T07:35:24.999Z</time></trkpt><trkpt lat="45.864134829435514" lon="12.093350804083686"><ele>126.33333333333334</ele><time>2026-04-15T07:35:25.999Z</time></trkpt><trkpt lat="45.86416763296521" lon="12.093097401458254"><ele>126.0</ele><time>2026-04-15T07:35:26.999Z</time></trkpt><trkpt lat="45.86420136251955" lon="12.092843322475181"><ele>126.0</ele><time>2026-04-15T07:35:27.999Z</time></trkpt><trkpt lat="45.86423297206387" lon="12.092589726897778"><ele>126.0</ele><time>2026-04-15T07:35:28.999Z</time></trkpt><trkpt lat="45.86426398285368" lon="12.092336316777583"><ele>126.0</ele><time>2026-04-15T07:35:29.999Z</time></trkpt><trkpt lat="45.86428755265884" lon="12.092085220547968"><ele>126.0</ele><time>2026-04-15T07:35:30.999Z</time></trkpt><trkpt lat="45.864302524055866" lon="12.091837880393147"><ele>126.0</ele><time>2026-04-15T07:35:31.999Z</time></trkpt><trkpt lat="45.86430559293445" lon="12.091589331946958"><ele>126.0</ele><time>2026-04-15T07:35:32.999Z</time></trkpt><trkpt lat="45.864302654970274" lon="12.091338129477608"><ele>126.0</ele><time>2026-04-15T07:35:33.999Z</time></trkpt><trkpt lat="45.86429399809831" lon="12.091085088956994"><ele>126.0</ele><time>2026-04-15T07:35:34.999Z</time></trkpt><trkpt lat="45.864278670611505" lon="12.09082605854897"><ele>126.0</ele><time>2026-04-15T07:35:35.999Z</time></trkpt><trkpt lat="45.86426150475853" lon="12.090562516417634"><ele>126.0</ele><time>2026-04-15T07:35:37Z</time></trkpt><trkpt lat="45.86424423715117" lon="12.090293022152247"><ele>126.0</ele><time>2026-04-15T07:35:38Z</time></trkpt><trkpt lat="45.86423071907719" lon="12.090020459963691"><ele>126.0</ele><time>2026-04-15T07:35:39Z</time></trkpt><trkpt lat="45.86421144488281" lon="12.089745451038985"><ele>126.0</ele><time>2026-04-15T07:35:40Z</time></trkpt><trkpt lat="45.8641919420514" lon="12.089465313908253"><ele>126.0</ele><time>2026-04-15T07:35:41Z</time></trkpt><trkpt lat="45.86417016253396" lon="12.08918212811894"><ele>126.0</ele><time>2026-04-15T07:35:42Z</time></trkpt><trkpt lat="45.86413903231704" lon="12.088895278258745"><ele>126.33333333333334</ele><time>2026-04-15T07:35:43Z</time></trkpt><trkpt lat="45.8640983412965" lon="12.088607231929203"><ele>126.66666666666667</ele><time>2026-04-15T07:35:44Z</time></trkpt><trkpt lat="45.86404810014472" lon="12.08831824747841"><ele>127.0</ele><time>2026-04-15T07:35:45Z</time></trkpt><trkpt lat="45.86398710016594" lon="12.088030340279834"><ele>127.0</ele><time>2026-04-15T07:35:46Z</time></trkpt><trkpt lat="45.863917984906934" lon="12.087742124068326"><ele>127.0</ele><time>2026-04-15T07:35:47Z</time></trkpt><trkpt lat="45.863847198161146" lon="12.08745149092973"><ele>127.0</ele><time>2026-04-15T07:35:48Z</time></trkpt><trkpt lat="45.86377336196265" lon="12.087163521939718"><ele>127.0</ele><time>2026-04-15T07:35:49Z</time></trkpt><trkpt lat="45.863702670125335" lon="12.086874113773048"><ele>127.0</ele><time>2026-04-15T07:35:50Z</time></trkpt><trkpt lat="45.86363126875294" lon="12.086587267771357"><ele>127.0</ele><time>2026-04-15T07:35:51Z</time></trkpt><trkpt lat="45.86356081129241" lon="12.086299588147897"><ele>127.33333333333334</ele><time>2026-04-15T07:35:52Z</time></trkpt><trkpt lat="45.86348947830478" lon="12.086013248726685"><ele>127.66666666666666</ele><time>2026-04-15T07:35:53Z</time></trkpt><trkpt lat="45.86341780497577" lon="12.085727842552329"><ele>128.0</ele><time>2026-04-15T07:35:54Z</time></trkpt><trkpt lat="45.86334571462915" lon="12.085441291815718"><ele>128.0</ele><time>2026-04-15T07:35:55Z</time></trkpt><trkpt lat="45.86327515018615" lon="12.085153512272427"><ele>128.0</ele><time>2026-04-15T07:35:56Z</time></trkpt><trkpt lat="45.86320686442324" lon="12.0848643358092"><ele>128.0</ele><time>2026-04-15T07:35:57Z</time></trkpt><trkpt lat="45.86313709713759" lon="12.084576409211259"><ele>128.0</ele><time>2026-04-15T07:35:58Z</time></trkpt><trkpt lat="45.863069062695445" lon="12.08428806786174"><ele>128.0</ele><time>2026-04-15T07:35:59Z</time></trkpt><trkpt lat="45.86299743511515" lon="12.083998612099794"><ele>128.0</ele><time>2026-04-15T07:36:00Z</time></trkpt><trkpt lat="45.862926066066564" lon="12.083718478390276"><ele>128.66666666666666</ele><time>2026-04-15T07:36:01Z</time></trkpt><trkpt lat="45.86285793966138" lon="12.08344504484432"><ele>129.33333333333334</ele><time>2026-04-15T07:36:02Z</time></trkpt><trkpt lat="45.86279349151928" lon="12.083175405337323"><ele>130.0</ele><time>2026-04-15T07:36:03Z</time></trkpt><trkpt lat="45.862730892515565" lon="12.082909552982843"><ele>130.66666666666669</ele><time>2026-04-15T07:36:04Z</time></trkpt><trkpt lat="45.862665380540626" lon="12.082647682712734"><ele>131.33333333333334</ele><time>2026-04-15T07:36:05Z</time></trkpt><trkpt lat="45.86259524651972" lon="12.08238901830277"><ele>132.0</ele><time>2026-04-15T07:36:06Z</time></trkpt><trkpt lat="45.86252503622582" lon="12.082131745965897"><ele>132.0</ele><time>2026-04-15T07:36:07Z</time></trkpt><trkpt lat="45.86245414024035" lon="12.08187635467829"><ele>132.0</ele><time>2026-04-15T07:36:08Z</time></trkpt><trkpt lat="45.862380691013605" lon="12.081623251601076"><ele>132.0</ele><time>2026-04-15T07:36:09Z</time></trkpt><trkpt lat="45.86230731679476" lon="12.081371493495805"><ele>131.33333333333334</ele><time>2026-04-15T07:36:10Z</time></trkpt><trkpt lat="45.862236900098495" lon="12.08112008122652"><ele>130.66666666666669</ele><time>2026-04-15T07:36:11Z</time></trkpt><trkpt lat="45.86216607669401" lon="12.08087018681491"><ele>130.0</ele><time>2026-04-15T07:36:12Z</time></trkpt><trkpt lat="45.86209760519805" lon="12.080619839651632"><ele>130.0</ele><time>2026-04-15T07:36:13Z</time></trkpt><trkpt lat="45.862028634688656" lon="12.080370375007535"><ele>130.0</ele><time>2026-04-15T07:36:14Z</time></trkpt><trkpt lat="45.861959961033385" lon="12.08012146452289"><ele>130.0</ele><time>2026-04-15T07:36:15Z</time></trkpt><trkpt lat="45.86189056173157" lon="12.079875003399472"><ele>130.33333333333334</ele><time>2026-04-15T07:36:16Z</time></trkpt><trkpt lat="45.861822938791825" lon="12.079628453480234"><ele>130.66666666666666</ele><time>2026-04-15T07:36:17Z</time></trkpt><trkpt lat="45.86175424210764" lon="12.07938280522912"><ele>131.0</ele><time>2026-04-15T07:36:17.999Z</time></trkpt><trkpt lat="45.8616842857608" lon="12.079138699490581"><ele>131.66666666666666</ele><time>2026-04-15T07:36:18.999Z</time></trkpt><trkpt lat="45.861615118595886" lon="12.078898360543509"><ele>132.33333333333334</ele><time>2026-04-15T07:36:19.999Z</time></trkpt><trkpt lat="45.861547310724816" lon="12.078664314675299"><ele>133.0</ele><time>2026-04-15T07:36:20.999Z</time></trkpt><trkpt lat="45.861482644830154" lon="12.078435244849803"><ele>133.0</ele><time>2026-04-15T07:36:21.999Z</time></trkpt><trkpt lat="45.861419757003056" lon="12.07821270656815"><ele>133.0</ele><time>2026-04-15T07:36:22.999Z</time></trkpt><trkpt lat="45.86135767271547" lon="12.07799694057187"><ele>133.0</ele><time>2026-04-15T07:36:23.999Z</time></trkpt><trkpt lat="45.86129829671103" lon="12.07778974182257"><ele>133.0</ele><time>2026-04-15T07:36:24.999Z</time></trkpt><trkpt lat="45.86123385014444" lon="12.0775957224089"><ele>133.0</ele><time>2026-04-15T07:36:25.999Z</time></trkpt><trkpt lat="45.861166977828546" lon="12.0774185469417"><ele>133.0</ele><time>2026-04-15T07:36:26.999Z</time></trkpt><trkpt lat="45.86109380970919" lon="12.077255049455276"><ele>133.0</ele><time>2026-04-15T07:36:27.999Z</time></trkpt><trkpt lat="45.86101423368699" lon="12.07711326432982"><ele>133.20000000000002</ele><time>2026-04-15T07:36:28.999Z</time></trkpt><trkpt lat="45.860934673532896" lon="12.076987099974973"><ele>133.4</ele><time>2026-04-15T07:36:29.999Z</time></trkpt><trkpt lat="45.86086855757365" lon="12.076867829200332"><ele>133.60000000000002</ele><time>2026-04-15T07:36:30.999Z</time></trkpt><trkpt lat="45.86082244592833" lon="12.076743496363735"><ele>133.8</ele><time>2026-04-15T07:36:31.999Z</time></trkpt><trkpt lat="45.86079546975836" lon="12.076618641391898"><ele>134.0</ele><time>2026-04-15T07:36:32.999Z</time></trkpt><trkpt lat="45.86079158855182" lon="12.076498002990741"><ele>134.16666666666666</ele><time>2026-04-15T07:36:33.999Z</time></trkpt><trkpt lat="45.860789832819904" lon="12.076365188299372"><ele>134.33333333333331</ele><time>2026-04-15T07:36:34.999Z</time></trkpt><trkpt lat="45.860824940603166" lon="12.07627655358112"><ele>134.5</ele><time>2026-04-15T07:36:35.999Z</time></trkpt><trkpt lat="45.86093678015197" lon="12.076251077934108"><ele>134.66666666666666</ele><time>2026-04-15T07:36:36.999Z</time></trkpt><trkpt lat="45.86101986905968" lon="12.07621732474988"><ele>134.83333333333334</ele><time>2026-04-15T07:36:37.999Z</time></trkpt><trkpt lat="45.86110544559261" lon="12.076203178038615"><ele>135.0</ele><time>2026-04-15T07:36:38.999Z</time></trkpt><trkpt lat="45.861195083843434" lon="12.076194490208797"><ele>135.0</ele><time>2026-04-15T07:36:39.999Z</time></trkpt><trkpt lat="45.86128576648874" lon="12.076186699279782"><ele>135.0</ele><time>2026-04-15T07:36:40.999Z</time></trkpt><trkpt lat="45.86136227586923" lon="12.076184364375157"><ele>135.0</ele><time>2026-04-15T07:36:42.999Z</time></trkpt><trkpt lat="45.86143528371752" lon="12.076175914982931"><ele>135.0</ele><time>2026-04-15T07:36:50.999Z</time></trkpt><trkpt lat="45.861535570229144" lon="12.076162349302697"><ele>135.0</ele><time>2026-04-15T07:36:52.999Z</time></trkpt><trkpt lat="45.86164940371061" lon="12.076148740798333"><ele>135.0</ele><time>2026-04-15T07:36:54.999Z</time></trkpt><trkpt lat="45.86171349245632" lon="12.07614193604917"><ele>135.0</ele><time>2026-04-15T07:36:55.999Z</time></trkpt><trkpt lat="45.86178667985049" lon="12.076134379882642"><ele>135.0</ele><time>2026-04-15T07:36:56.999Z</time></trkpt><trkpt lat="45.86186485371244" lon="12.07612654136239"><ele>135.0</ele><time>2026-04-15T07:36:57.999Z</time></trkpt><trkpt lat="45.86194661354886" lon="12.076118525504517"><ele>135.0</ele><time>2026-04-15T07:36:58.999Z</time></trkpt><trkpt lat="45.86202326416602" lon="12.076109151693654"><ele>135.0</ele><time>2026-04-15T07:36:59.999Z</time></trkpt><trkpt lat="45.86209516465386" lon="12.076099717167976"><ele>135.0</ele><time>2026-04-15T07:37:00.999Z</time></trkpt><trkpt lat="45.86216304231988" lon="12.07608908691832"><ele>134.75</ele><time>2026-04-15T07:37:01.999Z</time></trkpt><trkpt lat="45.8622665837111" lon="12.076065726373107"><ele>134.5</ele><time>2026-04-15T07:37:03.999Z</time></trkpt><trkpt lat="45.8623888342778" lon="12.076020164284596"><ele>134.25</ele><time>2026-04-15T07:37:16.999Z</time></trkpt><trkpt lat="45.862330697802165" lon="12.075826249319702"><ele>134.0</ele><time>2026-04-15T07:37:17.999Z</time></trkpt><trkpt lat="45.862309959790835" lon="12.07566211838414"><ele>133.83333333333331</ele><time>2026-04-15T07:37:19.999Z</time></trkpt><trkpt lat="45.862275443463936" lon="12.075480779272267"><ele>133.66666666666666</ele><time>2026-04-15T07:37:21.999Z</time></trkpt><trkpt lat="45.862252098227735" lon="12.075367676271968"><ele>133.5</ele><time>2026-04-15T07:37:22.999Z</time></trkpt><trkpt lat="45.862232546811086" lon="12.075261062937132"><ele>133.33333333333334</ele><time>2026-04-15T07:37:23.999Z</time></trkpt><trkpt lat="45.862209638017" lon="12.075157338294606"><ele>133.16666666666669</ele><time>2026-04-15T07:37:24.999Z</time></trkpt><trkpt lat="45.862181662336795" lon="12.075054243182876"><ele>133.0</ele><time>2026-04-15T07:37:25.999Z</time></trkpt><trkpt lat="45.86215787291112" lon="12.074959394732362"><ele>133.0</ele><time>2026-04-15T07:37:26.999Z</time></trkpt><trkpt lat="45.862137696348974" lon="12.074869237921618"><ele>133.0</ele><time>2026-04-15T07:37:27.999Z</time></trkpt><trkpt lat="45.86212009955435" lon="12.07478136788058"><ele>133.0</ele><time>2026-04-15T07:37:28.999Z</time></trkpt><trkpt lat="45.862089426587865" lon="12.07462311985563"><ele>133.0</ele><time>2026-04-15T07:37:30.999Z</time></trkpt><trkpt lat="45.86205941893867" lon="12.074493303958866"><ele>133.0</ele><time>2026-04-15T07:37:32.999Z</time></trkpt><trkpt lat="45.86198833743711" lon="12.074442998326848"><ele>133.0</ele><time>2026-04-15T07:37:34.999Z</time></trkpt><trkpt lat="45.86201278239178" lon="12.074358902813858"><ele>133.0</ele><time>2026-04-15T07:37:38.999Z</time></trkpt><trkpt lat="45.86200958381723" lon="12.07425896151976"><ele>133.0</ele><time>2026-04-15T07:37:40.999Z</time></trkpt><trkpt lat="45.861845346732856" lon="12.074229852811264"><ele>133.0</ele><time>2026-04-15T07:37:45Z</time></trkpt></trkseg></trk></gpx>